<?xml version="1.0" encoding="UTF-8" standalone="no" ?>
<gpx xmlns="http://www.topografix.com/GPX/1/1" creator="www.cicloide.com" version="1.1" xmlns:xsi="http://www.w3.org/2001/XMLSchema-instance" xsi:schemaLocation="http://www.topografix.com/GPX/1/1 http://www.topografix.com/GPX/1/1/gpx.xsd">
  <trk>
    <name>www.cicloide.com 205563</name>
    <desc>www.cicloide.com 205563</desc>
    <trkseg>
      <trkpt lat="41.605928360" lon="2.540381900">
        <ele>118.86</ele>
        <time>2016-03-24T06:44:50Z</time>
      </trkpt>
      <trkpt lat="41.605926600" lon="2.540381480">
        <ele>118.86</ele>
        <time>2016-03-24T06:44:51Z</time>
      </trkpt>
      <trkpt lat="41.605917540" lon="2.540380140">
        <ele>118.86</ele>
        <time>2016-03-24T06:45:06Z</time>
      </trkpt>
      <trkpt lat="41.605920390" lon="2.540387600">
        <ele>118.86</ele>
        <time>2016-03-24T06:45:12Z</time>
      </trkpt>
      <trkpt lat="41.605920650" lon="2.540382490">
        <ele>118.86</ele>
        <time>2016-03-24T06:45:26Z</time>
      </trkpt>
      <trkpt lat="41.605913440" lon="2.540378380">
        <ele>118.86</ele>
        <time>2016-03-24T06:45:39Z</time>
      </trkpt>
      <trkpt lat="41.605920480" lon="2.540374190">
        <ele>118.86</ele>
        <time>2016-03-24T06:45:46Z</time>
      </trkpt>
      <trkpt lat="41.605920810" lon="2.540374860">
        <ele>118.86</ele>
        <time>2016-03-24T06:45:48Z</time>
      </trkpt>
      <trkpt lat="41.605991390" lon="2.540379300">
        <ele>118.86</ele>
        <time>2016-03-24T06:45:55Z</time>
      </trkpt>
      <trkpt lat="41.606227000" lon="2.540415850">
        <ele>118.38</ele>
        <time>2016-03-24T06:46:03Z</time>
      </trkpt>
      <trkpt lat="41.606390540" lon="2.540515760">
        <ele>118.38</ele>
        <time>2016-03-24T06:46:10Z</time>
      </trkpt>
      <trkpt lat="41.606530600" lon="2.540603860">
        <ele>119.34</ele>
        <time>2016-03-24T06:46:16Z</time>
      </trkpt>
      <trkpt lat="41.606715000" lon="2.540691610">
        <ele>119.82</ele>
        <time>2016-03-24T06:46:24Z</time>
      </trkpt>
      <trkpt lat="41.606867210" lon="2.540754730">
        <ele>119.82</ele>
        <time>2016-03-24T06:46:32Z</time>
      </trkpt>
      <trkpt lat="41.607036440" lon="2.540819940">
        <ele>120.78</ele>
        <time>2016-03-24T06:46:40Z</time>
      </trkpt>
      <trkpt lat="41.607268620" lon="2.540866290">
        <ele>121.26</ele>
        <time>2016-03-24T06:46:49Z</time>
      </trkpt>
      <trkpt lat="41.607519490" lon="2.540865870">
        <ele>122.22</ele>
        <time>2016-03-24T06:46:58Z</time>
      </trkpt>
      <trkpt lat="41.607683360" lon="2.540882140">
        <ele>122.71</ele>
        <time>2016-03-24T06:47:05Z</time>
      </trkpt>
      <trkpt lat="41.607862230" lon="2.540858410">
        <ele>123.67</ele>
        <time>2016-03-24T06:47:12Z</time>
      </trkpt>
      <trkpt lat="41.608040510" lon="2.540864450">
        <ele>124.15</ele>
        <time>2016-03-24T06:47:19Z</time>
      </trkpt>
      <trkpt lat="41.608207230" lon="2.540814660">
        <ele>124.63</ele>
        <time>2016-03-24T06:47:25Z</time>
      </trkpt>
      <trkpt lat="41.608434630" lon="2.540783060">
        <ele>125.59</ele>
        <time>2016-03-24T06:47:33Z</time>
      </trkpt>
      <trkpt lat="41.608616770" lon="2.540753890">
        <ele>126.55</ele>
        <time>2016-03-24T06:47:40Z</time>
      </trkpt>
      <trkpt lat="41.608825900" lon="2.540677530">
        <ele>127.03</ele>
        <time>2016-03-24T06:47:47Z</time>
      </trkpt>
      <trkpt lat="41.609064870" lon="2.540618860">
        <ele>127.99</ele>
        <time>2016-03-24T06:47:55Z</time>
      </trkpt>
      <trkpt lat="41.609293940" lon="2.540598910">
        <ele>128.47</ele>
        <time>2016-03-24T06:48:03Z</time>
      </trkpt>
      <trkpt lat="41.609453700" lon="2.540595730">
        <ele>129.43</ele>
        <time>2016-03-24T06:48:09Z</time>
      </trkpt>
      <trkpt lat="41.609693170" lon="2.540558760">
        <ele>130.40</ele>
        <time>2016-03-24T06:48:18Z</time>
      </trkpt>
      <trkpt lat="41.609890060" lon="2.540475860">
        <ele>131.84</ele>
        <time>2016-03-24T06:48:25Z</time>
      </trkpt>
      <trkpt lat="41.610049990" lon="2.540393550">
        <ele>132.32</ele>
        <time>2016-03-24T06:48:31Z</time>
      </trkpt>
      <trkpt lat="41.610216960" lon="2.540298340">
        <ele>132.80</ele>
        <time>2016-03-24T06:48:37Z</time>
      </trkpt>
      <trkpt lat="41.610421390" lon="2.540186770">
        <ele>133.76</ele>
        <time>2016-03-24T06:48:44Z</time>
      </trkpt>
      <trkpt lat="41.610700090" lon="2.540030790">
        <ele>135.20</ele>
        <time>2016-03-24T06:48:54Z</time>
      </trkpt>
      <trkpt lat="41.610895050" lon="2.539945880">
        <ele>136.16</ele>
        <time>2016-03-24T06:49:01Z</time>
      </trkpt>
      <trkpt lat="41.611150620" lon="2.539808080">
        <ele>136.64</ele>
        <time>2016-03-24T06:49:10Z</time>
      </trkpt>
      <trkpt lat="41.611376340" lon="2.539665000">
        <ele>137.61</ele>
        <time>2016-03-24T06:49:19Z</time>
      </trkpt>
      <trkpt lat="41.611573900" lon="2.539481440">
        <ele>138.57</ele>
        <time>2016-03-24T06:49:27Z</time>
      </trkpt>
      <trkpt lat="41.611769200" lon="2.539290830">
        <ele>140.01</ele>
        <time>2016-03-24T06:49:35Z</time>
      </trkpt>
      <trkpt lat="41.611942460" lon="2.539074330">
        <ele>140.49</ele>
        <time>2016-03-24T06:49:43Z</time>
      </trkpt>
      <trkpt lat="41.612097770" lon="2.538854800">
        <ele>141.93</ele>
        <time>2016-03-24T06:49:51Z</time>
      </trkpt>
      <trkpt lat="41.612194500" lon="2.538698060">
        <ele>142.89</ele>
        <time>2016-03-24T06:49:57Z</time>
      </trkpt>
      <trkpt lat="41.612386610" lon="2.538385670">
        <ele>143.85</ele>
        <time>2016-03-24T06:50:07Z</time>
      </trkpt>
      <trkpt lat="41.612605050" lon="2.538099850">
        <ele>144.82</ele>
        <time>2016-03-24T06:50:17Z</time>
      </trkpt>
      <trkpt lat="41.612825240" lon="2.537830700">
        <ele>146.26</ele>
        <time>2016-03-24T06:50:27Z</time>
      </trkpt>
      <trkpt lat="41.613055820" lon="2.537559630">
        <ele>147.22</ele>
        <time>2016-03-24T06:50:37Z</time>
      </trkpt>
      <trkpt lat="41.613262190" lon="2.537321670">
        <ele>148.18</ele>
        <time>2016-03-24T06:50:46Z</time>
      </trkpt>
      <trkpt lat="41.613502410" lon="2.537013890">
        <ele>149.14</ele>
        <time>2016-03-24T06:50:57Z</time>
      </trkpt>
      <trkpt lat="41.613600310" lon="2.536759500">
        <ele>150.10</ele>
        <time>2016-03-24T06:51:05Z</time>
      </trkpt>
      <trkpt lat="41.613653200" lon="2.536526810">
        <ele>150.10</ele>
        <time>2016-03-24T06:51:12Z</time>
      </trkpt>
      <trkpt lat="41.613768790" lon="2.536275360">
        <ele>151.54</ele>
        <time>2016-03-24T06:51:20Z</time>
      </trkpt>
      <trkpt lat="41.613855370" lon="2.536043180">
        <ele>152.03</ele>
        <time>2016-03-24T06:51:27Z</time>
      </trkpt>
      <trkpt lat="41.613970120" lon="2.535750480">
        <ele>153.47</ele>
        <time>2016-03-24T06:51:36Z</time>
      </trkpt>
      <trkpt lat="41.614051930" lon="2.535492820">
        <ele>153.95</ele>
        <time>2016-03-24T06:51:43Z</time>
      </trkpt>
      <trkpt lat="41.614113120" lon="2.535276570">
        <ele>154.43</ele>
        <time>2016-03-24T06:51:49Z</time>
      </trkpt>
      <trkpt lat="41.614200370" lon="2.534999970">
        <ele>155.39</ele>
        <time>2016-03-24T06:51:57Z</time>
      </trkpt>
      <trkpt lat="41.614283020" lon="2.534730740">
        <ele>156.83</ele>
        <time>2016-03-24T06:52:05Z</time>
      </trkpt>
      <trkpt lat="41.614381510" lon="2.534426650">
        <ele>157.79</ele>
        <time>2016-03-24T06:52:14Z</time>
      </trkpt>
      <trkpt lat="41.614448060" lon="2.534187010">
        <ele>158.75</ele>
        <time>2016-03-24T06:52:21Z</time>
      </trkpt>
      <trkpt lat="41.614521820" lon="2.533948210">
        <ele>159.24</ele>
        <time>2016-03-24T06:52:28Z</time>
      </trkpt>
      <trkpt lat="41.614617370" lon="2.533615360">
        <ele>160.68</ele>
        <time>2016-03-24T06:52:37Z</time>
      </trkpt>
      <trkpt lat="41.614687780" lon="2.533365830">
        <ele>161.16</ele>
        <time>2016-03-24T06:52:44Z</time>
      </trkpt>
      <trkpt lat="41.614784840" lon="2.533026030">
        <ele>161.64</ele>
        <time>2016-03-24T06:52:53Z</time>
      </trkpt>
      <trkpt lat="41.614887520" lon="2.532721510">
        <ele>163.08</ele>
        <time>2016-03-24T06:53:02Z</time>
      </trkpt>
      <trkpt lat="41.614950390" lon="2.532475760">
        <ele>163.56</ele>
        <time>2016-03-24T06:53:09Z</time>
      </trkpt>
      <trkpt lat="41.615030180" lon="2.532136710">
        <ele>164.52</ele>
        <time>2016-03-24T06:53:18Z</time>
      </trkpt>
      <trkpt lat="41.615081140" lon="2.531690460">
        <ele>165.48</ele>
        <time>2016-03-24T06:53:29Z</time>
      </trkpt>
      <trkpt lat="41.615116430" lon="2.531197680">
        <ele>166.93</ele>
        <time>2016-03-24T06:53:41Z</time>
      </trkpt>
      <trkpt lat="41.615173180" lon="2.530730900">
        <ele>168.37</ele>
        <time>2016-03-24T06:53:52Z</time>
      </trkpt>
      <trkpt lat="41.615197570" lon="2.530333850">
        <ele>169.33</ele>
        <time>2016-03-24T06:54:02Z</time>
      </trkpt>
      <trkpt lat="41.615186500" lon="2.530019360">
        <ele>170.29</ele>
        <time>2016-03-24T06:54:10Z</time>
      </trkpt>
      <trkpt lat="41.615200330" lon="2.529632030">
        <ele>171.25</ele>
        <time>2016-03-24T06:54:20Z</time>
      </trkpt>
      <trkpt lat="41.615216090" lon="2.529242520">
        <ele>172.69</ele>
        <time>2016-03-24T06:54:30Z</time>
      </trkpt>
      <trkpt lat="41.615234530" lon="2.528973630">
        <ele>173.66</ele>
        <time>2016-03-24T06:54:37Z</time>
      </trkpt>
      <trkpt lat="41.615310050" lon="2.528535420">
        <ele>174.62</ele>
        <time>2016-03-24T06:54:48Z</time>
      </trkpt>
      <trkpt lat="41.615389600" lon="2.528119600">
        <ele>175.58</ele>
        <time>2016-03-24T06:54:59Z</time>
      </trkpt>
      <trkpt lat="41.615473080" lon="2.527740230">
        <ele>176.54</ele>
        <time>2016-03-24T06:55:09Z</time>
      </trkpt>
      <trkpt lat="41.615533010" lon="2.527385760">
        <ele>177.50</ele>
        <time>2016-03-24T06:55:18Z</time>
      </trkpt>
      <trkpt lat="41.615586740" lon="2.527059710">
        <ele>178.94</ele>
        <time>2016-03-24T06:55:27Z</time>
      </trkpt>
      <trkpt lat="41.615606770" lon="2.526801040">
        <ele>180.38</ele>
        <time>2016-03-24T06:55:34Z</time>
      </trkpt>
      <trkpt lat="41.615577520" lon="2.526455120">
        <ele>181.35</ele>
        <time>2016-03-24T06:55:43Z</time>
      </trkpt>
      <trkpt lat="41.615539050" lon="2.526102160">
        <ele>181.83</ele>
        <time>2016-03-24T06:55:52Z</time>
      </trkpt>
      <trkpt lat="41.615530330" lon="2.525739390">
        <ele>183.27</ele>
        <time>2016-03-24T06:56:01Z</time>
      </trkpt>
      <trkpt lat="41.615526060" lon="2.525426580">
        <ele>184.23</ele>
        <time>2016-03-24T06:56:09Z</time>
      </trkpt>
      <trkpt lat="41.615555140" lon="2.525105800">
        <ele>185.19</ele>
        <time>2016-03-24T06:56:17Z</time>
      </trkpt>
      <trkpt lat="41.615581880" lon="2.524719560">
        <ele>186.15</ele>
        <time>2016-03-24T06:56:27Z</time>
      </trkpt>
      <trkpt lat="41.615609710" lon="2.524307010">
        <ele>187.59</ele>
        <time>2016-03-24T06:56:38Z</time>
      </trkpt>
      <trkpt lat="41.615632420" lon="2.524010200">
        <ele>189.04</ele>
        <time>2016-03-24T06:56:46Z</time>
      </trkpt>
      <trkpt lat="41.615652540" lon="2.523709040">
        <ele>190.48</ele>
        <time>2016-03-24T06:56:54Z</time>
      </trkpt>
      <trkpt lat="41.615680030" lon="2.523446440">
        <ele>190.96</ele>
        <time>2016-03-24T06:57:01Z</time>
      </trkpt>
      <trkpt lat="41.615717750" lon="2.523136890">
        <ele>191.92</ele>
        <time>2016-03-24T06:57:09Z</time>
      </trkpt>
      <trkpt lat="41.615749180" lon="2.522800270">
        <ele>193.36</ele>
        <time>2016-03-24T06:57:18Z</time>
      </trkpt>
      <trkpt lat="41.615788330" lon="2.522508580">
        <ele>194.80</ele>
        <time>2016-03-24T06:57:26Z</time>
      </trkpt>
      <trkpt lat="41.615823610" lon="2.522220580">
        <ele>195.77</ele>
        <time>2016-03-24T06:57:34Z</time>
      </trkpt>
      <trkpt lat="41.615865520" lon="2.521932240">
        <ele>196.25</ele>
        <time>2016-03-24T06:57:42Z</time>
      </trkpt>
      <trkpt lat="41.615909950" lon="2.521649940">
        <ele>196.73</ele>
        <time>2016-03-24T06:57:49Z</time>
      </trkpt>
      <trkpt lat="41.615955210" lon="2.521337380">
        <ele>197.69</ele>
        <time>2016-03-24T06:57:57Z</time>
      </trkpt>
      <trkpt lat="41.615999800" lon="2.521070080">
        <ele>197.69</ele>
        <time>2016-03-24T06:58:04Z</time>
      </trkpt>
      <trkpt lat="41.616065350" lon="2.520772780">
        <ele>198.17</ele>
        <time>2016-03-24T06:58:12Z</time>
      </trkpt>
      <trkpt lat="41.616156210" lon="2.520474300">
        <ele>199.13</ele>
        <time>2016-03-24T06:58:20Z</time>
      </trkpt>
      <trkpt lat="41.616244220" lon="2.520211270">
        <ele>199.61</ele>
        <time>2016-03-24T06:58:28Z</time>
      </trkpt>
      <trkpt lat="41.616301550" lon="2.520023850">
        <ele>200.57</ele>
        <time>2016-03-24T06:58:34Z</time>
      </trkpt>
      <trkpt lat="41.616372960" lon="2.519771980">
        <ele>201.05</ele>
        <time>2016-03-24T06:58:41Z</time>
      </trkpt>
      <trkpt lat="41.616443710" lon="2.519460170">
        <ele>202.01</ele>
        <time>2016-03-24T06:58:49Z</time>
      </trkpt>
      <trkpt lat="41.616499780" lon="2.519220530">
        <ele>202.98</ele>
        <time>2016-03-24T06:58:55Z</time>
      </trkpt>
      <trkpt lat="41.616553840" lon="2.518928760">
        <ele>202.98</ele>
        <time>2016-03-24T06:59:02Z</time>
      </trkpt>
      <trkpt lat="41.616622740" lon="2.518710490">
        <ele>203.46</ele>
        <time>2016-03-24T06:59:09Z</time>
      </trkpt>
      <trkpt lat="41.616682000" lon="2.518475050">
        <ele>203.46</ele>
        <time>2016-03-24T06:59:15Z</time>
      </trkpt>
      <trkpt lat="41.616722240" lon="2.518168100">
        <ele>203.46</ele>
        <time>2016-03-24T06:59:22Z</time>
      </trkpt>
      <trkpt lat="41.616722740" lon="2.517886050">
        <ele>204.42</ele>
        <time>2016-03-24T06:59:30Z</time>
      </trkpt>
      <trkpt lat="41.616736490" lon="2.517641210">
        <ele>205.38</ele>
        <time>2016-03-24T06:59:37Z</time>
      </trkpt>
      <trkpt lat="41.616747470" lon="2.517361840">
        <ele>206.34</ele>
        <time>2016-03-24T06:59:45Z</time>
      </trkpt>
      <trkpt lat="41.616773280" lon="2.517051880">
        <ele>207.78</ele>
        <time>2016-03-24T06:59:53Z</time>
      </trkpt>
      <trkpt lat="41.616814690" lon="2.516713420">
        <ele>208.74</ele>
        <time>2016-03-24T07:00:01Z</time>
      </trkpt>
      <trkpt lat="41.616837070" lon="2.516317540">
        <ele>209.70</ele>
        <time>2016-03-24T07:00:10Z</time>
      </trkpt>
      <trkpt lat="41.616848720" lon="2.515845220">
        <ele>210.67</ele>
        <time>2016-03-24T07:00:21Z</time>
      </trkpt>
      <trkpt lat="41.616871270" lon="2.515333840">
        <ele>212.59</ele>
        <time>2016-03-24T07:00:33Z</time>
      </trkpt>
      <trkpt lat="41.616876800" lon="2.514977700">
        <ele>213.07</ele>
        <time>2016-03-24T07:00:42Z</time>
      </trkpt>
      <trkpt lat="41.616882920" lon="2.514675860">
        <ele>214.03</ele>
        <time>2016-03-24T07:00:50Z</time>
      </trkpt>
      <trkpt lat="41.616889040" lon="2.514231200">
        <ele>215.47</ele>
        <time>2016-03-24T07:01:01Z</time>
      </trkpt>
      <trkpt lat="41.616889290" lon="2.513800540">
        <ele>216.91</ele>
        <time>2016-03-24T07:01:12Z</time>
      </trkpt>
      <trkpt lat="41.616887530" lon="2.513407850">
        <ele>218.36</ele>
        <time>2016-03-24T07:01:22Z</time>
      </trkpt>
      <trkpt lat="41.616884680" lon="2.513006520">
        <ele>219.32</ele>
        <time>2016-03-24T07:01:32Z</time>
      </trkpt>
      <trkpt lat="41.616849890" lon="2.512695470">
        <ele>220.76</ele>
        <time>2016-03-24T07:01:40Z</time>
      </trkpt>
      <trkpt lat="41.616787110" lon="2.512465560">
        <ele>220.76</ele>
        <time>2016-03-24T07:01:47Z</time>
      </trkpt>
      <trkpt lat="41.616671440" lon="2.512192810">
        <ele>222.68</ele>
        <time>2016-03-24T07:01:56Z</time>
      </trkpt>
      <trkpt lat="41.616610840" lon="2.512048140">
        <ele>223.16</ele>
        <time>2016-03-24T07:02:02Z</time>
      </trkpt>
      <trkpt lat="41.616524680" lon="2.511832300">
        <ele>223.64</ele>
        <time>2016-03-24T07:02:09Z</time>
      </trkpt>
      <trkpt lat="41.616435830" lon="2.511554860">
        <ele>224.61</ele>
        <time>2016-03-24T07:02:16Z</time>
      </trkpt>
      <trkpt lat="41.616429790" lon="2.511283960">
        <ele>224.61</ele>
        <time>2016-03-24T07:02:23Z</time>
      </trkpt>
      <trkpt lat="41.616453930" lon="2.511016580">
        <ele>226.53</ele>
        <time>2016-03-24T07:02:30Z</time>
      </trkpt>
      <trkpt lat="41.616523420" lon="2.510803680">
        <ele>227.49</ele>
        <time>2016-03-24T07:02:37Z</time>
      </trkpt>
      <trkpt lat="41.616626680" lon="2.510644420">
        <ele>229.41</ele>
        <time>2016-03-24T07:02:45Z</time>
      </trkpt>
      <trkpt lat="41.616673200" lon="2.510580300">
        <ele>230.37</ele>
        <time>2016-03-24T07:02:49Z</time>
      </trkpt>
      <trkpt lat="41.616728100" lon="2.510401850">
        <ele>232.78</ele>
        <time>2016-03-24T07:02:58Z</time>
      </trkpt>
      <trkpt lat="41.616766580" lon="2.510241170">
        <ele>233.74</ele>
        <time>2016-03-24T07:03:05Z</time>
      </trkpt>
      <trkpt lat="41.616767160" lon="2.509995330">
        <ele>236.14</ele>
        <time>2016-03-24T07:03:16Z</time>
      </trkpt>
      <trkpt lat="41.616816450" lon="2.509775470">
        <ele>238.06</ele>
        <time>2016-03-24T07:03:26Z</time>
      </trkpt>
      <trkpt lat="41.616897840" lon="2.509581510">
        <ele>238.54</ele>
        <time>2016-03-24T07:03:35Z</time>
      </trkpt>
      <trkpt lat="41.616900020" lon="2.509560720">
        <ele>238.54</ele>
        <time>2016-03-24T07:03:36Z</time>
      </trkpt>
      <trkpt lat="41.616837740" lon="2.509537840">
        <ele>239.02</ele>
        <time>2016-03-24T07:03:41Z</time>
      </trkpt>
      <trkpt lat="41.616761630" lon="2.509630130">
        <ele>240.47</ele>
        <time>2016-03-24T07:03:49Z</time>
      </trkpt>
      <trkpt lat="41.616660130" lon="2.509798520">
        <ele>241.43</ele>
        <time>2016-03-24T07:03:58Z</time>
      </trkpt>
      <trkpt lat="41.616585700" lon="2.509857360">
        <ele>241.91</ele>
        <time>2016-03-24T07:04:03Z</time>
      </trkpt>
      <trkpt lat="41.616473880" lon="2.509839090">
        <ele>242.87</ele>
        <time>2016-03-24T07:04:09Z</time>
      </trkpt>
      <trkpt lat="41.616406660" lon="2.509791140">
        <ele>243.35</ele>
        <time>2016-03-24T07:04:14Z</time>
      </trkpt>
      <trkpt lat="41.616340520" lon="2.509635410">
        <ele>245.27</ele>
        <time>2016-03-24T07:04:23Z</time>
      </trkpt>
      <trkpt lat="41.616334570" lon="2.509596600">
        <ele>245.75</ele>
        <time>2016-03-24T07:04:25Z</time>
      </trkpt>
      <trkpt lat="41.616327370" lon="2.509427280">
        <ele>247.68</ele>
        <time>2016-03-24T07:04:34Z</time>
      </trkpt>
      <trkpt lat="41.616306330" lon="2.509206500">
        <ele>250.08</ele>
        <time>2016-03-24T07:04:45Z</time>
      </trkpt>
      <trkpt lat="41.616297860" lon="2.509167700">
        <ele>250.56</ele>
        <time>2016-03-24T07:04:47Z</time>
      </trkpt>
      <trkpt lat="41.616268360" lon="2.508998880">
        <ele>252.96</ele>
        <time>2016-03-24T07:04:56Z</time>
      </trkpt>
      <trkpt lat="41.616225020" lon="2.508834930">
        <ele>255.37</ele>
        <time>2016-03-24T07:05:06Z</time>
      </trkpt>
      <trkpt lat="41.616203730" lon="2.508754550">
        <ele>256.33</ele>
        <time>2016-03-24T07:05:11Z</time>
      </trkpt>
      <trkpt lat="41.616170370" lon="2.508520280">
        <ele>258.25</ele>
        <time>2016-03-24T07:05:22Z</time>
      </trkpt>
      <trkpt lat="41.616121170" lon="2.508349450">
        <ele>260.65</ele>
        <time>2016-03-24T07:05:31Z</time>
      </trkpt>
      <trkpt lat="41.616077920" lon="2.508179720">
        <ele>261.62</ele>
        <time>2016-03-24T07:05:40Z</time>
      </trkpt>
      <trkpt lat="41.616035760" lon="2.508047870">
        <ele>263.54</ele>
        <time>2016-03-24T07:05:48Z</time>
      </trkpt>
      <trkpt lat="41.616027290" lon="2.507952150">
        <ele>264.02</ele>
        <time>2016-03-24T07:05:52Z</time>
      </trkpt>
      <trkpt lat="41.615959480" lon="2.507823490">
        <ele>265.46</ele>
        <time>2016-03-24T07:06:00Z</time>
      </trkpt>
      <trkpt lat="41.615887900" lon="2.507710000">
        <ele>266.90</ele>
        <time>2016-03-24T07:06:07Z</time>
      </trkpt>
      <trkpt lat="41.615840290" lon="2.507644790">
        <ele>268.83</ele>
        <time>2016-03-24T07:06:12Z</time>
      </trkpt>
      <trkpt lat="41.615817490" lon="2.507427950">
        <ele>269.31</ele>
        <time>2016-03-24T07:06:21Z</time>
      </trkpt>
      <trkpt lat="41.615810200" lon="2.507364660">
        <ele>269.31</ele>
        <time>2016-03-24T07:06:24Z</time>
      </trkpt>
      <trkpt lat="41.615764600" lon="2.507222170">
        <ele>270.75</ele>
        <time>2016-03-24T07:06:32Z</time>
      </trkpt>
      <trkpt lat="41.615720180" lon="2.507074320">
        <ele>272.67</ele>
        <time>2016-03-24T07:06:40Z</time>
      </trkpt>
      <trkpt lat="41.615725130" lon="2.506852950">
        <ele>274.11</ele>
        <time>2016-03-24T07:06:49Z</time>
      </trkpt>
      <trkpt lat="41.615738450" lon="2.506672570">
        <ele>276.52</ele>
        <time>2016-03-24T07:06:58Z</time>
      </trkpt>
      <trkpt lat="41.615756730" lon="2.506499480">
        <ele>278.92</ele>
        <time>2016-03-24T07:07:08Z</time>
      </trkpt>
      <trkpt lat="41.615802910" lon="2.506318850">
        <ele>281.80</ele>
        <time>2016-03-24T07:07:18Z</time>
      </trkpt>
      <trkpt lat="41.615813720" lon="2.506287170">
        <ele>282.28</ele>
        <time>2016-03-24T07:07:20Z</time>
      </trkpt>
      <trkpt lat="41.615891340" lon="2.506106290">
        <ele>284.69</ele>
        <time>2016-03-24T07:07:32Z</time>
      </trkpt>
      <trkpt lat="41.615938950" lon="2.505953660">
        <ele>286.13</ele>
        <time>2016-03-24T07:07:41Z</time>
      </trkpt>
      <trkpt lat="41.615987810" lon="2.505823650">
        <ele>287.57</ele>
        <time>2016-03-24T07:07:49Z</time>
      </trkpt>
      <trkpt lat="41.616027210" lon="2.505689370">
        <ele>289.49</ele>
        <time>2016-03-24T07:07:58Z</time>
      </trkpt>
      <trkpt lat="41.616061070" lon="2.505568510">
        <ele>291.42</ele>
        <time>2016-03-24T07:08:06Z</time>
      </trkpt>
      <trkpt lat="41.616096020" lon="2.505439590">
        <ele>292.38</ele>
        <time>2016-03-24T07:08:14Z</time>
      </trkpt>
      <trkpt lat="41.616126700" lon="2.505284950">
        <ele>294.30</ele>
        <time>2016-03-24T07:08:24Z</time>
      </trkpt>
      <trkpt lat="41.616147740" lon="2.505141700">
        <ele>297.18</ele>
        <time>2016-03-24T07:08:33Z</time>
      </trkpt>
      <trkpt lat="41.616160400" lon="2.505052940">
        <ele>297.67</ele>
        <time>2016-03-24T07:08:37Z</time>
      </trkpt>
      <trkpt lat="41.616105580" lon="2.504905750">
        <ele>298.15</ele>
        <time>2016-03-24T07:08:44Z</time>
      </trkpt>
      <trkpt lat="41.615970040" lon="2.504858560">
        <ele>299.59</ele>
        <time>2016-03-24T07:08:53Z</time>
      </trkpt>
      <trkpt lat="41.615829400" lon="2.504845320">
        <ele>300.07</ele>
        <time>2016-03-24T07:09:01Z</time>
      </trkpt>
      <trkpt lat="41.615634850" lon="2.504851440">
        <ele>301.99</ele>
        <time>2016-03-24T07:09:13Z</time>
      </trkpt>
      <trkpt lat="41.615467300" lon="2.504858310">
        <ele>304.39</ele>
        <time>2016-03-24T07:09:24Z</time>
      </trkpt>
      <trkpt lat="41.615382810" lon="2.504773650">
        <ele>304.88</ele>
        <time>2016-03-24T07:09:31Z</time>
      </trkpt>
      <trkpt lat="41.615369980" lon="2.504630240">
        <ele>306.80</ele>
        <time>2016-03-24T07:09:39Z</time>
      </trkpt>
      <trkpt lat="41.615354900" lon="2.504509540">
        <ele>308.24</ele>
        <time>2016-03-24T07:09:46Z</time>
      </trkpt>
      <trkpt lat="41.615357160" lon="2.504360000">
        <ele>311.12</ele>
        <time>2016-03-24T07:09:54Z</time>
      </trkpt>
      <trkpt lat="41.615376860" lon="2.504152720">
        <ele>313.05</ele>
        <time>2016-03-24T07:10:04Z</time>
      </trkpt>
      <trkpt lat="41.615395970" lon="2.504024390">
        <ele>314.97</ele>
        <time>2016-03-24T07:10:12Z</time>
      </trkpt>
      <trkpt lat="41.615407620" lon="2.503942750">
        <ele>315.93</ele>
        <time>2016-03-24T07:10:17Z</time>
      </trkpt>
      <trkpt lat="41.615416250" lon="2.503752650">
        <ele>318.81</ele>
        <time>2016-03-24T07:10:27Z</time>
      </trkpt>
      <trkpt lat="41.615405780" lon="2.503585350">
        <ele>320.74</ele>
        <time>2016-03-24T07:10:36Z</time>
      </trkpt>
      <trkpt lat="41.615383560" lon="2.503378990">
        <ele>321.22</ele>
        <time>2016-03-24T07:10:46Z</time>
      </trkpt>
      <trkpt lat="41.615324390" lon="2.503156280">
        <ele>321.22</ele>
        <time>2016-03-24T07:10:52Z</time>
      </trkpt>
      <trkpt lat="41.615194470" lon="2.502943550">
        <ele>321.70</ele>
        <time>2016-03-24T07:10:58Z</time>
      </trkpt>
      <trkpt lat="41.615114920" lon="2.502630230">
        <ele>321.70</ele>
        <time>2016-03-24T07:11:05Z</time>
      </trkpt>
      <trkpt lat="41.615046280" lon="2.502335610">
        <ele>322.18</ele>
        <time>2016-03-24T07:11:13Z</time>
      </trkpt>
      <trkpt lat="41.614974860" lon="2.502133520">
        <ele>323.62</ele>
        <time>2016-03-24T07:11:20Z</time>
      </trkpt>
      <trkpt lat="41.614955330" lon="2.501907210">
        <ele>325.06</ele>
        <time>2016-03-24T07:11:27Z</time>
      </trkpt>
      <trkpt lat="41.614962120" lon="2.501684500">
        <ele>325.06</ele>
        <time>2016-03-24T07:11:33Z</time>
      </trkpt>
      <trkpt lat="41.614965310" lon="2.501629930">
        <ele>325.06</ele>
        <time>2016-03-24T07:11:34Z</time>
      </trkpt>
      <trkpt lat="41.614823990" lon="2.501511830">
        <ele>325.06</ele>
        <time>2016-03-24T07:11:39Z</time>
      </trkpt>
      <trkpt lat="41.614635560" lon="2.501417790">
        <ele>325.54</ele>
        <time>2016-03-24T07:11:46Z</time>
      </trkpt>
      <trkpt lat="41.614461220" lon="2.501248730">
        <ele>326.99</ele>
        <time>2016-03-24T07:11:55Z</time>
      </trkpt>
      <trkpt lat="41.614401290" lon="2.501200360">
        <ele>327.47</ele>
        <time>2016-03-24T07:11:59Z</time>
      </trkpt>
      <trkpt lat="41.614353590" lon="2.501130120">
        <ele>328.43</ele>
        <time>2016-03-24T07:12:04Z</time>
      </trkpt>
      <trkpt lat="41.614287880" lon="2.500965000">
        <ele>329.87</ele>
        <time>2016-03-24T07:12:12Z</time>
      </trkpt>
      <trkpt lat="41.614237420" lon="2.500819660">
        <ele>331.31</ele>
        <time>2016-03-24T07:12:20Z</time>
      </trkpt>
      <trkpt lat="41.614164330" lon="2.500688560">
        <ele>334.20</ele>
        <time>2016-03-24T07:12:29Z</time>
      </trkpt>
      <trkpt lat="41.614104570" lon="2.500586390">
        <ele>335.64</ele>
        <time>2016-03-24T07:12:36Z</time>
      </trkpt>
      <trkpt lat="41.614038270" lon="2.500471050">
        <ele>337.56</ele>
        <time>2016-03-24T07:12:45Z</time>
      </trkpt>
      <trkpt lat="41.614020830" lon="2.500447750">
        <ele>338.52</ele>
        <time>2016-03-24T07:12:47Z</time>
      </trkpt>
      <trkpt lat="41.613957300" lon="2.500313720">
        <ele>340.44</ele>
        <time>2016-03-24T07:12:56Z</time>
      </trkpt>
      <trkpt lat="41.613915810" lon="2.500235690">
        <ele>341.89</ele>
        <time>2016-03-24T07:13:02Z</time>
      </trkpt>
      <trkpt lat="41.613844650" lon="2.500109960">
        <ele>343.81</ele>
        <time>2016-03-24T07:13:11Z</time>
      </trkpt>
      <trkpt lat="41.613842720" lon="2.500093450">
        <ele>343.81</ele>
        <time>2016-03-24T07:13:12Z</time>
      </trkpt>
      <trkpt lat="41.613866190" lon="2.500031000">
        <ele>345.25</ele>
        <time>2016-03-24T07:13:17Z</time>
      </trkpt>
      <trkpt lat="41.613955450" lon="2.500092110">
        <ele>347.17</ele>
        <time>2016-03-24T07:13:26Z</time>
      </trkpt>
      <trkpt lat="41.614009010" lon="2.500167710">
        <ele>349.10</ele>
        <time>2016-03-24T07:13:32Z</time>
      </trkpt>
      <trkpt lat="41.614148150" lon="2.500254720">
        <ele>350.54</ele>
        <time>2016-03-24T07:13:43Z</time>
      </trkpt>
      <trkpt lat="41.614268100" lon="2.500275420">
        <ele>352.46</ele>
        <time>2016-03-24T07:13:52Z</time>
      </trkpt>
      <trkpt lat="41.614372200" lon="2.500339040">
        <ele>354.38</ele>
        <time>2016-03-24T07:14:01Z</time>
      </trkpt>
      <trkpt lat="41.614479410" lon="2.500411790">
        <ele>355.83</ele>
        <time>2016-03-24T07:14:10Z</time>
      </trkpt>
      <trkpt lat="41.614581160" lon="2.500518580">
        <ele>358.23</ele>
        <time>2016-03-24T07:14:20Z</time>
      </trkpt>
      <trkpt lat="41.614681830" lon="2.500567700">
        <ele>359.67</ele>
        <time>2016-03-24T07:14:28Z</time>
      </trkpt>
      <trkpt lat="41.614791550" lon="2.500539780">
        <ele>360.63</ele>
        <time>2016-03-24T07:14:35Z</time>
      </trkpt>
      <trkpt lat="41.614958940" lon="2.500499890">
        <ele>361.11</ele>
        <time>2016-03-24T07:14:43Z</time>
      </trkpt>
      <trkpt lat="41.615093720" lon="2.500584380">
        <ele>361.59</ele>
        <time>2016-03-24T07:14:49Z</time>
      </trkpt>
      <trkpt lat="41.615242330" lon="2.500580440">
        <ele>362.55</ele>
        <time>2016-03-24T07:14:56Z</time>
      </trkpt>
      <trkpt lat="41.615345760" lon="2.500511790">
        <ele>364.00</ele>
        <time>2016-03-24T07:15:03Z</time>
      </trkpt>
      <trkpt lat="41.615488590" lon="2.500454790">
        <ele>364.96</ele>
        <time>2016-03-24T07:15:11Z</time>
      </trkpt>
      <trkpt lat="41.615651780" lon="2.500467530">
        <ele>365.92</ele>
        <time>2016-03-24T07:15:20Z</time>
      </trkpt>
      <trkpt lat="41.615726050" lon="2.500469460">
        <ele>366.88</ele>
        <time>2016-03-24T07:15:25Z</time>
      </trkpt>
      <trkpt lat="41.615771560" lon="2.500428470">
        <ele>367.84</ele>
        <time>2016-03-24T07:15:29Z</time>
      </trkpt>
      <trkpt lat="41.615795870" lon="2.500362000">
        <ele>369.28</ele>
        <time>2016-03-24T07:15:33Z</time>
      </trkpt>
      <trkpt lat="41.615763770" lon="2.500294530">
        <ele>370.24</ele>
        <time>2016-03-24T07:15:38Z</time>
      </trkpt>
      <trkpt lat="41.615640550" lon="2.500259490">
        <ele>372.17</ele>
        <time>2016-03-24T07:15:47Z</time>
      </trkpt>
      <trkpt lat="41.615571900" lon="2.500264520">
        <ele>374.09</ele>
        <time>2016-03-24T07:15:52Z</time>
      </trkpt>
      <trkpt lat="41.615442490" lon="2.500262590">
        <ele>375.53</ele>
        <time>2016-03-24T07:16:01Z</time>
      </trkpt>
      <trkpt lat="41.615300410" lon="2.500256220">
        <ele>377.45</ele>
        <time>2016-03-24T07:16:10Z</time>
      </trkpt>
      <trkpt lat="41.615272000" lon="2.500243230">
        <ele>377.94</ele>
        <time>2016-03-24T07:16:12Z</time>
      </trkpt>
      <trkpt lat="41.615173180" lon="2.500103510">
        <ele>379.38</ele>
        <time>2016-03-24T07:16:21Z</time>
      </trkpt>
      <trkpt lat="41.615063460" lon="2.499983980">
        <ele>380.82</ele>
        <time>2016-03-24T07:16:30Z</time>
      </trkpt>
      <trkpt lat="41.614944690" lon="2.500022540">
        <ele>382.74</ele>
        <time>2016-03-24T07:16:38Z</time>
      </trkpt>
      <trkpt lat="41.614819460" lon="2.500014660">
        <ele>385.15</ele>
        <time>2016-03-24T07:16:47Z</time>
      </trkpt>
      <trkpt lat="41.614742350" lon="2.499935110">
        <ele>387.07</ele>
        <time>2016-03-24T07:16:54Z</time>
      </trkpt>
      <trkpt lat="41.614655510" lon="2.499770580">
        <ele>389.95</ele>
        <time>2016-03-24T07:17:05Z</time>
      </trkpt>
      <trkpt lat="41.614602620" lon="2.499630520">
        <ele>392.36</ele>
        <time>2016-03-24T07:17:14Z</time>
      </trkpt>
      <trkpt lat="41.614574460" lon="2.499447040">
        <ele>395.24</ele>
        <time>2016-03-24T07:17:24Z</time>
      </trkpt>
      <trkpt lat="41.614593740" lon="2.499282410">
        <ele>396.68</ele>
        <time>2016-03-24T07:17:33Z</time>
      </trkpt>
      <trkpt lat="41.614641680" lon="2.499053170">
        <ele>397.64</ele>
        <time>2016-03-24T07:17:43Z</time>
      </trkpt>
      <trkpt lat="41.614673030" lon="2.498830290">
        <ele>399.57</ele>
        <time>2016-03-24T07:17:53Z</time>
      </trkpt>
      <trkpt lat="41.614688030" lon="2.498596100">
        <ele>401.97</ele>
        <time>2016-03-24T07:18:04Z</time>
      </trkpt>
      <trkpt lat="41.614716110" lon="2.498362500">
        <ele>403.41</ele>
        <time>2016-03-24T07:18:15Z</time>
      </trkpt>
      <trkpt lat="41.614724240" lon="2.498149600">
        <ele>405.33</ele>
        <time>2016-03-24T07:18:25Z</time>
      </trkpt>
      <trkpt lat="41.614686190" lon="2.497875850">
        <ele>407.26</ele>
        <time>2016-03-24T07:18:36Z</time>
      </trkpt>
      <trkpt lat="41.614608240" lon="2.497630930">
        <ele>405.81</ele>
        <time>2016-03-24T07:18:41Z</time>
      </trkpt>
      <trkpt lat="41.614587450" lon="2.497577700">
        <ele>405.33</ele>
        <time>2016-03-24T07:18:42Z</time>
      </trkpt>
      <trkpt lat="41.614406740" lon="2.497437640">
        <ele>402.45</ele>
        <time>2016-03-24T07:18:46Z</time>
      </trkpt>
      <trkpt lat="41.614272290" lon="2.497517100">
        <ele>401.97</ele>
        <time>2016-03-24T07:18:49Z</time>
      </trkpt>
      <trkpt lat="41.614201040" lon="2.497613490">
        <ele>403.41</ele>
        <time>2016-03-24T07:18:52Z</time>
      </trkpt>
      <trkpt lat="41.614043630" lon="2.497742160">
        <ele>405.81</ele>
        <time>2016-03-24T07:19:00Z</time>
      </trkpt>
      <trkpt lat="41.613866520" lon="2.497793960">
        <ele>408.22</ele>
        <time>2016-03-24T07:19:08Z</time>
      </trkpt>
      <trkpt lat="41.613763430" lon="2.497721030">
        <ele>409.18</ele>
        <time>2016-03-24T07:19:14Z</time>
      </trkpt>
      <trkpt lat="41.613608360" lon="2.497484080">
        <ele>411.10</ele>
        <time>2016-03-24T07:19:24Z</time>
      </trkpt>
      <trkpt lat="41.613453880" lon="2.497343680">
        <ele>412.54</ele>
        <time>2016-03-24T07:19:32Z</time>
      </trkpt>
      <trkpt lat="41.613308790" lon="2.497368410">
        <ele>413.02</ele>
        <time>2016-03-24T07:19:38Z</time>
      </trkpt>
      <trkpt lat="41.613155490" lon="2.497396490">
        <ele>414.95</ele>
        <time>2016-03-24T07:19:45Z</time>
      </trkpt>
      <trkpt lat="41.613041740" lon="2.497318120">
        <ele>415.91</ele>
        <time>2016-03-24T07:19:51Z</time>
      </trkpt>
      <trkpt lat="41.612988180" lon="2.497225080">
        <ele>416.39</ele>
        <time>2016-03-24T07:19:55Z</time>
      </trkpt>
      <trkpt lat="41.612900420" lon="2.497041680">
        <ele>418.31</ele>
        <time>2016-03-24T07:20:03Z</time>
      </trkpt>
      <trkpt lat="41.612812920" lon="2.496825760">
        <ele>420.71</ele>
        <time>2016-03-24T07:20:12Z</time>
      </trkpt>
      <trkpt lat="41.612806630" lon="2.496801120">
        <ele>420.71</ele>
        <time>2016-03-24T07:20:13Z</time>
      </trkpt>
      <trkpt lat="41.612744860" lon="2.496556870">
        <ele>422.16</ele>
        <time>2016-03-24T07:20:22Z</time>
      </trkpt>
      <trkpt lat="41.612664140" lon="2.496339110">
        <ele>424.08</ele>
        <time>2016-03-24T07:20:30Z</time>
      </trkpt>
      <trkpt lat="41.612591630" lon="2.496072400">
        <ele>425.52</ele>
        <time>2016-03-24T07:20:39Z</time>
      </trkpt>
      <trkpt lat="41.612585350" lon="2.495878690">
        <ele>427.44</ele>
        <time>2016-03-24T07:20:47Z</time>
      </trkpt>
      <trkpt lat="41.612589460" lon="2.495819930">
        <ele>427.44</ele>
        <time>2016-03-24T07:20:53Z</time>
      </trkpt>
      <trkpt lat="41.612581910" lon="2.495781210">
        <ele>427.44</ele>
        <time>2016-03-24T07:21:03Z</time>
      </trkpt>
      <trkpt lat="41.612587610" lon="2.495772580">
        <ele>427.44</ele>
        <time>2016-03-24T07:21:18Z</time>
      </trkpt>
      <trkpt lat="41.612606970" lon="2.495768550">
        <ele>426.96</ele>
        <time>2016-03-24T07:21:30Z</time>
      </trkpt>
      <trkpt lat="41.612609910" lon="2.495769560">
        <ele>426.96</ele>
        <time>2016-03-24T07:21:40Z</time>
      </trkpt>
      <trkpt lat="41.612613760" lon="2.495758490">
        <ele>426.96</ele>
        <time>2016-03-24T07:21:55Z</time>
      </trkpt>
      <trkpt lat="41.612594650" lon="2.495787920">
        <ele>426.96</ele>
        <time>2016-03-24T07:22:13Z</time>
      </trkpt>
      <trkpt lat="41.612567240" lon="2.495796130">
        <ele>427.44</ele>
        <time>2016-03-24T07:22:34Z</time>
      </trkpt>
      <trkpt lat="41.612567660" lon="2.495801750">
        <ele>427.44</ele>
        <time>2016-03-24T07:22:53Z</time>
      </trkpt>
      <trkpt lat="41.612578480" lon="2.495776850">
        <ele>427.44</ele>
        <time>2016-03-24T07:23:08Z</time>
      </trkpt>
      <trkpt lat="41.612585350" lon="2.495761510">
        <ele>427.44</ele>
        <time>2016-03-24T07:23:26Z</time>
      </trkpt>
      <trkpt lat="41.612599680" lon="2.495782050">
        <ele>427.44</ele>
        <time>2016-03-24T07:23:42Z</time>
      </trkpt>
      <trkpt lat="41.612593900" lon="2.495767210">
        <ele>427.44</ele>
        <time>2016-03-24T07:23:59Z</time>
      </trkpt>
      <trkpt lat="41.612591890" lon="2.495781290">
        <ele>427.44</ele>
        <time>2016-03-24T07:24:22Z</time>
      </trkpt>
      <trkpt lat="41.612614430" lon="2.495786660">
        <ele>427.44</ele>
        <time>2016-03-24T07:24:42Z</time>
      </trkpt>
      <trkpt lat="41.612613260" lon="2.495780790">
        <ele>427.92</ele>
        <time>2016-03-24T07:24:59Z</time>
      </trkpt>
      <trkpt lat="41.612609070" lon="2.495770650">
        <ele>427.92</ele>
        <time>2016-03-24T07:25:19Z</time>
      </trkpt>
      <trkpt lat="41.612590290" lon="2.495760590">
        <ele>427.92</ele>
        <time>2016-03-24T07:25:29Z</time>
      </trkpt>
      <trkpt lat="41.612614430" lon="2.495781550">
        <ele>426.48</ele>
        <time>2016-03-24T07:25:38Z</time>
      </trkpt>
      <trkpt lat="41.612637990" lon="2.495789260">
        <ele>426.48</ele>
        <time>2016-03-24T07:25:46Z</time>
      </trkpt>
      <trkpt lat="41.612664220" lon="2.495783470">
        <ele>426.48</ele>
        <time>2016-03-24T07:25:57Z</time>
      </trkpt>
      <trkpt lat="41.612745190" lon="2.495792690">
        <ele>426.48</ele>
        <time>2016-03-24T07:26:03Z</time>
      </trkpt>
      <trkpt lat="41.612848210" lon="2.495805520">
        <ele>427.92</ele>
        <time>2016-03-24T07:26:10Z</time>
      </trkpt>
      <trkpt lat="41.612866560" lon="2.495805100">
        <ele>427.92</ele>
        <time>2016-03-24T07:26:11Z</time>
      </trkpt>
      <trkpt lat="41.613011650" lon="2.495840810">
        <ele>429.37</ele>
        <time>2016-03-24T07:26:20Z</time>
      </trkpt>
      <trkpt lat="41.613124640" lon="2.495887910">
        <ele>430.33</ele>
        <time>2016-03-24T07:26:27Z</time>
      </trkpt>
      <trkpt lat="41.613271070" lon="2.495931500">
        <ele>431.29</ele>
        <time>2016-03-24T07:26:35Z</time>
      </trkpt>
      <trkpt lat="41.613332430" lon="2.495943820">
        <ele>431.77</ele>
        <time>2016-03-24T07:26:38Z</time>
      </trkpt>
      <trkpt lat="41.613511970" lon="2.495896880">
        <ele>432.25</ele>
        <time>2016-03-24T07:26:47Z</time>
      </trkpt>
      <trkpt lat="41.613656300" lon="2.495853460">
        <ele>432.73</ele>
        <time>2016-03-24T07:26:54Z</time>
      </trkpt>
      <trkpt lat="41.613794350" lon="2.495807190">
        <ele>433.69</ele>
        <time>2016-03-24T07:27:01Z</time>
      </trkpt>
      <trkpt lat="41.613987050" lon="2.495734520">
        <ele>435.13</ele>
        <time>2016-03-24T07:27:10Z</time>
      </trkpt>
      <trkpt lat="41.614190480" lon="2.495681800">
        <ele>436.10</ele>
        <time>2016-03-24T07:27:20Z</time>
      </trkpt>
      <trkpt lat="41.614368430" lon="2.495658250">
        <ele>437.54</ele>
        <time>2016-03-24T07:27:29Z</time>
      </trkpt>
      <trkpt lat="41.614508830" lon="2.495665460">
        <ele>439.46</ele>
        <time>2016-03-24T07:27:37Z</time>
      </trkpt>
      <trkpt lat="41.614614190" lon="2.495641820">
        <ele>440.42</ele>
        <time>2016-03-24T07:27:44Z</time>
      </trkpt>
      <trkpt lat="41.614726340" lon="2.495590190">
        <ele>441.86</ele>
        <time>2016-03-24T07:27:51Z</time>
      </trkpt>
      <trkpt lat="41.614753660" lon="2.495575180">
        <ele>442.34</ele>
        <time>2016-03-24T07:27:53Z</time>
      </trkpt>
      <trkpt lat="41.614897920" lon="2.495505110">
        <ele>445.23</ele>
        <time>2016-03-24T07:28:02Z</time>
      </trkpt>
      <trkpt lat="41.615077540" lon="2.495480130">
        <ele>445.71</ele>
        <time>2016-03-24T07:28:10Z</time>
      </trkpt>
      <trkpt lat="41.615194720" lon="2.495607200">
        <ele>448.11</ele>
        <time>2016-03-24T07:28:19Z</time>
      </trkpt>
      <trkpt lat="41.615260270" lon="2.495683060">
        <ele>449.55</ele>
        <time>2016-03-24T07:28:25Z</time>
      </trkpt>
      <trkpt lat="41.615348860" lon="2.495810550">
        <ele>450.52</ele>
        <time>2016-03-24T07:28:33Z</time>
      </trkpt>
      <trkpt lat="41.615427990" lon="2.495936690">
        <ele>452.44</ele>
        <time>2016-03-24T07:28:41Z</time>
      </trkpt>
      <trkpt lat="41.615504350" lon="2.496113550">
        <ele>454.36</ele>
        <time>2016-03-24T07:28:52Z</time>
      </trkpt>
      <trkpt lat="41.615550870" lon="2.496279350">
        <ele>455.32</ele>
        <time>2016-03-24T07:29:00Z</time>
      </trkpt>
      <trkpt lat="41.615631160" lon="2.496477080">
        <ele>456.76</ele>
        <time>2016-03-24T07:29:09Z</time>
      </trkpt>
      <trkpt lat="41.615701070" lon="2.496606660">
        <ele>459.17</ele>
        <time>2016-03-24T07:29:18Z</time>
      </trkpt>
      <trkpt lat="41.615786560" lon="2.496752000">
        <ele>460.61</ele>
        <time>2016-03-24T07:29:26Z</time>
      </trkpt>
      <trkpt lat="41.615897630" lon="2.496815120">
        <ele>461.57</ele>
        <time>2016-03-24T07:29:34Z</time>
      </trkpt>
      <trkpt lat="41.616045900" lon="2.496776730">
        <ele>463.01</ele>
        <time>2016-03-24T07:29:44Z</time>
      </trkpt>
      <trkpt lat="41.616149670" lon="2.496691230">
        <ele>465.42</ele>
        <time>2016-03-24T07:29:53Z</time>
      </trkpt>
      <trkpt lat="41.616262320" lon="2.496529710">
        <ele>466.38</ele>
        <time>2016-03-24T07:30:03Z</time>
      </trkpt>
      <trkpt lat="41.616329630" lon="2.496301310">
        <ele>467.82</ele>
        <time>2016-03-24T07:30:14Z</time>
      </trkpt>
      <trkpt lat="41.616359890" lon="2.496071560">
        <ele>469.74</ele>
        <time>2016-03-24T07:30:25Z</time>
      </trkpt>
      <trkpt lat="41.616369610" lon="2.495879780">
        <ele>471.66</ele>
        <time>2016-03-24T07:30:35Z</time>
      </trkpt>
      <trkpt lat="41.616363160" lon="2.495714240">
        <ele>473.59</ele>
        <time>2016-03-24T07:30:44Z</time>
      </trkpt>
      <trkpt lat="41.616396100" lon="2.495564790">
        <ele>475.03</ele>
        <time>2016-03-24T07:30:51Z</time>
      </trkpt>
      <trkpt lat="41.616439770" lon="2.495501510">
        <ele>475.51</ele>
        <time>2016-03-24T07:30:55Z</time>
      </trkpt>
      <trkpt lat="41.616602290" lon="2.495469910">
        <ele>476.47</ele>
        <time>2016-03-24T07:31:03Z</time>
      </trkpt>
      <trkpt lat="41.616813430" lon="2.495542490">
        <ele>476.47</ele>
        <time>2016-03-24T07:31:11Z</time>
      </trkpt>
      <trkpt lat="41.617126080" lon="2.495657910">
        <ele>476.95</ele>
        <time>2016-03-24T07:31:22Z</time>
      </trkpt>
      <trkpt lat="41.617343670" lon="2.495678360">
        <ele>478.39</ele>
        <time>2016-03-24T07:31:31Z</time>
      </trkpt>
      <trkpt lat="41.617511900" lon="2.495653390">
        <ele>478.87</ele>
        <time>2016-03-24T07:31:38Z</time>
      </trkpt>
      <trkpt lat="41.617646260" lon="2.495661600">
        <ele>480.32</ele>
        <time>2016-03-24T07:31:46Z</time>
      </trkpt>
      <trkpt lat="41.617763690" lon="2.495678200">
        <ele>481.28</ele>
        <time>2016-03-24T07:31:52Z</time>
      </trkpt>
      <trkpt lat="41.617902240" lon="2.495731000">
        <ele>482.72</ele>
        <time>2016-03-24T07:31:59Z</time>
      </trkpt>
      <trkpt lat="41.618074410" lon="2.495786240">
        <ele>484.64</ele>
        <time>2016-03-24T07:32:08Z</time>
      </trkpt>
      <trkpt lat="41.618228460" lon="2.495817420">
        <ele>486.08</ele>
        <time>2016-03-24T07:32:16Z</time>
      </trkpt>
      <trkpt lat="41.618349500" lon="2.495796880">
        <ele>488.01</ele>
        <time>2016-03-24T07:32:24Z</time>
      </trkpt>
      <trkpt lat="41.618492580" lon="2.495652550">
        <ele>489.45</ele>
        <time>2016-03-24T07:32:32Z</time>
      </trkpt>
      <trkpt lat="41.618688550" lon="2.495447270">
        <ele>490.41</ele>
        <time>2016-03-24T07:32:41Z</time>
      </trkpt>
      <trkpt lat="41.618859370" lon="2.495257930">
        <ele>490.89</ele>
        <time>2016-03-24T07:32:49Z</time>
      </trkpt>
      <trkpt lat="41.618980410" lon="2.495171010">
        <ele>491.37</ele>
        <time>2016-03-24T07:32:55Z</time>
      </trkpt>
      <trkpt lat="41.619153070" lon="2.495167070">
        <ele>491.37</ele>
        <time>2016-03-24T07:33:02Z</time>
      </trkpt>
      <trkpt lat="41.619411240" lon="2.495243510">
        <ele>492.33</ele>
        <time>2016-03-24T07:33:11Z</time>
      </trkpt>
      <trkpt lat="41.619582730" lon="2.495343260">
        <ele>492.81</ele>
        <time>2016-03-24T07:33:18Z</time>
      </trkpt>
      <trkpt lat="41.619744080" lon="2.495433280">
        <ele>493.77</ele>
        <time>2016-03-24T07:33:25Z</time>
      </trkpt>
      <trkpt lat="41.619916660" lon="2.495304870">
        <ele>494.74</ele>
        <time>2016-03-24T07:33:33Z</time>
      </trkpt>
      <trkpt lat="41.620066280" lon="2.495176960">
        <ele>496.66</ele>
        <time>2016-03-24T07:33:41Z</time>
      </trkpt>
      <trkpt lat="41.620190840" lon="2.495058100">
        <ele>497.62</ele>
        <time>2016-03-24T07:33:48Z</time>
      </trkpt>
      <trkpt lat="41.620304410" lon="2.494916370">
        <ele>499.06</ele>
        <time>2016-03-24T07:33:56Z</time>
      </trkpt>
      <trkpt lat="41.620383960" lon="2.494873450">
        <ele>499.54</ele>
        <time>2016-03-24T07:34:00Z</time>
      </trkpt>
      <trkpt lat="41.620534070" lon="2.494966910">
        <ele>501.95</ele>
        <time>2016-03-24T07:34:08Z</time>
      </trkpt>
      <trkpt lat="41.620653100" lon="2.495077210">
        <ele>502.91</ele>
        <time>2016-03-24T07:34:15Z</time>
      </trkpt>
      <trkpt lat="41.620812940" lon="2.495220290">
        <ele>504.35</ele>
        <time>2016-03-24T07:34:24Z</time>
      </trkpt>
      <trkpt lat="41.620984520" lon="2.495320120">
        <ele>505.79</ele>
        <time>2016-03-24T07:34:33Z</time>
      </trkpt>
      <trkpt lat="41.621126090" lon="2.495199170">
        <ele>506.75</ele>
        <time>2016-03-24T07:34:40Z</time>
      </trkpt>
      <trkpt lat="41.621210660" lon="2.494974620">
        <ele>507.71</ele>
        <time>2016-03-24T07:34:47Z</time>
      </trkpt>
      <trkpt lat="41.621370760" lon="2.494775970">
        <ele>508.19</ele>
        <time>2016-03-24T07:34:54Z</time>
      </trkpt>
      <trkpt lat="41.621386850" lon="2.494578410">
        <ele>508.19</ele>
        <time>2016-03-24T07:34:59Z</time>
      </trkpt>
      <trkpt lat="41.621362540" lon="2.494280770">
        <ele>508.19</ele>
        <time>2016-03-24T07:35:06Z</time>
      </trkpt>
      <trkpt lat="41.621448620" lon="2.494072480">
        <ele>508.19</ele>
        <time>2016-03-24T07:35:11Z</time>
      </trkpt>
      <trkpt lat="41.621550970" lon="2.493977930">
        <ele>508.19</ele>
        <time>2016-03-24T07:35:14Z</time>
      </trkpt>
      <trkpt lat="41.621821700" lon="2.493714900">
        <ele>507.23</ele>
        <time>2016-03-24T07:35:21Z</time>
      </trkpt>
      <trkpt lat="41.622034100" lon="2.493744740">
        <ele>506.27</ele>
        <time>2016-03-24T07:35:26Z</time>
      </trkpt>
      <trkpt lat="41.622206180" lon="2.493995450">
        <ele>505.79</ele>
        <time>2016-03-24T07:35:32Z</time>
      </trkpt>
      <trkpt lat="41.622423940" lon="2.494041460">
        <ele>505.31</ele>
        <time>2016-03-24T07:35:37Z</time>
      </trkpt>
      <trkpt lat="41.622504240" lon="2.494030650">
        <ele>505.31</ele>
        <time>2016-03-24T07:35:39Z</time>
      </trkpt>
      <trkpt lat="41.622687640" lon="2.494074490">
        <ele>504.83</ele>
        <time>2016-03-24T07:35:43Z</time>
      </trkpt>
      <trkpt lat="41.622772880" lon="2.494134750">
        <ele>504.83</ele>
        <time>2016-03-24T07:35:45Z</time>
      </trkpt>
      <trkpt lat="41.622965410" lon="2.494361060">
        <ele>504.35</ele>
        <time>2016-03-24T07:35:50Z</time>
      </trkpt>
      <trkpt lat="41.623104130" lon="2.494768090">
        <ele>504.35</ele>
        <time>2016-03-24T07:35:58Z</time>
      </trkpt>
      <trkpt lat="41.623160380" lon="2.495174530">
        <ele>504.35</ele>
        <time>2016-03-24T07:36:05Z</time>
      </trkpt>
      <trkpt lat="41.623089970" lon="2.495459510">
        <ele>505.79</ele>
        <time>2016-03-24T07:36:11Z</time>
      </trkpt>
      <trkpt lat="41.623066000" lon="2.495685490">
        <ele>506.27</ele>
        <time>2016-03-24T07:36:16Z</time>
      </trkpt>
      <trkpt lat="41.623185610" lon="2.495825630">
        <ele>507.23</ele>
        <time>2016-03-24T07:36:21Z</time>
      </trkpt>
      <trkpt lat="41.623303960" lon="2.496015070">
        <ele>508.19</ele>
        <time>2016-03-24T07:36:27Z</time>
      </trkpt>
      <trkpt lat="41.623413680" lon="2.496274820">
        <ele>508.67</ele>
        <time>2016-03-24T07:36:34Z</time>
      </trkpt>
      <trkpt lat="41.623550720" lon="2.496419910">
        <ele>509.16</ele>
        <time>2016-03-24T07:36:40Z</time>
      </trkpt>
      <trkpt lat="41.623735290" lon="2.496444890">
        <ele>509.16</ele>
        <time>2016-03-24T07:36:46Z</time>
      </trkpt>
      <trkpt lat="41.623919190" lon="2.496387810">
        <ele>509.16</ele>
        <time>2016-03-24T07:36:52Z</time>
      </trkpt>
      <trkpt lat="41.624129410" lon="2.496139700">
        <ele>506.27</ele>
        <time>2016-03-24T07:36:57Z</time>
      </trkpt>
      <trkpt lat="41.624245580" lon="2.495750780">
        <ele>505.31</ele>
        <time>2016-03-24T07:37:02Z</time>
      </trkpt>
      <trkpt lat="41.624245670" lon="2.495257260">
        <ele>503.87</ele>
        <time>2016-03-24T07:37:08Z</time>
      </trkpt>
      <trkpt lat="41.624221360" lon="2.495091460">
        <ele>503.39</ele>
        <time>2016-03-24T07:37:10Z</time>
      </trkpt>
      <trkpt lat="41.624258150" lon="2.494652670">
        <ele>502.43</ele>
        <time>2016-03-24T07:37:15Z</time>
      </trkpt>
      <trkpt lat="41.624263100" lon="2.494266010">
        <ele>501.46</ele>
        <time>2016-03-24T07:37:20Z</time>
      </trkpt>
      <trkpt lat="41.624187500" lon="2.494018240">
        <ele>501.46</ele>
        <time>2016-03-24T07:37:24Z</time>
      </trkpt>
      <trkpt lat="41.624155980" lon="2.493824790">
        <ele>501.46</ele>
        <time>2016-03-24T07:37:28Z</time>
      </trkpt>
      <trkpt lat="41.624081380" lon="2.493470990">
        <ele>500.98</ele>
        <time>2016-03-24T07:37:38Z</time>
      </trkpt>
      <trkpt lat="41.624072240" lon="2.493329840">
        <ele>500.98</ele>
        <time>2016-03-24T07:37:43Z</time>
      </trkpt>
      <trkpt lat="41.624060760" lon="2.493232690">
        <ele>500.98</ele>
        <time>2016-03-24T07:37:47Z</time>
      </trkpt>
      <trkpt lat="41.624046260" lon="2.493042000">
        <ele>500.98</ele>
        <time>2016-03-24T07:37:54Z</time>
      </trkpt>
      <trkpt lat="41.624027990" lon="2.492980480">
        <ele>500.98</ele>
        <time>2016-03-24T07:37:56Z</time>
      </trkpt>
      <trkpt lat="41.624108290" lon="2.492633130">
        <ele>500.50</ele>
        <time>2016-03-24T07:38:05Z</time>
      </trkpt>
      <trkpt lat="41.624226720" lon="2.492307670">
        <ele>500.50</ele>
        <time>2016-03-24T07:38:13Z</time>
      </trkpt>
      <trkpt lat="41.624288330" lon="2.492012870">
        <ele>501.95</ele>
        <time>2016-03-24T07:38:21Z</time>
      </trkpt>
      <trkpt lat="41.624320010" lon="2.491752950">
        <ele>501.95</ele>
        <time>2016-03-24T07:38:27Z</time>
      </trkpt>
      <trkpt lat="41.624319010" lon="2.491451450">
        <ele>501.46</ele>
        <time>2016-03-24T07:38:33Z</time>
      </trkpt>
      <trkpt lat="41.624360750" lon="2.491133190">
        <ele>502.91</ele>
        <time>2016-03-24T07:38:41Z</time>
      </trkpt>
      <trkpt lat="41.624440800" lon="2.490848210">
        <ele>504.83</ele>
        <time>2016-03-24T07:38:50Z</time>
      </trkpt>
      <trkpt lat="41.624549680" lon="2.490648550">
        <ele>504.83</ele>
        <time>2016-03-24T07:38:56Z</time>
      </trkpt>
      <trkpt lat="41.624698370" lon="2.490374380">
        <ele>504.83</ele>
        <time>2016-03-24T07:39:03Z</time>
      </trkpt>
      <trkpt lat="41.624879670" lon="2.490118650">
        <ele>504.83</ele>
        <time>2016-03-24T07:39:10Z</time>
      </trkpt>
      <trkpt lat="41.624969780" lon="2.489862410">
        <ele>504.83</ele>
        <time>2016-03-24T07:39:16Z</time>
      </trkpt>
      <trkpt lat="41.625006490" lon="2.489662170">
        <ele>504.83</ele>
        <time>2016-03-24T07:39:21Z</time>
      </trkpt>
      <trkpt lat="41.625046470" lon="2.489476260">
        <ele>504.83</ele>
        <time>2016-03-24T07:39:27Z</time>
      </trkpt>
      <trkpt lat="41.625054020" lon="2.489390340">
        <ele>504.83</ele>
        <time>2016-03-24T07:39:30Z</time>
      </trkpt>
      <trkpt lat="41.625056030" lon="2.489224300">
        <ele>504.83</ele>
        <time>2016-03-24T07:39:36Z</time>
      </trkpt>
      <trkpt lat="41.625063910" lon="2.489191110">
        <ele>504.83</ele>
        <time>2016-03-24T07:39:37Z</time>
      </trkpt>
      <trkpt lat="41.625117300" lon="2.489057000">
        <ele>504.83</ele>
        <time>2016-03-24T07:39:41Z</time>
      </trkpt>
      <trkpt lat="41.625138920" lon="2.488984240">
        <ele>504.83</ele>
        <time>2016-03-24T07:39:43Z</time>
      </trkpt>
      <trkpt lat="41.625099700" lon="2.488903770">
        <ele>505.79</ele>
        <time>2016-03-24T07:39:47Z</time>
      </trkpt>
      <trkpt lat="41.625068430" lon="2.488757340">
        <ele>505.79</ele>
        <time>2016-03-24T07:39:52Z</time>
      </trkpt>
      <trkpt lat="41.625083020" lon="2.488595400">
        <ele>505.79</ele>
        <time>2016-03-24T07:39:58Z</time>
      </trkpt>
      <trkpt lat="41.625115790" lon="2.488382920">
        <ele>506.75</ele>
        <time>2016-03-24T07:40:02Z</time>
      </trkpt>
      <trkpt lat="41.624971040" lon="2.488239010">
        <ele>507.23</ele>
        <time>2016-03-24T07:40:10Z</time>
      </trkpt>
      <trkpt lat="41.624851590" lon="2.488303710">
        <ele>507.23</ele>
        <time>2016-03-24T07:40:16Z</time>
      </trkpt>
      <trkpt lat="41.624746820" lon="2.488309830">
        <ele>507.23</ele>
        <time>2016-03-24T07:40:21Z</time>
      </trkpt>
      <trkpt lat="41.624719240" lon="2.488306650">
        <ele>507.23</ele>
        <time>2016-03-24T07:40:22Z</time>
      </trkpt>
      <trkpt lat="41.624628800" lon="2.488281330">
        <ele>507.23</ele>
        <time>2016-03-24T07:40:26Z</time>
      </trkpt>
      <trkpt lat="41.624591080" lon="2.488262730">
        <ele>507.23</ele>
        <time>2016-03-24T07:40:28Z</time>
      </trkpt>
      <trkpt lat="41.624517240" lon="2.488245290">
        <ele>508.67</ele>
        <time>2016-03-24T07:40:32Z</time>
      </trkpt>
      <trkpt lat="41.624360920" lon="2.488242020">
        <ele>509.16</ele>
        <time>2016-03-24T07:40:40Z</time>
      </trkpt>
      <trkpt lat="41.624229150" lon="2.488232640">
        <ele>510.12</ele>
        <time>2016-03-24T07:40:47Z</time>
      </trkpt>
      <trkpt lat="41.624125970" lon="2.488207070">
        <ele>510.60</ele>
        <time>2016-03-24T07:40:52Z</time>
      </trkpt>
      <trkpt lat="41.623979960" lon="2.488181090">
        <ele>512.52</ele>
        <time>2016-03-24T07:40:59Z</time>
      </trkpt>
      <trkpt lat="41.623966380" lon="2.488187880">
        <ele>512.52</ele>
        <time>2016-03-24T07:41:00Z</time>
      </trkpt>
      <trkpt lat="41.623831600" lon="2.488177320">
        <ele>513.48</ele>
        <time>2016-03-24T07:41:08Z</time>
      </trkpt>
      <trkpt lat="41.623730260" lon="2.488212850">
        <ele>514.92</ele>
        <time>2016-03-24T07:41:15Z</time>
      </trkpt>
      <trkpt lat="41.623583660" lon="2.488293820">
        <ele>517.81</ele>
        <time>2016-03-24T07:41:24Z</time>
      </trkpt>
      <trkpt lat="41.623475540" lon="2.488380910">
        <ele>519.25</ele>
        <time>2016-03-24T07:41:32Z</time>
      </trkpt>
      <trkpt lat="41.623386190" lon="2.488433800">
        <ele>519.73</ele>
        <time>2016-03-24T07:41:38Z</time>
      </trkpt>
      <trkpt lat="41.623241930" lon="2.488542930">
        <ele>522.13</ele>
        <time>2016-03-24T07:41:47Z</time>
      </trkpt>
      <trkpt lat="41.623163140" lon="2.488570340">
        <ele>522.13</ele>
        <time>2016-03-24T07:41:54Z</time>
      </trkpt>
      <trkpt lat="41.623131790" lon="2.488573020">
        <ele>522.13</ele>
        <time>2016-03-24T07:41:56Z</time>
      </trkpt>
      <trkpt lat="41.622919480" lon="2.488470260">
        <ele>517.81</ele>
        <time>2016-03-24T07:42:04Z</time>
      </trkpt>
      <trkpt lat="41.622853010" lon="2.488466490">
        <ele>516.37</ele>
        <time>2016-03-24T07:42:06Z</time>
      </trkpt>
      <trkpt lat="41.622704230" lon="2.488353670">
        <ele>513.00</ele>
        <time>2016-03-24T07:42:11Z</time>
      </trkpt>
      <trkpt lat="41.622572810" lon="2.488205230">
        <ele>509.64</ele>
        <time>2016-03-24T07:42:16Z</time>
      </trkpt>
      <trkpt lat="41.622464090" lon="2.488105230">
        <ele>508.67</ele>
        <time>2016-03-24T07:42:19Z</time>
      </trkpt>
      <trkpt lat="41.622292010" lon="2.487936500">
        <ele>506.27</ele>
        <time>2016-03-24T07:42:24Z</time>
      </trkpt>
      <trkpt lat="41.622329810" lon="2.487854030">
        <ele>505.79</ele>
        <time>2016-03-24T07:42:28Z</time>
      </trkpt>
      <trkpt lat="41.622373900" lon="2.487837850">
        <ele>505.79</ele>
        <time>2016-03-24T07:42:30Z</time>
      </trkpt>
      <trkpt lat="41.622486140" lon="2.487725030">
        <ele>505.79</ele>
        <time>2016-03-24T07:42:38Z</time>
      </trkpt>
      <trkpt lat="41.622563750" lon="2.487630230">
        <ele>507.23</ele>
        <time>2016-03-24T07:42:44Z</time>
      </trkpt>
      <trkpt lat="41.622632230" lon="2.487515060">
        <ele>508.67</ele>
        <time>2016-03-24T07:42:51Z</time>
      </trkpt>
      <trkpt lat="41.622710520" lon="2.487374660">
        <ele>510.12</ele>
        <time>2016-03-24T07:42:59Z</time>
      </trkpt>
      <trkpt lat="41.622781180" lon="2.487219260">
        <ele>511.08</ele>
        <time>2016-03-24T07:43:05Z</time>
      </trkpt>
      <trkpt lat="41.622842870" lon="2.487063110">
        <ele>513.48</ele>
        <time>2016-03-24T07:43:12Z</time>
      </trkpt>
      <trkpt lat="41.622914450" lon="2.486888430">
        <ele>513.96</ele>
        <time>2016-03-24T07:43:19Z</time>
      </trkpt>
      <trkpt lat="41.622987540" lon="2.486795730">
        <ele>513.00</ele>
        <time>2016-03-24T07:43:23Z</time>
      </trkpt>
      <trkpt lat="41.623006480" lon="2.486781560">
        <ele>513.00</ele>
        <time>2016-03-24T07:43:24Z</time>
      </trkpt>
      <trkpt lat="41.623140090" lon="2.486721880">
        <ele>510.60</ele>
        <time>2016-03-24T07:43:31Z</time>
      </trkpt>
      <trkpt lat="41.623333380" lon="2.486630850">
        <ele>509.16</ele>
        <time>2016-03-24T07:43:36Z</time>
      </trkpt>
      <trkpt lat="41.623423480" lon="2.486581820">
        <ele>508.67</ele>
        <time>2016-03-24T07:43:38Z</time>
      </trkpt>
      <trkpt lat="41.623613920" lon="2.486385680">
        <ele>505.79</ele>
        <time>2016-03-24T07:43:44Z</time>
      </trkpt>
      <trkpt lat="41.623749210" lon="2.486308490">
        <ele>504.35</ele>
        <time>2016-03-24T07:43:48Z</time>
      </trkpt>
      <trkpt lat="41.624057410" lon="2.486190720">
        <ele>501.95</ele>
        <time>2016-03-24T07:43:54Z</time>
      </trkpt>
      <trkpt lat="41.624107200" lon="2.486177060">
        <ele>501.95</ele>
        <time>2016-03-24T07:43:55Z</time>
      </trkpt>
      <trkpt lat="41.624195960" lon="2.486137160">
        <ele>500.50</ele>
        <time>2016-03-24T07:43:57Z</time>
      </trkpt>
      <trkpt lat="41.624224630" lon="2.485896260">
        <ele>498.10</ele>
        <time>2016-03-24T07:44:02Z</time>
      </trkpt>
      <trkpt lat="41.624085070" lon="2.485694850">
        <ele>496.18</ele>
        <time>2016-03-24T07:44:07Z</time>
      </trkpt>
      <trkpt lat="41.623948860" lon="2.485413630">
        <ele>493.77</ele>
        <time>2016-03-24T07:44:11Z</time>
      </trkpt>
      <trkpt lat="41.623882730" lon="2.485295950">
        <ele>492.33</ele>
        <time>2016-03-24T07:44:13Z</time>
      </trkpt>
      <trkpt lat="41.623866380" lon="2.485099560">
        <ele>490.89</ele>
        <time>2016-03-24T07:44:17Z</time>
      </trkpt>
      <trkpt lat="41.623995800" lon="2.484992020">
        <ele>490.41</ele>
        <time>2016-03-24T07:44:21Z</time>
      </trkpt>
      <trkpt lat="41.624078530" lon="2.484794880">
        <ele>489.93</ele>
        <time>2016-03-24T07:44:25Z</time>
      </trkpt>
      <trkpt lat="41.624084980" lon="2.484548030">
        <ele>488.49</ele>
        <time>2016-03-24T07:44:30Z</time>
      </trkpt>
      <trkpt lat="41.624035200" lon="2.484496570">
        <ele>488.01</ele>
        <time>2016-03-24T07:44:32Z</time>
      </trkpt>
      <trkpt lat="41.623870240" lon="2.484421130">
        <ele>487.53</ele>
        <time>2016-03-24T07:44:36Z</time>
      </trkpt>
      <trkpt lat="41.623681060" lon="2.484334460">
        <ele>487.05</ele>
        <time>2016-03-24T07:44:42Z</time>
      </trkpt>
      <trkpt lat="41.623514930" lon="2.484333370">
        <ele>486.56</ele>
        <time>2016-03-24T07:44:49Z</time>
      </trkpt>
      <trkpt lat="41.623294570" lon="2.484313170">
        <ele>486.08</ele>
        <time>2016-03-24T07:44:56Z</time>
      </trkpt>
      <trkpt lat="41.623237660" lon="2.484291210">
        <ele>486.08</ele>
        <time>2016-03-24T07:44:58Z</time>
      </trkpt>
      <trkpt lat="41.623182840" lon="2.484102540">
        <ele>485.60</ele>
        <time>2016-03-24T07:45:04Z</time>
      </trkpt>
      <trkpt lat="41.623199520" lon="2.484032970">
        <ele>485.60</ele>
        <time>2016-03-24T07:45:06Z</time>
      </trkpt>
      <trkpt lat="41.623236150" lon="2.483823750">
        <ele>487.05</ele>
        <time>2016-03-24T07:45:14Z</time>
      </trkpt>
      <trkpt lat="41.623239250" lon="2.483802800">
        <ele>487.05</ele>
        <time>2016-03-24T07:45:15Z</time>
      </trkpt>
      <trkpt lat="41.623251400" lon="2.483757960">
        <ele>487.53</ele>
        <time>2016-03-24T07:45:18Z</time>
      </trkpt>
      <trkpt lat="41.623287030" lon="2.483633320">
        <ele>488.97</ele>
        <time>2016-03-24T07:45:23Z</time>
      </trkpt>
      <trkpt lat="41.623286020" lon="2.483524770">
        <ele>489.45</ele>
        <time>2016-03-24T07:45:27Z</time>
      </trkpt>
      <trkpt lat="41.623229110" lon="2.483436340">
        <ele>489.45</ele>
        <time>2016-03-24T07:45:33Z</time>
      </trkpt>
      <trkpt lat="41.623103040" lon="2.483417990">
        <ele>489.93</ele>
        <time>2016-03-24T07:45:40Z</time>
      </trkpt>
      <trkpt lat="41.622973880" lon="2.483441040">
        <ele>491.37</ele>
        <time>2016-03-24T07:45:47Z</time>
      </trkpt>
      <trkpt lat="41.622811350" lon="2.483400220">
        <ele>491.37</ele>
        <time>2016-03-24T07:45:55Z</time>
      </trkpt>
      <trkpt lat="41.622725940" lon="2.483383700">
        <ele>492.33</ele>
        <time>2016-03-24T07:46:01Z</time>
      </trkpt>
      <trkpt lat="41.622580010" lon="2.483345320">
        <ele>492.33</ele>
        <time>2016-03-24T07:46:08Z</time>
      </trkpt>
      <trkpt lat="41.622388490" lon="2.483215310">
        <ele>490.41</ele>
        <time>2016-03-24T07:46:15Z</time>
      </trkpt>
      <trkpt lat="41.622296120" lon="2.483041050">
        <ele>488.49</ele>
        <time>2016-03-24T07:46:20Z</time>
      </trkpt>
      <trkpt lat="41.622185810" lon="2.482703260">
        <ele>488.49</ele>
        <time>2016-03-24T07:46:27Z</time>
      </trkpt>
      <trkpt lat="41.622072240" lon="2.482443760">
        <ele>488.01</ele>
        <time>2016-03-24T07:46:33Z</time>
      </trkpt>
      <trkpt lat="41.622101740" lon="2.482288440">
        <ele>488.01</ele>
        <time>2016-03-24T07:46:37Z</time>
      </trkpt>
      <trkpt lat="41.622044490" lon="2.482014350">
        <ele>489.93</ele>
        <time>2016-03-24T07:46:45Z</time>
      </trkpt>
      <trkpt lat="41.621895210" lon="2.481849310">
        <ele>489.93</ele>
        <time>2016-03-24T07:46:51Z</time>
      </trkpt>
      <trkpt lat="41.621812900" lon="2.481694000">
        <ele>488.49</ele>
        <time>2016-03-24T07:46:54Z</time>
      </trkpt>
      <trkpt lat="41.621777700" lon="2.481645880">
        <ele>488.01</ele>
        <time>2016-03-24T07:46:55Z</time>
      </trkpt>
      <trkpt lat="41.621711150" lon="2.481520910">
        <ele>487.05</ele>
        <time>2016-03-24T07:46:58Z</time>
      </trkpt>
      <trkpt lat="41.621765960" lon="2.481343210">
        <ele>485.60</ele>
        <time>2016-03-24T07:47:03Z</time>
      </trkpt>
      <trkpt lat="41.621870150" lon="2.481243390">
        <ele>483.68</ele>
        <time>2016-03-24T07:47:08Z</time>
      </trkpt>
      <trkpt lat="41.621918090" lon="2.481167860">
        <ele>483.68</ele>
        <time>2016-03-24T07:47:10Z</time>
      </trkpt>
      <trkpt lat="41.621895040" lon="2.480945410">
        <ele>482.72</ele>
        <time>2016-03-24T07:47:15Z</time>
      </trkpt>
      <trkpt lat="41.621938800" lon="2.480779030">
        <ele>482.72</ele>
        <time>2016-03-24T07:47:20Z</time>
      </trkpt>
      <trkpt lat="41.621879450" lon="2.480681130">
        <ele>482.72</ele>
        <time>2016-03-24T07:47:24Z</time>
      </trkpt>
      <trkpt lat="41.621767890" lon="2.480686990">
        <ele>483.20</ele>
        <time>2016-03-24T07:47:28Z</time>
      </trkpt>
      <trkpt lat="41.621707540" lon="2.480677690">
        <ele>484.16</ele>
        <time>2016-03-24T07:47:30Z</time>
      </trkpt>
      <trkpt lat="41.621513080" lon="2.480602920">
        <ele>485.60</ele>
        <time>2016-03-24T07:47:37Z</time>
      </trkpt>
      <trkpt lat="41.621300180" lon="2.480581800">
        <ele>488.01</ele>
        <time>2016-03-24T07:47:46Z</time>
      </trkpt>
      <trkpt lat="41.621158530" lon="2.480486500">
        <ele>489.93</ele>
        <time>2016-03-24T07:47:53Z</time>
      </trkpt>
      <trkpt lat="41.621004970" lon="2.480469650">
        <ele>490.89</ele>
        <time>2016-03-24T07:47:59Z</time>
      </trkpt>
      <trkpt lat="41.620820400" lon="2.480412660">
        <ele>490.89</ele>
        <time>2016-03-24T07:48:06Z</time>
      </trkpt>
      <trkpt lat="41.620667010" lon="2.480192630">
        <ele>491.37</ele>
        <time>2016-03-24T07:48:13Z</time>
      </trkpt>
      <trkpt lat="41.620537340" lon="2.479897080">
        <ele>491.37</ele>
        <time>2016-03-24T07:48:21Z</time>
      </trkpt>
      <trkpt lat="41.620484620" lon="2.479820980">
        <ele>491.37</ele>
        <time>2016-03-24T07:48:23Z</time>
      </trkpt>
      <trkpt lat="41.620411280" lon="2.479757940">
        <ele>491.37</ele>
        <time>2016-03-24T07:48:25Z</time>
      </trkpt>
      <trkpt lat="41.620280520" lon="2.479673460">
        <ele>489.45</ele>
        <time>2016-03-24T07:48:28Z</time>
      </trkpt>
      <trkpt lat="41.620197880" lon="2.479514950">
        <ele>486.56</ele>
        <time>2016-03-24T07:48:32Z</time>
      </trkpt>
      <trkpt lat="41.620250100" lon="2.479431550">
        <ele>486.08</ele>
        <time>2016-03-24T07:48:34Z</time>
      </trkpt>
      <trkpt lat="41.620317070" lon="2.479351170">
        <ele>484.64</ele>
        <time>2016-03-24T07:48:36Z</time>
      </trkpt>
      <trkpt lat="41.620359310" lon="2.479076080">
        <ele>483.68</ele>
        <time>2016-03-24T07:48:40Z</time>
      </trkpt>
      <trkpt lat="41.620334170" lon="2.479011960">
        <ele>483.68</ele>
        <time>2016-03-24T07:48:41Z</time>
      </trkpt>
      <trkpt lat="41.620148090" lon="2.478666030">
        <ele>483.68</ele>
        <time>2016-03-24T07:48:49Z</time>
      </trkpt>
      <trkpt lat="41.620125040" lon="2.478588670">
        <ele>485.12</ele>
        <time>2016-03-24T07:48:51Z</time>
      </trkpt>
      <trkpt lat="41.620208770" lon="2.478306950">
        <ele>484.16</ele>
        <time>2016-03-24T07:48:57Z</time>
      </trkpt>
      <trkpt lat="41.620242720" lon="2.478013000">
        <ele>483.68</ele>
        <time>2016-03-24T07:49:02Z</time>
      </trkpt>
      <trkpt lat="41.620348080" lon="2.477655680">
        <ele>485.12</ele>
        <time>2016-03-24T07:49:11Z</time>
      </trkpt>
      <trkpt lat="41.620384630" lon="2.477428360">
        <ele>485.60</ele>
        <time>2016-03-24T07:49:17Z</time>
      </trkpt>
      <trkpt lat="41.620269460" lon="2.477277320">
        <ele>486.56</ele>
        <time>2016-03-24T07:49:23Z</time>
      </trkpt>
      <trkpt lat="41.620121940" lon="2.477137430">
        <ele>487.05</ele>
        <time>2016-03-24T07:49:30Z</time>
      </trkpt>
      <trkpt lat="41.619989080" lon="2.476950260">
        <ele>487.05</ele>
        <time>2016-03-24T07:49:36Z</time>
      </trkpt>
      <trkpt lat="41.619982550" lon="2.476682210">
        <ele>487.05</ele>
        <time>2016-03-24T07:49:42Z</time>
      </trkpt>
      <trkpt lat="41.620051610" lon="2.476499480">
        <ele>487.05</ele>
        <time>2016-03-24T07:49:48Z</time>
      </trkpt>
      <trkpt lat="41.620022110" lon="2.476312560">
        <ele>487.53</ele>
        <time>2016-03-24T07:49:54Z</time>
      </trkpt>
      <trkpt lat="41.619887660" lon="2.476110890">
        <ele>488.97</ele>
        <time>2016-03-24T07:50:02Z</time>
      </trkpt>
      <trkpt lat="41.619715250" lon="2.476029670">
        <ele>491.37</ele>
        <time>2016-03-24T07:50:09Z</time>
      </trkpt>
      <trkpt lat="41.619529170" lon="2.475891710">
        <ele>493.29</ele>
        <time>2016-03-24T07:50:18Z</time>
      </trkpt>
      <trkpt lat="41.619534030" lon="2.475763630">
        <ele>493.77</ele>
        <time>2016-03-24T07:50:23Z</time>
      </trkpt>
      <trkpt lat="41.619626570" lon="2.475780900">
        <ele>494.74</ele>
        <time>2016-03-24T07:50:27Z</time>
      </trkpt>
      <trkpt lat="41.619789340" lon="2.475755670">
        <ele>496.18</ele>
        <time>2016-03-24T07:50:34Z</time>
      </trkpt>
      <trkpt lat="41.619906690" lon="2.475629770">
        <ele>498.10</ele>
        <time>2016-03-24T07:50:41Z</time>
      </trkpt>
      <trkpt lat="41.619944490" lon="2.475444110">
        <ele>498.58</ele>
        <time>2016-03-24T07:50:47Z</time>
      </trkpt>
      <trkpt lat="41.619931840" lon="2.475100540">
        <ele>498.58</ele>
        <time>2016-03-24T07:50:54Z</time>
      </trkpt>
      <trkpt lat="41.619929070" lon="2.475050500">
        <ele>497.62</ele>
        <time>2016-03-24T07:50:55Z</time>
      </trkpt>
      <trkpt lat="41.620000400" lon="2.474892920">
        <ele>496.18</ele>
        <time>2016-03-24T07:50:59Z</time>
      </trkpt>
      <trkpt lat="41.620065950" lon="2.474597370">
        <ele>495.22</ele>
        <time>2016-03-24T07:51:04Z</time>
      </trkpt>
      <trkpt lat="41.620154540" lon="2.474311220">
        <ele>494.74</ele>
        <time>2016-03-24T07:51:09Z</time>
      </trkpt>
      <trkpt lat="41.620323940" lon="2.474051880">
        <ele>494.74</ele>
        <time>2016-03-24T07:51:16Z</time>
      </trkpt>
      <trkpt lat="41.620222690" lon="2.473928330">
        <ele>496.18</ele>
        <time>2016-03-24T07:51:21Z</time>
      </trkpt>
      <trkpt lat="41.620187820" lon="2.473921370">
        <ele>496.18</ele>
        <time>2016-03-24T07:51:22Z</time>
      </trkpt>
      <trkpt lat="41.620061080" lon="2.473895310">
        <ele>496.18</ele>
        <time>2016-03-24T07:51:25Z</time>
      </trkpt>
      <trkpt lat="41.619880540" lon="2.473840740">
        <ele>492.81</ele>
        <time>2016-03-24T07:51:29Z</time>
      </trkpt>
      <trkpt lat="41.619845590" lon="2.473806040">
        <ele>492.81</ele>
        <time>2016-03-24T07:51:30Z</time>
      </trkpt>
      <trkpt lat="41.619798230" lon="2.473700510">
        <ele>492.33</ele>
        <time>2016-03-24T07:51:32Z</time>
      </trkpt>
      <trkpt lat="41.619764700" lon="2.473586600">
        <ele>491.85</ele>
        <time>2016-03-24T07:51:34Z</time>
      </trkpt>
      <trkpt lat="41.619609890" lon="2.473399180">
        <ele>491.37</ele>
        <time>2016-03-24T07:51:39Z</time>
      </trkpt>
      <trkpt lat="41.619462530" lon="2.473297510">
        <ele>492.81</ele>
        <time>2016-03-24T07:51:44Z</time>
      </trkpt>
      <trkpt lat="41.619314510" lon="2.473065330">
        <ele>495.22</ele>
        <time>2016-03-24T07:51:53Z</time>
      </trkpt>
      <trkpt lat="41.619283330" lon="2.472982770">
        <ele>494.74</ele>
        <time>2016-03-24T07:51:55Z</time>
      </trkpt>
      <trkpt lat="41.619270500" lon="2.472796270">
        <ele>493.77</ele>
        <time>2016-03-24T07:51:58Z</time>
      </trkpt>
      <trkpt lat="41.619272260" lon="2.472728210">
        <ele>493.77</ele>
        <time>2016-03-24T07:51:59Z</time>
      </trkpt>
      <trkpt lat="41.619237980" lon="2.472483120">
        <ele>492.81</ele>
        <time>2016-03-24T07:52:03Z</time>
      </trkpt>
      <trkpt lat="41.619131780" lon="2.472151790">
        <ele>492.81</ele>
        <time>2016-03-24T07:52:10Z</time>
      </trkpt>
      <trkpt lat="41.619048630" lon="2.471984570">
        <ele>494.26</ele>
        <time>2016-03-24T07:52:15Z</time>
      </trkpt>
      <trkpt lat="41.619036480" lon="2.471913820">
        <ele>494.26</ele>
        <time>2016-03-24T07:52:17Z</time>
      </trkpt>
      <trkpt lat="41.619046790" lon="2.471854650">
        <ele>492.81</ele>
        <time>2016-03-24T07:52:19Z</time>
      </trkpt>
      <trkpt lat="41.619094230" lon="2.471779040">
        <ele>492.33</ele>
        <time>2016-03-24T07:52:21Z</time>
      </trkpt>
      <trkpt lat="41.619265890" lon="2.471570590">
        <ele>490.89</ele>
        <time>2016-03-24T07:52:26Z</time>
      </trkpt>
      <trkpt lat="41.619338820" lon="2.471402530">
        <ele>490.41</ele>
        <time>2016-03-24T07:52:29Z</time>
      </trkpt>
      <trkpt lat="41.619406210" lon="2.470925930">
        <ele>488.49</ele>
        <time>2016-03-24T07:52:35Z</time>
      </trkpt>
      <trkpt lat="41.619428920" lon="2.470696860">
        <ele>488.49</ele>
        <time>2016-03-24T07:52:38Z</time>
      </trkpt>
      <trkpt lat="41.619330270" lon="2.470579010">
        <ele>488.97</ele>
        <time>2016-03-24T07:52:42Z</time>
      </trkpt>
      <trkpt lat="41.619183670" lon="2.470485130">
        <ele>490.89</ele>
        <time>2016-03-24T07:52:49Z</time>
      </trkpt>
      <trkpt lat="41.619167490" lon="2.470471130">
        <ele>490.89</ele>
        <time>2016-03-24T07:52:50Z</time>
      </trkpt>
      <trkpt lat="41.619165140" lon="2.470364350">
        <ele>491.85</ele>
        <time>2016-03-24T07:52:55Z</time>
      </trkpt>
      <trkpt lat="41.619141840" lon="2.470260580">
        <ele>492.33</ele>
        <time>2016-03-24T07:53:01Z</time>
      </trkpt>
      <trkpt lat="41.619145450" lon="2.470097630">
        <ele>492.33</ele>
        <time>2016-03-24T07:53:09Z</time>
      </trkpt>
      <trkpt lat="41.619166320" lon="2.469874680">
        <ele>491.37</ele>
        <time>2016-03-24T07:53:15Z</time>
      </trkpt>
      <trkpt lat="41.619141250" lon="2.469608630">
        <ele>488.97</ele>
        <time>2016-03-24T07:53:21Z</time>
      </trkpt>
      <trkpt lat="41.619138990" lon="2.469384000">
        <ele>488.49</ele>
        <time>2016-03-24T07:53:28Z</time>
      </trkpt>
      <trkpt lat="41.619183000" lon="2.469142260">
        <ele>488.49</ele>
        <time>2016-03-24T07:53:34Z</time>
      </trkpt>
      <trkpt lat="41.619251220" lon="2.468968930">
        <ele>487.53</ele>
        <time>2016-03-24T07:53:40Z</time>
      </trkpt>
      <trkpt lat="41.619265390" lon="2.468927180">
        <ele>487.53</ele>
        <time>2016-03-24T07:53:41Z</time>
      </trkpt>
      <trkpt lat="41.619254160" lon="2.468684360">
        <ele>487.05</ele>
        <time>2016-03-24T07:53:45Z</time>
      </trkpt>
      <trkpt lat="41.619255500" lon="2.468564670">
        <ele>486.56</ele>
        <time>2016-03-24T07:53:47Z</time>
      </trkpt>
      <trkpt lat="41.619200430" lon="2.468305580">
        <ele>485.12</ele>
        <time>2016-03-24T07:53:51Z</time>
      </trkpt>
      <trkpt lat="41.619192470" lon="2.468237020">
        <ele>485.12</ele>
        <time>2016-03-24T07:53:52Z</time>
      </trkpt>
      <trkpt lat="41.619183000" lon="2.467993520">
        <ele>483.20</ele>
        <time>2016-03-24T07:53:57Z</time>
      </trkpt>
      <trkpt lat="41.619193560" lon="2.467824880">
        <ele>483.20</ele>
        <time>2016-03-24T07:54:02Z</time>
      </trkpt>
      <trkpt lat="41.619183000" lon="2.467656320">
        <ele>483.20</ele>
        <time>2016-03-24T07:54:06Z</time>
      </trkpt>
      <trkpt lat="41.619146120" lon="2.467368570">
        <ele>486.08</ele>
        <time>2016-03-24T07:54:13Z</time>
      </trkpt>
      <trkpt lat="41.619151900" lon="2.467251310">
        <ele>488.49</ele>
        <time>2016-03-24T07:54:19Z</time>
      </trkpt>
      <trkpt lat="41.619162960" lon="2.467221300">
        <ele>488.49</ele>
        <time>2016-03-24T07:54:21Z</time>
      </trkpt>
      <trkpt lat="41.619146200" lon="2.467117200">
        <ele>488.01</ele>
        <time>2016-03-24T07:54:28Z</time>
      </trkpt>
      <trkpt lat="41.619145700" lon="2.467063890">
        <ele>488.49</ele>
        <time>2016-03-24T07:54:33Z</time>
      </trkpt>
      <trkpt lat="41.619102190" lon="2.466929110">
        <ele>488.49</ele>
        <time>2016-03-24T07:54:40Z</time>
      </trkpt>
      <trkpt lat="41.619098340" lon="2.466755690">
        <ele>487.53</ele>
        <time>2016-03-24T07:54:44Z</time>
      </trkpt>
      <trkpt lat="41.619002280" lon="2.466413700">
        <ele>486.56</ele>
        <time>2016-03-24T07:54:51Z</time>
      </trkpt>
      <trkpt lat="41.618935480" lon="2.466253780">
        <ele>486.56</ele>
        <time>2016-03-24T07:54:55Z</time>
      </trkpt>
      <trkpt lat="41.618926930" lon="2.466069790">
        <ele>487.53</ele>
        <time>2016-03-24T07:55:01Z</time>
      </trkpt>
      <trkpt lat="41.619005800" lon="2.465883380">
        <ele>488.49</ele>
        <time>2016-03-24T07:55:07Z</time>
      </trkpt>
      <trkpt lat="41.619006140" lon="2.465650360">
        <ele>488.49</ele>
        <time>2016-03-24T07:55:12Z</time>
      </trkpt>
      <trkpt lat="41.618984600" lon="2.465543490">
        <ele>487.05</ele>
        <time>2016-03-24T07:55:14Z</time>
      </trkpt>
      <trkpt lat="41.618972190" lon="2.465482560">
        <ele>487.05</ele>
        <time>2016-03-24T07:55:15Z</time>
      </trkpt>
      <trkpt lat="41.618840430" lon="2.465068070">
        <ele>486.56</ele>
        <time>2016-03-24T07:55:23Z</time>
      </trkpt>
      <trkpt lat="41.618803040" lon="2.464893310">
        <ele>486.08</ele>
        <time>2016-03-24T07:55:28Z</time>
      </trkpt>
      <trkpt lat="41.618737330" lon="2.464712010">
        <ele>486.08</ele>
        <time>2016-03-24T07:55:35Z</time>
      </trkpt>
      <trkpt lat="41.618704310" lon="2.464616870">
        <ele>486.08</ele>
        <time>2016-03-24T07:55:39Z</time>
      </trkpt>
      <trkpt lat="41.618668510" lon="2.464464830">
        <ele>486.08</ele>
        <time>2016-03-24T07:55:44Z</time>
      </trkpt>
      <trkpt lat="41.618630710" lon="2.464149080">
        <ele>485.60</ele>
        <time>2016-03-24T07:55:51Z</time>
      </trkpt>
      <trkpt lat="41.618602050" lon="2.463787320">
        <ele>484.64</ele>
        <time>2016-03-24T07:55:59Z</time>
      </trkpt>
      <trkpt lat="41.618544800" lon="2.463656980">
        <ele>484.16</ele>
        <time>2016-03-24T07:56:02Z</time>
      </trkpt>
      <trkpt lat="41.618539520" lon="2.463305690">
        <ele>481.76</ele>
        <time>2016-03-24T07:56:07Z</time>
      </trkpt>
      <trkpt lat="41.618639010" lon="2.462941750">
        <ele>480.80</ele>
        <time>2016-03-24T07:56:12Z</time>
      </trkpt>
      <trkpt lat="41.618590560" lon="2.462643020">
        <ele>480.80</ele>
        <time>2016-03-24T07:56:18Z</time>
      </trkpt>
      <trkpt lat="41.618575560" lon="2.462606560">
        <ele>480.80</ele>
        <time>2016-03-24T07:56:19Z</time>
      </trkpt>
      <trkpt lat="41.618507410" lon="2.462333390">
        <ele>483.20</ele>
        <time>2016-03-24T07:56:27Z</time>
      </trkpt>
      <trkpt lat="41.618406750" lon="2.462186460">
        <ele>483.68</ele>
        <time>2016-03-24T07:56:34Z</time>
      </trkpt>
      <trkpt lat="41.618289900" lon="2.462007000">
        <ele>483.68</ele>
        <time>2016-03-24T07:56:41Z</time>
      </trkpt>
      <trkpt lat="41.618169200" lon="2.461772980">
        <ele>485.12</ele>
        <time>2016-03-24T07:56:49Z</time>
      </trkpt>
      <trkpt lat="41.618120510" lon="2.461547840">
        <ele>486.08</ele>
        <time>2016-03-24T07:56:57Z</time>
      </trkpt>
      <trkpt lat="41.618100390" lon="2.461356400">
        <ele>487.05</ele>
        <time>2016-03-24T07:57:04Z</time>
      </trkpt>
      <trkpt lat="41.618112210" lon="2.461239720">
        <ele>487.53</ele>
        <time>2016-03-24T07:57:11Z</time>
      </trkpt>
      <trkpt lat="41.618038780" lon="2.461141070">
        <ele>488.49</ele>
        <time>2016-03-24T07:57:18Z</time>
      </trkpt>
      <trkpt lat="41.618027890" lon="2.461033280">
        <ele>490.41</ele>
        <time>2016-03-24T07:57:24Z</time>
      </trkpt>
      <trkpt lat="41.618017160" lon="2.460977450">
        <ele>491.37</ele>
        <time>2016-03-24T07:57:29Z</time>
      </trkpt>
      <trkpt lat="41.617986650" lon="2.460805960">
        <ele>491.85</ele>
        <time>2016-03-24T07:57:36Z</time>
      </trkpt>
      <trkpt lat="41.618022350" lon="2.460596580">
        <ele>491.85</ele>
        <time>2016-03-24T07:57:42Z</time>
      </trkpt>
      <trkpt lat="41.618050270" lon="2.460490550">
        <ele>491.85</ele>
        <time>2016-03-24T07:57:46Z</time>
      </trkpt>
      <trkpt lat="41.618098130" lon="2.460237000">
        <ele>492.81</ele>
        <time>2016-03-24T07:57:54Z</time>
      </trkpt>
      <trkpt lat="41.618160320" lon="2.460005240">
        <ele>493.29</ele>
        <time>2016-03-24T07:58:00Z</time>
      </trkpt>
      <trkpt lat="41.618213040" lon="2.459763670">
        <ele>493.77</ele>
        <time>2016-03-24T07:58:07Z</time>
      </trkpt>
      <trkpt lat="41.618238610" lon="2.459577090">
        <ele>493.77</ele>
        <time>2016-03-24T07:58:12Z</time>
      </trkpt>
      <trkpt lat="41.618319490" lon="2.459436190">
        <ele>495.22</ele>
        <time>2016-03-24T07:58:17Z</time>
      </trkpt>
      <trkpt lat="41.618324270" lon="2.459340220">
        <ele>495.22</ele>
        <time>2016-03-24T07:58:20Z</time>
      </trkpt>
      <trkpt lat="41.618248750" lon="2.459023130">
        <ele>496.66</ele>
        <time>2016-03-24T07:58:29Z</time>
      </trkpt>
      <trkpt lat="41.618181780" lon="2.458733620">
        <ele>499.06</ele>
        <time>2016-03-24T07:58:39Z</time>
      </trkpt>
      <trkpt lat="41.618148330" lon="2.458503200">
        <ele>501.46</ele>
        <time>2016-03-24T07:58:48Z</time>
      </trkpt>
      <trkpt lat="41.618137270" lon="2.458285100">
        <ele>502.91</ele>
        <time>2016-03-24T07:58:56Z</time>
      </trkpt>
      <trkpt lat="41.618132320" lon="2.458033140">
        <ele>504.35</ele>
        <time>2016-03-24T07:59:05Z</time>
      </trkpt>
      <trkpt lat="41.618150260" lon="2.457885700">
        <ele>506.27</ele>
        <time>2016-03-24T07:59:12Z</time>
      </trkpt>
      <trkpt lat="41.618173980" lon="2.457774890">
        <ele>508.19</ele>
        <time>2016-03-24T07:59:19Z</time>
      </trkpt>
      <trkpt lat="41.618187980" lon="2.457742620">
        <ele>508.67</ele>
        <time>2016-03-24T07:59:21Z</time>
      </trkpt>
      <trkpt lat="41.618220420" lon="2.457617820">
        <ele>511.08</ele>
        <time>2016-03-24T07:59:29Z</time>
      </trkpt>
      <trkpt lat="41.618226870" lon="2.457552690">
        <ele>511.56</ele>
        <time>2016-03-24T07:59:33Z</time>
      </trkpt>
      <trkpt lat="41.618242710" lon="2.457478510">
        <ele>513.00</ele>
        <time>2016-03-24T07:59:37Z</time>
      </trkpt>
      <trkpt lat="41.618224440" lon="2.457373150">
        <ele>513.96</ele>
        <time>2016-03-24T07:59:43Z</time>
      </trkpt>
      <trkpt lat="41.618235920" lon="2.457273990">
        <ele>513.96</ele>
        <time>2016-03-24T07:59:48Z</time>
      </trkpt>
      <trkpt lat="41.618254280" lon="2.457020020">
        <ele>513.96</ele>
        <time>2016-03-24T07:59:55Z</time>
      </trkpt>
      <trkpt lat="41.618225360" lon="2.456820450">
        <ele>513.96</ele>
        <time>2016-03-24T08:00:00Z</time>
      </trkpt>
      <trkpt lat="41.618190910" lon="2.456684580">
        <ele>513.96</ele>
        <time>2016-03-24T08:00:05Z</time>
      </trkpt>
      <trkpt lat="41.618141880" lon="2.456597910">
        <ele>513.96</ele>
        <time>2016-03-24T08:00:08Z</time>
      </trkpt>
      <trkpt lat="41.618100560" lon="2.456445360">
        <ele>513.96</ele>
        <time>2016-03-24T08:00:12Z</time>
      </trkpt>
      <trkpt lat="41.618034340" lon="2.456240920">
        <ele>513.96</ele>
        <time>2016-03-24T08:00:18Z</time>
      </trkpt>
      <trkpt lat="41.617926970" lon="2.455991390">
        <ele>514.44</ele>
        <time>2016-03-24T08:00:26Z</time>
      </trkpt>
      <trkpt lat="41.617865950" lon="2.455747480">
        <ele>514.92</ele>
        <time>2016-03-24T08:00:34Z</time>
      </trkpt>
      <trkpt lat="41.617826300" lon="2.455469700">
        <ele>515.88</ele>
        <time>2016-03-24T08:00:42Z</time>
      </trkpt>
      <trkpt lat="41.617787490" lon="2.455242810">
        <ele>515.88</ele>
        <time>2016-03-24T08:00:48Z</time>
      </trkpt>
      <trkpt lat="41.617779610" lon="2.455200640">
        <ele>515.88</ele>
        <time>2016-03-24T08:00:49Z</time>
      </trkpt>
      <trkpt lat="41.617695290" lon="2.454970560">
        <ele>515.88</ele>
        <time>2016-03-24T08:00:55Z</time>
      </trkpt>
      <trkpt lat="41.617634610" lon="2.454828490">
        <ele>515.88</ele>
        <time>2016-03-24T08:00:59Z</time>
      </trkpt>
      <trkpt lat="41.617560090" lon="2.454713490">
        <ele>515.88</ele>
        <time>2016-03-24T08:01:02Z</time>
      </trkpt>
      <trkpt lat="41.617461860" lon="2.454523720">
        <ele>514.44</ele>
        <time>2016-03-24T08:01:05Z</time>
      </trkpt>
      <trkpt lat="41.617378370" lon="2.454312830">
        <ele>513.48</ele>
        <time>2016-03-24T08:01:08Z</time>
      </trkpt>
      <trkpt lat="41.617214760" lon="2.454092470">
        <ele>513.00</ele>
        <time>2016-03-24T08:01:12Z</time>
      </trkpt>
      <trkpt lat="41.616842600" lon="2.453892480">
        <ele>513.00</ele>
        <time>2016-03-24T08:01:21Z</time>
      </trkpt>
      <trkpt lat="41.616701870" lon="2.453681010">
        <ele>514.44</ele>
        <time>2016-03-24T08:01:28Z</time>
      </trkpt>
      <trkpt lat="41.616599860" lon="2.453498700">
        <ele>515.88</ele>
        <time>2016-03-24T08:01:35Z</time>
      </trkpt>
      <trkpt lat="41.616492990" lon="2.453336170">
        <ele>518.29</ele>
        <time>2016-03-24T08:01:42Z</time>
      </trkpt>
      <trkpt lat="41.616362740" lon="2.453238690">
        <ele>519.25</ele>
        <time>2016-03-24T08:01:48Z</time>
      </trkpt>
      <trkpt lat="41.616179090" lon="2.453126120">
        <ele>519.25</ele>
        <time>2016-03-24T08:01:55Z</time>
      </trkpt>
      <trkpt lat="41.615971810" lon="2.452950940">
        <ele>518.77</ele>
        <time>2016-03-24T08:02:03Z</time>
      </trkpt>
      <trkpt lat="41.615816150" lon="2.452820100">
        <ele>519.25</ele>
        <time>2016-03-24T08:02:09Z</time>
      </trkpt>
      <trkpt lat="41.615710620" lon="2.452623290">
        <ele>519.73</ele>
        <time>2016-03-24T08:02:15Z</time>
      </trkpt>
      <trkpt lat="41.615648180" lon="2.452361530">
        <ele>519.73</ele>
        <time>2016-03-24T08:02:21Z</time>
      </trkpt>
      <trkpt lat="41.615661510" lon="2.452159520">
        <ele>518.29</ele>
        <time>2016-03-24T08:02:25Z</time>
      </trkpt>
      <trkpt lat="41.615738450" lon="2.452059530">
        <ele>517.33</ele>
        <time>2016-03-24T08:02:29Z</time>
      </trkpt>
      <trkpt lat="41.615964930" lon="2.451900940">
        <ele>514.92</ele>
        <time>2016-03-24T08:02:34Z</time>
      </trkpt>
      <trkpt lat="41.616004330" lon="2.451879060">
        <ele>514.44</ele>
        <time>2016-03-24T08:02:35Z</time>
      </trkpt>
      <trkpt lat="41.616152770" lon="2.451700780">
        <ele>510.60</ele>
        <time>2016-03-24T08:02:41Z</time>
      </trkpt>
      <trkpt lat="41.616248910" lon="2.451504390">
        <ele>507.23</ele>
        <time>2016-03-24T08:02:46Z</time>
      </trkpt>
      <trkpt lat="41.616295680" lon="2.451315130">
        <ele>505.31</ele>
        <time>2016-03-24T08:02:49Z</time>
      </trkpt>
      <trkpt lat="41.616348740" lon="2.451032910">
        <ele>503.87</ele>
        <time>2016-03-24T08:02:53Z</time>
      </trkpt>
      <trkpt lat="41.616394000" lon="2.450861500">
        <ele>502.43</ele>
        <time>2016-03-24T08:02:57Z</time>
      </trkpt>
      <trkpt lat="41.616499530" lon="2.450681290">
        <ele>500.02</ele>
        <time>2016-03-24T08:03:02Z</time>
      </trkpt>
      <trkpt lat="41.616632300" lon="2.450384070">
        <ele>500.02</ele>
        <time>2016-03-24T08:03:09Z</time>
      </trkpt>
      <trkpt lat="41.616622320" lon="2.450305610">
        <ele>499.54</ele>
        <time>2016-03-24T08:03:11Z</time>
      </trkpt>
      <trkpt lat="41.616578400" lon="2.450164130">
        <ele>496.66</ele>
        <time>2016-03-24T08:03:15Z</time>
      </trkpt>
      <trkpt lat="41.616602540" lon="2.450015770">
        <ele>494.74</ele>
        <time>2016-03-24T08:03:18Z</time>
      </trkpt>
      <trkpt lat="41.616643030" lon="2.449949630">
        <ele>493.77</ele>
        <time>2016-03-24T08:03:20Z</time>
      </trkpt>
      <trkpt lat="41.616745870" lon="2.449886850">
        <ele>492.33</ele>
        <time>2016-03-24T08:03:23Z</time>
      </trkpt>
      <trkpt lat="41.616911160" lon="2.449603040">
        <ele>489.93</ele>
        <time>2016-03-24T08:03:28Z</time>
      </trkpt>
      <trkpt lat="41.617044770" lon="2.449186710">
        <ele>488.49</ele>
        <time>2016-03-24T08:03:33Z</time>
      </trkpt>
      <trkpt lat="41.617175190" lon="2.448936090">
        <ele>486.56</ele>
        <time>2016-03-24T08:03:37Z</time>
      </trkpt>
      <trkpt lat="41.617226740" lon="2.448742890">
        <ele>484.64</ele>
        <time>2016-03-24T08:03:40Z</time>
      </trkpt>
      <trkpt lat="41.617282650" lon="2.448451200">
        <ele>482.72</ele>
        <time>2016-03-24T08:03:45Z</time>
      </trkpt>
      <trkpt lat="41.617288850" lon="2.448339050">
        <ele>481.28</ele>
        <time>2016-03-24T08:03:47Z</time>
      </trkpt>
      <trkpt lat="41.617370070" lon="2.448048620">
        <ele>477.43</ele>
        <time>2016-03-24T08:03:52Z</time>
      </trkpt>
      <trkpt lat="41.617379550" lon="2.447998750">
        <ele>476.95</ele>
        <time>2016-03-24T08:03:53Z</time>
      </trkpt>
      <trkpt lat="41.617454980" lon="2.447684930">
        <ele>473.11</ele>
        <time>2016-03-24T08:03:59Z</time>
      </trkpt>
      <trkpt lat="41.617464120" lon="2.447579990">
        <ele>472.14</ele>
        <time>2016-03-24T08:04:01Z</time>
      </trkpt>
      <trkpt lat="41.617433440" lon="2.447280330">
        <ele>471.66</ele>
        <time>2016-03-24T08:04:08Z</time>
      </trkpt>
      <trkpt lat="41.617428920" lon="2.447255270">
        <ele>471.66</ele>
        <time>2016-03-24T08:04:09Z</time>
      </trkpt>
      <trkpt lat="41.617446850" lon="2.447180000">
        <ele>470.70</ele>
        <time>2016-03-24T08:04:15Z</time>
      </trkpt>
      <trkpt lat="41.617447610" lon="2.447134150">
        <ele>470.70</ele>
        <time>2016-03-24T08:04:21Z</time>
      </trkpt>
      <trkpt lat="41.617477450" lon="2.446995940">
        <ele>470.70</ele>
        <time>2016-03-24T08:04:28Z</time>
      </trkpt>
      <trkpt lat="41.617586240" lon="2.446787560">
        <ele>470.70</ele>
        <time>2016-03-24T08:04:34Z</time>
      </trkpt>
      <trkpt lat="41.617679030" lon="2.446509450">
        <ele>469.26</ele>
        <time>2016-03-24T08:04:41Z</time>
      </trkpt>
      <trkpt lat="41.617753040" lon="2.446417920">
        <ele>468.78</ele>
        <time>2016-03-24T08:04:44Z</time>
      </trkpt>
      <trkpt lat="41.617907940" lon="2.446159590">
        <ele>465.90</ele>
        <time>2016-03-24T08:04:50Z</time>
      </trkpt>
      <trkpt lat="41.618025460" lon="2.446023130">
        <ele>464.93</ele>
        <time>2016-03-24T08:04:55Z</time>
      </trkpt>
      <trkpt lat="41.618137770" lon="2.445848870">
        <ele>463.01</ele>
        <time>2016-03-24T08:04:59Z</time>
      </trkpt>
      <trkpt lat="41.618171800" lon="2.445792040">
        <ele>462.53</ele>
        <time>2016-03-24T08:05:00Z</time>
      </trkpt>
      <trkpt lat="41.618258140" lon="2.445591040">
        <ele>461.09</ele>
        <time>2016-03-24T08:05:03Z</time>
      </trkpt>
      <trkpt lat="41.618321920" lon="2.445332630">
        <ele>459.17</ele>
        <time>2016-03-24T08:05:07Z</time>
      </trkpt>
      <trkpt lat="41.618368360" lon="2.445105230">
        <ele>457.24</ele>
        <time>2016-03-24T08:05:11Z</time>
      </trkpt>
      <trkpt lat="41.618406080" lon="2.444800210">
        <ele>455.80</ele>
        <time>2016-03-24T08:05:16Z</time>
      </trkpt>
      <trkpt lat="41.618476740" lon="2.444453870">
        <ele>453.40</ele>
        <time>2016-03-24T08:05:23Z</time>
      </trkpt>
      <trkpt lat="41.618484620" lon="2.444367620">
        <ele>452.92</ele>
        <time>2016-03-24T08:05:28Z</time>
      </trkpt>
      <trkpt lat="41.618488640" lon="2.444336360">
        <ele>452.92</ele>
        <time>2016-03-24T08:05:41Z</time>
      </trkpt>
      <trkpt lat="41.618483190" lon="2.444324040">
        <ele>452.44</ele>
        <time>2016-03-24T08:05:55Z</time>
      </trkpt>
      <trkpt lat="41.618476820" lon="2.444321770">
        <ele>452.44</ele>
        <time>2016-03-24T08:06:12Z</time>
      </trkpt>
      <trkpt lat="41.618475310" lon="2.444302330">
        <ele>452.44</ele>
        <time>2016-03-24T08:06:18Z</time>
      </trkpt>
      <trkpt lat="41.618441200" lon="2.444196970">
        <ele>451.48</ele>
        <time>2016-03-24T08:06:22Z</time>
      </trkpt>
      <trkpt lat="41.618425190" lon="2.443913150">
        <ele>449.07</ele>
        <time>2016-03-24T08:06:30Z</time>
      </trkpt>
      <trkpt lat="41.618468690" lon="2.443755830">
        <ele>448.59</ele>
        <time>2016-03-24T08:06:34Z</time>
      </trkpt>
      <trkpt lat="41.618644790" lon="2.443534040">
        <ele>447.15</ele>
        <time>2016-03-24T08:06:40Z</time>
      </trkpt>
      <trkpt lat="41.618775470" lon="2.443301280">
        <ele>446.19</ele>
        <time>2016-03-24T08:06:46Z</time>
      </trkpt>
      <trkpt lat="41.618930530" lon="2.443005980">
        <ele>445.71</ele>
        <time>2016-03-24T08:06:53Z</time>
      </trkpt>
      <trkpt lat="41.619034550" lon="2.442769030">
        <ele>444.75</ele>
        <time>2016-03-24T08:06:59Z</time>
      </trkpt>
      <trkpt lat="41.619120300" lon="2.442507760">
        <ele>443.31</ele>
        <time>2016-03-24T08:07:06Z</time>
      </trkpt>
      <trkpt lat="41.619152650" lon="2.442410280">
        <ele>443.31</ele>
        <time>2016-03-24T08:07:08Z</time>
      </trkpt>
      <trkpt lat="41.619249300" lon="2.442123280">
        <ele>440.42</ele>
        <time>2016-03-24T08:07:14Z</time>
      </trkpt>
      <trkpt lat="41.619271340" lon="2.441836200">
        <ele>438.50</ele>
        <time>2016-03-24T08:07:20Z</time>
      </trkpt>
      <trkpt lat="41.619269830" lon="2.441724890">
        <ele>437.06</ele>
        <time>2016-03-24T08:07:22Z</time>
      </trkpt>
      <trkpt lat="41.619254070" lon="2.441610730">
        <ele>436.58</ele>
        <time>2016-03-24T08:07:24Z</time>
      </trkpt>
      <trkpt lat="41.619249720" lon="2.441279140">
        <ele>434.65</ele>
        <time>2016-03-24T08:07:30Z</time>
      </trkpt>
      <trkpt lat="41.619267820" lon="2.441016450">
        <ele>432.73</ele>
        <time>2016-03-24T08:07:36Z</time>
      </trkpt>
      <trkpt lat="41.619303860" lon="2.440931290">
        <ele>432.73</ele>
        <time>2016-03-24T08:07:41Z</time>
      </trkpt>
      <trkpt lat="41.619316520" lon="2.440907240">
        <ele>432.73</ele>
        <time>2016-03-24T08:07:52Z</time>
      </trkpt>
      <trkpt lat="41.619336970" lon="2.440875970">
        <ele>434.17</ele>
        <time>2016-03-24T08:08:01Z</time>
      </trkpt>
      <trkpt lat="41.619365970" lon="2.440828610">
        <ele>434.17</ele>
        <time>2016-03-24T08:08:08Z</time>
      </trkpt>
      <trkpt lat="41.619454070" lon="2.440740020">
        <ele>434.65</ele>
        <time>2016-03-24T08:08:14Z</time>
      </trkpt>
      <trkpt lat="41.619569150" lon="2.440547740">
        <ele>436.10</ele>
        <time>2016-03-24T08:08:21Z</time>
      </trkpt>
      <trkpt lat="41.619662940" lon="2.440354200">
        <ele>437.54</ele>
        <time>2016-03-24T08:08:28Z</time>
      </trkpt>
      <trkpt lat="41.619790520" lon="2.440201560">
        <ele>438.98</ele>
        <time>2016-03-24T08:08:35Z</time>
      </trkpt>
      <trkpt lat="41.619910960" lon="2.440011970">
        <ele>440.42</ele>
        <time>2016-03-24T08:08:43Z</time>
      </trkpt>
      <trkpt lat="41.620004760" lon="2.439890090">
        <ele>440.90</ele>
        <time>2016-03-24T08:08:49Z</time>
      </trkpt>
      <trkpt lat="41.620117410" lon="2.439716250">
        <ele>441.38</ele>
        <time>2016-03-24T08:08:57Z</time>
      </trkpt>
      <trkpt lat="41.620231240" lon="2.439419950">
        <ele>441.38</ele>
        <time>2016-03-24T08:09:05Z</time>
      </trkpt>
      <trkpt lat="41.620317650" lon="2.439078390">
        <ele>441.38</ele>
        <time>2016-03-24T08:09:13Z</time>
      </trkpt>
      <trkpt lat="41.620376080" lon="2.438762140">
        <ele>441.38</ele>
        <time>2016-03-24T08:09:21Z</time>
      </trkpt>
      <trkpt lat="41.620421420" lon="2.438621160">
        <ele>441.38</ele>
        <time>2016-03-24T08:09:24Z</time>
      </trkpt>
      <trkpt lat="41.620583780" lon="2.438449750">
        <ele>439.94</ele>
        <time>2016-03-24T08:09:28Z</time>
      </trkpt>
      <trkpt lat="41.620626610" lon="2.438401890">
        <ele>438.98</ele>
        <time>2016-03-24T08:09:29Z</time>
      </trkpt>
      <trkpt lat="41.620844040" lon="2.438235090">
        <ele>438.02</ele>
        <time>2016-03-24T08:09:34Z</time>
      </trkpt>
      <trkpt lat="41.620934480" lon="2.437955470">
        <ele>437.06</ele>
        <time>2016-03-24T08:09:39Z</time>
      </trkpt>
      <trkpt lat="41.620974710" lon="2.437644660">
        <ele>438.50</ele>
        <time>2016-03-24T08:09:46Z</time>
      </trkpt>
      <trkpt lat="41.620926430" lon="2.437437380">
        <ele>439.46</ele>
        <time>2016-03-24T08:09:52Z</time>
      </trkpt>
      <trkpt lat="41.620907570" lon="2.437275270">
        <ele>440.42</ele>
        <time>2016-03-24T08:09:57Z</time>
      </trkpt>
      <trkpt lat="41.620935230" lon="2.437185420">
        <ele>441.38</ele>
        <time>2016-03-24T08:10:01Z</time>
      </trkpt>
      <trkpt lat="41.620952830" lon="2.436980570">
        <ele>440.42</ele>
        <time>2016-03-24T08:10:08Z</time>
      </trkpt>
      <trkpt lat="41.620865160" lon="2.436770430">
        <ele>438.98</ele>
        <time>2016-03-24T08:10:14Z</time>
      </trkpt>
      <trkpt lat="41.620733560" lon="2.436529370">
        <ele>438.50</ele>
        <time>2016-03-24T08:10:21Z</time>
      </trkpt>
      <trkpt lat="41.620637260" lon="2.436344040">
        <ele>438.02</ele>
        <time>2016-03-24T08:10:27Z</time>
      </trkpt>
      <trkpt lat="41.620589140" lon="2.436186130">
        <ele>438.02</ele>
        <time>2016-03-24T08:10:32Z</time>
      </trkpt>
      <trkpt lat="41.620637340" lon="2.435971720">
        <ele>438.02</ele>
        <time>2016-03-24T08:10:38Z</time>
      </trkpt>
      <trkpt lat="41.620670450" lon="2.435736270">
        <ele>438.02</ele>
        <time>2016-03-24T08:10:44Z</time>
      </trkpt>
      <trkpt lat="41.620667510" lon="2.435423040">
        <ele>437.54</ele>
        <time>2016-03-24T08:10:50Z</time>
      </trkpt>
      <trkpt lat="41.620682430" lon="2.435160520">
        <ele>437.54</ele>
        <time>2016-03-24T08:10:56Z</time>
      </trkpt>
      <trkpt lat="41.620698110" lon="2.435063120">
        <ele>438.50</ele>
        <time>2016-03-24T08:10:59Z</time>
      </trkpt>
      <trkpt lat="41.620779330" lon="2.434746790">
        <ele>438.98</ele>
        <time>2016-03-24T08:11:08Z</time>
      </trkpt>
      <trkpt lat="41.620848230" lon="2.434453760">
        <ele>438.98</ele>
        <time>2016-03-24T08:11:16Z</time>
      </trkpt>
      <trkpt lat="41.620829030" lon="2.434178330">
        <ele>439.46</ele>
        <time>2016-03-24T08:11:23Z</time>
      </trkpt>
      <trkpt lat="41.620730460" lon="2.433769460">
        <ele>440.42</ele>
        <time>2016-03-24T08:11:33Z</time>
      </trkpt>
      <trkpt lat="41.620630890" lon="2.433363440">
        <ele>440.90</ele>
        <time>2016-03-24T08:11:43Z</time>
      </trkpt>
      <trkpt lat="41.620583280" lon="2.432990360">
        <ele>441.38</ele>
        <time>2016-03-24T08:11:52Z</time>
      </trkpt>
      <trkpt lat="41.620598700" lon="2.432679310">
        <ele>441.86</ele>
        <time>2016-03-24T08:11:59Z</time>
      </trkpt>
      <trkpt lat="41.620624180" lon="2.432252840">
        <ele>442.82</ele>
        <time>2016-03-24T08:12:08Z</time>
      </trkpt>
      <trkpt lat="41.620672710" lon="2.431987630">
        <ele>442.82</ele>
        <time>2016-03-24T08:12:14Z</time>
      </trkpt>
      <trkpt lat="41.620699030" lon="2.431895100">
        <ele>442.82</ele>
        <time>2016-03-24T08:12:16Z</time>
      </trkpt>
      <trkpt lat="41.620808750" lon="2.431591420">
        <ele>441.38</ele>
        <time>2016-03-24T08:12:22Z</time>
      </trkpt>
      <trkpt lat="41.620892900" lon="2.431322780">
        <ele>440.90</ele>
        <time>2016-03-24T08:12:28Z</time>
      </trkpt>
      <trkpt lat="41.620970270" lon="2.431123630">
        <ele>439.94</ele>
        <time>2016-03-24T08:12:32Z</time>
      </trkpt>
      <trkpt lat="41.620989380" lon="2.430796310">
        <ele>438.98</ele>
        <time>2016-03-24T08:12:37Z</time>
      </trkpt>
      <trkpt lat="41.620963980" lon="2.430731270">
        <ele>438.98</ele>
        <time>2016-03-24T08:12:38Z</time>
      </trkpt>
      <trkpt lat="41.620812860" lon="2.430216870">
        <ele>437.06</ele>
        <time>2016-03-24T08:12:45Z</time>
      </trkpt>
      <trkpt lat="41.620812610" lon="2.429899700">
        <ele>437.06</ele>
        <time>2016-03-24T08:12:49Z</time>
      </trkpt>
      <trkpt lat="41.620827780" lon="2.429765340">
        <ele>436.58</ele>
        <time>2016-03-24T08:12:51Z</time>
      </trkpt>
      <trkpt lat="41.620823170" lon="2.429430820">
        <ele>436.58</ele>
        <time>2016-03-24T08:12:58Z</time>
      </trkpt>
      <trkpt lat="41.620842700" lon="2.429279360">
        <ele>438.02</ele>
        <time>2016-03-24T08:13:03Z</time>
      </trkpt>
      <trkpt lat="41.620857700" lon="2.428998230">
        <ele>438.50</ele>
        <time>2016-03-24T08:13:11Z</time>
      </trkpt>
      <trkpt lat="41.620900200" lon="2.428668990">
        <ele>438.98</ele>
        <time>2016-03-24T08:13:20Z</time>
      </trkpt>
      <trkpt lat="41.620911090" lon="2.428402780">
        <ele>439.46</ele>
        <time>2016-03-24T08:13:27Z</time>
      </trkpt>
      <trkpt lat="41.620938920" lon="2.427948230">
        <ele>439.46</ele>
        <time>2016-03-24T08:13:38Z</time>
      </trkpt>
      <trkpt lat="41.620980240" lon="2.427585210">
        <ele>439.46</ele>
        <time>2016-03-24T08:13:46Z</time>
      </trkpt>
      <trkpt lat="41.621050570" lon="2.427282450">
        <ele>438.50</ele>
        <time>2016-03-24T08:13:52Z</time>
      </trkpt>
      <trkpt lat="41.621111090" lon="2.426988160">
        <ele>437.06</ele>
        <time>2016-03-24T08:13:58Z</time>
      </trkpt>
      <trkpt lat="41.621204380" lon="2.426487680">
        <ele>435.61</ele>
        <time>2016-03-24T08:14:06Z</time>
      </trkpt>
      <trkpt lat="41.621256930" lon="2.426286850">
        <ele>434.65</ele>
        <time>2016-03-24T08:14:09Z</time>
      </trkpt>
      <trkpt lat="41.621406300" lon="2.425902880">
        <ele>433.21</ele>
        <time>2016-03-24T08:14:15Z</time>
      </trkpt>
      <trkpt lat="41.621596230" lon="2.425397530">
        <ele>430.81</ele>
        <time>2016-03-24T08:14:22Z</time>
      </trkpt>
      <trkpt lat="41.621625400" lon="2.425322350">
        <ele>430.81</ele>
        <time>2016-03-24T08:14:23Z</time>
      </trkpt>
      <trkpt lat="41.621785660" lon="2.424899310">
        <ele>427.44</ele>
        <time>2016-03-24T08:14:27Z</time>
      </trkpt>
      <trkpt lat="41.621959330" lon="2.424389520">
        <ele>424.56</ele>
        <time>2016-03-24T08:14:31Z</time>
      </trkpt>
      <trkpt lat="41.622024800" lon="2.424105710">
        <ele>423.60</ele>
        <time>2016-03-24T08:14:33Z</time>
      </trkpt>
      <trkpt lat="41.622082720" lon="2.423872360">
        <ele>423.60</ele>
        <time>2016-03-24T08:14:35Z</time>
      </trkpt>
      <trkpt lat="41.622099480" lon="2.423572200">
        <ele>425.52</ele>
        <time>2016-03-24T08:14:39Z</time>
      </trkpt>
      <trkpt lat="41.622084220" lon="2.423442620">
        <ele>425.52</ele>
        <time>2016-03-24T08:14:42Z</time>
      </trkpt>
      <trkpt lat="41.622079360" lon="2.423193170">
        <ele>422.64</ele>
        <time>2016-03-24T08:14:49Z</time>
      </trkpt>
      <trkpt lat="41.622142310" lon="2.422869800">
        <ele>420.23</ele>
        <time>2016-03-24T08:14:54Z</time>
      </trkpt>
      <trkpt lat="41.622160420" lon="2.422790420">
        <ele>419.75</ele>
        <time>2016-03-24T08:14:55Z</time>
      </trkpt>
      <trkpt lat="41.622260830" lon="2.422714230">
        <ele>418.79</ele>
        <time>2016-03-24T08:14:58Z</time>
      </trkpt>
      <trkpt lat="41.622434000" lon="2.422759160">
        <ele>414.47</ele>
        <time>2016-03-24T08:15:04Z</time>
      </trkpt>
      <trkpt lat="41.622592920" lon="2.422752540">
        <ele>413.50</ele>
        <time>2016-03-24T08:15:09Z</time>
      </trkpt>
      <trkpt lat="41.622837510" lon="2.422602750">
        <ele>413.02</ele>
        <time>2016-03-24T08:15:16Z</time>
      </trkpt>
      <trkpt lat="41.622940600" lon="2.422412570">
        <ele>414.47</ele>
        <time>2016-03-24T08:15:22Z</time>
      </trkpt>
      <trkpt lat="41.622951920" lon="2.422382060">
        <ele>414.47</ele>
        <time>2016-03-24T08:15:23Z</time>
      </trkpt>
      <trkpt lat="41.622981670" lon="2.422189270">
        <ele>414.95</ele>
        <time>2016-03-24T08:15:30Z</time>
      </trkpt>
      <trkpt lat="41.622912190" lon="2.422102440">
        <ele>414.95</ele>
        <time>2016-03-24T08:15:35Z</time>
      </trkpt>
      <trkpt lat="41.622883770" lon="2.422062870">
        <ele>414.95</ele>
        <time>2016-03-24T08:15:37Z</time>
      </trkpt>
      <trkpt lat="41.622830550" lon="2.421933290">
        <ele>414.95</ele>
        <time>2016-03-24T08:15:42Z</time>
      </trkpt>
      <trkpt lat="41.622723340" lon="2.421751070">
        <ele>415.91</ele>
        <time>2016-03-24T08:15:49Z</time>
      </trkpt>
      <trkpt lat="41.622589650" lon="2.421646710">
        <ele>416.39</ele>
        <time>2016-03-24T08:15:55Z</time>
      </trkpt>
      <trkpt lat="41.622433160" lon="2.421532640">
        <ele>417.83</ele>
        <time>2016-03-24T08:16:03Z</time>
      </trkpt>
      <trkpt lat="41.622416400" lon="2.421515280">
        <ele>417.83</ele>
        <time>2016-03-24T08:16:04Z</time>
      </trkpt>
      <trkpt lat="41.622346750" lon="2.421456110">
        <ele>418.31</ele>
        <time>2016-03-24T08:16:08Z</time>
      </trkpt>
      <trkpt lat="41.622263680" lon="2.421416210">
        <ele>418.79</ele>
        <time>2016-03-24T08:16:12Z</time>
      </trkpt>
      <trkpt lat="41.622206100" lon="2.421205910">
        <ele>419.27</ele>
        <time>2016-03-24T08:16:18Z</time>
      </trkpt>
      <trkpt lat="41.622194700" lon="2.421161230">
        <ele>419.27</ele>
        <time>2016-03-24T08:16:19Z</time>
      </trkpt>
      <trkpt lat="41.622150780" lon="2.420867030">
        <ele>418.31</ele>
        <time>2016-03-24T08:16:25Z</time>
      </trkpt>
      <trkpt lat="41.622261420" lon="2.420727050">
        <ele>418.31</ele>
        <time>2016-03-24T08:16:30Z</time>
      </trkpt>
      <trkpt lat="41.622413210" lon="2.420606020">
        <ele>418.31</ele>
        <time>2016-03-24T08:16:37Z</time>
      </trkpt>
      <trkpt lat="41.622639610" lon="2.420436280">
        <ele>416.87</ele>
        <time>2016-03-24T08:16:44Z</time>
      </trkpt>
      <trkpt lat="41.622673560" lon="2.420409960">
        <ele>416.87</ele>
        <time>2016-03-24T08:16:45Z</time>
      </trkpt>
      <trkpt lat="41.622753600" lon="2.420365200">
        <ele>415.91</ele>
        <time>2016-03-24T08:16:47Z</time>
      </trkpt>
      <trkpt lat="41.622939090" lon="2.420287340">
        <ele>414.47</ele>
        <time>2016-03-24T08:16:53Z</time>
      </trkpt>
      <trkpt lat="41.622958790" lon="2.420263450">
        <ele>414.47</ele>
        <time>2016-03-24T08:16:58Z</time>
      </trkpt>
      <trkpt lat="41.622966420" lon="2.420246770">
        <ele>414.47</ele>
        <time>2016-03-24T08:17:06Z</time>
      </trkpt>
      <trkpt lat="41.622966080" lon="2.420242580">
        <ele>413.98</ele>
        <time>2016-03-24T08:17:21Z</time>
      </trkpt>
      <trkpt lat="41.623010420" lon="2.420193370">
        <ele>413.50</ele>
        <time>2016-03-24T08:17:31Z</time>
      </trkpt>
      <trkpt lat="41.623137330" lon="2.420052560">
        <ele>412.54</ele>
        <time>2016-03-24T08:17:39Z</time>
      </trkpt>
      <trkpt lat="41.623135570" lon="2.420058590">
        <ele>412.06</ele>
        <time>2016-03-24T08:17:45Z</time>
      </trkpt>
      <trkpt lat="41.623104470" lon="2.420061950">
        <ele>412.06</ele>
        <time>2016-03-24T08:17:53Z</time>
      </trkpt>
      <trkpt lat="41.623123750" lon="2.420052730">
        <ele>412.06</ele>
        <time>2016-03-24T08:18:12Z</time>
      </trkpt>
      <trkpt lat="41.623161970" lon="2.420001510">
        <ele>412.06</ele>
        <time>2016-03-24T08:18:22Z</time>
      </trkpt>
      <trkpt lat="41.623207990" lon="2.419968740">
        <ele>411.58</ele>
        <time>2016-03-24T08:18:25Z</time>
      </trkpt>
      <trkpt lat="41.623340080" lon="2.419780820">
        <ele>411.10</ele>
        <time>2016-03-24T08:18:32Z</time>
      </trkpt>
      <trkpt lat="41.623560360" lon="2.419589880">
        <ele>407.74</ele>
        <time>2016-03-24T08:18:38Z</time>
      </trkpt>
      <trkpt lat="41.623763200" lon="2.419508820">
        <ele>404.37</ele>
        <time>2016-03-24T08:18:43Z</time>
      </trkpt>
      <trkpt lat="41.623890270" lon="2.419512760">
        <ele>402.45</ele>
        <time>2016-03-24T08:18:46Z</time>
      </trkpt>
      <trkpt lat="41.624052380" lon="2.419461220">
        <ele>401.01</ele>
        <time>2016-03-24T08:18:50Z</time>
      </trkpt>
      <trkpt lat="41.624270900" lon="2.419444450">
        <ele>396.68</ele>
        <time>2016-03-24T08:18:54Z</time>
      </trkpt>
      <trkpt lat="41.624332170" lon="2.419461890">
        <ele>395.72</ele>
        <time>2016-03-24T08:18:55Z</time>
      </trkpt>
      <trkpt lat="41.624634330" lon="2.419454170">
        <ele>391.39</ele>
        <time>2016-03-24T08:19:01Z</time>
      </trkpt>
      <trkpt lat="41.624715470" lon="2.419336660">
        <ele>389.47</ele>
        <time>2016-03-24T08:19:04Z</time>
      </trkpt>
      <trkpt lat="41.624743130" lon="2.419271620">
        <ele>388.51</ele>
        <time>2016-03-24T08:19:06Z</time>
      </trkpt>
      <trkpt lat="41.624806080" lon="2.419068270">
        <ele>386.59</ele>
        <time>2016-03-24T08:19:12Z</time>
      </trkpt>
      <trkpt lat="41.624846150" lon="2.418925530">
        <ele>385.15</ele>
        <time>2016-03-24T08:19:15Z</time>
      </trkpt>
      <trkpt lat="41.624866600" lon="2.418879930">
        <ele>384.18</ele>
        <time>2016-03-24T08:19:16Z</time>
      </trkpt>
      <trkpt lat="41.624994000" lon="2.418695950">
        <ele>381.78</ele>
        <time>2016-03-24T08:19:20Z</time>
      </trkpt>
      <trkpt lat="41.625120820" lon="2.418607940">
        <ele>378.90</ele>
        <time>2016-03-24T08:19:25Z</time>
      </trkpt>
      <trkpt lat="41.625155020" lon="2.418693600">
        <ele>378.90</ele>
        <time>2016-03-24T08:19:27Z</time>
      </trkpt>
      <trkpt lat="41.625199950" lon="2.418972300">
        <ele>377.94</ele>
        <time>2016-03-24T08:19:32Z</time>
      </trkpt>
      <trkpt lat="41.625109250" lon="2.419239770">
        <ele>376.49</ele>
        <time>2016-03-24T08:19:38Z</time>
      </trkpt>
      <trkpt lat="41.625074800" lon="2.419469430">
        <ele>376.01</ele>
        <time>2016-03-24T08:19:42Z</time>
      </trkpt>
      <trkpt lat="41.625086370" lon="2.419595160">
        <ele>375.05</ele>
        <time>2016-03-24T08:19:44Z</time>
      </trkpt>
      <trkpt lat="41.625104480" lon="2.419733800">
        <ele>374.57</ele>
        <time>2016-03-24T08:19:46Z</time>
      </trkpt>
      <trkpt lat="41.625125930" lon="2.419949800">
        <ele>372.17</ele>
        <time>2016-03-24T08:19:50Z</time>
      </trkpt>
      <trkpt lat="41.625264490" lon="2.420136880">
        <ele>369.76</ele>
        <time>2016-03-24T08:19:54Z</time>
      </trkpt>
      <trkpt lat="41.625304380" lon="2.420359340">
        <ele>366.40</ele>
        <time>2016-03-24T08:19:57Z</time>
      </trkpt>
      <trkpt lat="41.625423910" lon="2.420707940">
        <ele>360.15</ele>
        <time>2016-03-24T08:20:03Z</time>
      </trkpt>
      <trkpt lat="41.625594480" lon="2.420719260">
        <ele>358.23</ele>
        <time>2016-03-24T08:20:06Z</time>
      </trkpt>
      <trkpt lat="41.625633370" lon="2.420678520">
        <ele>357.27</ele>
        <time>2016-03-24T08:20:07Z</time>
      </trkpt>
      <trkpt lat="41.625698080" lon="2.420518840">
        <ele>358.71</ele>
        <time>2016-03-24T08:20:12Z</time>
      </trkpt>
      <trkpt lat="41.625701350" lon="2.420494960">
        <ele>358.71</ele>
        <time>2016-03-24T08:20:13Z</time>
      </trkpt>
      <trkpt lat="41.625704280" lon="2.420473250">
        <ele>358.71</ele>
        <time>2016-03-24T08:20:14Z</time>
      </trkpt>
      <trkpt lat="41.625764800" lon="2.420355980">
        <ele>360.15</ele>
        <time>2016-03-24T08:20:21Z</time>
      </trkpt>
      <trkpt lat="41.625780390" lon="2.420330000">
        <ele>361.11</ele>
        <time>2016-03-24T08:20:23Z</time>
      </trkpt>
      <trkpt lat="41.625829430" lon="2.420188680">
        <ele>363.04</ele>
        <time>2016-03-24T08:20:31Z</time>
      </trkpt>
      <trkpt lat="41.625854150" lon="2.420132690">
        <ele>363.52</ele>
        <time>2016-03-24T08:20:37Z</time>
      </trkpt>
      <trkpt lat="41.625852140" lon="2.420109720">
        <ele>363.52</ele>
        <time>2016-03-24T08:20:45Z</time>
      </trkpt>
      <trkpt lat="41.625818950" lon="2.420044010">
        <ele>361.59</ele>
        <time>2016-03-24T08:20:48Z</time>
      </trkpt>
      <trkpt lat="41.625863460" lon="2.419811580">
        <ele>359.67</ele>
        <time>2016-03-24T08:20:54Z</time>
      </trkpt>
      <trkpt lat="41.625902180" lon="2.419719290">
        <ele>358.71</ele>
        <time>2016-03-24T08:20:56Z</time>
      </trkpt>
      <trkpt lat="41.626081970" lon="2.419506980">
        <ele>355.34</ele>
        <time>2016-03-24T08:21:02Z</time>
      </trkpt>
      <trkpt lat="41.626196300" lon="2.419410510">
        <ele>351.98</ele>
        <time>2016-03-24T08:21:06Z</time>
      </trkpt>
      <trkpt lat="41.626308280" lon="2.419362230">
        <ele>348.13</ele>
        <time>2016-03-24T08:21:10Z</time>
      </trkpt>
      <trkpt lat="41.626469720" lon="2.419247480">
        <ele>345.25</ele>
        <time>2016-03-24T08:21:15Z</time>
      </trkpt>
      <trkpt lat="41.626509870" lon="2.419227030">
        <ele>344.77</ele>
        <time>2016-03-24T08:21:16Z</time>
      </trkpt>
      <trkpt lat="41.626749000" lon="2.419258210">
        <ele>342.85</ele>
        <time>2016-03-24T08:21:21Z</time>
      </trkpt>
      <trkpt lat="41.626916640" lon="2.419218390">
        <ele>342.37</ele>
        <time>2016-03-24T08:21:27Z</time>
      </trkpt>
      <trkpt lat="41.627045720" lon="2.419067940">
        <ele>341.41</ele>
        <time>2016-03-24T08:21:33Z</time>
      </trkpt>
      <trkpt lat="41.627164910" lon="2.418879930">
        <ele>341.41</ele>
        <time>2016-03-24T08:21:41Z</time>
      </trkpt>
      <trkpt lat="41.627175390" lon="2.418854110">
        <ele>342.85</ele>
        <time>2016-03-24T08:21:42Z</time>
      </trkpt>
      <trkpt lat="41.627333560" lon="2.418707770">
        <ele>343.81</ele>
        <time>2016-03-24T08:21:50Z</time>
      </trkpt>
      <trkpt lat="41.627490720" lon="2.418572650">
        <ele>344.77</ele>
        <time>2016-03-24T08:21:57Z</time>
      </trkpt>
      <trkpt lat="41.627556850" lon="2.418448430">
        <ele>345.25</ele>
        <time>2016-03-24T08:22:02Z</time>
      </trkpt>
      <trkpt lat="41.627674120" lon="2.418251540">
        <ele>346.69</ele>
        <time>2016-03-24T08:22:10Z</time>
      </trkpt>
      <trkpt lat="41.627762210" lon="2.418133940">
        <ele>347.17</ele>
        <time>2016-03-24T08:22:16Z</time>
      </trkpt>
      <trkpt lat="41.627854490" lon="2.417957420">
        <ele>348.62</ele>
        <time>2016-03-24T08:22:23Z</time>
      </trkpt>
      <trkpt lat="41.627892210" lon="2.417835460">
        <ele>349.58</ele>
        <time>2016-03-24T08:22:29Z</time>
      </trkpt>
      <trkpt lat="41.627921880" lon="2.417666400">
        <ele>350.54</ele>
        <time>2016-03-24T08:22:36Z</time>
      </trkpt>
      <trkpt lat="41.627929430" lon="2.417468420">
        <ele>352.46</ele>
        <time>2016-03-24T08:22:44Z</time>
      </trkpt>
      <trkpt lat="41.627902610" lon="2.417327600">
        <ele>352.94</ele>
        <time>2016-03-24T08:22:50Z</time>
      </trkpt>
      <trkpt lat="41.627873190" lon="2.417138510">
        <ele>353.90</ele>
        <time>2016-03-24T08:22:57Z</time>
      </trkpt>
      <trkpt lat="41.627825160" lon="2.417013780">
        <ele>354.38</ele>
        <time>2016-03-24T08:23:03Z</time>
      </trkpt>
      <trkpt lat="41.627735050" lon="2.416829130">
        <ele>354.86</ele>
        <time>2016-03-24T08:23:11Z</time>
      </trkpt>
      <trkpt lat="41.627610580" lon="2.416649000">
        <ele>356.31</ele>
        <time>2016-03-24T08:23:19Z</time>
      </trkpt>
      <trkpt lat="41.627511000" lon="2.416530900">
        <ele>357.75</ele>
        <time>2016-03-24T08:23:26Z</time>
      </trkpt>
      <trkpt lat="41.627401450" lon="2.416409110">
        <ele>359.19</ele>
        <time>2016-03-24T08:23:34Z</time>
      </trkpt>
      <trkpt lat="41.627342190" lon="2.416304670">
        <ele>360.15</ele>
        <time>2016-03-24T08:23:39Z</time>
      </trkpt>
      <trkpt lat="41.627331130" lon="2.416284310">
        <ele>360.15</ele>
        <time>2016-03-24T08:23:40Z</time>
      </trkpt>
      <trkpt lat="41.627292400" lon="2.416197130">
        <ele>361.11</ele>
        <time>2016-03-24T08:23:44Z</time>
      </trkpt>
      <trkpt lat="41.627280250" lon="2.415980460">
        <ele>361.59</ele>
        <time>2016-03-24T08:23:51Z</time>
      </trkpt>
      <trkpt lat="41.627320400" lon="2.415826490">
        <ele>361.59</ele>
        <time>2016-03-24T08:23:55Z</time>
      </trkpt>
      <trkpt lat="41.627395080" lon="2.415664050">
        <ele>362.07</ele>
        <time>2016-03-24T08:24:01Z</time>
      </trkpt>
      <trkpt lat="41.627464820" lon="2.415448210">
        <ele>362.55</ele>
        <time>2016-03-24T08:24:09Z</time>
      </trkpt>
      <trkpt lat="41.627470100" lon="2.415393140">
        <ele>362.55</ele>
        <time>2016-03-24T08:24:11Z</time>
      </trkpt>
      <trkpt lat="41.627417960" lon="2.415135480">
        <ele>364.00</ele>
        <time>2016-03-24T08:24:19Z</time>
      </trkpt>
      <trkpt lat="41.627315290" lon="2.414966340">
        <ele>365.44</ele>
        <time>2016-03-24T08:24:26Z</time>
      </trkpt>
      <trkpt lat="41.627227110" lon="2.414786040">
        <ele>368.32</ele>
        <time>2016-03-24T08:24:34Z</time>
      </trkpt>
      <trkpt lat="41.627194080" lon="2.414753850">
        <ele>368.80</ele>
        <time>2016-03-24T08:24:36Z</time>
      </trkpt>
      <trkpt lat="41.627157870" lon="2.414597280">
        <ele>369.28</ele>
        <time>2016-03-24T08:24:42Z</time>
      </trkpt>
      <trkpt lat="41.627145890" lon="2.414379440">
        <ele>369.76</ele>
        <time>2016-03-24T08:24:49Z</time>
      </trkpt>
      <trkpt lat="41.627152930" lon="2.414345570">
        <ele>369.76</ele>
        <time>2016-03-24T08:24:50Z</time>
      </trkpt>
      <trkpt lat="41.627070870" lon="2.414175250">
        <ele>370.24</ele>
        <time>2016-03-24T08:24:56Z</time>
      </trkpt>
      <trkpt lat="41.627009510" lon="2.413991440">
        <ele>371.69</ele>
        <time>2016-03-24T08:25:04Z</time>
      </trkpt>
      <trkpt lat="41.626985540" lon="2.413916250">
        <ele>371.69</ele>
        <time>2016-03-24T08:25:07Z</time>
      </trkpt>
      <trkpt lat="41.626988890" lon="2.413885410">
        <ele>371.69</ele>
        <time>2016-03-24T08:25:09Z</time>
      </trkpt>
      <trkpt lat="41.627034070" lon="2.413751880">
        <ele>373.13</ele>
        <time>2016-03-24T08:25:16Z</time>
      </trkpt>
      <trkpt lat="41.627061480" lon="2.413615760">
        <ele>374.09</ele>
        <time>2016-03-24T08:25:21Z</time>
      </trkpt>
      <trkpt lat="41.627063910" lon="2.413592290">
        <ele>374.09</ele>
        <time>2016-03-24T08:25:22Z</time>
      </trkpt>
      <trkpt lat="41.627065090" lon="2.413476540">
        <ele>375.05</ele>
        <time>2016-03-24T08:25:27Z</time>
      </trkpt>
      <trkpt lat="41.627003060" lon="2.413255670">
        <ele>375.53</ele>
        <time>2016-03-24T08:25:34Z</time>
      </trkpt>
      <trkpt lat="41.626909350" lon="2.413088040">
        <ele>376.49</ele>
        <time>2016-03-24T08:25:40Z</time>
      </trkpt>
      <trkpt lat="41.626884540" lon="2.412930790">
        <ele>377.45</ele>
        <time>2016-03-24T08:25:46Z</time>
      </trkpt>
      <trkpt lat="41.626870040" lon="2.412755440">
        <ele>377.45</ele>
        <time>2016-03-24T08:25:51Z</time>
      </trkpt>
      <trkpt lat="41.626850260" lon="2.412719060">
        <ele>377.45</ele>
        <time>2016-03-24T08:25:52Z</time>
      </trkpt>
      <trkpt lat="41.626652860" lon="2.412356630">
        <ele>376.49</ele>
        <time>2016-03-24T08:26:01Z</time>
      </trkpt>
      <trkpt lat="41.626633420" lon="2.412314050">
        <ele>376.49</ele>
        <time>2016-03-24T08:26:02Z</time>
      </trkpt>
      <trkpt lat="41.626593270" lon="2.412209530">
        <ele>375.53</ele>
        <time>2016-03-24T08:26:04Z</time>
      </trkpt>
      <trkpt lat="41.626518920" lon="2.412053540">
        <ele>375.05</ele>
        <time>2016-03-24T08:26:07Z</time>
      </trkpt>
      <trkpt lat="41.626481290" lon="2.411942820">
        <ele>374.57</ele>
        <time>2016-03-24T08:26:09Z</time>
      </trkpt>
      <trkpt lat="41.626347340" lon="2.411620360">
        <ele>373.61</ele>
        <time>2016-03-24T08:26:15Z</time>
      </trkpt>
      <trkpt lat="41.626246260" lon="2.411380640">
        <ele>372.65</ele>
        <time>2016-03-24T08:26:19Z</time>
      </trkpt>
      <trkpt lat="41.626141230" lon="2.411205630">
        <ele>371.69</ele>
        <time>2016-03-24T08:26:22Z</time>
      </trkpt>
      <trkpt lat="41.625773770" lon="2.410815200">
        <ele>369.28</ele>
        <time>2016-03-24T08:26:30Z</time>
      </trkpt>
      <trkpt lat="41.625405220" lon="2.410441110">
        <ele>366.40</ele>
        <time>2016-03-24T08:26:37Z</time>
      </trkpt>
      <trkpt lat="41.625353920" lon="2.410391410">
        <ele>366.40</ele>
        <time>2016-03-24T08:26:38Z</time>
      </trkpt>
      <trkpt lat="41.625226180" lon="2.410058820">
        <ele>363.52</ele>
        <time>2016-03-24T08:26:42Z</time>
      </trkpt>
      <trkpt lat="41.625224590" lon="2.409963010">
        <ele>363.52</ele>
        <time>2016-03-24T08:26:43Z</time>
      </trkpt>
      <trkpt lat="41.625202800" lon="2.409507960">
        <ele>359.67</ele>
        <time>2016-03-24T08:26:48Z</time>
      </trkpt>
      <trkpt lat="41.625272360" lon="2.408996330">
        <ele>355.34</ele>
        <time>2016-03-24T08:26:54Z</time>
      </trkpt>
      <trkpt lat="41.625311010" lon="2.408913600">
        <ele>354.86</ele>
        <time>2016-03-24T08:26:55Z</time>
      </trkpt>
      <trkpt lat="41.625456600" lon="2.408657780">
        <ele>352.46</ele>
        <time>2016-03-24T08:26:58Z</time>
      </trkpt>
      <trkpt lat="41.625579730" lon="2.408147830">
        <ele>349.10</ele>
        <time>2016-03-24T08:27:03Z</time>
      </trkpt>
      <trkpt lat="41.625575290" lon="2.408028720">
        <ele>348.62</ele>
        <time>2016-03-24T08:27:04Z</time>
      </trkpt>
      <trkpt lat="41.625587860" lon="2.407475180">
        <ele>344.29</ele>
        <time>2016-03-24T08:27:08Z</time>
      </trkpt>
      <trkpt lat="41.625628510" lon="2.407009730">
        <ele>340.92</ele>
        <time>2016-03-24T08:27:11Z</time>
      </trkpt>
      <trkpt lat="41.625662210" lon="2.406674200">
        <ele>337.56</ele>
        <time>2016-03-24T08:27:13Z</time>
      </trkpt>
      <trkpt lat="41.625706130" lon="2.406163410">
        <ele>333.71</ele>
        <time>2016-03-24T08:27:16Z</time>
      </trkpt>
      <trkpt lat="41.625698080" lon="2.405694190">
        <ele>330.35</ele>
        <time>2016-03-24T08:27:19Z</time>
      </trkpt>
      <trkpt lat="41.625685840" lon="2.405549020">
        <ele>329.39</ele>
        <time>2016-03-24T08:27:20Z</time>
      </trkpt>
      <trkpt lat="41.625592220" lon="2.405236200">
        <ele>327.95</ele>
        <time>2016-03-24T08:27:23Z</time>
      </trkpt>
      <trkpt lat="41.625524160" lon="2.405155400">
        <ele>326.99</ele>
        <time>2016-03-24T08:27:24Z</time>
      </trkpt>
      <trkpt lat="41.625196340" lon="2.404863960">
        <ele>324.58</ele>
        <time>2016-03-24T08:27:28Z</time>
      </trkpt>
      <trkpt lat="41.624937000" lon="2.404650900">
        <ele>320.74</ele>
        <time>2016-03-24T08:27:31Z</time>
      </trkpt>
      <trkpt lat="41.624613630" lon="2.404415530">
        <ele>317.37</ele>
        <time>2016-03-24T08:27:35Z</time>
      </trkpt>
      <trkpt lat="41.624433340" lon="2.404254430">
        <ele>314.49</ele>
        <time>2016-03-24T08:27:38Z</time>
      </trkpt>
      <trkpt lat="41.624290420" lon="2.403927200">
        <ele>311.60</ele>
        <time>2016-03-24T08:27:43Z</time>
      </trkpt>
      <trkpt lat="41.624319760" lon="2.403743720">
        <ele>311.60</ele>
        <time>2016-03-24T08:27:47Z</time>
      </trkpt>
      <trkpt lat="41.624277270" lon="2.403534930">
        <ele>313.05</ele>
        <time>2016-03-24T08:27:53Z</time>
      </trkpt>
      <trkpt lat="41.624267290" lon="2.403511880">
        <ele>313.05</ele>
        <time>2016-03-24T08:27:54Z</time>
      </trkpt>
      <trkpt lat="41.624269130" lon="2.403395370">
        <ele>313.53</ele>
        <time>2016-03-24T08:27:58Z</time>
      </trkpt>
      <trkpt lat="41.624197220" lon="2.403196050">
        <ele>314.01</ele>
        <time>2016-03-24T08:28:05Z</time>
      </trkpt>
      <trkpt lat="41.624153720" lon="2.403041650">
        <ele>314.49</ele>
        <time>2016-03-24T08:28:10Z</time>
      </trkpt>
      <trkpt lat="41.624103340" lon="2.402784660">
        <ele>315.45</ele>
        <time>2016-03-24T08:28:17Z</time>
      </trkpt>
      <trkpt lat="41.624016500" lon="2.402471940">
        <ele>317.37</ele>
        <time>2016-03-24T08:28:25Z</time>
      </trkpt>
      <trkpt lat="41.623965460" lon="2.402281920">
        <ele>317.85</ele>
        <time>2016-03-24T08:28:31Z</time>
      </trkpt>
      <trkpt lat="41.623919690" lon="2.402106900">
        <ele>319.78</ele>
        <time>2016-03-24T08:28:38Z</time>
      </trkpt>
      <trkpt lat="41.623855660" lon="2.401947980">
        <ele>321.22</ele>
        <time>2016-03-24T08:28:45Z</time>
      </trkpt>
      <trkpt lat="41.623837550" lon="2.401892830">
        <ele>322.18</ele>
        <time>2016-03-24T08:28:48Z</time>
      </trkpt>
      <trkpt lat="41.623832020" lon="2.401811360">
        <ele>323.14</ele>
        <time>2016-03-24T08:28:52Z</time>
      </trkpt>
      <trkpt lat="41.623758430" lon="2.401591500">
        <ele>324.58</ele>
        <time>2016-03-24T08:29:00Z</time>
      </trkpt>
      <trkpt lat="41.623689860" lon="2.401456550">
        <ele>326.50</ele>
        <time>2016-03-24T08:29:07Z</time>
      </trkpt>
      <trkpt lat="41.623613170" lon="2.401372150">
        <ele>326.99</ele>
        <time>2016-03-24T08:29:14Z</time>
      </trkpt>
      <trkpt lat="41.623609480" lon="2.401335600">
        <ele>326.99</ele>
        <time>2016-03-24T08:29:23Z</time>
      </trkpt>
      <trkpt lat="41.623600260" lon="2.401316740">
        <ele>327.47</ele>
        <time>2016-03-24T08:29:30Z</time>
      </trkpt>
      <trkpt lat="41.623581060" lon="2.401285390">
        <ele>327.47</ele>
        <time>2016-03-24T08:29:40Z</time>
      </trkpt>
      <trkpt lat="41.623528510" lon="2.401203750">
        <ele>327.47</ele>
        <time>2016-03-24T08:29:46Z</time>
      </trkpt>
      <trkpt lat="41.623403540" lon="2.401082890">
        <ele>327.47</ele>
        <time>2016-03-24T08:29:54Z</time>
      </trkpt>
      <trkpt lat="41.623381990" lon="2.401065540">
        <ele>327.47</ele>
        <time>2016-03-24T08:29:55Z</time>
      </trkpt>
      <trkpt lat="41.623241350" lon="2.400904440">
        <ele>327.47</ele>
        <time>2016-03-24T08:30:03Z</time>
      </trkpt>
      <trkpt lat="41.623129700" lon="2.400797730">
        <ele>327.95</ele>
        <time>2016-03-24T08:30:10Z</time>
      </trkpt>
      <trkpt lat="41.623101370" lon="2.400773180">
        <ele>327.95</ele>
        <time>2016-03-24T08:30:12Z</time>
      </trkpt>
      <trkpt lat="41.623067590" lon="2.400754400">
        <ele>328.43</ele>
        <time>2016-03-24T08:30:14Z</time>
      </trkpt>
      <trkpt lat="41.622956110" lon="2.400759180">
        <ele>329.39</ele>
        <time>2016-03-24T08:30:19Z</time>
      </trkpt>
      <trkpt lat="41.622911770" lon="2.400775270">
        <ele>329.39</ele>
        <time>2016-03-24T08:30:21Z</time>
      </trkpt>
      <trkpt lat="41.622767430" lon="2.400901420">
        <ele>330.35</ele>
        <time>2016-03-24T08:30:29Z</time>
      </trkpt>
      <trkpt lat="41.622651680" lon="2.401005270">
        <ele>330.83</ele>
        <time>2016-03-24T08:30:35Z</time>
      </trkpt>
      <trkpt lat="41.622502650" lon="2.401187240">
        <ele>331.79</ele>
        <time>2016-03-24T08:30:43Z</time>
      </trkpt>
      <trkpt lat="41.622455880" lon="2.401229240">
        <ele>331.79</ele>
        <time>2016-03-24T08:30:45Z</time>
      </trkpt>
      <trkpt lat="41.622274660" lon="2.401157400">
        <ele>331.79</ele>
        <time>2016-03-24T08:30:53Z</time>
      </trkpt>
      <trkpt lat="41.622130410" lon="2.401050370">
        <ele>331.79</ele>
        <time>2016-03-24T08:31:00Z</time>
      </trkpt>
      <trkpt lat="41.621942570" lon="2.400973080">
        <ele>332.27</ele>
        <time>2016-03-24T08:31:08Z</time>
      </trkpt>
      <trkpt lat="41.621714000" lon="2.400896720">
        <ele>332.27</ele>
        <time>2016-03-24T08:31:18Z</time>
      </trkpt>
      <trkpt lat="41.621514590" lon="2.400833780">
        <ele>332.27</ele>
        <time>2016-03-24T08:31:26Z</time>
      </trkpt>
      <trkpt lat="41.621363720" lon="2.400797060">
        <ele>332.27</ele>
        <time>2016-03-24T08:31:32Z</time>
      </trkpt>
      <trkpt lat="41.621179570" lon="2.400797320">
        <ele>332.27</ele>
        <time>2016-03-24T08:31:39Z</time>
      </trkpt>
      <trkpt lat="41.620949820" lon="2.400799490">
        <ele>332.27</ele>
        <time>2016-03-24T08:31:47Z</time>
      </trkpt>
      <trkpt lat="41.620838420" lon="2.400780890">
        <ele>332.27</ele>
        <time>2016-03-24T08:31:51Z</time>
      </trkpt>
      <trkpt lat="41.620797600" lon="2.400745430">
        <ele>332.27</ele>
        <time>2016-03-24T08:31:57Z</time>
      </trkpt>
      <trkpt lat="41.620799950" lon="2.400719700">
        <ele>332.75</ele>
        <time>2016-03-24T08:32:07Z</time>
      </trkpt>
      <trkpt lat="41.620793240" lon="2.400691450">
        <ele>332.75</ele>
        <time>2016-03-24T08:32:09Z</time>
      </trkpt>
      <trkpt lat="41.620850660" lon="2.400515940">
        <ele>332.75</ele>
        <time>2016-03-24T08:32:17Z</time>
      </trkpt>
      <trkpt lat="41.620936410" lon="2.400235900">
        <ele>332.75</ele>
        <time>2016-03-24T08:32:24Z</time>
      </trkpt>
      <trkpt lat="41.621037490" lon="2.399903470">
        <ele>333.23</ele>
        <time>2016-03-24T08:32:31Z</time>
      </trkpt>
      <trkpt lat="41.621063140" lon="2.399637260">
        <ele>333.23</ele>
        <time>2016-03-24T08:32:37Z</time>
      </trkpt>
      <trkpt lat="41.621034980" lon="2.399399130">
        <ele>333.23</ele>
        <time>2016-03-24T08:32:43Z</time>
      </trkpt>
      <trkpt lat="41.620946210" lon="2.399146250">
        <ele>333.23</ele>
        <time>2016-03-24T08:32:49Z</time>
      </trkpt>
      <trkpt lat="41.620788210" lon="2.398880460">
        <ele>333.23</ele>
        <time>2016-03-24T08:32:56Z</time>
      </trkpt>
      <trkpt lat="41.620577580" lon="2.398683320">
        <ele>333.23</ele>
        <time>2016-03-24T08:33:03Z</time>
      </trkpt>
      <trkpt lat="41.620365100" lon="2.398526570">
        <ele>333.23</ele>
        <time>2016-03-24T08:33:11Z</time>
      </trkpt>
      <trkpt lat="41.620172060" lon="2.398382660">
        <ele>333.23</ele>
        <time>2016-03-24T08:33:18Z</time>
      </trkpt>
      <trkpt lat="41.620040550" lon="2.398297920">
        <ele>333.23</ele>
        <time>2016-03-24T08:33:23Z</time>
      </trkpt>
      <trkpt lat="41.619821280" lon="2.398133880">
        <ele>333.23</ele>
        <time>2016-03-24T08:33:30Z</time>
      </trkpt>
      <trkpt lat="41.619633860" lon="2.397979070">
        <ele>333.23</ele>
        <time>2016-03-24T08:33:36Z</time>
      </trkpt>
      <trkpt lat="41.619569400" lon="2.397784690">
        <ele>333.23</ele>
        <time>2016-03-24T08:33:41Z</time>
      </trkpt>
      <trkpt lat="41.619504020" lon="2.397461900">
        <ele>333.23</ele>
        <time>2016-03-24T08:33:49Z</time>
      </trkpt>
      <trkpt lat="41.619487340" lon="2.397106260">
        <ele>333.23</ele>
        <time>2016-03-24T08:33:57Z</time>
      </trkpt>
      <trkpt lat="41.619285000" lon="2.397028230">
        <ele>333.23</ele>
        <time>2016-03-24T08:34:03Z</time>
      </trkpt>
      <trkpt lat="41.619249210" lon="2.397028900">
        <ele>333.23</ele>
        <time>2016-03-24T08:34:04Z</time>
      </trkpt>
      <trkpt lat="41.618913850" lon="2.397053200">
        <ele>333.23</ele>
        <time>2016-03-24T08:34:13Z</time>
      </trkpt>
      <trkpt lat="41.618705650" lon="2.397056810">
        <ele>333.23</ele>
        <time>2016-03-24T08:34:19Z</time>
      </trkpt>
      <trkpt lat="41.618513870" lon="2.397020510">
        <ele>333.23</ele>
        <time>2016-03-24T08:34:25Z</time>
      </trkpt>
      <trkpt lat="41.618276660" lon="2.396878020">
        <ele>333.71</ele>
        <time>2016-03-24T08:34:32Z</time>
      </trkpt>
      <trkpt lat="41.618141800" lon="2.396686830">
        <ele>333.71</ele>
        <time>2016-03-24T08:34:38Z</time>
      </trkpt>
      <trkpt lat="41.618121760" lon="2.396461860">
        <ele>333.71</ele>
        <time>2016-03-24T08:34:44Z</time>
      </trkpt>
      <trkpt lat="41.618066280" lon="2.396226580">
        <ele>333.71</ele>
        <time>2016-03-24T08:34:50Z</time>
      </trkpt>
      <trkpt lat="41.618063010" lon="2.395963810">
        <ele>333.71</ele>
        <time>2016-03-24T08:34:56Z</time>
      </trkpt>
      <trkpt lat="41.618056890" lon="2.395589720">
        <ele>333.71</ele>
        <time>2016-03-24T08:35:04Z</time>
      </trkpt>
      <trkpt lat="41.618077090" lon="2.395477990">
        <ele>333.71</ele>
        <time>2016-03-24T08:35:06Z</time>
      </trkpt>
      <trkpt lat="41.618123860" lon="2.395152860">
        <ele>332.27</ele>
        <time>2016-03-24T08:35:12Z</time>
      </trkpt>
      <trkpt lat="41.618108350" lon="2.395105750">
        <ele>332.27</ele>
        <time>2016-03-24T08:35:13Z</time>
      </trkpt>
      <trkpt lat="41.618052190" lon="2.394850190">
        <ele>333.71</ele>
        <time>2016-03-24T08:35:19Z</time>
      </trkpt>
      <trkpt lat="41.618026290" lon="2.394529500">
        <ele>334.20</ele>
        <time>2016-03-24T08:35:27Z</time>
      </trkpt>
      <trkpt lat="41.618042140" lon="2.394316010">
        <ele>335.16</ele>
        <time>2016-03-24T08:35:35Z</time>
      </trkpt>
      <trkpt lat="41.618060660" lon="2.394139400">
        <ele>336.12</ele>
        <time>2016-03-24T08:35:42Z</time>
      </trkpt>
      <trkpt lat="41.618099640" lon="2.393894900">
        <ele>337.56</ele>
        <time>2016-03-24T08:35:51Z</time>
      </trkpt>
      <trkpt lat="41.618167360" lon="2.393724160">
        <ele>339.00</ele>
        <time>2016-03-24T08:35:59Z</time>
      </trkpt>
      <trkpt lat="41.618221090" lon="2.393547220">
        <ele>341.41</ele>
        <time>2016-03-24T08:36:07Z</time>
      </trkpt>
      <trkpt lat="41.618281860" lon="2.393354600">
        <ele>343.81</ele>
        <time>2016-03-24T08:36:16Z</time>
      </trkpt>
      <trkpt lat="41.618341790" lon="2.393185630">
        <ele>345.73</ele>
        <time>2016-03-24T08:36:24Z</time>
      </trkpt>
      <trkpt lat="41.618347070" lon="2.393166680">
        <ele>345.73</ele>
        <time>2016-03-24T08:36:25Z</time>
      </trkpt>
      <trkpt lat="41.618415300" lon="2.393123350">
        <ele>346.69</ele>
        <time>2016-03-24T08:36:30Z</time>
      </trkpt>
      <trkpt lat="41.618547480" lon="2.393177830">
        <ele>348.62</ele>
        <time>2016-03-24T08:36:39Z</time>
      </trkpt>
      <trkpt lat="41.618610010" lon="2.393212530">
        <ele>349.58</ele>
        <time>2016-03-24T08:36:44Z</time>
      </trkpt>
      <trkpt lat="41.618695840" lon="2.393250170">
        <ele>351.02</ele>
        <time>2016-03-24T08:36:51Z</time>
      </trkpt>
      <trkpt lat="41.618733140" lon="2.393180260">
        <ele>351.50</ele>
        <time>2016-03-24T08:36:56Z</time>
      </trkpt>
      <trkpt lat="41.618677900" lon="2.393030980">
        <ele>351.50</ele>
        <time>2016-03-24T08:37:04Z</time>
      </trkpt>
      <trkpt lat="41.618596510" lon="2.392925200">
        <ele>351.50</ele>
        <time>2016-03-24T08:37:10Z</time>
      </trkpt>
      <trkpt lat="41.618512860" lon="2.392803830">
        <ele>351.98</ele>
        <time>2016-03-24T08:37:16Z</time>
      </trkpt>
      <trkpt lat="41.618355200" lon="2.392529070">
        <ele>353.90</ele>
        <time>2016-03-24T08:37:27Z</time>
      </trkpt>
      <trkpt lat="41.618261410" lon="2.392364370">
        <ele>354.86</ele>
        <time>2016-03-24T08:37:34Z</time>
      </trkpt>
      <trkpt lat="41.618153280" lon="2.392150540">
        <ele>355.83</ele>
        <time>2016-03-24T08:37:43Z</time>
      </trkpt>
      <trkpt lat="41.618071050" lon="2.391985840">
        <ele>356.79</ele>
        <time>2016-03-24T08:37:50Z</time>
      </trkpt>
      <trkpt lat="41.617918000" lon="2.391862370">
        <ele>358.71</ele>
        <time>2016-03-24T08:37:59Z</time>
      </trkpt>
      <trkpt lat="41.617840550" lon="2.391853490">
        <ele>359.67</ele>
        <time>2016-03-24T08:38:03Z</time>
      </trkpt>
      <trkpt lat="41.617700150" lon="2.391870170">
        <ele>362.07</ele>
        <time>2016-03-24T08:38:12Z</time>
      </trkpt>
      <trkpt lat="41.617624050" lon="2.391915260">
        <ele>363.04</ele>
        <time>2016-03-24T08:38:18Z</time>
      </trkpt>
      <trkpt lat="41.617546930" lon="2.391952900">
        <ele>364.00</ele>
        <time>2016-03-24T08:38:23Z</time>
      </trkpt>
      <trkpt lat="41.617484490" lon="2.392001090">
        <ele>365.44</ele>
        <time>2016-03-24T08:38:28Z</time>
      </trkpt>
      <trkpt lat="41.617325650" lon="2.392013420">
        <ele>367.36</ele>
        <time>2016-03-24T08:38:37Z</time>
      </trkpt>
      <trkpt lat="41.617159190" lon="2.392000590">
        <ele>369.28</ele>
        <time>2016-03-24T08:38:46Z</time>
      </trkpt>
      <trkpt lat="41.617019120" lon="2.391983830">
        <ele>370.24</ele>
        <time>2016-03-24T08:38:54Z</time>
      </trkpt>
      <trkpt lat="41.616879570" lon="2.391970170">
        <ele>371.21</ele>
        <time>2016-03-24T08:39:01Z</time>
      </trkpt>
      <trkpt lat="41.616672280" lon="2.391964380">
        <ele>372.17</ele>
        <time>2016-03-24T08:39:11Z</time>
      </trkpt>
      <trkpt lat="41.616531380" lon="2.391938150">
        <ele>372.65</ele>
        <time>2016-03-24T08:39:18Z</time>
      </trkpt>
      <trkpt lat="41.616428200" lon="2.391959770">
        <ele>373.13</ele>
        <time>2016-03-24T08:39:22Z</time>
      </trkpt>
      <trkpt lat="41.616370870" lon="2.392174770">
        <ele>374.57</ele>
        <time>2016-03-24T08:39:31Z</time>
      </trkpt>
      <trkpt lat="41.616361560" lon="2.392357490">
        <ele>376.49</ele>
        <time>2016-03-24T08:39:38Z</time>
      </trkpt>
      <trkpt lat="41.616354360" lon="2.392548850">
        <ele>377.45</ele>
        <time>2016-03-24T08:39:45Z</time>
      </trkpt>
      <trkpt lat="41.616320410" lon="2.392696630">
        <ele>378.42</ele>
        <time>2016-03-24T08:39:51Z</time>
      </trkpt>
      <trkpt lat="41.616209680" lon="2.392900720">
        <ele>380.34</ele>
        <time>2016-03-24T08:40:01Z</time>
      </trkpt>
      <trkpt lat="41.616161740" lon="2.392829980">
        <ele>381.78</ele>
        <time>2016-03-24T08:40:07Z</time>
      </trkpt>
      <trkpt lat="41.616166770" lon="2.392809280">
        <ele>381.78</ele>
        <time>2016-03-24T08:40:08Z</time>
      </trkpt>
      <trkpt lat="41.616149080" lon="2.392542730">
        <ele>383.70</ele>
        <time>2016-03-24T08:40:19Z</time>
      </trkpt>
      <trkpt lat="41.616067950" lon="2.392331010">
        <ele>385.15</ele>
        <time>2016-03-24T08:40:28Z</time>
      </trkpt>
      <trkpt lat="41.615965430" lon="2.392168230">
        <ele>386.11</ele>
        <time>2016-03-24T08:40:36Z</time>
      </trkpt>
      <trkpt lat="41.615847000" lon="2.392005960">
        <ele>387.55</ele>
        <time>2016-03-24T08:40:45Z</time>
      </trkpt>
      <trkpt lat="41.615834260" lon="2.391987180">
        <ele>388.03</ele>
        <time>2016-03-24T08:40:46Z</time>
      </trkpt>
      <trkpt lat="41.615778850" lon="2.391871430">
        <ele>388.99</ele>
        <time>2016-03-24T08:40:52Z</time>
      </trkpt>
      <trkpt lat="41.615710040" lon="2.391641600">
        <ele>390.43</ele>
        <time>2016-03-24T08:41:01Z</time>
      </trkpt>
      <trkpt lat="41.615704340" lon="2.391612850">
        <ele>390.91</ele>
        <time>2016-03-24T08:41:02Z</time>
      </trkpt>
      <trkpt lat="41.615689750" lon="2.391407740">
        <ele>392.36</ele>
        <time>2016-03-24T08:41:11Z</time>
      </trkpt>
      <trkpt lat="41.615635360" lon="2.391234740">
        <ele>394.28</ele>
        <time>2016-03-24T08:41:19Z</time>
      </trkpt>
      <trkpt lat="41.615599230" lon="2.391155440">
        <ele>395.24</ele>
        <time>2016-03-24T08:41:23Z</time>
      </trkpt>
      <trkpt lat="41.615573080" lon="2.391044970">
        <ele>396.68</ele>
        <time>2016-03-24T08:41:28Z</time>
      </trkpt>
      <trkpt lat="41.615518850" lon="2.390825700">
        <ele>398.60</ele>
        <time>2016-03-24T08:41:37Z</time>
      </trkpt>
      <trkpt lat="41.615532430" lon="2.390648000">
        <ele>400.05</ele>
        <time>2016-03-24T08:41:44Z</time>
      </trkpt>
      <trkpt lat="41.615631840" lon="2.390523950">
        <ele>401.97</ele>
        <time>2016-03-24T08:41:52Z</time>
      </trkpt>
      <trkpt lat="41.615776170" lon="2.390433930">
        <ele>402.93</ele>
        <time>2016-03-24T08:42:00Z</time>
      </trkpt>
      <trkpt lat="41.615926880" lon="2.390357150">
        <ele>404.37</ele>
        <time>2016-03-24T08:42:09Z</time>
      </trkpt>
      <trkpt lat="41.616037690" lon="2.390206190">
        <ele>405.33</ele>
        <time>2016-03-24T08:42:17Z</time>
      </trkpt>
      <trkpt lat="41.616073650" lon="2.390001170">
        <ele>405.33</ele>
        <time>2016-03-24T08:42:24Z</time>
      </trkpt>
      <trkpt lat="41.616044560" lon="2.389799670">
        <ele>405.33</ele>
        <time>2016-03-24T08:42:30Z</time>
      </trkpt>
      <trkpt lat="41.615969460" lon="2.389494490">
        <ele>405.33</ele>
        <time>2016-03-24T08:42:37Z</time>
      </trkpt>
      <trkpt lat="41.615968960" lon="2.389240260">
        <ele>405.33</ele>
        <time>2016-03-24T08:42:44Z</time>
      </trkpt>
      <trkpt lat="41.616024780" lon="2.388948410">
        <ele>405.81</ele>
        <time>2016-03-24T08:42:51Z</time>
      </trkpt>
      <trkpt lat="41.616141370" lon="2.388857710">
        <ele>405.81</ele>
        <time>2016-03-24T08:42:56Z</time>
      </trkpt>
      <trkpt lat="41.616308090" lon="2.388767270">
        <ele>406.29</ele>
        <time>2016-03-24T08:43:03Z</time>
      </trkpt>
      <trkpt lat="41.616466170" lon="2.388705670">
        <ele>406.77</ele>
        <time>2016-03-24T08:43:09Z</time>
      </trkpt>
      <trkpt lat="41.616706980" lon="2.388678680">
        <ele>407.26</ele>
        <time>2016-03-24T08:43:16Z</time>
      </trkpt>
      <trkpt lat="41.617003950" lon="2.388760570">
        <ele>408.22</ele>
        <time>2016-03-24T08:43:26Z</time>
      </trkpt>
      <trkpt lat="41.617081490" lon="2.388658560">
        <ele>409.66</ele>
        <time>2016-03-24T08:43:32Z</time>
      </trkpt>
      <trkpt lat="41.617078380" lon="2.388604920">
        <ele>411.10</ele>
        <time>2016-03-24T08:43:35Z</time>
      </trkpt>
      <trkpt lat="41.617064050" lon="2.388449510">
        <ele>412.06</ele>
        <time>2016-03-24T08:43:42Z</time>
      </trkpt>
      <trkpt lat="41.617103450" lon="2.388339880">
        <ele>413.50</ele>
        <time>2016-03-24T08:43:47Z</time>
      </trkpt>
      <trkpt lat="41.617119460" lon="2.388206100">
        <ele>414.95</ele>
        <time>2016-03-24T08:43:53Z</time>
      </trkpt>
      <trkpt lat="41.617125490" lon="2.388180620">
        <ele>414.47</ele>
        <time>2016-03-24T08:43:54Z</time>
      </trkpt>
      <trkpt lat="41.617139240" lon="2.388084320">
        <ele>414.47</ele>
        <time>2016-03-24T08:43:58Z</time>
      </trkpt>
      <trkpt lat="41.617165220" lon="2.387911480">
        <ele>414.47</ele>
        <time>2016-03-24T08:44:05Z</time>
      </trkpt>
      <trkpt lat="41.617214840" lon="2.387797990">
        <ele>414.47</ele>
        <time>2016-03-24T08:44:10Z</time>
      </trkpt>
      <trkpt lat="41.617352890" lon="2.387709640">
        <ele>415.43</ele>
        <time>2016-03-24T08:44:17Z</time>
      </trkpt>
      <trkpt lat="41.617465210" lon="2.387533880">
        <ele>415.43</ele>
        <time>2016-03-24T08:44:23Z</time>
      </trkpt>
      <trkpt lat="41.617494960" lon="2.387427170">
        <ele>413.50</ele>
        <time>2016-03-24T08:44:25Z</time>
      </trkpt>
      <trkpt lat="41.617555900" lon="2.387107070">
        <ele>411.58</ele>
        <time>2016-03-24T08:44:30Z</time>
      </trkpt>
      <trkpt lat="41.617709710" lon="2.386745810">
        <ele>410.14</ele>
        <time>2016-03-24T08:44:37Z</time>
      </trkpt>
      <trkpt lat="41.617790340" lon="2.386599710">
        <ele>408.70</ele>
        <time>2016-03-24T08:44:43Z</time>
      </trkpt>
      <trkpt lat="41.617822450" lon="2.386545820">
        <ele>408.70</ele>
        <time>2016-03-24T08:44:45Z</time>
      </trkpt>
      <trkpt lat="41.617920180" lon="2.386449430">
        <ele>408.70</ele>
        <time>2016-03-24T08:44:51Z</time>
      </trkpt>
      <trkpt lat="41.618054120" lon="2.386385300">
        <ele>408.70</ele>
        <time>2016-03-24T08:44:58Z</time>
      </trkpt>
      <trkpt lat="41.618247830" lon="2.386231910">
        <ele>408.70</ele>
        <time>2016-03-24T08:45:07Z</time>
      </trkpt>
      <trkpt lat="41.618427950" lon="2.386130830">
        <ele>410.14</ele>
        <time>2016-03-24T08:45:15Z</time>
      </trkpt>
      <trkpt lat="41.618454780" lon="2.386135860">
        <ele>410.14</ele>
        <time>2016-03-24T08:45:16Z</time>
      </trkpt>
      <trkpt lat="41.618681170" lon="2.386149020">
        <ele>411.10</ele>
        <time>2016-03-24T08:45:25Z</time>
      </trkpt>
      <trkpt lat="41.618822070" lon="2.386111630">
        <ele>412.54</ele>
        <time>2016-03-24T08:45:32Z</time>
      </trkpt>
      <trkpt lat="41.618840600" lon="2.386047180">
        <ele>412.54</ele>
        <time>2016-03-24T08:45:37Z</time>
      </trkpt>
      <trkpt lat="41.618837750" lon="2.386033680">
        <ele>412.54</ele>
        <time>2016-03-24T08:45:43Z</time>
      </trkpt>
      <trkpt lat="41.618846040" lon="2.386043070">
        <ele>413.02</ele>
        <time>2016-03-24T08:46:00Z</time>
      </trkpt>
      <trkpt lat="41.618846710" lon="2.386046670">
        <ele>413.02</ele>
        <time>2016-03-24T08:46:14Z</time>
      </trkpt>
      <trkpt lat="41.618849310" lon="2.386046590">
        <ele>413.02</ele>
        <time>2016-03-24T08:46:33Z</time>
      </trkpt>
      <trkpt lat="41.618852330" lon="2.386058660">
        <ele>413.02</ele>
        <time>2016-03-24T08:46:55Z</time>
      </trkpt>
      <trkpt lat="41.618879490" lon="2.386051450">
        <ele>413.02</ele>
        <time>2016-03-24T08:47:18Z</time>
      </trkpt>
      <trkpt lat="41.618878570" lon="2.386045170">
        <ele>413.02</ele>
        <time>2016-03-24T08:47:45Z</time>
      </trkpt>
      <trkpt lat="41.618867330" lon="2.386035610">
        <ele>413.02</ele>
        <time>2016-03-24T08:48:00Z</time>
      </trkpt>
      <trkpt lat="41.618853840" lon="2.386038210">
        <ele>413.02</ele>
        <time>2016-03-24T08:48:27Z</time>
      </trkpt>
      <trkpt lat="41.618854510" lon="2.386050610">
        <ele>413.02</ele>
        <time>2016-03-24T08:48:54Z</time>
      </trkpt>
      <trkpt lat="41.618854010" lon="2.386051030">
        <ele>413.02</ele>
        <time>2016-03-24T08:49:18Z</time>
      </trkpt>
      <trkpt lat="41.618853000" lon="2.386054970">
        <ele>413.02</ele>
        <time>2016-03-24T08:49:37Z</time>
      </trkpt>
      <trkpt lat="41.618840180" lon="2.386039800">
        <ele>413.02</ele>
        <time>2016-03-24T08:49:58Z</time>
      </trkpt>
      <trkpt lat="41.618854260" lon="2.386043740">
        <ele>413.02</ele>
        <time>2016-03-24T08:50:21Z</time>
      </trkpt>
      <trkpt lat="41.618870690" lon="2.386045500">
        <ele>413.02</ele>
        <time>2016-03-24T08:50:46Z</time>
      </trkpt>
      <trkpt lat="41.618863560" lon="2.386050700">
        <ele>413.02</ele>
        <time>2016-03-24T08:51:07Z</time>
      </trkpt>
      <trkpt lat="41.618872870" lon="2.386054550">
        <ele>413.02</ele>
        <time>2016-03-24T08:51:21Z</time>
      </trkpt>
      <trkpt lat="41.618876130" lon="2.386057820">
        <ele>413.02</ele>
        <time>2016-03-24T08:51:37Z</time>
      </trkpt>
      <trkpt lat="41.618866660" lon="2.386065200">
        <ele>413.02</ele>
        <time>2016-03-24T08:51:59Z</time>
      </trkpt>
      <trkpt lat="41.618874710" lon="2.386049610">
        <ele>413.02</ele>
        <time>2016-03-24T08:52:22Z</time>
      </trkpt>
      <trkpt lat="41.618855600" lon="2.386039970">
        <ele>413.02</ele>
        <time>2016-03-24T08:52:42Z</time>
      </trkpt>
      <trkpt lat="41.618836150" lon="2.386043740">
        <ele>413.02</ele>
        <time>2016-03-24T08:52:57Z</time>
      </trkpt>
      <trkpt lat="41.618826680" lon="2.386042400">
        <ele>413.02</ele>
        <time>2016-03-24T08:53:10Z</time>
      </trkpt>
      <trkpt lat="41.618833390" lon="2.386044660">
        <ele>413.02</ele>
        <time>2016-03-24T08:53:28Z</time>
      </trkpt>
      <trkpt lat="41.618844950" lon="2.386052370">
        <ele>413.02</ele>
        <time>2016-03-24T08:53:42Z</time>
      </trkpt>
      <trkpt lat="41.618863650" lon="2.386053550">
        <ele>413.02</ele>
        <time>2016-03-24T08:53:53Z</time>
      </trkpt>
      <trkpt lat="41.618869430" lon="2.386064440">
        <ele>413.02</ele>
        <time>2016-03-24T08:54:03Z</time>
      </trkpt>
      <trkpt lat="41.618866500" lon="2.386068300">
        <ele>413.02</ele>
        <time>2016-03-24T08:54:24Z</time>
      </trkpt>
      <trkpt lat="41.618856350" lon="2.386061180">
        <ele>413.02</ele>
        <time>2016-03-24T08:54:44Z</time>
      </trkpt>
      <trkpt lat="41.618872280" lon="2.386066370">
        <ele>413.50</ele>
        <time>2016-03-24T08:55:02Z</time>
      </trkpt>
      <trkpt lat="41.618869680" lon="2.386066290">
        <ele>413.50</ele>
        <time>2016-03-24T08:55:14Z</time>
      </trkpt>
      <trkpt lat="41.618861300" lon="2.386064190">
        <ele>413.50</ele>
        <time>2016-03-24T08:55:24Z</time>
      </trkpt>
      <trkpt lat="41.618841940" lon="2.386060840">
        <ele>413.50</ele>
        <time>2016-03-24T08:55:48Z</time>
      </trkpt>
      <trkpt lat="41.618830870" lon="2.386061760">
        <ele>413.50</ele>
        <time>2016-03-24T08:56:01Z</time>
      </trkpt>
      <trkpt lat="41.618825000" lon="2.386070810">
        <ele>413.50</ele>
        <time>2016-03-24T08:56:20Z</time>
      </trkpt>
      <trkpt lat="41.618860210" lon="2.386062270">
        <ele>413.50</ele>
        <time>2016-03-24T08:56:38Z</time>
      </trkpt>
      <trkpt lat="41.618882500" lon="2.386047930">
        <ele>413.50</ele>
        <time>2016-03-24T08:56:58Z</time>
      </trkpt>
      <trkpt lat="41.618884270" lon="2.386047010">
        <ele>413.50</ele>
        <time>2016-03-24T08:57:13Z</time>
      </trkpt>
      <trkpt lat="41.618876550" lon="2.386051200">
        <ele>413.50</ele>
        <time>2016-03-24T08:57:29Z</time>
      </trkpt>
      <trkpt lat="41.618874540" lon="2.386048350">
        <ele>412.06</ele>
        <time>2016-03-24T08:57:34Z</time>
      </trkpt>
      <trkpt lat="41.618862220" lon="2.386045250">
        <ele>412.06</ele>
        <time>2016-03-24T08:57:47Z</time>
      </trkpt>
      <trkpt lat="41.618857610" lon="2.386049360">
        <ele>412.06</ele>
        <time>2016-03-24T08:57:59Z</time>
      </trkpt>
      <trkpt lat="41.618868590" lon="2.386038210">
        <ele>412.06</ele>
        <time>2016-03-24T08:58:12Z</time>
      </trkpt>
      <trkpt lat="41.618869010" lon="2.386069720">
        <ele>412.06</ele>
        <time>2016-03-24T08:58:18Z</time>
      </trkpt>
      <trkpt lat="41.618848310" lon="2.386080710">
        <ele>412.06</ele>
        <time>2016-03-24T08:58:25Z</time>
      </trkpt>
      <trkpt lat="41.618831790" lon="2.386092690">
        <ele>412.06</ele>
        <time>2016-03-24T08:58:28Z</time>
      </trkpt>
      <trkpt lat="41.618720060" lon="2.386122200">
        <ele>412.06</ele>
        <time>2016-03-24T08:58:35Z</time>
      </trkpt>
      <trkpt lat="41.618622000" lon="2.386136190">
        <ele>411.10</ele>
        <time>2016-03-24T08:58:38Z</time>
      </trkpt>
      <trkpt lat="41.618422340" lon="2.386128400">
        <ele>410.62</ele>
        <time>2016-03-24T08:58:43Z</time>
      </trkpt>
      <trkpt lat="41.618246230" lon="2.386232500">
        <ele>409.18</ele>
        <time>2016-03-24T08:58:48Z</time>
      </trkpt>
      <trkpt lat="41.618020510" lon="2.386394690">
        <ele>409.18</ele>
        <time>2016-03-24T08:58:56Z</time>
      </trkpt>
      <trkpt lat="41.617797640" lon="2.386550090">
        <ele>409.18</ele>
        <time>2016-03-24T08:59:04Z</time>
      </trkpt>
      <trkpt lat="41.617651200" lon="2.386623940">
        <ele>408.22</ele>
        <time>2016-03-24T08:59:08Z</time>
      </trkpt>
      <trkpt lat="41.617494710" lon="2.386710270">
        <ele>406.77</ele>
        <time>2016-03-24T08:59:11Z</time>
      </trkpt>
      <trkpt lat="41.617323140" lon="2.386860050">
        <ele>405.81</ele>
        <time>2016-03-24T08:59:14Z</time>
      </trkpt>
      <trkpt lat="41.617260100" lon="2.386923670">
        <ele>405.33</ele>
        <time>2016-03-24T08:59:15Z</time>
      </trkpt>
      <trkpt lat="41.616894320" lon="2.387136240">
        <ele>404.37</ele>
        <time>2016-03-24T08:59:21Z</time>
      </trkpt>
      <trkpt lat="41.616713770" lon="2.387164070">
        <ele>404.37</ele>
        <time>2016-03-24T08:59:25Z</time>
      </trkpt>
      <trkpt lat="41.616570110" lon="2.387143700">
        <ele>403.41</ele>
        <time>2016-03-24T08:59:28Z</time>
      </trkpt>
      <trkpt lat="41.616334070" lon="2.387285180">
        <ele>400.05</ele>
        <time>2016-03-24T08:59:32Z</time>
      </trkpt>
      <trkpt lat="41.616087640" lon="2.387523230">
        <ele>399.57</ele>
        <time>2016-03-24T08:59:36Z</time>
      </trkpt>
      <trkpt lat="41.615956300" lon="2.387838730">
        <ele>399.57</ele>
        <time>2016-03-24T08:59:41Z</time>
      </trkpt>
      <trkpt lat="41.615953620" lon="2.388083810">
        <ele>401.01</ele>
        <time>2016-03-24T08:59:46Z</time>
      </trkpt>
      <trkpt lat="41.615930650" lon="2.388479270">
        <ele>402.45</ele>
        <time>2016-03-24T08:59:56Z</time>
      </trkpt>
      <trkpt lat="41.615912040" lon="2.388723020">
        <ele>403.41</ele>
        <time>2016-03-24T09:00:02Z</time>
      </trkpt>
      <trkpt lat="41.615893940" lon="2.389093920">
        <ele>404.37</ele>
        <time>2016-03-24T09:00:11Z</time>
      </trkpt>
      <trkpt lat="41.615919500" lon="2.389320810">
        <ele>404.85</ele>
        <time>2016-03-24T09:00:17Z</time>
      </trkpt>
      <trkpt lat="41.615951270" lon="2.389571520">
        <ele>404.85</ele>
        <time>2016-03-24T09:00:22Z</time>
      </trkpt>
      <trkpt lat="41.616028050" lon="2.389957080">
        <ele>404.85</ele>
        <time>2016-03-24T09:00:30Z</time>
      </trkpt>
      <trkpt lat="41.615988650" lon="2.390244670">
        <ele>404.85</ele>
        <time>2016-03-24T09:00:36Z</time>
      </trkpt>
      <trkpt lat="41.615964930" lon="2.390286580">
        <ele>404.85</ele>
        <time>2016-03-24T09:00:37Z</time>
      </trkpt>
      <trkpt lat="41.615796790" lon="2.390405520">
        <ele>402.93</ele>
        <time>2016-03-24T09:00:41Z</time>
      </trkpt>
      <trkpt lat="41.615638620" lon="2.390490010">
        <ele>401.97</ele>
        <time>2016-03-24T09:00:44Z</time>
      </trkpt>
      <trkpt lat="41.615489510" lon="2.390725790">
        <ele>400.05</ele>
        <time>2016-03-24T09:00:48Z</time>
      </trkpt>
      <trkpt lat="41.615532760" lon="2.391087720">
        <ele>396.68</ele>
        <time>2016-03-24T09:00:52Z</time>
      </trkpt>
      <trkpt lat="41.615611890" lon="2.391367090">
        <ele>393.80</ele>
        <time>2016-03-24T09:00:55Z</time>
      </trkpt>
      <trkpt lat="41.615668630" lon="2.391666910">
        <ele>390.43</ele>
        <time>2016-03-24T09:00:58Z</time>
      </trkpt>
      <trkpt lat="41.615752620" lon="2.391925150">
        <ele>389.47</ele>
        <time>2016-03-24T09:01:01Z</time>
      </trkpt>
      <trkpt lat="41.615968370" lon="2.392230840">
        <ele>386.59</ele>
        <time>2016-03-24T09:01:05Z</time>
      </trkpt>
      <trkpt lat="41.616118070" lon="2.392564860">
        <ele>383.70</ele>
        <time>2016-03-24T09:01:09Z</time>
      </trkpt>
      <trkpt lat="41.616131310" lon="2.392869210">
        <ele>380.82</ele>
        <time>2016-03-24T09:01:13Z</time>
      </trkpt>
      <trkpt lat="41.616130140" lon="2.392927880">
        <ele>380.34</ele>
        <time>2016-03-24T09:01:14Z</time>
      </trkpt>
      <trkpt lat="41.616038190" lon="2.393120750">
        <ele>379.86</ele>
        <time>2016-03-24T09:01:20Z</time>
      </trkpt>
      <trkpt lat="41.615903410" lon="2.393203900">
        <ele>379.86</ele>
        <time>2016-03-24T09:01:26Z</time>
      </trkpt>
      <trkpt lat="41.615883960" lon="2.393218230">
        <ele>379.86</ele>
        <time>2016-03-24T09:01:27Z</time>
      </trkpt>
      <trkpt lat="41.615774330" lon="2.393367350">
        <ele>380.34</ele>
        <time>2016-03-24T09:01:33Z</time>
      </trkpt>
      <trkpt lat="41.615733170" lon="2.393585110">
        <ele>381.30</ele>
        <time>2016-03-24T09:01:38Z</time>
      </trkpt>
      <trkpt lat="41.615732750" lon="2.393778230">
        <ele>380.34</ele>
        <time>2016-03-24T09:01:42Z</time>
      </trkpt>
      <trkpt lat="41.615679860" lon="2.393997080">
        <ele>378.42</ele>
        <time>2016-03-24T09:01:46Z</time>
      </trkpt>
      <trkpt lat="41.615544580" lon="2.394282230">
        <ele>376.49</ele>
        <time>2016-03-24T09:01:52Z</time>
      </trkpt>
      <trkpt lat="41.615518930" lon="2.394306450">
        <ele>376.49</ele>
        <time>2016-03-24T09:01:53Z</time>
      </trkpt>
      <trkpt lat="41.615378870" lon="2.394427660">
        <ele>378.42</ele>
        <time>2016-03-24T09:02:00Z</time>
      </trkpt>
      <trkpt lat="41.615374260" lon="2.394549700">
        <ele>378.42</ele>
        <time>2016-03-24T09:02:05Z</time>
      </trkpt>
      <trkpt lat="41.615415410" lon="2.394586240">
        <ele>378.42</ele>
        <time>2016-03-24T09:02:07Z</time>
      </trkpt>
      <trkpt lat="41.615429580" lon="2.394681210">
        <ele>378.42</ele>
        <time>2016-03-24T09:02:14Z</time>
      </trkpt>
      <trkpt lat="41.615485570" lon="2.394749270">
        <ele>376.49</ele>
        <time>2016-03-24T09:02:21Z</time>
      </trkpt>
      <trkpt lat="41.615540390" lon="2.394770810">
        <ele>375.53</ele>
        <time>2016-03-24T09:02:24Z</time>
      </trkpt>
      <trkpt lat="41.615641060" lon="2.394943980">
        <ele>374.09</ele>
        <time>2016-03-24T09:02:30Z</time>
      </trkpt>
      <trkpt lat="41.615653710" lon="2.394980530">
        <ele>374.09</ele>
        <time>2016-03-24T09:02:31Z</time>
      </trkpt>
      <trkpt lat="41.615641310" lon="2.395191920">
        <ele>372.65</ele>
        <time>2016-03-24T09:02:39Z</time>
      </trkpt>
      <trkpt lat="41.615616500" lon="2.395284620">
        <ele>371.21</ele>
        <time>2016-03-24T09:02:42Z</time>
      </trkpt>
      <trkpt lat="41.615612310" lon="2.395480760">
        <ele>368.32</ele>
        <time>2016-03-24T09:02:48Z</time>
      </trkpt>
      <trkpt lat="41.615597300" lon="2.395636910">
        <ele>366.40</ele>
        <time>2016-03-24T09:02:53Z</time>
      </trkpt>
      <trkpt lat="41.615586490" lon="2.395759210">
        <ele>364.96</ele>
        <time>2016-03-24T09:02:59Z</time>
      </trkpt>
      <trkpt lat="41.615568890" lon="2.395782170">
        <ele>363.52</ele>
        <time>2016-03-24T09:03:01Z</time>
      </trkpt>
      <trkpt lat="41.615540050" lon="2.395854090">
        <ele>362.55</ele>
        <time>2016-03-24T09:03:05Z</time>
      </trkpt>
      <trkpt lat="41.615460340" lon="2.396003370">
        <ele>360.15</ele>
        <time>2016-03-24T09:03:12Z</time>
      </trkpt>
      <trkpt lat="41.615371660" lon="2.396178220">
        <ele>359.19</ele>
        <time>2016-03-24T09:03:19Z</time>
      </trkpt>
      <trkpt lat="41.615356910" lon="2.396208480">
        <ele>358.71</ele>
        <time>2016-03-24T09:03:21Z</time>
      </trkpt>
      <trkpt lat="41.615322710" lon="2.396286760">
        <ele>357.75</ele>
        <time>2016-03-24T09:03:25Z</time>
      </trkpt>
      <trkpt lat="41.615306200" lon="2.396415840">
        <ele>356.79</ele>
        <time>2016-03-24T09:03:32Z</time>
      </trkpt>
      <trkpt lat="41.615327660" lon="2.396524720">
        <ele>355.34</ele>
        <time>2016-03-24T09:03:37Z</time>
      </trkpt>
      <trkpt lat="41.615330510" lon="2.396594210">
        <ele>354.38</ele>
        <time>2016-03-24T09:03:40Z</time>
      </trkpt>
      <trkpt lat="41.615331510" lon="2.396709210">
        <ele>352.94</ele>
        <time>2016-03-24T09:03:47Z</time>
      </trkpt>
      <trkpt lat="41.615294800" lon="2.396724800">
        <ele>352.94</ele>
        <time>2016-03-24T09:03:56Z</time>
      </trkpt>
      <trkpt lat="41.615173510" lon="2.396696220">
        <ele>352.94</ele>
        <time>2016-03-24T09:04:04Z</time>
      </trkpt>
      <trkpt lat="41.615019700" lon="2.396657490">
        <ele>351.50</ele>
        <time>2016-03-24T09:04:11Z</time>
      </trkpt>
      <trkpt lat="41.614906720" lon="2.396538890">
        <ele>351.02</ele>
        <time>2016-03-24T09:04:16Z</time>
      </trkpt>
      <trkpt lat="41.614878050" lon="2.396521120">
        <ele>350.54</ele>
        <time>2016-03-24T09:04:17Z</time>
      </trkpt>
      <trkpt lat="41.614740080" lon="2.396425480">
        <ele>350.06</ele>
        <time>2016-03-24T09:04:24Z</time>
      </trkpt>
      <trkpt lat="41.614724660" lon="2.396326740">
        <ele>349.58</ele>
        <time>2016-03-24T09:04:29Z</time>
      </trkpt>
      <trkpt lat="41.614766070" lon="2.396114930">
        <ele>349.10</ele>
        <time>2016-03-24T09:04:36Z</time>
      </trkpt>
      <trkpt lat="41.614799760" lon="2.395956600">
        <ele>348.62</ele>
        <time>2016-03-24T09:04:41Z</time>
      </trkpt>
      <trkpt lat="41.614800430" lon="2.395925250">
        <ele>348.62</ele>
        <time>2016-03-24T09:04:42Z</time>
      </trkpt>
      <trkpt lat="41.614834630" lon="2.395803460">
        <ele>347.65</ele>
        <time>2016-03-24T09:04:51Z</time>
      </trkpt>
      <trkpt lat="41.614807470" lon="2.395812010">
        <ele>347.65</ele>
        <time>2016-03-24T09:04:58Z</time>
      </trkpt>
      <trkpt lat="41.614800100" lon="2.395818050">
        <ele>347.65</ele>
        <time>2016-03-24T09:04:59Z</time>
      </trkpt>
      <trkpt lat="41.614720970" lon="2.395900190">
        <ele>345.73</ele>
        <time>2016-03-24T09:05:05Z</time>
      </trkpt>
      <trkpt lat="41.614617960" lon="2.395961630">
        <ele>344.29</ele>
        <time>2016-03-24T09:05:11Z</time>
      </trkpt>
      <trkpt lat="41.614514610" lon="2.395959950">
        <ele>343.33</ele>
        <time>2016-03-24T09:05:15Z</time>
      </trkpt>
      <trkpt lat="41.614454930" lon="2.395957600">
        <ele>342.37</ele>
        <time>2016-03-24T09:05:18Z</time>
      </trkpt>
      <trkpt lat="41.614388460" lon="2.395963970">
        <ele>340.92</ele>
        <time>2016-03-24T09:05:21Z</time>
      </trkpt>
      <trkpt lat="41.614301540" lon="2.396061960">
        <ele>340.44</ele>
        <time>2016-03-24T09:05:25Z</time>
      </trkpt>
      <trkpt lat="41.614222670" lon="2.396137900">
        <ele>339.96</ele>
        <time>2016-03-24T09:05:28Z</time>
      </trkpt>
      <trkpt lat="41.614058050" lon="2.396343840">
        <ele>339.48</ele>
        <time>2016-03-24T09:05:35Z</time>
      </trkpt>
      <trkpt lat="41.614023930" lon="2.396389610">
        <ele>339.48</ele>
        <time>2016-03-24T09:05:37Z</time>
      </trkpt>
      <trkpt lat="41.613951520" lon="2.396455740">
        <ele>339.48</ele>
        <time>2016-03-24T09:05:40Z</time>
      </trkpt>
      <trkpt lat="41.613893760" lon="2.396580040">
        <ele>341.41</ele>
        <time>2016-03-24T09:05:44Z</time>
      </trkpt>
      <trkpt lat="41.613828300" lon="2.396752540">
        <ele>341.41</ele>
        <time>2016-03-24T09:05:50Z</time>
      </trkpt>
      <trkpt lat="41.613800220" lon="2.396840140">
        <ele>339.48</ele>
        <time>2016-03-24T09:05:53Z</time>
      </trkpt>
      <trkpt lat="41.613757140" lon="2.396919930">
        <ele>337.56</ele>
        <time>2016-03-24T09:05:56Z</time>
      </trkpt>
      <trkpt lat="41.613735090" lon="2.397062760">
        <ele>334.68</ele>
        <time>2016-03-24T09:06:01Z</time>
      </trkpt>
      <trkpt lat="41.613652450" lon="2.397164010">
        <ele>330.83</ele>
        <time>2016-03-24T09:06:07Z</time>
      </trkpt>
      <trkpt lat="41.613638450" lon="2.397252020">
        <ele>328.91</ele>
        <time>2016-03-24T09:06:10Z</time>
      </trkpt>
      <trkpt lat="41.613647170" lon="2.397366020">
        <ele>326.99</ele>
        <time>2016-03-24T09:06:14Z</time>
      </trkpt>
      <trkpt lat="41.613686140" lon="2.397547900">
        <ele>324.10</ele>
        <time>2016-03-24T09:06:21Z</time>
      </trkpt>
      <trkpt lat="41.613710030" lon="2.397602550">
        <ele>323.14</ele>
        <time>2016-03-24T09:06:24Z</time>
      </trkpt>
      <trkpt lat="41.613699640" lon="2.397671870">
        <ele>321.70</ele>
        <time>2016-03-24T09:06:31Z</time>
      </trkpt>
      <trkpt lat="41.613677010" lon="2.397692070">
        <ele>321.70</ele>
        <time>2016-03-24T09:06:44Z</time>
      </trkpt>
      <trkpt lat="41.613692010" lon="2.397702800">
        <ele>321.70</ele>
        <time>2016-03-24T09:06:48Z</time>
      </trkpt>
      <trkpt lat="41.613731990" lon="2.397757700">
        <ele>321.22</ele>
        <time>2016-03-24T09:06:52Z</time>
      </trkpt>
      <trkpt lat="41.613748760" lon="2.397803130">
        <ele>319.78</ele>
        <time>2016-03-24T09:06:55Z</time>
      </trkpt>
      <trkpt lat="41.613705420" lon="2.397879990">
        <ele>317.37</ele>
        <time>2016-03-24T09:07:00Z</time>
      </trkpt>
      <trkpt lat="41.613628980" lon="2.397956770">
        <ele>315.93</ele>
        <time>2016-03-24T09:07:05Z</time>
      </trkpt>
      <trkpt lat="41.613584140" lon="2.397914700">
        <ele>312.57</ele>
        <time>2016-03-24T09:07:08Z</time>
      </trkpt>
      <trkpt lat="41.613576760" lon="2.397915280">
        <ele>312.57</ele>
        <time>2016-03-24T09:07:09Z</time>
      </trkpt>
      <trkpt lat="41.613547260" lon="2.397965150">
        <ele>311.60</ele>
        <time>2016-03-24T09:07:12Z</time>
      </trkpt>
      <trkpt lat="41.613482550" lon="2.397973870">
        <ele>310.64</ele>
        <time>2016-03-24T09:07:16Z</time>
      </trkpt>
      <trkpt lat="41.613406690" lon="2.397958030">
        <ele>308.24</ele>
        <time>2016-03-24T09:07:19Z</time>
      </trkpt>
      <trkpt lat="41.613386830" lon="2.397855180">
        <ele>305.36</ele>
        <time>2016-03-24T09:07:24Z</time>
      </trkpt>
      <trkpt lat="41.613378700" lon="2.397689220">
        <ele>304.88</ele>
        <time>2016-03-24T09:07:30Z</time>
      </trkpt>
      <trkpt lat="41.613270650" lon="2.397574140">
        <ele>303.43</ele>
        <time>2016-03-24T09:07:37Z</time>
      </trkpt>
      <trkpt lat="41.613208540" lon="2.397515050">
        <ele>302.47</ele>
        <time>2016-03-24T09:07:42Z</time>
      </trkpt>
      <trkpt lat="41.613148860" lon="2.397478840">
        <ele>301.51</ele>
        <time>2016-03-24T09:07:48Z</time>
      </trkpt>
      <trkpt lat="41.613111560" lon="2.397419740">
        <ele>301.51</ele>
        <time>2016-03-24T09:07:51Z</time>
      </trkpt>
      <trkpt lat="41.613026570" lon="2.397382030">
        <ele>300.07</ele>
        <time>2016-03-24T09:07:56Z</time>
      </trkpt>
      <trkpt lat="41.612948450" lon="2.397330560">
        <ele>298.63</ele>
        <time>2016-03-24T09:08:01Z</time>
      </trkpt>
      <trkpt lat="41.612920290" lon="2.397333830">
        <ele>298.15</ele>
        <time>2016-03-24T09:08:08Z</time>
      </trkpt>
      <trkpt lat="41.612929340" lon="2.397337690">
        <ele>298.15</ele>
        <time>2016-03-24T09:08:11Z</time>
      </trkpt>
      <trkpt lat="41.612978880" lon="2.397401390">
        <ele>297.18</ele>
        <time>2016-03-24T09:08:17Z</time>
      </trkpt>
      <trkpt lat="41.613036550" lon="2.397530130">
        <ele>296.70</ele>
        <time>2016-03-24T09:08:25Z</time>
      </trkpt>
      <trkpt lat="41.613037720" lon="2.397595850">
        <ele>296.70</ele>
        <time>2016-03-24T09:08:32Z</time>
      </trkpt>
      <trkpt lat="41.613009140" lon="2.397572290">
        <ele>296.70</ele>
        <time>2016-03-24T09:08:42Z</time>
      </trkpt>
      <trkpt lat="41.613015170" lon="2.397553180">
        <ele>296.70</ele>
        <time>2016-03-24T09:08:53Z</time>
      </trkpt>
      <trkpt lat="41.612999250" lon="2.397510180">
        <ele>296.70</ele>
        <time>2016-03-24T09:09:02Z</time>
      </trkpt>
      <trkpt lat="41.612994720" lon="2.397504900">
        <ele>296.70</ele>
        <time>2016-03-24T09:09:06Z</time>
      </trkpt>
      <trkpt lat="41.612944010" lon="2.397438770">
        <ele>296.70</ele>
        <time>2016-03-24T09:09:13Z</time>
      </trkpt>
      <trkpt lat="41.612915340" lon="2.397402560">
        <ele>296.70</ele>
        <time>2016-03-24T09:09:16Z</time>
      </trkpt>
      <trkpt lat="41.612890950" lon="2.397341040">
        <ele>298.15</ele>
        <time>2016-03-24T09:09:19Z</time>
      </trkpt>
      <trkpt lat="41.612872430" lon="2.397287480">
        <ele>298.15</ele>
        <time>2016-03-24T09:09:22Z</time>
      </trkpt>
      <trkpt lat="41.612805630" lon="2.397180360">
        <ele>298.63</ele>
        <time>2016-03-24T09:09:29Z</time>
      </trkpt>
      <trkpt lat="41.612767320" lon="2.397061670">
        <ele>298.63</ele>
        <time>2016-03-24T09:09:35Z</time>
      </trkpt>
      <trkpt lat="41.612766730" lon="2.397051190">
        <ele>297.18</ele>
        <time>2016-03-24T09:09:37Z</time>
      </trkpt>
      <trkpt lat="41.612752400" lon="2.397039040">
        <ele>297.18</ele>
        <time>2016-03-24T09:09:47Z</time>
      </trkpt>
      <trkpt lat="41.612729100" lon="2.397058740">
        <ele>295.74</ele>
        <time>2016-03-24T09:09:55Z</time>
      </trkpt>
      <trkpt lat="41.612717950" lon="2.397070220">
        <ele>295.74</ele>
        <time>2016-03-24T09:09:59Z</time>
      </trkpt>
      <trkpt lat="41.612664390" lon="2.397072150">
        <ele>293.34</ele>
        <time>2016-03-24T09:10:07Z</time>
      </trkpt>
      <trkpt lat="41.612610160" lon="2.397099640">
        <ele>290.94</ele>
        <time>2016-03-24T09:10:13Z</time>
      </trkpt>
      <trkpt lat="41.612607140" lon="2.397123110">
        <ele>290.94</ele>
        <time>2016-03-24T09:10:22Z</time>
      </trkpt>
      <trkpt lat="41.612623650" lon="2.397172980">
        <ele>290.94</ele>
        <time>2016-03-24T09:10:27Z</time>
      </trkpt>
      <trkpt lat="41.612636810" lon="2.397248750">
        <ele>289.97</ele>
        <time>2016-03-24T09:10:30Z</time>
      </trkpt>
      <trkpt lat="41.612748460" lon="2.397351680">
        <ele>291.90</ele>
        <time>2016-03-24T09:10:38Z</time>
      </trkpt>
      <trkpt lat="41.612753740" lon="2.397361570">
        <ele>291.90</ele>
        <time>2016-03-24T09:10:39Z</time>
      </trkpt>
      <trkpt lat="41.612756420" lon="2.397397620">
        <ele>291.90</ele>
        <time>2016-03-24T09:10:46Z</time>
      </trkpt>
      <trkpt lat="41.612754410" lon="2.397423600">
        <ele>291.90</ele>
        <time>2016-03-24T09:10:55Z</time>
      </trkpt>
      <trkpt lat="41.612764720" lon="2.397464420">
        <ele>291.90</ele>
        <time>2016-03-24T09:11:06Z</time>
      </trkpt>
      <trkpt lat="41.612765060" lon="2.397469620">
        <ele>290.46</ele>
        <time>2016-03-24T09:11:08Z</time>
      </trkpt>
      <trkpt lat="41.612767740" lon="2.397494850">
        <ele>289.49</ele>
        <time>2016-03-24T09:11:16Z</time>
      </trkpt>
      <trkpt lat="41.612749380" lon="2.397528040">
        <ele>287.09</ele>
        <time>2016-03-24T09:11:23Z</time>
      </trkpt>
      <trkpt lat="41.612737400" lon="2.397551840">
        <ele>286.13</ele>
        <time>2016-03-24T09:11:28Z</time>
      </trkpt>
      <trkpt lat="41.612687520" lon="2.397598530">
        <ele>284.69</ele>
        <time>2016-03-24T09:11:37Z</time>
      </trkpt>
      <trkpt lat="41.612652740" lon="2.397595680">
        <ele>283.25</ele>
        <time>2016-03-24T09:11:45Z</time>
      </trkpt>
      <trkpt lat="41.612616950" lon="2.397581010">
        <ele>282.28</ele>
        <time>2016-03-24T09:11:55Z</time>
      </trkpt>
      <trkpt lat="41.612613010" lon="2.397550420">
        <ele>281.32</ele>
        <time>2016-03-24T09:12:05Z</time>
      </trkpt>
      <trkpt lat="41.612605630" lon="2.397537680">
        <ele>280.84</ele>
        <time>2016-03-24T09:12:09Z</time>
      </trkpt>
      <trkpt lat="41.612558860" lon="2.397482440">
        <ele>278.92</ele>
        <time>2016-03-24T09:12:13Z</time>
      </trkpt>
      <trkpt lat="41.612548890" lon="2.397487720">
        <ele>278.92</ele>
        <time>2016-03-24T09:12:14Z</time>
      </trkpt>
      <trkpt lat="41.612424160" lon="2.397507170">
        <ele>277.48</ele>
        <time>2016-03-24T09:12:20Z</time>
      </trkpt>
      <trkpt lat="41.612388540" lon="2.397519150">
        <ele>277.48</ele>
        <time>2016-03-24T09:12:22Z</time>
      </trkpt>
      <trkpt lat="41.612357440" lon="2.397549910">
        <ele>277.00</ele>
        <time>2016-03-24T09:12:30Z</time>
      </trkpt>
      <trkpt lat="41.612315950" lon="2.397569360">
        <ele>277.00</ele>
        <time>2016-03-24T09:12:36Z</time>
      </trkpt>
      <trkpt lat="41.612304050" lon="2.397572630">
        <ele>277.00</ele>
        <time>2016-03-24T09:12:37Z</time>
      </trkpt>
      <trkpt lat="41.612170610" lon="2.397608250">
        <ele>277.00</ele>
        <time>2016-03-24T09:12:44Z</time>
      </trkpt>
      <trkpt lat="41.612102970" lon="2.397729710">
        <ele>277.00</ele>
        <time>2016-03-24T09:12:51Z</time>
      </trkpt>
      <trkpt lat="41.612046730" lon="2.397854680">
        <ele>276.52</ele>
        <time>2016-03-24T09:12:57Z</time>
      </trkpt>
      <trkpt lat="41.612049070" lon="2.397940510">
        <ele>275.56</ele>
        <time>2016-03-24T09:13:01Z</time>
      </trkpt>
      <trkpt lat="41.612024850" lon="2.397985770">
        <ele>276.04</ele>
        <time>2016-03-24T09:13:06Z</time>
      </trkpt>
      <trkpt lat="41.611942460" lon="2.398014440">
        <ele>274.59</ele>
        <time>2016-03-24T09:13:13Z</time>
      </trkpt>
      <trkpt lat="41.611875070" lon="2.398062720">
        <ele>274.59</ele>
        <time>2016-03-24T09:13:18Z</time>
      </trkpt>
      <trkpt lat="41.611824360" lon="2.398132540">
        <ele>274.11</ele>
        <time>2016-03-24T09:13:22Z</time>
      </trkpt>
      <trkpt lat="41.611746150" lon="2.398215350">
        <ele>273.15</ele>
        <time>2016-03-24T09:13:27Z</time>
      </trkpt>
      <trkpt lat="41.611656550" lon="2.398358180">
        <ele>272.67</ele>
        <time>2016-03-24T09:13:32Z</time>
      </trkpt>
      <trkpt lat="41.611540630" lon="2.398556160">
        <ele>270.75</ele>
        <time>2016-03-24T09:13:38Z</time>
      </trkpt>
      <trkpt lat="41.611526460" lon="2.398622040">
        <ele>270.75</ele>
        <time>2016-03-24T09:13:40Z</time>
      </trkpt>
      <trkpt lat="41.611546240" lon="2.398715330">
        <ele>273.63</ele>
        <time>2016-03-24T09:13:48Z</time>
      </trkpt>
      <trkpt lat="41.611564430" lon="2.398752550">
        <ele>274.59</ele>
        <time>2016-03-24T09:13:54Z</time>
      </trkpt>
      <trkpt lat="41.611557140" lon="2.398802170">
        <ele>276.04</ele>
        <time>2016-03-24T09:14:03Z</time>
      </trkpt>
      <trkpt lat="41.611559070" lon="2.398846090">
        <ele>276.52</ele>
        <time>2016-03-24T09:14:12Z</time>
      </trkpt>
      <trkpt lat="41.611555210" lon="2.398848610">
        <ele>276.52</ele>
        <time>2016-03-24T09:14:15Z</time>
      </trkpt>
      <trkpt lat="41.611514560" lon="2.398894710">
        <ele>276.52</ele>
        <time>2016-03-24T09:14:19Z</time>
      </trkpt>
      <trkpt lat="41.611440210" lon="2.398960510">
        <ele>273.15</ele>
        <time>2016-03-24T09:14:25Z</time>
      </trkpt>
      <trkpt lat="41.611388500" lon="2.399076340">
        <ele>271.71</ele>
        <time>2016-03-24T09:14:30Z</time>
      </trkpt>
      <trkpt lat="41.611320770" lon="2.399130990">
        <ele>269.79</ele>
        <time>2016-03-24T09:14:33Z</time>
      </trkpt>
      <trkpt lat="41.611221190" lon="2.399144820">
        <ele>268.35</ele>
        <time>2016-03-24T09:14:39Z</time>
      </trkpt>
      <trkpt lat="41.611205350" lon="2.399214140">
        <ele>267.86</ele>
        <time>2016-03-24T09:14:44Z</time>
      </trkpt>
      <trkpt lat="41.611208870" lon="2.399229230">
        <ele>267.38</ele>
        <time>2016-03-24T09:14:46Z</time>
      </trkpt>
      <trkpt lat="41.611265450" lon="2.399296030">
        <ele>265.94</ele>
        <time>2016-03-24T09:14:49Z</time>
      </trkpt>
      <trkpt lat="41.611354550" lon="2.399444900">
        <ele>265.46</ele>
        <time>2016-03-24T09:14:55Z</time>
      </trkpt>
      <trkpt lat="41.611445490" lon="2.399610690">
        <ele>264.50</ele>
        <time>2016-03-24T09:15:01Z</time>
      </trkpt>
      <trkpt lat="41.611483460" lon="2.399685120">
        <ele>264.02</ele>
        <time>2016-03-24T09:15:05Z</time>
      </trkpt>
      <trkpt lat="41.611581950" lon="2.399778750">
        <ele>263.06</ele>
        <time>2016-03-24T09:15:11Z</time>
      </trkpt>
      <trkpt lat="41.611610620" lon="2.399844630">
        <ele>263.06</ele>
        <time>2016-03-24T09:15:15Z</time>
      </trkpt>
      <trkpt lat="41.611598970" lon="2.399867340">
        <ele>262.58</ele>
        <time>2016-03-24T09:15:17Z</time>
      </trkpt>
      <trkpt lat="41.611607350" lon="2.399922500">
        <ele>261.62</ele>
        <time>2016-03-24T09:15:19Z</time>
      </trkpt>
      <trkpt lat="41.611626120" lon="2.399964240">
        <ele>261.14</ele>
        <time>2016-03-24T09:15:21Z</time>
      </trkpt>
      <trkpt lat="41.611655290" lon="2.400021740">
        <ele>259.69</ele>
        <time>2016-03-24T09:15:24Z</time>
      </trkpt>
      <trkpt lat="41.611628220" lon="2.400164150">
        <ele>256.81</ele>
        <time>2016-03-24T09:15:29Z</time>
      </trkpt>
      <trkpt lat="41.611564600" lon="2.400193900">
        <ele>256.33</ele>
        <time>2016-03-24T09:15:33Z</time>
      </trkpt>
      <trkpt lat="41.611446500" lon="2.400171020">
        <ele>257.77</ele>
        <time>2016-03-24T09:15:39Z</time>
      </trkpt>
      <trkpt lat="41.611413060" lon="2.400179650">
        <ele>258.25</ele>
        <time>2016-03-24T09:15:42Z</time>
      </trkpt>
      <trkpt lat="41.611284730" lon="2.400279060">
        <ele>259.21</ele>
        <time>2016-03-24T09:15:49Z</time>
      </trkpt>
      <trkpt lat="41.611264700" lon="2.400301020">
        <ele>259.21</ele>
        <time>2016-03-24T09:15:50Z</time>
      </trkpt>
      <trkpt lat="41.611151880" lon="2.400519120">
        <ele>259.69</ele>
        <time>2016-03-24T09:16:00Z</time>
      </trkpt>
      <trkpt lat="41.611060600" lon="2.400620710">
        <ele>260.65</ele>
        <time>2016-03-24T09:16:07Z</time>
      </trkpt>
      <trkpt lat="41.610936380" lon="2.400763620">
        <ele>261.14</ele>
        <time>2016-03-24T09:16:15Z</time>
      </trkpt>
      <trkpt lat="41.610891450" lon="2.400876440">
        <ele>262.10</ele>
        <time>2016-03-24T09:16:23Z</time>
      </trkpt>
      <trkpt lat="41.610807970" lon="2.400919440">
        <ele>262.10</ele>
        <time>2016-03-24T09:16:37Z</time>
      </trkpt>
      <trkpt lat="41.610790450" lon="2.400937290">
        <ele>262.10</ele>
        <time>2016-03-24T09:16:43Z</time>
      </trkpt>
      <trkpt lat="41.610775110" lon="2.400961600">
        <ele>262.10</ele>
        <time>2016-03-24T09:16:45Z</time>
      </trkpt>
      <trkpt lat="41.610688020" lon="2.400860260">
        <ele>260.17</ele>
        <time>2016-03-24T09:16:51Z</time>
      </trkpt>
      <trkpt lat="41.610605710" lon="2.400735210">
        <ele>257.77</ele>
        <time>2016-03-24T09:16:55Z</time>
      </trkpt>
      <trkpt lat="41.610527260" lon="2.400649120">
        <ele>256.81</ele>
        <time>2016-03-24T09:16:59Z</time>
      </trkpt>
      <trkpt lat="41.610403290" lon="2.400622220">
        <ele>255.85</ele>
        <time>2016-03-24T09:17:04Z</time>
      </trkpt>
      <trkpt lat="41.610339500" lon="2.400613840">
        <ele>255.85</ele>
        <time>2016-03-24T09:17:06Z</time>
      </trkpt>
      <trkpt lat="41.610198100" lon="2.400589530">
        <ele>255.37</ele>
        <time>2016-03-24T09:17:12Z</time>
      </trkpt>
      <trkpt lat="41.610186950" lon="2.400579220">
        <ele>255.37</ele>
        <time>2016-03-24T09:17:13Z</time>
      </trkpt>
      <trkpt lat="41.610155180" lon="2.400532950">
        <ele>253.93</ele>
        <time>2016-03-24T09:17:15Z</time>
      </trkpt>
      <trkpt lat="41.610101040" lon="2.400390040">
        <ele>251.04</ele>
        <time>2016-03-24T09:17:20Z</time>
      </trkpt>
      <trkpt lat="41.609978240" lon="2.400329190">
        <ele>248.64</ele>
        <time>2016-03-24T09:17:24Z</time>
      </trkpt>
      <trkpt lat="41.609917140" lon="2.400290380">
        <ele>248.16</ele>
        <time>2016-03-24T09:17:27Z</time>
      </trkpt>
      <trkpt lat="41.609739610" lon="2.400228940">
        <ele>245.75</ele>
        <time>2016-03-24T09:17:33Z</time>
      </trkpt>
      <trkpt lat="41.609629470" lon="2.400149310">
        <ele>243.35</ele>
        <time>2016-03-24T09:17:37Z</time>
      </trkpt>
      <trkpt lat="41.609601890" lon="2.400124330">
        <ele>242.87</ele>
        <time>2016-03-24T09:17:38Z</time>
      </trkpt>
      <trkpt lat="41.609451190" lon="2.400008910">
        <ele>241.43</ele>
        <time>2016-03-24T09:17:42Z</time>
      </trkpt>
      <trkpt lat="41.609273910" lon="2.399821580">
        <ele>239.51</ele>
        <time>2016-03-24T09:17:47Z</time>
      </trkpt>
      <trkpt lat="41.609271480" lon="2.399725940">
        <ele>238.54</ele>
        <time>2016-03-24T09:17:51Z</time>
      </trkpt>
      <trkpt lat="41.609289080" lon="2.399716050">
        <ele>238.54</ele>
        <time>2016-03-24T09:17:52Z</time>
      </trkpt>
      <trkpt lat="41.609461250" lon="2.399733230">
        <ele>237.10</ele>
        <time>2016-03-24T09:17:59Z</time>
      </trkpt>
      <trkpt lat="41.609597950" lon="2.399702640">
        <ele>235.18</ele>
        <time>2016-03-24T09:18:04Z</time>
      </trkpt>
      <trkpt lat="41.609649840" lon="2.399677580">
        <ele>234.70</ele>
        <time>2016-03-24T09:18:06Z</time>
      </trkpt>
      <trkpt lat="41.609756620" lon="2.399576240">
        <ele>232.78</ele>
        <time>2016-03-24T09:18:10Z</time>
      </trkpt>
      <trkpt lat="41.609857290" lon="2.399471550">
        <ele>230.85</ele>
        <time>2016-03-24T09:18:13Z</time>
      </trkpt>
      <trkpt lat="41.609894590" lon="2.399377670">
        <ele>228.93</ele>
        <time>2016-03-24T09:18:15Z</time>
      </trkpt>
      <trkpt lat="41.609797860" lon="2.399311290">
        <ele>228.93</ele>
        <time>2016-03-24T09:18:23Z</time>
      </trkpt>
      <trkpt lat="41.609753690" lon="2.399292430">
        <ele>229.89</ele>
        <time>2016-03-24T09:18:25Z</time>
      </trkpt>
      <trkpt lat="41.609643720" lon="2.399268040">
        <ele>229.89</ele>
        <time>2016-03-24T09:18:29Z</time>
      </trkpt>
      <trkpt lat="41.609551600" lon="2.399258570">
        <ele>230.37</ele>
        <time>2016-03-24T09:18:33Z</time>
      </trkpt>
      <trkpt lat="41.609374160" lon="2.399123530">
        <ele>228.93</ele>
        <time>2016-03-24T09:18:40Z</time>
      </trkpt>
      <trkpt lat="41.609335270" lon="2.399103420">
        <ele>228.93</ele>
        <time>2016-03-24T09:18:41Z</time>
      </trkpt>
      <trkpt lat="41.609268630" lon="2.399068880">
        <ele>227.49</ele>
        <time>2016-03-24T09:18:43Z</time>
      </trkpt>
      <trkpt lat="41.609213900" lon="2.398960840">
        <ele>225.57</ele>
        <time>2016-03-24T09:18:49Z</time>
      </trkpt>
      <trkpt lat="41.609080290" lon="2.398920860">
        <ele>224.61</ele>
        <time>2016-03-24T09:18:55Z</time>
      </trkpt>
      <trkpt lat="41.608890190" lon="2.398892190">
        <ele>220.76</ele>
        <time>2016-03-24T09:19:01Z</time>
      </trkpt>
      <trkpt lat="41.608856580" lon="2.398877780">
        <ele>219.80</ele>
        <time>2016-03-24T09:19:02Z</time>
      </trkpt>
      <trkpt lat="41.608745350" lon="2.398868050">
        <ele>216.43</ele>
        <time>2016-03-24T09:19:06Z</time>
      </trkpt>
      <trkpt lat="41.608716260" lon="2.398862270">
        <ele>216.91</ele>
        <time>2016-03-24T09:19:07Z</time>
      </trkpt>
      <trkpt lat="41.608668490" lon="2.398933680">
        <ele>215.47</ele>
        <time>2016-03-24T09:19:10Z</time>
      </trkpt>
      <trkpt lat="41.608661950" lon="2.398955310">
        <ele>215.47</ele>
        <time>2016-03-24T09:19:11Z</time>
      </trkpt>
      <trkpt lat="41.608638730" lon="2.399014070">
        <ele>215.47</ele>
        <time>2016-03-24T09:19:14Z</time>
      </trkpt>
      <trkpt lat="41.608513420" lon="2.399066700">
        <ele>215.47</ele>
        <time>2016-03-24T09:19:21Z</time>
      </trkpt>
      <trkpt lat="41.608398250" lon="2.399084470">
        <ele>216.91</ele>
        <time>2016-03-24T09:19:26Z</time>
      </trkpt>
      <trkpt lat="41.608354750" lon="2.399104510">
        <ele>217.40</ele>
        <time>2016-03-24T09:19:28Z</time>
      </trkpt>
      <trkpt lat="41.608272940" lon="2.399200140">
        <ele>217.88</ele>
        <time>2016-03-24T09:19:32Z</time>
      </trkpt>
      <trkpt lat="41.608107650" lon="2.399287990">
        <ele>219.80</ele>
        <time>2016-03-24T09:19:39Z</time>
      </trkpt>
      <trkpt lat="41.607918890" lon="2.399337360">
        <ele>221.24</ele>
        <time>2016-03-24T09:19:46Z</time>
      </trkpt>
      <trkpt lat="41.607722840" lon="2.399328970">
        <ele>222.20</ele>
        <time>2016-03-24T09:19:54Z</time>
      </trkpt>
      <trkpt lat="41.607649330" lon="2.399325290">
        <ele>223.16</ele>
        <time>2016-03-24T09:19:57Z</time>
      </trkpt>
      <trkpt lat="41.607563160" lon="2.399365440">
        <ele>223.64</ele>
        <time>2016-03-24T09:20:02Z</time>
      </trkpt>
      <trkpt lat="41.607394600" lon="2.399323190">
        <ele>220.76</ele>
        <time>2016-03-24T09:20:08Z</time>
      </trkpt>
      <trkpt lat="41.607271810" lon="2.399199640">
        <ele>218.84</ele>
        <time>2016-03-24T09:20:12Z</time>
      </trkpt>
      <trkpt lat="41.607236440" lon="2.399176590">
        <ele>218.84</ele>
        <time>2016-03-24T09:20:13Z</time>
      </trkpt>
      <trkpt lat="41.607142060" lon="2.399105260">
        <ele>217.40</ele>
        <time>2016-03-24T09:20:16Z</time>
      </trkpt>
      <trkpt lat="41.607103160" lon="2.399088250">
        <ele>216.91</ele>
        <time>2016-03-24T09:20:17Z</time>
      </trkpt>
      <trkpt lat="41.606985230" lon="2.399012980">
        <ele>215.47</ele>
        <time>2016-03-24T09:20:20Z</time>
      </trkpt>
      <trkpt lat="41.606944160" lon="2.398986820">
        <ele>214.99</ele>
        <time>2016-03-24T09:20:21Z</time>
      </trkpt>
      <trkpt lat="41.606748950" lon="2.398910470">
        <ele>213.55</ele>
        <time>2016-03-24T09:20:25Z</time>
      </trkpt>
      <trkpt lat="41.606649030" lon="2.398856400">
        <ele>213.07</ele>
        <time>2016-03-24T09:20:27Z</time>
      </trkpt>
      <trkpt lat="41.606370840" lon="2.398735870">
        <ele>211.15</ele>
        <time>2016-03-24T09:20:33Z</time>
      </trkpt>
      <trkpt lat="41.606268580" lon="2.398664120">
        <ele>210.19</ele>
        <time>2016-03-24T09:20:39Z</time>
      </trkpt>
      <trkpt lat="41.606159030" lon="2.398603770">
        <ele>207.78</ele>
        <time>2016-03-24T09:20:44Z</time>
      </trkpt>
      <trkpt lat="41.606038750" lon="2.398587590">
        <ele>207.30</ele>
        <time>2016-03-24T09:20:50Z</time>
      </trkpt>
      <trkpt lat="41.605996080" lon="2.398589690">
        <ele>207.30</ele>
        <time>2016-03-24T09:20:52Z</time>
      </trkpt>
      <trkpt lat="41.605776230" lon="2.398540150">
        <ele>206.82</ele>
        <time>2016-03-24T09:20:59Z</time>
      </trkpt>
      <trkpt lat="41.605645380" lon="2.398505370">
        <ele>206.34</ele>
        <time>2016-03-24T09:21:02Z</time>
      </trkpt>
      <trkpt lat="41.605511940" lon="2.398534030">
        <ele>205.38</ele>
        <time>2016-03-24T09:21:05Z</time>
      </trkpt>
      <trkpt lat="41.605110790" lon="2.398610060">
        <ele>204.90</ele>
        <time>2016-03-24T09:21:14Z</time>
      </trkpt>
      <trkpt lat="41.604924040" lon="2.398668480">
        <ele>201.53</ele>
        <time>2016-03-24T09:21:19Z</time>
      </trkpt>
      <trkpt lat="41.604772740" lon="2.398667220">
        <ele>198.65</ele>
        <time>2016-03-24T09:21:24Z</time>
      </trkpt>
      <trkpt lat="41.604612150" lon="2.398659590">
        <ele>197.69</ele>
        <time>2016-03-24T09:21:29Z</time>
      </trkpt>
      <trkpt lat="41.604585490" lon="2.398534540">
        <ele>196.73</ele>
        <time>2016-03-24T09:21:33Z</time>
      </trkpt>
      <trkpt lat="41.604632350" lon="2.398460940">
        <ele>195.77</ele>
        <time>2016-03-24T09:21:36Z</time>
      </trkpt>
      <trkpt lat="41.604667050" lon="2.398426410">
        <ele>195.28</ele>
        <time>2016-03-24T09:21:39Z</time>
      </trkpt>
      <trkpt lat="41.604769640" lon="2.398261870">
        <ele>191.92</ele>
        <time>2016-03-24T09:21:45Z</time>
      </trkpt>
      <trkpt lat="41.604885820" lon="2.398116950">
        <ele>188.56</ele>
        <time>2016-03-24T09:21:50Z</time>
      </trkpt>
      <trkpt lat="41.604997210" lon="2.398038160">
        <ele>185.19</ele>
        <time>2016-03-24T09:21:54Z</time>
      </trkpt>
      <trkpt lat="41.605041640" lon="2.397989800">
        <ele>183.75</ele>
        <time>2016-03-24T09:21:56Z</time>
      </trkpt>
      <trkpt lat="41.605104160" lon="2.397771200">
        <ele>182.79</ele>
        <time>2016-03-24T09:22:01Z</time>
      </trkpt>
      <trkpt lat="41.605100730" lon="2.397644710">
        <ele>182.31</ele>
        <time>2016-03-24T09:22:04Z</time>
      </trkpt>
      <trkpt lat="41.605004670" lon="2.397530720">
        <ele>183.75</ele>
        <time>2016-03-24T09:22:12Z</time>
      </trkpt>
      <trkpt lat="41.604936780" lon="2.397465930">
        <ele>184.71</ele>
        <time>2016-03-24T09:22:18Z</time>
      </trkpt>
      <trkpt lat="41.604885560" lon="2.397406670">
        <ele>184.71</ele>
        <time>2016-03-24T09:22:22Z</time>
      </trkpt>
      <trkpt lat="41.604777100" lon="2.397378340">
        <ele>184.23</ele>
        <time>2016-03-24T09:22:28Z</time>
      </trkpt>
      <trkpt lat="41.604635360" lon="2.397380180">
        <ele>184.23</ele>
        <time>2016-03-24T09:22:34Z</time>
      </trkpt>
      <trkpt lat="41.604586670" lon="2.397375740">
        <ele>184.23</ele>
        <time>2016-03-24T09:22:37Z</time>
      </trkpt>
      <trkpt lat="41.604451970" lon="2.397325530">
        <ele>184.23</ele>
        <time>2016-03-24T09:22:43Z</time>
      </trkpt>
      <trkpt lat="41.604347780" lon="2.397352100">
        <ele>184.23</ele>
        <time>2016-03-24T09:22:46Z</time>
      </trkpt>
      <trkpt lat="41.604089120" lon="2.397309520">
        <ele>181.83</ele>
        <time>2016-03-24T09:22:51Z</time>
      </trkpt>
      <trkpt lat="41.604037320" lon="2.397294270">
        <ele>181.35</ele>
        <time>2016-03-24T09:22:52Z</time>
      </trkpt>
      <trkpt lat="41.603715200" lon="2.397362580">
        <ele>179.42</ele>
        <time>2016-03-24T09:22:59Z</time>
      </trkpt>
      <trkpt lat="41.603622910" lon="2.397402640">
        <ele>177.98</ele>
        <time>2016-03-24T09:23:01Z</time>
      </trkpt>
      <trkpt lat="41.603450250" lon="2.397494510">
        <ele>173.17</ele>
        <time>2016-03-24T09:23:05Z</time>
      </trkpt>
      <trkpt lat="41.603268780" lon="2.397705990">
        <ele>167.89</ele>
        <time>2016-03-24T09:23:10Z</time>
      </trkpt>
      <trkpt lat="41.603142550" lon="2.397810760">
        <ele>165.96</ele>
        <time>2016-03-24T09:23:13Z</time>
      </trkpt>
      <trkpt lat="41.602998970" lon="2.397888540">
        <ele>164.04</ele>
        <time>2016-03-24T09:23:16Z</time>
      </trkpt>
      <trkpt lat="41.602812300" lon="2.398001950">
        <ele>161.64</ele>
        <time>2016-03-24T09:23:20Z</time>
      </trkpt>
      <trkpt lat="41.602659920" lon="2.398083260">
        <ele>160.20</ele>
        <time>2016-03-24T09:23:23Z</time>
      </trkpt>
      <trkpt lat="41.602416000" lon="2.398171520">
        <ele>158.75</ele>
        <time>2016-03-24T09:23:28Z</time>
      </trkpt>
      <trkpt lat="41.602332770" lon="2.398154000">
        <ele>158.27</ele>
        <time>2016-03-24T09:23:30Z</time>
      </trkpt>
      <trkpt lat="41.602092300" lon="2.398042600">
        <ele>155.87</ele>
        <time>2016-03-24T09:23:37Z</time>
      </trkpt>
      <trkpt lat="41.601955670" lon="2.398047630">
        <ele>155.39</ele>
        <time>2016-03-24T09:23:40Z</time>
      </trkpt>
      <trkpt lat="41.601713350" lon="2.397942360">
        <ele>152.99</ele>
        <time>2016-03-24T09:23:45Z</time>
      </trkpt>
      <trkpt lat="41.601592820" lon="2.397910250">
        <ele>152.51</ele>
        <time>2016-03-24T09:23:48Z</time>
      </trkpt>
      <trkpt lat="41.601493660" lon="2.397886780">
        <ele>151.06</ele>
        <time>2016-03-24T09:23:52Z</time>
      </trkpt>
      <trkpt lat="41.601437590" lon="2.397870610">
        <ele>151.06</ele>
        <time>2016-03-24T09:23:55Z</time>
      </trkpt>
      <trkpt lat="41.601347980" lon="2.397822660">
        <ele>150.58</ele>
        <time>2016-03-24T09:24:00Z</time>
      </trkpt>
      <trkpt lat="41.601273470" lon="2.397719150">
        <ele>152.51</ele>
        <time>2016-03-24T09:24:06Z</time>
      </trkpt>
      <trkpt lat="41.601114710" lon="2.397628540">
        <ele>153.47</ele>
        <time>2016-03-24T09:24:14Z</time>
      </trkpt>
      <trkpt lat="41.600958560" lon="2.397589390">
        <ele>153.47</ele>
        <time>2016-03-24T09:24:20Z</time>
      </trkpt>
      <trkpt lat="41.600852190" lon="2.397587970">
        <ele>153.47</ele>
        <time>2016-03-24T09:24:24Z</time>
      </trkpt>
      <trkpt lat="41.600631330" lon="2.397601210">
        <ele>152.03</ele>
        <time>2016-03-24T09:24:32Z</time>
      </trkpt>
      <trkpt lat="41.600470060" lon="2.397636840">
        <ele>151.06</ele>
        <time>2016-03-24T09:24:37Z</time>
      </trkpt>
      <trkpt lat="41.600356650" lon="2.397682430">
        <ele>152.03</ele>
        <time>2016-03-24T09:24:42Z</time>
      </trkpt>
      <trkpt lat="41.600206450" lon="2.397740690">
        <ele>151.06</ele>
        <time>2016-03-24T09:24:47Z</time>
      </trkpt>
      <trkpt lat="41.600063040" lon="2.397945370">
        <ele>151.06</ele>
        <time>2016-03-24T09:24:53Z</time>
      </trkpt>
      <trkpt lat="41.599960690" lon="2.398115940">
        <ele>150.58</ele>
        <time>2016-03-24T09:24:58Z</time>
      </trkpt>
      <trkpt lat="41.599798250" lon="2.398235140">
        <ele>150.58</ele>
        <time>2016-03-24T09:25:04Z</time>
      </trkpt>
      <trkpt lat="41.599778890" lon="2.398246620">
        <ele>150.58</ele>
        <time>2016-03-24T09:25:05Z</time>
      </trkpt>
      <trkpt lat="41.599551660" lon="2.398277300">
        <ele>150.58</ele>
        <time>2016-03-24T09:25:12Z</time>
      </trkpt>
      <trkpt lat="41.599403300" lon="2.398340410">
        <ele>151.54</ele>
        <time>2016-03-24T09:25:17Z</time>
      </trkpt>
      <trkpt lat="41.599211770" lon="2.398440580">
        <ele>150.58</ele>
        <time>2016-03-24T09:25:23Z</time>
      </trkpt>
      <trkpt lat="41.599186040" lon="2.398450890">
        <ele>150.58</ele>
        <time>2016-03-24T09:25:24Z</time>
      </trkpt>
      <trkpt lat="41.599109180" lon="2.398637300">
        <ele>149.14</ele>
        <time>2016-03-24T09:25:28Z</time>
      </trkpt>
      <trkpt lat="41.598903650" lon="2.398862440">
        <ele>148.18</ele>
        <time>2016-03-24T09:25:32Z</time>
      </trkpt>
      <trkpt lat="41.598787480" lon="2.398927480">
        <ele>147.70</ele>
        <time>2016-03-24T09:25:34Z</time>
      </trkpt>
      <trkpt lat="41.598581540" lon="2.399060170">
        <ele>146.74</ele>
        <time>2016-03-24T09:25:38Z</time>
      </trkpt>
      <trkpt lat="41.598381630" lon="2.399159580">
        <ele>146.74</ele>
        <time>2016-03-24T09:25:42Z</time>
      </trkpt>
      <trkpt lat="41.598084740" lon="2.399313380">
        <ele>147.22</ele>
        <time>2016-03-24T09:25:49Z</time>
      </trkpt>
      <trkpt lat="41.597946770" lon="2.399399970">
        <ele>147.22</ele>
        <time>2016-03-24T09:25:54Z</time>
      </trkpt>
      <trkpt lat="41.597770840" lon="2.399496280">
        <ele>147.22</ele>
        <time>2016-03-24T09:26:00Z</time>
      </trkpt>
      <trkpt lat="41.597547630" lon="2.399613540">
        <ele>147.22</ele>
        <time>2016-03-24T09:26:07Z</time>
      </trkpt>
      <trkpt lat="41.597482250" lon="2.399653020">
        <ele>147.22</ele>
        <time>2016-03-24T09:26:09Z</time>
      </trkpt>
      <trkpt lat="41.597280160" lon="2.399866760">
        <ele>145.78</ele>
        <time>2016-03-24T09:26:16Z</time>
      </trkpt>
      <trkpt lat="41.597247890" lon="2.399913020">
        <ele>145.78</ele>
        <time>2016-03-24T09:26:17Z</time>
      </trkpt>
      <trkpt lat="41.596981350" lon="2.400094410">
        <ele>145.30</ele>
        <time>2016-03-24T09:26:22Z</time>
      </trkpt>
      <trkpt lat="41.596722600" lon="2.400350220">
        <ele>145.30</ele>
        <time>2016-03-24T09:26:29Z</time>
      </trkpt>
      <trkpt lat="41.596630980" lon="2.400479390">
        <ele>146.74</ele>
        <time>2016-03-24T09:26:32Z</time>
      </trkpt>
      <trkpt lat="41.596464600" lon="2.400751890">
        <ele>147.22</ele>
        <time>2016-03-24T09:26:38Z</time>
      </trkpt>
      <trkpt lat="41.596339960" lon="2.400830680">
        <ele>147.70</ele>
        <time>2016-03-24T09:26:41Z</time>
      </trkpt>
      <trkpt lat="41.596108710" lon="2.400994880">
        <ele>147.70</ele>
        <time>2016-03-24T09:26:48Z</time>
      </trkpt>
      <trkpt lat="41.595924810" lon="2.401284050">
        <ele>147.70</ele>
        <time>2016-03-24T09:26:54Z</time>
      </trkpt>
      <trkpt lat="41.595814670" lon="2.401442890">
        <ele>146.26</ele>
        <time>2016-03-24T09:26:57Z</time>
      </trkpt>
      <trkpt lat="41.595655920" lon="2.401653190">
        <ele>145.78</ele>
        <time>2016-03-24T09:27:01Z</time>
      </trkpt>
      <trkpt lat="41.595538070" lon="2.401827120">
        <ele>145.30</ele>
        <time>2016-03-24T09:27:04Z</time>
      </trkpt>
      <trkpt lat="41.595254000" lon="2.402310580">
        <ele>143.37</ele>
        <time>2016-03-24T09:27:11Z</time>
      </trkpt>
      <trkpt lat="41.595126680" lon="2.402724230">
        <ele>142.41</ele>
        <time>2016-03-24T09:27:16Z</time>
      </trkpt>
      <trkpt lat="41.595012940" lon="2.403017350">
        <ele>141.93</ele>
        <time>2016-03-24T09:27:20Z</time>
      </trkpt>
      <trkpt lat="41.594945300" lon="2.403247930">
        <ele>141.45</ele>
        <time>2016-03-24T09:27:23Z</time>
      </trkpt>
      <trkpt lat="41.594815130" lon="2.403506930">
        <ele>141.45</ele>
        <time>2016-03-24T09:27:27Z</time>
      </trkpt>
      <trkpt lat="41.594730550" lon="2.403680860">
        <ele>140.97</ele>
        <time>2016-03-24T09:27:30Z</time>
      </trkpt>
      <trkpt lat="41.594623270" lon="2.403923260">
        <ele>140.49</ele>
        <time>2016-03-24T09:27:34Z</time>
      </trkpt>
      <trkpt lat="41.594553440" lon="2.404108330">
        <ele>140.01</ele>
        <time>2016-03-24T09:27:37Z</time>
      </trkpt>
      <trkpt lat="41.594426960" lon="2.404296420">
        <ele>140.01</ele>
        <time>2016-03-24T09:27:41Z</time>
      </trkpt>
      <trkpt lat="41.594300560" lon="2.404478480">
        <ele>140.01</ele>
        <time>2016-03-24T09:27:45Z</time>
      </trkpt>
      <trkpt lat="41.594234850" lon="2.404563810">
        <ele>140.01</ele>
        <time>2016-03-24T09:27:47Z</time>
      </trkpt>
      <trkpt lat="41.594193860" lon="2.404747620">
        <ele>140.01</ele>
        <time>2016-03-24T09:27:51Z</time>
      </trkpt>
      <trkpt lat="41.594248760" lon="2.404919030">
        <ele>140.01</ele>
        <time>2016-03-24T09:27:56Z</time>
      </trkpt>
      <trkpt lat="41.594193940" lon="2.405141150">
        <ele>140.01</ele>
        <time>2016-03-24T09:28:03Z</time>
      </trkpt>
      <trkpt lat="41.594186230" lon="2.405208290">
        <ele>140.01</ele>
        <time>2016-03-24T09:28:05Z</time>
      </trkpt>
      <trkpt lat="41.594212300" lon="2.405374340">
        <ele>140.01</ele>
        <time>2016-03-24T09:28:11Z</time>
      </trkpt>
      <trkpt lat="41.594279020" lon="2.405457230">
        <ele>140.01</ele>
        <time>2016-03-24T09:28:15Z</time>
      </trkpt>
      <trkpt lat="41.594284970" lon="2.405558990">
        <ele>140.01</ele>
        <time>2016-03-24T09:28:20Z</time>
      </trkpt>
      <trkpt lat="41.594276760" lon="2.405592180">
        <ele>140.01</ele>
        <time>2016-03-24T09:28:25Z</time>
      </trkpt>
      <trkpt lat="41.594177260" lon="2.405716570">
        <ele>140.01</ele>
        <time>2016-03-24T09:28:31Z</time>
      </trkpt>
      <trkpt lat="41.594097640" lon="2.405747330">
        <ele>139.53</ele>
        <time>2016-03-24T09:28:33Z</time>
      </trkpt>
      <trkpt lat="41.593882050" lon="2.405823780">
        <ele>138.57</ele>
        <time>2016-03-24T09:28:37Z</time>
      </trkpt>
      <trkpt lat="41.593761610" lon="2.406021000">
        <ele>137.61</ele>
        <time>2016-03-24T09:28:41Z</time>
      </trkpt>
      <trkpt lat="41.593763030" lon="2.406089400">
        <ele>137.61</ele>
        <time>2016-03-24T09:28:42Z</time>
      </trkpt>
      <trkpt lat="41.593769480" lon="2.406453090">
        <ele>139.05</ele>
        <time>2016-03-24T09:28:49Z</time>
      </trkpt>
      <trkpt lat="41.593774510" lon="2.406486450">
        <ele>139.05</ele>
        <time>2016-03-24T09:28:50Z</time>
      </trkpt>
      <trkpt lat="41.593816090" lon="2.406725580">
        <ele>140.97</ele>
        <time>2016-03-24T09:28:57Z</time>
      </trkpt>
      <trkpt lat="41.593899660" lon="2.406936140">
        <ele>140.97</ele>
        <time>2016-03-24T09:29:03Z</time>
      </trkpt>
      <trkpt lat="41.593928990" lon="2.407361600">
        <ele>140.97</ele>
        <time>2016-03-24T09:29:13Z</time>
      </trkpt>
      <trkpt lat="41.593974840" lon="2.407801400">
        <ele>140.97</ele>
        <time>2016-03-24T09:29:22Z</time>
      </trkpt>
      <trkpt lat="41.593972240" lon="2.408050760">
        <ele>141.45</ele>
        <time>2016-03-24T09:29:29Z</time>
      </trkpt>
      <trkpt lat="41.593995630" lon="2.408177080">
        <ele>141.45</ele>
        <time>2016-03-24T09:29:32Z</time>
      </trkpt>
      <trkpt lat="41.594231240" lon="2.408265420">
        <ele>141.93</ele>
        <time>2016-03-24T09:29:39Z</time>
      </trkpt>
      <trkpt lat="41.594499720" lon="2.408307330">
        <ele>141.93</ele>
        <time>2016-03-24T09:29:47Z</time>
      </trkpt>
      <trkpt lat="41.594559230" lon="2.408358970">
        <ele>142.41</ele>
        <time>2016-03-24T09:29:49Z</time>
      </trkpt>
      <trkpt lat="41.594587310" lon="2.408693320">
        <ele>142.41</ele>
        <time>2016-03-24T09:29:56Z</time>
      </trkpt>
      <trkpt lat="41.594562920" lon="2.409098750">
        <ele>143.85</ele>
        <time>2016-03-24T09:30:05Z</time>
      </trkpt>
      <trkpt lat="41.594549340" lon="2.409405280">
        <ele>146.26</ele>
        <time>2016-03-24T09:30:13Z</time>
      </trkpt>
      <trkpt lat="41.594529890" lon="2.409615330">
        <ele>148.18</ele>
        <time>2016-03-24T09:30:21Z</time>
      </trkpt>
      <trkpt lat="41.594522600" lon="2.409817670">
        <ele>150.58</ele>
        <time>2016-03-24T09:30:28Z</time>
      </trkpt>
      <trkpt lat="41.594512120" lon="2.410073060">
        <ele>152.99</ele>
        <time>2016-03-24T09:30:37Z</time>
      </trkpt>
      <trkpt lat="41.594508430" lon="2.410298540">
        <ele>154.91</ele>
        <time>2016-03-24T09:30:45Z</time>
      </trkpt>
      <trkpt lat="41.594499800" lon="2.410354530">
        <ele>155.39</ele>
        <time>2016-03-24T09:30:47Z</time>
      </trkpt>
      <trkpt lat="41.594500970" lon="2.410468940">
        <ele>156.83</ele>
        <time>2016-03-24T09:30:51Z</time>
      </trkpt>
      <trkpt lat="41.594491080" lon="2.410662480">
        <ele>158.75</ele>
        <time>2016-03-24T09:30:58Z</time>
      </trkpt>
      <trkpt lat="41.594486220" lon="2.410907650">
        <ele>161.16</ele>
        <time>2016-03-24T09:31:07Z</time>
      </trkpt>
      <trkpt lat="41.594485470" lon="2.411068920">
        <ele>162.60</ele>
        <time>2016-03-24T09:31:13Z</time>
      </trkpt>
      <trkpt lat="41.594463090" lon="2.411113760">
        <ele>163.08</ele>
        <time>2016-03-24T09:31:15Z</time>
      </trkpt>
      <trkpt lat="41.594306760" lon="2.411224820">
        <ele>164.52</ele>
        <time>2016-03-24T09:31:24Z</time>
      </trkpt>
      <trkpt lat="41.594177850" lon="2.411316440">
        <ele>165.96</ele>
        <time>2016-03-24T09:31:31Z</time>
      </trkpt>
      <trkpt lat="41.593996720" lon="2.411447280">
        <ele>166.93</ele>
        <time>2016-03-24T09:31:40Z</time>
      </trkpt>
      <trkpt lat="41.593882310" lon="2.411511730">
        <ele>167.41</ele>
        <time>2016-03-24T09:31:46Z</time>
      </trkpt>
      <trkpt lat="41.593764290" lon="2.411670490">
        <ele>169.81</ele>
        <time>2016-03-24T09:31:54Z</time>
      </trkpt>
      <trkpt lat="41.593737720" lon="2.411711060">
        <ele>169.81</ele>
        <time>2016-03-24T09:31:56Z</time>
      </trkpt>
      <trkpt lat="41.593646020" lon="2.411938460">
        <ele>172.21</ele>
        <time>2016-03-24T09:32:06Z</time>
      </trkpt>
      <trkpt lat="41.593606120" lon="2.412117490">
        <ele>174.14</ele>
        <time>2016-03-24T09:32:14Z</time>
      </trkpt>
      <trkpt lat="41.593607630" lon="2.412163760">
        <ele>174.62</ele>
        <time>2016-03-24T09:32:16Z</time>
      </trkpt>
      <trkpt lat="41.593578040" lon="2.412292170">
        <ele>176.06</ele>
        <time>2016-03-24T09:32:22Z</time>
      </trkpt>
      <trkpt lat="41.593522050" lon="2.412534240">
        <ele>177.02</ele>
        <time>2016-03-24T09:32:30Z</time>
      </trkpt>
      <trkpt lat="41.593506960" lon="2.412596520">
        <ele>177.50</ele>
        <time>2016-03-24T09:32:33Z</time>
      </trkpt>
      <trkpt lat="41.593452230" lon="2.412817550">
        <ele>177.98</ele>
        <time>2016-03-24T09:32:41Z</time>
      </trkpt>
      <trkpt lat="41.593434880" lon="2.412937920">
        <ele>178.46</ele>
        <time>2016-03-24T09:32:45Z</time>
      </trkpt>
      <trkpt lat="41.593413170" lon="2.413040510">
        <ele>178.94</ele>
        <time>2016-03-24T09:32:49Z</time>
      </trkpt>
      <trkpt lat="41.593416770" lon="2.413269420">
        <ele>180.38</ele>
        <time>2016-03-24T09:32:57Z</time>
      </trkpt>
      <trkpt lat="41.593405120" lon="2.413503530">
        <ele>181.35</ele>
        <time>2016-03-24T09:33:04Z</time>
      </trkpt>
      <trkpt lat="41.593449210" lon="2.413732940">
        <ele>182.31</ele>
        <time>2016-03-24T09:33:11Z</time>
      </trkpt>
      <trkpt lat="41.593492130" lon="2.413993280">
        <ele>183.75</ele>
        <time>2016-03-24T09:33:20Z</time>
      </trkpt>
      <trkpt lat="41.593514420" lon="2.414248090">
        <ele>185.19</ele>
        <time>2016-03-24T09:33:28Z</time>
      </trkpt>
      <trkpt lat="41.593540410" lon="2.414547160">
        <ele>186.63</ele>
        <time>2016-03-24T09:33:37Z</time>
      </trkpt>
      <trkpt lat="41.593549800" lon="2.414775140">
        <ele>187.59</ele>
        <time>2016-03-24T09:33:44Z</time>
      </trkpt>
      <trkpt lat="41.593575020" lon="2.414976140">
        <ele>188.56</ele>
        <time>2016-03-24T09:33:51Z</time>
      </trkpt>
      <trkpt lat="41.593612580" lon="2.415238410">
        <ele>188.56</ele>
        <time>2016-03-24T09:33:58Z</time>
      </trkpt>
      <trkpt lat="41.593565130" lon="2.415549800">
        <ele>188.56</ele>
        <time>2016-03-24T09:34:07Z</time>
      </trkpt>
      <trkpt lat="41.593504370" lon="2.415842660">
        <ele>190.00</ele>
        <time>2016-03-24T09:34:15Z</time>
      </trkpt>
      <trkpt lat="41.593487270" lon="2.416293190">
        <ele>190.00</ele>
        <time>2016-03-24T09:34:25Z</time>
      </trkpt>
      <trkpt lat="41.593481060" lon="2.416508440">
        <ele>190.00</ele>
        <time>2016-03-24T09:34:29Z</time>
      </trkpt>
      <trkpt lat="41.593389950" lon="2.416861820">
        <ele>190.00</ele>
        <time>2016-03-24T09:34:36Z</time>
      </trkpt>
      <trkpt lat="41.593417950" lon="2.417133480">
        <ele>190.00</ele>
        <time>2016-03-24T09:34:42Z</time>
      </trkpt>
      <trkpt lat="41.593542250" lon="2.417391470">
        <ele>190.00</ele>
        <time>2016-03-24T09:34:49Z</time>
      </trkpt>
      <trkpt lat="41.593590030" lon="2.417675280">
        <ele>191.44</ele>
        <time>2016-03-24T09:34:56Z</time>
      </trkpt>
      <trkpt lat="41.593499590" lon="2.418002600">
        <ele>192.88</ele>
        <time>2016-03-24T09:35:04Z</time>
      </trkpt>
      <trkpt lat="41.593480730" lon="2.418239800">
        <ele>194.32</ele>
        <time>2016-03-24T09:35:10Z</time>
      </trkpt>
      <trkpt lat="41.593529090" lon="2.418533260">
        <ele>197.21</ele>
        <time>2016-03-24T09:35:18Z</time>
      </trkpt>
      <trkpt lat="41.593545600" lon="2.418752190">
        <ele>198.17</ele>
        <time>2016-03-24T09:35:25Z</time>
      </trkpt>
      <trkpt lat="41.593483330" lon="2.418960980">
        <ele>199.61</ele>
        <time>2016-03-24T09:35:32Z</time>
      </trkpt>
      <trkpt lat="41.593409900" lon="2.419157120">
        <ele>201.53</ele>
        <time>2016-03-24T09:35:39Z</time>
      </trkpt>
      <trkpt lat="41.593353830" lon="2.419431540">
        <ele>202.01</ele>
        <time>2016-03-24T09:35:47Z</time>
      </trkpt>
      <trkpt lat="41.593369000" lon="2.419635220">
        <ele>201.53</ele>
        <time>2016-03-24T09:35:52Z</time>
      </trkpt>
      <trkpt lat="41.593385170" lon="2.419755840">
        <ele>200.57</ele>
        <time>2016-03-24T09:35:54Z</time>
      </trkpt>
      <trkpt lat="41.593453320" lon="2.419985670">
        <ele>199.13</ele>
        <time>2016-03-24T09:35:57Z</time>
      </trkpt>
      <trkpt lat="41.593579380" lon="2.420315080">
        <ele>197.69</ele>
        <time>2016-03-24T09:36:02Z</time>
      </trkpt>
      <trkpt lat="41.593586590" lon="2.420613060">
        <ele>195.28</ele>
        <time>2016-03-24T09:36:06Z</time>
      </trkpt>
      <trkpt lat="41.593709300" lon="2.420876670">
        <ele>191.44</ele>
        <time>2016-03-24T09:36:10Z</time>
      </trkpt>
      <trkpt lat="41.593767390" lon="2.421100210">
        <ele>188.56</ele>
        <time>2016-03-24T09:36:13Z</time>
      </trkpt>
      <trkpt lat="41.593782140" lon="2.421323170">
        <ele>186.63</ele>
        <time>2016-03-24T09:36:16Z</time>
      </trkpt>
      <trkpt lat="41.593918850" lon="2.421547810">
        <ele>182.79</ele>
        <time>2016-03-24T09:36:19Z</time>
      </trkpt>
      <trkpt lat="41.593935780" lon="2.421611680">
        <ele>182.79</ele>
        <time>2016-03-24T09:36:20Z</time>
      </trkpt>
      <trkpt lat="41.593942650" lon="2.421762720">
        <ele>180.87</ele>
        <time>2016-03-24T09:36:22Z</time>
      </trkpt>
      <trkpt lat="41.594071480" lon="2.422269240">
        <ele>175.58</ele>
        <time>2016-03-24T09:36:27Z</time>
      </trkpt>
      <trkpt lat="41.594170640" lon="2.422781120">
        <ele>172.21</ele>
        <time>2016-03-24T09:36:31Z</time>
      </trkpt>
      <trkpt lat="41.594188330" lon="2.422917240">
        <ele>171.73</ele>
        <time>2016-03-24T09:36:32Z</time>
      </trkpt>
      <trkpt lat="41.594394860" lon="2.423345220">
        <ele>170.29</ele>
        <time>2016-03-24T09:36:36Z</time>
      </trkpt>
      <trkpt lat="41.594570880" lon="2.423797170">
        <ele>168.85</ele>
        <time>2016-03-24T09:36:41Z</time>
      </trkpt>
      <trkpt lat="41.594579930" lon="2.424508630">
        <ele>168.85</ele>
        <time>2016-03-24T09:36:49Z</time>
      </trkpt>
      <trkpt lat="41.594620670" lon="2.425002910">
        <ele>168.85</ele>
        <time>2016-03-24T09:36:57Z</time>
      </trkpt>
      <trkpt lat="41.594635170" lon="2.425178680">
        <ele>168.85</ele>
        <time>2016-03-24T09:37:01Z</time>
      </trkpt>
      <trkpt lat="41.594678920" lon="2.425243140">
        <ele>170.29</ele>
        <time>2016-03-24T09:37:04Z</time>
      </trkpt>
      <trkpt lat="41.594727540" lon="2.425292670">
        <ele>170.77</ele>
        <time>2016-03-24T09:37:08Z</time>
      </trkpt>
      <trkpt lat="41.594758630" lon="2.425308680">
        <ele>170.29</ele>
        <time>2016-03-24T09:37:15Z</time>
      </trkpt>
      <trkpt lat="41.594824510" lon="2.425324020">
        <ele>170.29</ele>
        <time>2016-03-24T09:37:21Z</time>
      </trkpt>
      <trkpt lat="41.594846730" lon="2.425335000">
        <ele>170.29</ele>
        <time>2016-03-24T09:37:22Z</time>
      </trkpt>
      <trkpt lat="41.594861060" lon="2.425529290">
        <ele>171.25</ele>
        <time>2016-03-24T09:37:28Z</time>
      </trkpt>
      <trkpt lat="41.594810940" lon="2.425814610">
        <ele>170.77</ele>
        <time>2016-03-24T09:37:35Z</time>
      </trkpt>
      <trkpt lat="41.594812190" lon="2.426142850">
        <ele>171.25</ele>
        <time>2016-03-24T09:37:43Z</time>
      </trkpt>
      <trkpt lat="41.594795010" lon="2.426283750">
        <ele>171.25</ele>
        <time>2016-03-24T09:37:48Z</time>
      </trkpt>
      <trkpt lat="41.594802140" lon="2.426551470">
        <ele>171.25</ele>
        <time>2016-03-24T09:37:57Z</time>
      </trkpt>
      <trkpt lat="41.594804400" lon="2.426785410">
        <ele>172.69</ele>
        <time>2016-03-24T09:38:05Z</time>
      </trkpt>
      <trkpt lat="41.594756370" lon="2.426969720">
        <ele>173.66</ele>
        <time>2016-03-24T09:38:12Z</time>
      </trkpt>
      <trkpt lat="41.594656880" lon="2.427288070">
        <ele>173.66</ele>
        <time>2016-03-24T09:38:20Z</time>
      </trkpt>
      <trkpt lat="41.594573060" lon="2.427446990">
        <ele>173.66</ele>
        <time>2016-03-24T09:38:25Z</time>
      </trkpt>
      <trkpt lat="41.594508850" lon="2.427558970">
        <ele>173.66</ele>
        <time>2016-03-24T09:38:28Z</time>
      </trkpt>
      <trkpt lat="41.594383290" lon="2.427568190">
        <ele>171.73</ele>
        <time>2016-03-24T09:38:33Z</time>
      </trkpt>
      <trkpt lat="41.594293190" lon="2.427550670">
        <ele>170.29</ele>
        <time>2016-03-24T09:38:36Z</time>
      </trkpt>
      <trkpt lat="41.594231160" lon="2.427589650">
        <ele>170.29</ele>
        <time>2016-03-24T09:38:39Z</time>
      </trkpt>
      <trkpt lat="41.594057910" lon="2.427727700">
        <ele>170.29</ele>
        <time>2016-03-24T09:38:46Z</time>
      </trkpt>
      <trkpt lat="41.593890180" lon="2.427877650">
        <ele>170.29</ele>
        <time>2016-03-24T09:38:54Z</time>
      </trkpt>
      <trkpt lat="41.593734530" lon="2.427986280">
        <ele>170.29</ele>
        <time>2016-03-24T09:39:01Z</time>
      </trkpt>
      <trkpt lat="41.593697070" lon="2.428006900">
        <ele>170.29</ele>
        <time>2016-03-24T09:39:03Z</time>
      </trkpt>
      <trkpt lat="41.593686920" lon="2.428018050">
        <ele>170.29</ele>
        <time>2016-03-24T09:39:11Z</time>
      </trkpt>
      <trkpt lat="41.593684070" lon="2.428039090">
        <ele>170.29</ele>
        <time>2016-03-24T09:39:27Z</time>
      </trkpt>
      <trkpt lat="41.593616260" lon="2.428042780">
        <ele>170.29</ele>
        <time>2016-03-24T09:39:35Z</time>
      </trkpt>
      <trkpt lat="41.593444690" lon="2.428179990">
        <ele>171.73</ele>
        <time>2016-03-24T09:39:43Z</time>
      </trkpt>
      <trkpt lat="41.593380310" lon="2.428237820">
        <ele>171.73</ele>
        <time>2016-03-24T09:39:46Z</time>
      </trkpt>
      <trkpt lat="41.593300350" lon="2.428126260">
        <ele>172.69</ele>
        <time>2016-03-24T09:39:52Z</time>
      </trkpt>
      <trkpt lat="41.593313590" lon="2.428008750">
        <ele>172.69</ele>
        <time>2016-03-24T09:39:56Z</time>
      </trkpt>
      <trkpt lat="41.593345360" lon="2.427704570">
        <ele>172.69</ele>
        <time>2016-03-24T09:40:03Z</time>
      </trkpt>
      <trkpt lat="41.593266990" lon="2.427611360">
        <ele>172.21</ele>
        <time>2016-03-24T09:40:08Z</time>
      </trkpt>
      <trkpt lat="41.593098180" lon="2.427603980">
        <ele>172.21</ele>
        <time>2016-03-24T09:40:14Z</time>
      </trkpt>
      <trkpt lat="41.593049900" lon="2.427599370">
        <ele>172.69</ele>
        <time>2016-03-24T09:40:16Z</time>
      </trkpt>
      <trkpt lat="41.592940430" lon="2.427703140">
        <ele>172.69</ele>
        <time>2016-03-24T09:40:22Z</time>
      </trkpt>
      <trkpt lat="41.592891980" lon="2.427796600">
        <ele>172.69</ele>
        <time>2016-03-24T09:40:25Z</time>
      </trkpt>
      <trkpt lat="41.592789470" lon="2.427923000">
        <ele>173.66</ele>
        <time>2016-03-24T09:40:30Z</time>
      </trkpt>
      <trkpt lat="41.592702640" lon="2.428022740">
        <ele>173.66</ele>
        <time>2016-03-24T09:40:34Z</time>
      </trkpt>
      <trkpt lat="41.592646230" lon="2.428268330">
        <ele>174.14</ele>
        <time>2016-03-24T09:40:40Z</time>
      </trkpt>
      <trkpt lat="41.592541200" lon="2.428317620">
        <ele>174.14</ele>
        <time>2016-03-24T09:40:44Z</time>
      </trkpt>
      <trkpt lat="41.592367700" lon="2.428368500">
        <ele>175.58</ele>
        <time>2016-03-24T09:40:50Z</time>
      </trkpt>
      <trkpt lat="41.592199220" lon="2.428478970">
        <ele>176.06</ele>
        <time>2016-03-24T09:40:56Z</time>
      </trkpt>
      <trkpt lat="41.592023030" lon="2.428490540">
        <ele>177.50</ele>
        <time>2016-03-24T09:41:02Z</time>
      </trkpt>
      <trkpt lat="41.591870730" lon="2.428630600">
        <ele>177.98</ele>
        <time>2016-03-24T09:41:08Z</time>
      </trkpt>
      <trkpt lat="41.591841400" lon="2.428664550">
        <ele>177.98</ele>
        <time>2016-03-24T09:41:09Z</time>
      </trkpt>
      <trkpt lat="41.591643830" lon="2.428861020">
        <ele>177.98</ele>
        <time>2016-03-24T09:41:16Z</time>
      </trkpt>
      <trkpt lat="41.591465220" lon="2.429155720">
        <ele>177.98</ele>
        <time>2016-03-24T09:41:23Z</time>
      </trkpt>
      <trkpt lat="41.591332610" lon="2.429343560">
        <ele>177.98</ele>
        <time>2016-03-24T09:41:28Z</time>
      </trkpt>
      <trkpt lat="41.591267490" lon="2.429445740">
        <ele>175.58</ele>
        <time>2016-03-24T09:41:30Z</time>
      </trkpt>
      <trkpt lat="41.591186180" lon="2.429727450">
        <ele>173.66</ele>
        <time>2016-03-24T09:41:35Z</time>
      </trkpt>
      <trkpt lat="41.591122140" lon="2.430033810">
        <ele>173.66</ele>
        <time>2016-03-24T09:41:41Z</time>
      </trkpt>
      <trkpt lat="41.591149050" lon="2.430317290">
        <ele>173.66</ele>
        <time>2016-03-24T09:41:47Z</time>
      </trkpt>
      <trkpt lat="41.591198590" lon="2.430531360">
        <ele>175.10</ele>
        <time>2016-03-24T09:41:53Z</time>
      </trkpt>
      <trkpt lat="41.591227340" lon="2.430702860">
        <ele>174.62</ele>
        <time>2016-03-24T09:42:00Z</time>
      </trkpt>
      <trkpt lat="41.591244270" lon="2.430881310">
        <ele>175.10</ele>
        <time>2016-03-24T09:42:07Z</time>
      </trkpt>
      <trkpt lat="41.591322560" lon="2.430998740">
        <ele>175.58</ele>
        <time>2016-03-24T09:42:14Z</time>
      </trkpt>
      <trkpt lat="41.591326910" lon="2.431285150">
        <ele>176.54</ele>
        <time>2016-03-24T09:42:23Z</time>
      </trkpt>
      <trkpt lat="41.591346360" lon="2.431424200">
        <ele>176.54</ele>
        <time>2016-03-24T09:42:27Z</time>
      </trkpt>
      <trkpt lat="41.591433450" lon="2.431704750">
        <ele>177.02</ele>
        <time>2016-03-24T09:42:35Z</time>
      </trkpt>
      <trkpt lat="41.591575190" lon="2.431946560">
        <ele>177.98</ele>
        <time>2016-03-24T09:42:43Z</time>
      </trkpt>
      <trkpt lat="41.591777270" lon="2.432159970">
        <ele>178.46</ele>
        <time>2016-03-24T09:42:50Z</time>
      </trkpt>
      <trkpt lat="41.591977940" lon="2.432349650">
        <ele>178.46</ele>
        <time>2016-03-24T09:42:57Z</time>
      </trkpt>
      <trkpt lat="41.592189660" lon="2.432542270">
        <ele>179.42</ele>
        <time>2016-03-24T09:43:04Z</time>
      </trkpt>
      <trkpt lat="41.592414380" lon="2.432642510">
        <ele>180.38</ele>
        <time>2016-03-24T09:43:11Z</time>
      </trkpt>
      <trkpt lat="41.592605490" lon="2.432728090">
        <ele>180.87</ele>
        <time>2016-03-24T09:43:17Z</time>
      </trkpt>
      <trkpt lat="41.592820490" lon="2.432918110">
        <ele>181.35</ele>
        <time>2016-03-24T09:43:25Z</time>
      </trkpt>
      <trkpt lat="41.593120730" lon="2.433091950">
        <ele>182.31</ele>
        <time>2016-03-24T09:43:34Z</time>
      </trkpt>
      <trkpt lat="41.593369000" lon="2.433286410">
        <ele>182.79</ele>
        <time>2016-03-24T09:43:42Z</time>
      </trkpt>
      <trkpt lat="41.593546690" lon="2.433489080">
        <ele>182.79</ele>
        <time>2016-03-24T09:43:49Z</time>
      </trkpt>
      <trkpt lat="41.593675270" lon="2.433680950">
        <ele>183.27</ele>
        <time>2016-03-24T09:43:55Z</time>
      </trkpt>
      <trkpt lat="41.593805610" lon="2.433847330">
        <ele>184.71</ele>
        <time>2016-03-24T09:44:01Z</time>
      </trkpt>
      <trkpt lat="41.593999650" lon="2.434048070">
        <ele>186.15</ele>
        <time>2016-03-24T09:44:08Z</time>
      </trkpt>
      <trkpt lat="41.594195700" lon="2.434215630">
        <ele>187.11</ele>
        <time>2016-03-24T09:44:15Z</time>
      </trkpt>
      <trkpt lat="41.594294360" lon="2.434367680">
        <ele>187.11</ele>
        <time>2016-03-24T09:44:19Z</time>
      </trkpt>
      <trkpt lat="41.594344320" lon="2.434462640">
        <ele>187.11</ele>
        <time>2016-03-24T09:44:21Z</time>
      </trkpt>
      <trkpt lat="41.594428810" lon="2.434741260">
        <ele>187.11</ele>
        <time>2016-03-24T09:44:26Z</time>
      </trkpt>
      <trkpt lat="41.594431660" lon="2.435262360">
        <ele>185.67</ele>
        <time>2016-03-24T09:44:34Z</time>
      </trkpt>
      <trkpt lat="41.594305760" lon="2.435535190">
        <ele>185.19</ele>
        <time>2016-03-24T09:44:39Z</time>
      </trkpt>
      <trkpt lat="41.594240460" lon="2.435611380">
        <ele>185.19</ele>
        <time>2016-03-24T09:44:41Z</time>
      </trkpt>
      <trkpt lat="41.594278430" lon="2.435783710">
        <ele>185.19</ele>
        <time>2016-03-24T09:44:45Z</time>
      </trkpt>
      <trkpt lat="41.594393010" lon="2.436040700">
        <ele>185.19</ele>
        <time>2016-03-24T09:44:52Z</time>
      </trkpt>
      <trkpt lat="41.594440790" lon="2.436168190">
        <ele>185.19</ele>
        <time>2016-03-24T09:44:55Z</time>
      </trkpt>
      <trkpt lat="41.594566020" lon="2.436367770">
        <ele>185.19</ele>
        <time>2016-03-24T09:45:01Z</time>
      </trkpt>
      <trkpt lat="41.594635080" lon="2.436576310">
        <ele>185.19</ele>
        <time>2016-03-24T09:45:06Z</time>
      </trkpt>
      <trkpt lat="41.594827200" lon="2.436874620">
        <ele>186.15</ele>
        <time>2016-03-24T09:45:14Z</time>
      </trkpt>
      <trkpt lat="41.594880420" lon="2.437046450">
        <ele>186.63</ele>
        <time>2016-03-24T09:45:18Z</time>
      </trkpt>
      <trkpt lat="41.594940940" lon="2.437376610">
        <ele>187.11</ele>
        <time>2016-03-24T09:45:25Z</time>
      </trkpt>
      <trkpt lat="41.595002290" lon="2.437719100">
        <ele>187.59</ele>
        <time>2016-03-24T09:45:32Z</time>
      </trkpt>
      <trkpt lat="41.595018220" lon="2.438184120">
        <ele>188.08</ele>
        <time>2016-03-24T09:45:40Z</time>
      </trkpt>
      <trkpt lat="41.595140680" lon="2.438637590">
        <ele>188.56</ele>
        <time>2016-03-24T09:45:49Z</time>
      </trkpt>
      <trkpt lat="41.595191810" lon="2.438780250">
        <ele>188.56</ele>
        <time>2016-03-24T09:45:52Z</time>
      </trkpt>
      <trkpt lat="41.595454750" lon="2.439125830">
        <ele>189.04</ele>
        <time>2016-03-24T09:46:01Z</time>
      </trkpt>
      <trkpt lat="41.595729090" lon="2.439304700">
        <ele>189.52</ele>
        <time>2016-03-24T09:46:09Z</time>
      </trkpt>
      <trkpt lat="41.595837800" lon="2.439288860">
        <ele>190.00</ele>
        <time>2016-03-24T09:46:12Z</time>
      </trkpt>
      <trkpt lat="41.595923050" lon="2.439394050">
        <ele>190.96</ele>
        <time>2016-03-24T09:46:16Z</time>
      </trkpt>
      <trkpt lat="41.596072580" lon="2.439708540">
        <ele>190.48</ele>
        <time>2016-03-24T09:46:25Z</time>
      </trkpt>
      <trkpt lat="41.596240470" lon="2.439915410">
        <ele>190.48</ele>
        <time>2016-03-24T09:46:31Z</time>
      </trkpt>
      <trkpt lat="41.596446330" lon="2.440131160">
        <ele>191.44</ele>
        <time>2016-03-24T09:46:38Z</time>
      </trkpt>
      <trkpt lat="41.596632490" lon="2.440334920">
        <ele>191.44</ele>
        <time>2016-03-24T09:46:45Z</time>
      </trkpt>
      <trkpt lat="41.596847650" lon="2.440530050">
        <ele>191.92</ele>
        <time>2016-03-24T09:46:52Z</time>
      </trkpt>
      <trkpt lat="41.596995600" lon="2.440687040">
        <ele>192.40</ele>
        <time>2016-03-24T09:46:57Z</time>
      </trkpt>
      <trkpt lat="41.597178570" lon="2.441029950">
        <ele>192.88</ele>
        <time>2016-03-24T09:47:05Z</time>
      </trkpt>
      <trkpt lat="41.597260210" lon="2.441331280">
        <ele>193.36</ele>
        <time>2016-03-24T09:47:12Z</time>
      </trkpt>
      <trkpt lat="41.597379400" lon="2.441667060">
        <ele>193.84</ele>
        <time>2016-03-24T09:47:20Z</time>
      </trkpt>
      <trkpt lat="41.597432710" lon="2.441978610">
        <ele>194.32</ele>
        <time>2016-03-24T09:47:27Z</time>
      </trkpt>
      <trkpt lat="41.597515780" lon="2.442305420">
        <ele>196.73</ele>
        <time>2016-03-24T09:47:35Z</time>
      </trkpt>
      <trkpt lat="41.597591130" lon="2.442549420">
        <ele>197.21</ele>
        <time>2016-03-24T09:47:42Z</time>
      </trkpt>
      <trkpt lat="41.597662210" lon="2.442827870">
        <ele>197.21</ele>
        <time>2016-03-24T09:47:49Z</time>
      </trkpt>
      <trkpt lat="41.597708980" lon="2.443083770">
        <ele>197.69</ele>
        <time>2016-03-24T09:47:56Z</time>
      </trkpt>
      <trkpt lat="41.597745610" lon="2.443364980">
        <ele>198.17</ele>
        <time>2016-03-24T09:48:03Z</time>
      </trkpt>
      <trkpt lat="41.597780060" lon="2.443727500">
        <ele>198.17</ele>
        <time>2016-03-24T09:48:10Z</time>
      </trkpt>
      <trkpt lat="41.597790700" lon="2.443763200">
        <ele>198.17</ele>
        <time>2016-03-24T09:48:11Z</time>
      </trkpt>
      <trkpt lat="41.597888270" lon="2.443837050">
        <ele>198.65</ele>
        <time>2016-03-24T09:48:15Z</time>
      </trkpt>
      <trkpt lat="41.598045760" lon="2.443897480">
        <ele>201.05</ele>
        <time>2016-03-24T09:48:22Z</time>
      </trkpt>
      <trkpt lat="41.598176440" lon="2.443944500">
        <ele>202.98</ele>
        <time>2016-03-24T09:48:28Z</time>
      </trkpt>
      <trkpt lat="41.598197310" lon="2.443952550">
        <ele>203.46</ele>
        <time>2016-03-24T09:48:29Z</time>
      </trkpt>
      <trkpt lat="41.598374330" lon="2.443991360">
        <ele>205.86</ele>
        <time>2016-03-24T09:48:37Z</time>
      </trkpt>
      <trkpt lat="41.598522860" lon="2.444064200">
        <ele>207.30</ele>
        <time>2016-03-24T09:48:44Z</time>
      </trkpt>
      <trkpt lat="41.598566620" lon="2.444084060">
        <ele>207.78</ele>
        <time>2016-03-24T09:48:46Z</time>
      </trkpt>
      <trkpt lat="41.598709110" lon="2.444146000">
        <ele>209.70</ele>
        <time>2016-03-24T09:48:53Z</time>
      </trkpt>
      <trkpt lat="41.598879600" lon="2.444205180">
        <ele>212.59</ele>
        <time>2016-03-24T09:49:01Z</time>
      </trkpt>
      <trkpt lat="41.599093170" lon="2.444271310">
        <ele>215.47</ele>
        <time>2016-03-24T09:49:11Z</time>
      </trkpt>
      <trkpt lat="41.599169860" lon="2.444514890">
        <ele>215.95</ele>
        <time>2016-03-24T09:49:19Z</time>
      </trkpt>
      <trkpt lat="41.599293160" lon="2.444855780">
        <ele>216.91</ele>
        <time>2016-03-24T09:49:30Z</time>
      </trkpt>
      <trkpt lat="41.599361470" lon="2.445023840">
        <ele>216.91</ele>
        <time>2016-03-24T09:49:35Z</time>
      </trkpt>
      <trkpt lat="41.599453420" lon="2.445316540">
        <ele>217.88</ele>
        <time>2016-03-24T09:49:43Z</time>
      </trkpt>
      <trkpt lat="41.599528020" lon="2.445618870">
        <ele>218.36</ele>
        <time>2016-03-24T09:49:51Z</time>
      </trkpt>
      <trkpt lat="41.599626510" lon="2.445867400">
        <ele>218.36</ele>
        <time>2016-03-24T09:49:57Z</time>
      </trkpt>
      <trkpt lat="41.599812750" lon="2.446339970">
        <ele>216.91</ele>
        <time>2016-03-24T09:50:05Z</time>
      </trkpt>
      <trkpt lat="41.599845190" lon="2.446401740">
        <ele>216.91</ele>
        <time>2016-03-24T09:50:06Z</time>
      </trkpt>
      <trkpt lat="41.600106290" lon="2.446583800">
        <ele>215.95</ele>
        <time>2016-03-24T09:50:11Z</time>
      </trkpt>
      <trkpt lat="41.600562180" lon="2.446634340">
        <ele>215.95</ele>
        <time>2016-03-24T09:50:19Z</time>
      </trkpt>
      <trkpt lat="41.600608030" lon="2.446641970">
        <ele>215.95</ele>
        <time>2016-03-24T09:50:20Z</time>
      </trkpt>
      <trkpt lat="41.600814890" lon="2.446813540">
        <ele>217.40</ele>
        <time>2016-03-24T09:50:26Z</time>
      </trkpt>
      <trkpt lat="41.600833500" lon="2.446863420">
        <ele>217.40</ele>
        <time>2016-03-24T09:50:27Z</time>
      </trkpt>
      <trkpt lat="41.600938530" lon="2.447255940">
        <ele>217.88</ele>
        <time>2016-03-24T09:50:36Z</time>
      </trkpt>
      <trkpt lat="41.601072300" lon="2.447689030">
        <ele>218.84</ele>
        <time>2016-03-24T09:50:47Z</time>
      </trkpt>
      <trkpt lat="41.601164000" lon="2.447789450">
        <ele>219.32</ele>
        <time>2016-03-24T09:50:50Z</time>
      </trkpt>
      <trkpt lat="41.601298110" lon="2.448000340">
        <ele>217.88</ele>
        <time>2016-03-24T09:50:54Z</time>
      </trkpt>
      <trkpt lat="41.601409420" lon="2.448098990">
        <ele>216.91</ele>
        <time>2016-03-24T09:50:56Z</time>
      </trkpt>
      <trkpt lat="41.601499950" lon="2.448361850">
        <ele>215.47</ele>
        <time>2016-03-24T09:50:59Z</time>
      </trkpt>
      <trkpt lat="41.601483430" lon="2.448553880">
        <ele>215.47</ele>
        <time>2016-03-24T09:51:01Z</time>
      </trkpt>
      <trkpt lat="41.601540350" lon="2.448950760">
        <ele>214.99</ele>
        <time>2016-03-24T09:51:06Z</time>
      </trkpt>
      <trkpt lat="41.601668840" lon="2.449355020">
        <ele>216.43</ele>
        <time>2016-03-24T09:51:13Z</time>
      </trkpt>
      <trkpt lat="41.601779990" lon="2.449675460">
        <ele>216.91</ele>
        <time>2016-03-24T09:51:19Z</time>
      </trkpt>
      <trkpt lat="41.601797420" lon="2.449970090">
        <ele>216.91</ele>
        <time>2016-03-24T09:51:25Z</time>
      </trkpt>
      <trkpt lat="41.601799260" lon="2.450046360">
        <ele>216.91</ele>
        <time>2016-03-24T09:51:28Z</time>
      </trkpt>
      <trkpt lat="41.601816110" lon="2.450135960">
        <ele>217.40</ele>
        <time>2016-03-24T09:51:32Z</time>
      </trkpt>
      <trkpt lat="41.601876960" lon="2.450296140">
        <ele>217.40</ele>
        <time>2016-03-24T09:51:38Z</time>
      </trkpt>
      <trkpt lat="41.601962460" lon="2.450543490">
        <ele>218.36</ele>
        <time>2016-03-24T09:51:45Z</time>
      </trkpt>
      <trkpt lat="41.602013420" lon="2.450807860">
        <ele>220.28</ele>
        <time>2016-03-24T09:51:52Z</time>
      </trkpt>
      <trkpt lat="41.602042670" lon="2.451032070">
        <ele>220.28</ele>
        <time>2016-03-24T09:51:57Z</time>
      </trkpt>
      <trkpt lat="41.602204190" lon="2.451439520">
        <ele>220.28</ele>
        <time>2016-03-24T09:52:04Z</time>
      </trkpt>
      <trkpt lat="41.602288600" lon="2.451657360">
        <ele>220.28</ele>
        <time>2016-03-24T09:52:08Z</time>
      </trkpt>
      <trkpt lat="41.602321710" lon="2.451830780">
        <ele>218.84</ele>
        <time>2016-03-24T09:52:11Z</time>
      </trkpt>
      <trkpt lat="41.602341240" lon="2.451882500">
        <ele>217.88</ele>
        <time>2016-03-24T09:52:12Z</time>
      </trkpt>
      <trkpt lat="41.602402590" lon="2.452029770">
        <ele>217.88</ele>
        <time>2016-03-24T09:52:15Z</time>
      </trkpt>
      <trkpt lat="41.602603760" lon="2.452225240">
        <ele>216.91</ele>
        <time>2016-03-24T09:52:20Z</time>
      </trkpt>
      <trkpt lat="41.602774160" lon="2.452478120">
        <ele>216.43</ele>
        <time>2016-03-24T09:52:26Z</time>
      </trkpt>
      <trkpt lat="41.602865190" lon="2.452646760">
        <ele>215.95</ele>
        <time>2016-03-24T09:52:31Z</time>
      </trkpt>
      <trkpt lat="41.602965520" lon="2.452851280">
        <ele>214.99</ele>
        <time>2016-03-24T09:52:37Z</time>
      </trkpt>
      <trkpt lat="41.603088990" lon="2.452962260">
        <ele>214.99</ele>
        <time>2016-03-24T09:52:41Z</time>
      </trkpt>
      <trkpt lat="41.603233070" lon="2.452988240">
        <ele>216.43</ele>
        <time>2016-03-24T09:52:47Z</time>
      </trkpt>
      <trkpt lat="41.603385790" lon="2.453004670">
        <ele>218.36</ele>
        <time>2016-03-24T09:52:53Z</time>
      </trkpt>
      <trkpt lat="41.603530630" lon="2.453021100">
        <ele>218.84</ele>
        <time>2016-03-24T09:52:58Z</time>
      </trkpt>
      <trkpt lat="41.603696590" lon="2.453079100">
        <ele>219.32</ele>
        <time>2016-03-24T09:53:04Z</time>
      </trkpt>
      <trkpt lat="41.603842770" lon="2.453198960">
        <ele>220.28</ele>
        <time>2016-03-24T09:53:09Z</time>
      </trkpt>
      <trkpt lat="41.603940090" lon="2.453378500">
        <ele>220.28</ele>
        <time>2016-03-24T09:53:15Z</time>
      </trkpt>
      <trkpt lat="41.603990880" lon="2.453540530">
        <ele>220.76</ele>
        <time>2016-03-24T09:53:20Z</time>
      </trkpt>
      <trkpt lat="41.604046540" lon="2.453898260">
        <ele>220.76</ele>
        <time>2016-03-24T09:53:27Z</time>
      </trkpt>
      <trkpt lat="41.604037820" lon="2.454188190">
        <ele>221.24</ele>
        <time>2016-03-24T09:53:33Z</time>
      </trkpt>
      <trkpt lat="41.603953920" lon="2.454473770">
        <ele>222.68</ele>
        <time>2016-03-24T09:53:41Z</time>
      </trkpt>
      <trkpt lat="41.603934720" lon="2.454583740">
        <ele>223.64</ele>
        <time>2016-03-24T09:53:44Z</time>
      </trkpt>
      <trkpt lat="41.603971100" lon="2.454914910">
        <ele>224.12</ele>
        <time>2016-03-24T09:53:52Z</time>
      </trkpt>
      <trkpt lat="41.604060370" lon="2.455201570">
        <ele>224.12</ele>
        <time>2016-03-24T09:53:59Z</time>
      </trkpt>
      <trkpt lat="41.604218110" lon="2.455519410">
        <ele>224.12</ele>
        <time>2016-03-24T09:54:07Z</time>
      </trkpt>
      <trkpt lat="41.604406620" lon="2.455759800">
        <ele>224.12</ele>
        <time>2016-03-24T09:54:14Z</time>
      </trkpt>
      <trkpt lat="41.604576020" lon="2.455906070">
        <ele>225.09</ele>
        <time>2016-03-24T09:54:21Z</time>
      </trkpt>
      <trkpt lat="41.604692280" lon="2.455954600">
        <ele>226.05</ele>
        <time>2016-03-24T09:54:27Z</time>
      </trkpt>
      <trkpt lat="41.604836610" lon="2.455995580">
        <ele>226.53</ele>
        <time>2016-03-24T09:54:33Z</time>
      </trkpt>
      <trkpt lat="41.604972230" lon="2.456094160">
        <ele>228.45</ele>
        <time>2016-03-24T09:54:40Z</time>
      </trkpt>
      <trkpt lat="41.605067790" lon="2.456204210">
        <ele>230.37</ele>
        <time>2016-03-24T09:54:47Z</time>
      </trkpt>
      <trkpt lat="41.605146910" lon="2.456320380">
        <ele>231.81</ele>
        <time>2016-03-24T09:54:53Z</time>
      </trkpt>
      <trkpt lat="41.605168960" lon="2.456438320">
        <ele>233.26</ele>
        <time>2016-03-24T09:54:59Z</time>
      </trkpt>
      <trkpt lat="41.605184130" lon="2.456583410">
        <ele>234.22</ele>
        <time>2016-03-24T09:55:05Z</time>
      </trkpt>
      <trkpt lat="41.605177930" lon="2.456729670">
        <ele>234.70</ele>
        <time>2016-03-24T09:55:11Z</time>
      </trkpt>
      <trkpt lat="41.605160320" lon="2.456801170">
        <ele>235.18</ele>
        <time>2016-03-24T09:55:14Z</time>
      </trkpt>
      <trkpt lat="41.605121770" lon="2.456957410">
        <ele>236.14</ele>
        <time>2016-03-24T09:55:21Z</time>
      </trkpt>
      <trkpt lat="41.605082620" lon="2.457065530">
        <ele>237.10</ele>
        <time>2016-03-24T09:55:26Z</time>
      </trkpt>
      <trkpt lat="41.605005430" lon="2.457201990">
        <ele>238.54</ele>
        <time>2016-03-24T09:55:33Z</time>
      </trkpt>
      <trkpt lat="41.604907690" lon="2.457335850">
        <ele>239.51</ele>
        <time>2016-03-24T09:55:41Z</time>
      </trkpt>
      <trkpt lat="41.604849520" lon="2.457485800">
        <ele>241.43</ele>
        <time>2016-03-24T09:55:49Z</time>
      </trkpt>
      <trkpt lat="41.604807110" lon="2.457640280">
        <ele>244.79</ele>
        <time>2016-03-24T09:55:58Z</time>
      </trkpt>
      <trkpt lat="41.604802420" lon="2.457664510">
        <ele>245.75</ele>
        <time>2016-03-24T09:56:00Z</time>
      </trkpt>
      <trkpt lat="41.604796130" lon="2.457742460">
        <ele>245.75</ele>
        <time>2016-03-24T09:56:04Z</time>
      </trkpt>
      <trkpt lat="41.604787830" lon="2.457811360">
        <ele>245.75</ele>
        <time>2016-03-24T09:56:07Z</time>
      </trkpt>
      <trkpt lat="41.604787830" lon="2.457931800">
        <ele>247.20</ele>
        <time>2016-03-24T09:56:14Z</time>
      </trkpt>
      <trkpt lat="41.604794540" lon="2.458083270">
        <ele>248.64</ele>
        <time>2016-03-24T09:56:23Z</time>
      </trkpt>
      <trkpt lat="41.604798390" lon="2.458223580">
        <ele>251.04</ele>
        <time>2016-03-24T09:56:31Z</time>
      </trkpt>
      <trkpt lat="41.604797810" lon="2.458259870">
        <ele>251.52</ele>
        <time>2016-03-24T09:56:33Z</time>
      </trkpt>
      <trkpt lat="41.604794960" lon="2.458408820">
        <ele>253.93</ele>
        <time>2016-03-24T09:56:41Z</time>
      </trkpt>
      <trkpt lat="41.604761010" lon="2.458525240">
        <ele>255.37</ele>
        <time>2016-03-24T09:56:48Z</time>
      </trkpt>
      <trkpt lat="41.604755310" lon="2.458539490">
        <ele>255.37</ele>
        <time>2016-03-24T09:56:49Z</time>
      </trkpt>
      <trkpt lat="41.604691020" lon="2.458643760">
        <ele>258.25</ele>
        <time>2016-03-24T09:56:58Z</time>
      </trkpt>
      <trkpt lat="41.604606780" lon="2.458722470">
        <ele>259.69</ele>
        <time>2016-03-24T09:57:07Z</time>
      </trkpt>
      <trkpt lat="41.604582060" lon="2.458751810">
        <ele>260.65</ele>
        <time>2016-03-24T09:57:10Z</time>
      </trkpt>
      <trkpt lat="41.604536120" lon="2.458808550">
        <ele>261.62</ele>
        <time>2016-03-24T09:57:16Z</time>
      </trkpt>
      <trkpt lat="41.604512230" lon="2.458905610">
        <ele>262.10</ele>
        <time>2016-03-24T09:57:21Z</time>
      </trkpt>
      <trkpt lat="41.604521370" lon="2.458954310">
        <ele>262.58</ele>
        <time>2016-03-24T09:57:24Z</time>
      </trkpt>
      <trkpt lat="41.604619270" lon="2.459065880">
        <ele>264.98</ele>
        <time>2016-03-24T09:57:34Z</time>
      </trkpt>
      <trkpt lat="41.604698900" lon="2.459155480">
        <ele>266.42</ele>
        <time>2016-03-24T09:57:42Z</time>
      </trkpt>
      <trkpt lat="41.604788920" lon="2.459281960">
        <ele>268.83</ele>
        <time>2016-03-24T09:57:52Z</time>
      </trkpt>
      <trkpt lat="41.604859500" lon="2.459370980">
        <ele>269.31</ele>
        <time>2016-03-24T09:57:59Z</time>
      </trkpt>
      <trkpt lat="41.604871730" lon="2.459474910">
        <ele>270.75</ele>
        <time>2016-03-24T09:58:06Z</time>
      </trkpt>
      <trkpt lat="41.604754560" lon="2.459544570">
        <ele>272.19</ele>
        <time>2016-03-24T09:58:16Z</time>
      </trkpt>
      <trkpt lat="41.604644000" lon="2.459551770">
        <ele>273.15</ele>
        <time>2016-03-24T09:58:23Z</time>
      </trkpt>
      <trkpt lat="41.604513740" lon="2.459605500">
        <ele>274.59</ele>
        <time>2016-03-24T09:58:33Z</time>
      </trkpt>
      <trkpt lat="41.604405620" lon="2.459678760">
        <ele>276.52</ele>
        <time>2016-03-24T09:58:41Z</time>
      </trkpt>
      <trkpt lat="41.604354150" lon="2.459754700">
        <ele>277.96</ele>
        <time>2016-03-24T09:58:47Z</time>
      </trkpt>
      <trkpt lat="41.604294890" lon="2.459867520">
        <ele>278.92</ele>
        <time>2016-03-24T09:58:54Z</time>
      </trkpt>
      <trkpt lat="41.604272930" lon="2.459936920">
        <ele>279.40</ele>
        <time>2016-03-24T09:58:58Z</time>
      </trkpt>
      <trkpt lat="41.604226080" lon="2.460116380">
        <ele>281.80</ele>
        <time>2016-03-24T09:59:08Z</time>
      </trkpt>
      <trkpt lat="41.604220460" lon="2.460173210">
        <ele>282.28</ele>
        <time>2016-03-24T09:59:11Z</time>
      </trkpt>
      <trkpt lat="41.604287930" lon="2.460263820">
        <ele>283.25</ele>
        <time>2016-03-24T09:59:19Z</time>
      </trkpt>
      <trkpt lat="41.604394390" lon="2.460306230">
        <ele>285.17</ele>
        <time>2016-03-24T09:59:27Z</time>
      </trkpt>
      <trkpt lat="41.604416430" lon="2.460327020">
        <ele>285.17</ele>
        <time>2016-03-24T09:59:29Z</time>
      </trkpt>
      <trkpt lat="41.604492700" lon="2.460458280">
        <ele>287.09</ele>
        <time>2016-03-24T09:59:39Z</time>
      </trkpt>
      <trkpt lat="41.604578120" lon="2.460600270">
        <ele>288.53</ele>
        <time>2016-03-24T09:59:48Z</time>
      </trkpt>
      <trkpt lat="41.604651540" lon="2.460723310">
        <ele>289.01</ele>
        <time>2016-03-24T09:59:56Z</time>
      </trkpt>
      <trkpt lat="41.604749440" lon="2.460814090">
        <ele>289.97</ele>
        <time>2016-03-24T10:00:03Z</time>
      </trkpt>
      <trkpt lat="41.604851870" lon="2.460868910">
        <ele>290.46</ele>
        <time>2016-03-24T10:00:10Z</time>
      </trkpt>
      <trkpt lat="41.604940380" lon="2.460910980">
        <ele>291.90</ele>
        <time>2016-03-24T10:00:17Z</time>
      </trkpt>
      <trkpt lat="41.605063600" lon="2.460943170">
        <ele>293.82</ele>
        <time>2016-03-24T10:00:25Z</time>
      </trkpt>
      <trkpt lat="41.605175080" lon="2.461081640">
        <ele>296.22</ele>
        <time>2016-03-24T10:00:35Z</time>
      </trkpt>
      <trkpt lat="41.605193680" lon="2.461140400">
        <ele>297.18</ele>
        <time>2016-03-24T10:00:40Z</time>
      </trkpt>
      <trkpt lat="41.605198210" lon="2.461180970">
        <ele>297.18</ele>
        <time>2016-03-24T10:00:42Z</time>
      </trkpt>
      <trkpt lat="41.605186470" lon="2.461332850">
        <ele>298.63</ele>
        <time>2016-03-24T10:00:50Z</time>
      </trkpt>
      <trkpt lat="41.605156050" lon="2.461464440">
        <ele>301.03</ele>
        <time>2016-03-24T10:00:58Z</time>
      </trkpt>
      <trkpt lat="41.605125450" lon="2.461592270">
        <ele>302.95</ele>
        <time>2016-03-24T10:01:06Z</time>
      </trkpt>
      <trkpt lat="41.605083210" lon="2.461742050">
        <ele>303.91</ele>
        <time>2016-03-24T10:01:14Z</time>
      </trkpt>
      <trkpt lat="41.605069800" lon="2.461879760">
        <ele>304.39</ele>
        <time>2016-03-24T10:01:22Z</time>
      </trkpt>
      <trkpt lat="41.605073650" lon="2.461934670">
        <ele>305.84</ele>
        <time>2016-03-24T10:01:25Z</time>
      </trkpt>
      <trkpt lat="41.605118250" lon="2.462062660">
        <ele>307.28</ele>
        <time>2016-03-24T10:01:34Z</time>
      </trkpt>
      <trkpt lat="41.605136690" lon="2.462134160">
        <ele>308.72</ele>
        <time>2016-03-24T10:01:40Z</time>
      </trkpt>
      <trkpt lat="41.605172900" lon="2.462235660">
        <ele>310.64</ele>
        <time>2016-03-24T10:01:47Z</time>
      </trkpt>
      <trkpt lat="41.605214220" lon="2.462341360">
        <ele>311.60</ele>
        <time>2016-03-24T10:01:54Z</time>
      </trkpt>
      <trkpt lat="41.605244060" lon="2.462452080">
        <ele>313.05</ele>
        <time>2016-03-24T10:02:02Z</time>
      </trkpt>
      <trkpt lat="41.605268790" lon="2.462558110">
        <ele>314.97</ele>
        <time>2016-03-24T10:02:09Z</time>
      </trkpt>
      <trkpt lat="41.605309610" lon="2.462674700">
        <ele>316.89</ele>
        <time>2016-03-24T10:02:17Z</time>
      </trkpt>
      <trkpt lat="41.605341880" lon="2.462788700">
        <ele>318.33</ele>
        <time>2016-03-24T10:02:24Z</time>
      </trkpt>
      <trkpt lat="41.605371880" lon="2.462868160">
        <ele>318.81</ele>
        <time>2016-03-24T10:02:29Z</time>
      </trkpt>
      <trkpt lat="41.605392000" lon="2.462932780">
        <ele>319.78</ele>
        <time>2016-03-24T10:02:33Z</time>
      </trkpt>
      <trkpt lat="41.605414130" lon="2.463072510">
        <ele>320.26</ele>
        <time>2016-03-24T10:02:41Z</time>
      </trkpt>
      <trkpt lat="41.605334580" lon="2.463218020">
        <ele>320.74</ele>
        <time>2016-03-24T10:02:50Z</time>
      </trkpt>
      <trkpt lat="41.605217150" lon="2.463277700">
        <ele>321.22</ele>
        <time>2016-03-24T10:02:58Z</time>
      </trkpt>
      <trkpt lat="41.605201730" lon="2.463277870">
        <ele>321.22</ele>
        <time>2016-03-24T10:02:59Z</time>
      </trkpt>
      <trkpt lat="41.605086480" lon="2.463355480">
        <ele>321.70</ele>
        <time>2016-03-24T10:03:06Z</time>
      </trkpt>
      <trkpt lat="41.604977010" lon="2.463419600">
        <ele>321.70</ele>
        <time>2016-03-24T10:03:11Z</time>
      </trkpt>
      <trkpt lat="41.604830330" lon="2.463533010">
        <ele>322.66</ele>
        <time>2016-03-24T10:03:19Z</time>
      </trkpt>
      <trkpt lat="41.604807360" lon="2.463563520">
        <ele>323.14</ele>
        <time>2016-03-24T10:03:21Z</time>
      </trkpt>
      <trkpt lat="41.604700320" lon="2.463679860">
        <ele>324.10</ele>
        <time>2016-03-24T10:03:29Z</time>
      </trkpt>
      <trkpt lat="41.604568640" lon="2.463775000">
        <ele>326.02</ele>
        <time>2016-03-24T10:03:38Z</time>
      </trkpt>
      <trkpt lat="41.604536710" lon="2.463786140">
        <ele>326.02</ele>
        <time>2016-03-24T10:03:40Z</time>
      </trkpt>
      <trkpt lat="41.604403520" lon="2.463871720">
        <ele>327.95</ele>
        <time>2016-03-24T10:03:49Z</time>
      </trkpt>
      <trkpt lat="41.604389190" lon="2.464057220">
        <ele>328.43</ele>
        <time>2016-03-24T10:03:56Z</time>
      </trkpt>
      <trkpt lat="41.604416510" lon="2.464285290">
        <ele>328.43</ele>
        <time>2016-03-24T10:04:03Z</time>
      </trkpt>
      <trkpt lat="41.604508380" lon="2.464488460">
        <ele>328.91</ele>
        <time>2016-03-24T10:04:11Z</time>
      </trkpt>
      <trkpt lat="41.604635780" lon="2.464603040">
        <ele>328.91</ele>
        <time>2016-03-24T10:04:17Z</time>
      </trkpt>
      <trkpt lat="41.604730000" lon="2.464698770">
        <ele>328.91</ele>
        <time>2016-03-24T10:04:23Z</time>
      </trkpt>
      <trkpt lat="41.604864610" lon="2.464774120">
        <ele>329.87</ele>
        <time>2016-03-24T10:04:29Z</time>
      </trkpt>
      <trkpt lat="41.605031660" lon="2.464846200">
        <ele>329.87</ele>
        <time>2016-03-24T10:04:35Z</time>
      </trkpt>
      <trkpt lat="41.605132910" lon="2.464932960">
        <ele>328.43</ele>
        <time>2016-03-24T10:04:38Z</time>
      </trkpt>
      <trkpt lat="41.605164600" lon="2.464972100">
        <ele>327.95</ele>
        <time>2016-03-24T10:04:39Z</time>
      </trkpt>
      <trkpt lat="41.605310860" lon="2.465047870">
        <ele>327.47</ele>
        <time>2016-03-24T10:04:42Z</time>
      </trkpt>
      <trkpt lat="41.605498620" lon="2.465076450">
        <ele>326.50</ele>
        <time>2016-03-24T10:04:46Z</time>
      </trkpt>
      <trkpt lat="41.605762140" lon="2.465439060">
        <ele>325.06</ele>
        <time>2016-03-24T10:04:52Z</time>
      </trkpt>
      <trkpt lat="41.605858200" lon="2.465776680">
        <ele>324.10</ele>
        <time>2016-03-24T10:04:56Z</time>
      </trkpt>
      <trkpt lat="41.605941770" lon="2.465899390">
        <ele>323.62</ele>
        <time>2016-03-24T10:04:58Z</time>
      </trkpt>
      <trkpt lat="41.606080660" lon="2.466117990">
        <ele>325.06</ele>
        <time>2016-03-24T10:05:03Z</time>
      </trkpt>
      <trkpt lat="41.606110750" lon="2.466232150">
        <ele>326.50</ele>
        <time>2016-03-24T10:05:07Z</time>
      </trkpt>
      <trkpt lat="41.606178310" lon="2.466320330">
        <ele>327.47</ele>
        <time>2016-03-24T10:05:12Z</time>
      </trkpt>
      <trkpt lat="41.606320300" lon="2.466382860">
        <ele>330.35</ele>
        <time>2016-03-24T10:05:21Z</time>
      </trkpt>
      <trkpt lat="41.606335470" lon="2.466379090">
        <ele>330.83</ele>
        <time>2016-03-24T10:05:22Z</time>
      </trkpt>
      <trkpt lat="41.606449630" lon="2.466459300">
        <ele>331.79</ele>
        <time>2016-03-24T10:05:29Z</time>
      </trkpt>
      <trkpt lat="41.606456840" lon="2.466477070">
        <ele>331.79</ele>
        <time>2016-03-24T10:05:30Z</time>
      </trkpt>
      <trkpt lat="41.606435880" lon="2.466636080">
        <ele>333.23</ele>
        <time>2016-03-24T10:05:39Z</time>
      </trkpt>
      <trkpt lat="41.606346280" lon="2.466728020">
        <ele>334.68</ele>
        <time>2016-03-24T10:05:48Z</time>
      </trkpt>
      <trkpt lat="41.606330020" lon="2.466732050">
        <ele>335.16</ele>
        <time>2016-03-24T10:05:49Z</time>
      </trkpt>
      <trkpt lat="41.606165820" lon="2.466667680">
        <ele>333.71</ele>
        <time>2016-03-24T10:05:55Z</time>
      </trkpt>
      <trkpt lat="41.606133880" lon="2.466636240">
        <ele>333.71</ele>
        <time>2016-03-24T10:05:56Z</time>
      </trkpt>
      <trkpt lat="41.605957270" lon="2.466374560">
        <ele>333.23</ele>
        <time>2016-03-24T10:06:03Z</time>
      </trkpt>
      <trkpt lat="41.605802960" lon="2.466256790">
        <ele>333.23</ele>
        <time>2016-03-24T10:06:09Z</time>
      </trkpt>
      <trkpt lat="41.605657870" lon="2.466201140">
        <ele>333.23</ele>
        <time>2016-03-24T10:06:15Z</time>
      </trkpt>
      <trkpt lat="41.605612020" lon="2.466196950">
        <ele>333.23</ele>
        <time>2016-03-24T10:06:17Z</time>
      </trkpt>
      <trkpt lat="41.605557120" lon="2.466182780">
        <ele>334.68</ele>
        <time>2016-03-24T10:06:20Z</time>
      </trkpt>
      <trkpt lat="41.605517480" lon="2.466176500">
        <ele>335.16</ele>
        <time>2016-03-24T10:06:22Z</time>
      </trkpt>
      <trkpt lat="41.605415970" lon="2.466169370">
        <ele>336.60</ele>
        <time>2016-03-24T10:06:28Z</time>
      </trkpt>
      <trkpt lat="41.605353110" lon="2.466124780">
        <ele>338.04</ele>
        <time>2016-03-24T10:06:34Z</time>
      </trkpt>
      <trkpt lat="41.605348330" lon="2.466055380">
        <ele>339.00</ele>
        <time>2016-03-24T10:06:38Z</time>
      </trkpt>
      <trkpt lat="41.605432060" lon="2.465870560">
        <ele>339.48</ele>
        <time>2016-03-24T10:06:48Z</time>
      </trkpt>
      <trkpt lat="41.605459890" lon="2.465821020">
        <ele>339.96</ele>
        <time>2016-03-24T10:06:51Z</time>
      </trkpt>
      <trkpt lat="41.605431900" lon="2.465649690">
        <ele>341.89</ele>
        <time>2016-03-24T10:06:59Z</time>
      </trkpt>
      <trkpt lat="41.605402310" lon="2.465644580">
        <ele>342.37</ele>
        <time>2016-03-24T10:07:01Z</time>
      </trkpt>
      <trkpt lat="41.605283540" lon="2.465694790">
        <ele>344.29</ele>
        <time>2016-03-24T10:07:10Z</time>
      </trkpt>
      <trkpt lat="41.605191920" lon="2.465767290">
        <ele>345.25</ele>
        <time>2016-03-24T10:07:18Z</time>
      </trkpt>
      <trkpt lat="41.605179350" lon="2.465781620">
        <ele>345.73</ele>
        <time>2016-03-24T10:07:19Z</time>
      </trkpt>
      <trkpt lat="41.605083960" lon="2.465849600">
        <ele>346.69</ele>
        <time>2016-03-24T10:07:27Z</time>
      </trkpt>
      <trkpt lat="41.605022190" lon="2.465897630">
        <ele>347.65</ele>
        <time>2016-03-24T10:07:33Z</time>
      </trkpt>
      <trkpt lat="41.604938040" lon="2.465998210">
        <ele>349.10</ele>
        <time>2016-03-24T10:07:41Z</time>
      </trkpt>
      <trkpt lat="41.604918340" lon="2.466027880">
        <ele>349.10</ele>
        <time>2016-03-24T10:07:43Z</time>
      </trkpt>
      <trkpt lat="41.604895620" lon="2.466116900">
        <ele>350.54</ele>
        <time>2016-03-24T10:07:47Z</time>
      </trkpt>
      <trkpt lat="41.604875590" lon="2.466148670">
        <ele>351.02</ele>
        <time>2016-03-24T10:07:49Z</time>
      </trkpt>
      <trkpt lat="41.604808950" lon="2.466366430">
        <ele>351.98</ele>
        <time>2016-03-24T10:07:59Z</time>
      </trkpt>
      <trkpt lat="41.604762940" lon="2.466506160">
        <ele>353.90</ele>
        <time>2016-03-24T10:08:07Z</time>
      </trkpt>
      <trkpt lat="41.604755230" lon="2.466605570">
        <ele>354.86</ele>
        <time>2016-03-24T10:08:12Z</time>
      </trkpt>
      <trkpt lat="41.604772830" lon="2.466648150">
        <ele>355.83</ele>
        <time>2016-03-24T10:08:14Z</time>
      </trkpt>
      <trkpt lat="41.604793200" lon="2.466681510">
        <ele>355.83</ele>
        <time>2016-03-24T10:08:16Z</time>
      </trkpt>
      <trkpt lat="41.604884470" lon="2.466727270">
        <ele>357.75</ele>
        <time>2016-03-24T10:08:24Z</time>
      </trkpt>
      <trkpt lat="41.604961000" lon="2.466724170">
        <ele>358.23</ele>
        <time>2016-03-24T10:08:28Z</time>
      </trkpt>
      <trkpt lat="41.605105170" lon="2.466821570">
        <ele>359.67</ele>
        <time>2016-03-24T10:08:37Z</time>
      </trkpt>
      <trkpt lat="41.605202570" lon="2.466947040">
        <ele>361.59</ele>
        <time>2016-03-24T10:08:46Z</time>
      </trkpt>
      <trkpt lat="41.605280860" lon="2.467069760">
        <ele>363.04</ele>
        <time>2016-03-24T10:08:55Z</time>
      </trkpt>
      <trkpt lat="41.605295100" lon="2.467169420">
        <ele>363.52</ele>
        <time>2016-03-24T10:09:00Z</time>
      </trkpt>
      <trkpt lat="41.605302310" lon="2.467280390">
        <ele>364.00</ele>
        <time>2016-03-24T10:09:05Z</time>
      </trkpt>
      <trkpt lat="41.605293760" lon="2.467352060">
        <ele>364.00</ele>
        <time>2016-03-24T10:09:09Z</time>
      </trkpt>
      <trkpt lat="41.605254370" lon="2.467499580">
        <ele>365.44</ele>
        <time>2016-03-24T10:09:17Z</time>
      </trkpt>
      <trkpt lat="41.605173480" lon="2.467635200">
        <ele>366.40</ele>
        <time>2016-03-24T10:09:24Z</time>
      </trkpt>
      <trkpt lat="41.605047500" lon="2.467766710">
        <ele>366.40</ele>
        <time>2016-03-24T10:09:31Z</time>
      </trkpt>
      <trkpt lat="41.604935270" lon="2.467938710">
        <ele>366.40</ele>
        <time>2016-03-24T10:09:38Z</time>
      </trkpt>
      <trkpt lat="41.604852120" lon="2.468092100">
        <ele>366.40</ele>
        <time>2016-03-24T10:09:45Z</time>
      </trkpt>
      <trkpt lat="41.604715160" lon="2.468239030">
        <ele>365.44</ele>
        <time>2016-03-24T10:09:52Z</time>
      </trkpt>
      <trkpt lat="41.604641320" lon="2.468327290">
        <ele>365.44</ele>
        <time>2016-03-24T10:09:56Z</time>
      </trkpt>
      <trkpt lat="41.604577780" lon="2.468467440">
        <ele>365.44</ele>
        <time>2016-03-24T10:10:01Z</time>
      </trkpt>
      <trkpt lat="41.604513320" lon="2.468644300">
        <ele>365.44</ele>
        <time>2016-03-24T10:10:06Z</time>
      </trkpt>
      <trkpt lat="41.604493630" lon="2.468765080">
        <ele>364.96</ele>
        <time>2016-03-24T10:10:10Z</time>
      </trkpt>
      <trkpt lat="41.604573250" lon="2.469016280">
        <ele>364.48</ele>
        <time>2016-03-24T10:10:17Z</time>
      </trkpt>
      <trkpt lat="41.604671410" lon="2.469291800">
        <ele>364.00</ele>
        <time>2016-03-24T10:10:24Z</time>
      </trkpt>
      <trkpt lat="41.604733270" lon="2.469560770">
        <ele>364.00</ele>
        <time>2016-03-24T10:10:32Z</time>
      </trkpt>
      <trkpt lat="41.604739720" lon="2.469676440">
        <ele>365.44</ele>
        <time>2016-03-24T10:10:36Z</time>
      </trkpt>
      <trkpt lat="41.604717510" lon="2.469929830">
        <ele>366.88</ele>
        <time>2016-03-24T10:10:45Z</time>
      </trkpt>
      <trkpt lat="41.604732260" lon="2.470125630">
        <ele>368.80</ele>
        <time>2016-03-24T10:10:52Z</time>
      </trkpt>
      <trkpt lat="41.604744500" lon="2.470191010">
        <ele>369.28</ele>
        <time>2016-03-24T10:10:58Z</time>
      </trkpt>
      <trkpt lat="41.604765200" lon="2.470235680">
        <ele>369.28</ele>
        <time>2016-03-24T10:11:10Z</time>
      </trkpt>
      <trkpt lat="41.604765790" lon="2.470228980">
        <ele>369.28</ele>
        <time>2016-03-24T10:11:20Z</time>
      </trkpt>
      <trkpt lat="41.604774170" lon="2.470271220">
        <ele>369.28</ele>
        <time>2016-03-24T10:11:24Z</time>
      </trkpt>
      <trkpt lat="41.604798730" lon="2.470377510">
        <ele>370.73</ele>
        <time>2016-03-24T10:11:32Z</time>
      </trkpt>
      <trkpt lat="41.604822200" lon="2.470471220">
        <ele>372.17</ele>
        <time>2016-03-24T10:11:38Z</time>
      </trkpt>
      <trkpt lat="41.604853290" lon="2.470538770">
        <ele>373.13</ele>
        <time>2016-03-24T10:11:43Z</time>
      </trkpt>
      <trkpt lat="41.604882130" lon="2.470646400">
        <ele>373.61</ele>
        <time>2016-03-24T10:11:48Z</time>
      </trkpt>
      <trkpt lat="41.604967870" lon="2.470823590">
        <ele>375.53</ele>
        <time>2016-03-24T10:11:58Z</time>
      </trkpt>
      <trkpt lat="41.605064020" lon="2.470952500">
        <ele>377.45</ele>
        <time>2016-03-24T10:12:07Z</time>
      </trkpt>
      <trkpt lat="41.605159740" lon="2.471094240">
        <ele>378.90</ele>
        <time>2016-03-24T10:12:16Z</time>
      </trkpt>
      <trkpt lat="41.605239280" lon="2.471235900">
        <ele>380.34</ele>
        <time>2016-03-24T10:12:25Z</time>
      </trkpt>
      <trkpt lat="41.605303650" lon="2.471354330">
        <ele>381.30</ele>
        <time>2016-03-24T10:12:32Z</time>
      </trkpt>
      <trkpt lat="41.605390160" lon="2.471478300">
        <ele>382.74</ele>
        <time>2016-03-24T10:12:40Z</time>
      </trkpt>
      <trkpt lat="41.605511020" lon="2.471614840">
        <ele>384.66</ele>
        <time>2016-03-24T10:12:50Z</time>
      </trkpt>
      <trkpt lat="41.605636830" lon="2.471710400">
        <ele>384.66</ele>
        <time>2016-03-24T10:12:57Z</time>
      </trkpt>
      <trkpt lat="41.605745800" lon="2.471809550">
        <ele>384.66</ele>
        <time>2016-03-24T10:13:01Z</time>
      </trkpt>
      <trkpt lat="41.605856520" lon="2.471924220">
        <ele>383.22</ele>
        <time>2016-03-24T10:13:04Z</time>
      </trkpt>
      <trkpt lat="41.606043690" lon="2.472158240">
        <ele>382.26</ele>
        <time>2016-03-24T10:13:09Z</time>
      </trkpt>
      <trkpt lat="41.606167160" lon="2.472377340">
        <ele>381.78</ele>
        <time>2016-03-24T10:13:13Z</time>
      </trkpt>
      <trkpt lat="41.606196410" lon="2.472682110">
        <ele>381.30</ele>
        <time>2016-03-24T10:13:18Z</time>
      </trkpt>
      <trkpt lat="41.606060370" lon="2.473029790">
        <ele>382.74</ele>
        <time>2016-03-24T10:13:26Z</time>
      </trkpt>
      <trkpt lat="41.605943700" lon="2.473256440">
        <ele>383.22</ele>
        <time>2016-03-24T10:13:34Z</time>
      </trkpt>
      <trkpt lat="41.605905730" lon="2.473324000">
        <ele>384.18</ele>
        <time>2016-03-24T10:13:37Z</time>
      </trkpt>
      <trkpt lat="41.605781760" lon="2.473539490">
        <ele>386.11</ele>
        <time>2016-03-24T10:13:46Z</time>
      </trkpt>
      <trkpt lat="41.605695010" lon="2.473697410">
        <ele>387.55</ele>
        <time>2016-03-24T10:13:52Z</time>
      </trkpt>
      <trkpt lat="41.605578920" lon="2.473940990">
        <ele>388.03</ele>
        <time>2016-03-24T10:14:00Z</time>
      </trkpt>
      <trkpt lat="41.605528620" lon="2.474220360">
        <ele>388.03</ele>
        <time>2016-03-24T10:14:07Z</time>
      </trkpt>
      <trkpt lat="41.605569190" lon="2.474614810">
        <ele>388.03</ele>
        <time>2016-03-24T10:14:15Z</time>
      </trkpt>
      <trkpt lat="41.605637670" lon="2.474792670">
        <ele>388.51</ele>
        <time>2016-03-24T10:14:20Z</time>
      </trkpt>
      <trkpt lat="41.605739090" lon="2.474993080">
        <ele>389.47</ele>
        <time>2016-03-24T10:14:26Z</time>
      </trkpt>
      <trkpt lat="41.605787290" lon="2.475080170">
        <ele>389.95</ele>
        <time>2016-03-24T10:14:29Z</time>
      </trkpt>
      <trkpt lat="41.605860550" lon="2.475183190">
        <ele>390.91</ele>
        <time>2016-03-24T10:14:33Z</time>
      </trkpt>
      <trkpt lat="41.606039000" lon="2.475449560">
        <ele>391.39</ele>
        <time>2016-03-24T10:14:42Z</time>
      </trkpt>
      <trkpt lat="41.606165980" lon="2.475632370">
        <ele>391.87</ele>
        <time>2016-03-24T10:14:49Z</time>
      </trkpt>
      <trkpt lat="41.606274780" lon="2.475785260">
        <ele>393.80</ele>
        <time>2016-03-24T10:14:56Z</time>
      </trkpt>
      <trkpt lat="41.606374610" lon="2.475911570">
        <ele>395.72</ele>
        <time>2016-03-24T10:15:03Z</time>
      </trkpt>
      <trkpt lat="41.606522220" lon="2.476115420">
        <ele>397.64</ele>
        <time>2016-03-24T10:15:14Z</time>
      </trkpt>
      <trkpt lat="41.606605610" lon="2.476187420">
        <ele>399.08</ele>
        <time>2016-03-24T10:15:20Z</time>
      </trkpt>
      <trkpt lat="41.606663030" lon="2.476315160">
        <ele>400.05</ele>
        <time>2016-03-24T10:15:27Z</time>
      </trkpt>
      <trkpt lat="41.606673260" lon="2.476354220">
        <ele>400.53</ele>
        <time>2016-03-24T10:15:29Z</time>
      </trkpt>
      <trkpt lat="41.606677530" lon="2.476468130">
        <ele>400.53</ele>
        <time>2016-03-24T10:15:33Z</time>
      </trkpt>
      <trkpt lat="41.606725640" lon="2.476765610">
        <ele>397.64</ele>
        <time>2016-03-24T10:15:37Z</time>
      </trkpt>
      <trkpt lat="41.606826980" lon="2.477000720">
        <ele>396.20</ele>
        <time>2016-03-24T10:15:40Z</time>
      </trkpt>
      <trkpt lat="41.606875850" lon="2.477063330">
        <ele>395.72</ele>
        <time>2016-03-24T10:15:41Z</time>
      </trkpt>
      <trkpt lat="41.606980200" lon="2.477186460">
        <ele>395.72</ele>
        <time>2016-03-24T10:15:43Z</time>
      </trkpt>
      <trkpt lat="41.607103920" lon="2.477405060">
        <ele>394.76</ele>
        <time>2016-03-24T10:15:46Z</time>
      </trkpt>
      <trkpt lat="41.607166780" lon="2.477552580">
        <ele>394.76</ele>
        <time>2016-03-24T10:15:48Z</time>
      </trkpt>
      <trkpt lat="41.607337270" lon="2.477918450">
        <ele>394.76</ele>
        <time>2016-03-24T10:15:54Z</time>
      </trkpt>
      <trkpt lat="41.607429810" lon="2.478287510">
        <ele>394.76</ele>
        <time>2016-03-24T10:16:01Z</time>
      </trkpt>
      <trkpt lat="41.607499710" lon="2.478573750">
        <ele>396.20</ele>
        <time>2016-03-24T10:16:08Z</time>
      </trkpt>
      <trkpt lat="41.607606000" lon="2.478870970">
        <ele>398.12</ele>
        <time>2016-03-24T10:16:17Z</time>
      </trkpt>
      <trkpt lat="41.607661990" lon="2.479041460">
        <ele>400.05</ele>
        <time>2016-03-24T10:16:23Z</time>
      </trkpt>
      <trkpt lat="41.607727280" lon="2.479263660">
        <ele>401.97</ele>
        <time>2016-03-24T10:16:31Z</time>
      </trkpt>
      <trkpt lat="41.607771870" lon="2.479463990">
        <ele>402.45</ele>
        <time>2016-03-24T10:16:38Z</time>
      </trkpt>
      <trkpt lat="41.607783520" lon="2.479571870">
        <ele>402.45</ele>
        <time>2016-03-24T10:16:41Z</time>
      </trkpt>
      <trkpt lat="41.607797770" lon="2.479712510">
        <ele>402.93</ele>
        <time>2016-03-24T10:16:45Z</time>
      </trkpt>
      <trkpt lat="41.607856360" lon="2.479975540">
        <ele>403.41</ele>
        <time>2016-03-24T10:16:52Z</time>
      </trkpt>
      <trkpt lat="41.607974880" lon="2.480289360">
        <ele>403.89</ele>
        <time>2016-03-24T10:17:00Z</time>
      </trkpt>
      <trkpt lat="41.608046800" lon="2.480575600">
        <ele>404.37</ele>
        <time>2016-03-24T10:17:07Z</time>
      </trkpt>
      <trkpt lat="41.608119970" lon="2.480774330">
        <ele>404.37</ele>
        <time>2016-03-24T10:17:12Z</time>
      </trkpt>
      <trkpt lat="41.608287110" lon="2.480878190">
        <ele>404.85</ele>
        <time>2016-03-24T10:17:18Z</time>
      </trkpt>
      <trkpt lat="41.608413590" lon="2.480933840">
        <ele>405.81</ele>
        <time>2016-03-24T10:17:23Z</time>
      </trkpt>
      <trkpt lat="41.608573520" lon="2.481068200">
        <ele>407.26</ele>
        <time>2016-03-24T10:17:30Z</time>
      </trkpt>
      <trkpt lat="41.608675270" lon="2.481315970">
        <ele>408.70</ele>
        <time>2016-03-24T10:17:38Z</time>
      </trkpt>
      <trkpt lat="41.608705620" lon="2.481573880">
        <ele>409.18</ele>
        <time>2016-03-24T10:17:45Z</time>
      </trkpt>
      <trkpt lat="41.608659600" lon="2.481830290">
        <ele>410.62</ele>
        <time>2016-03-24T10:17:53Z</time>
      </trkpt>
      <trkpt lat="41.608611740" lon="2.482115190">
        <ele>412.06</ele>
        <time>2016-03-24T10:18:02Z</time>
      </trkpt>
      <trkpt lat="41.608709560" lon="2.482300090">
        <ele>413.02</ele>
        <time>2016-03-24T10:18:09Z</time>
      </trkpt>
      <trkpt lat="41.608888510" lon="2.482374940">
        <ele>413.50</ele>
        <time>2016-03-24T10:18:16Z</time>
      </trkpt>
      <trkpt lat="41.609039720" lon="2.482481230">
        <ele>414.47</ele>
        <time>2016-03-24T10:18:22Z</time>
      </trkpt>
      <trkpt lat="41.609152710" lon="2.482623380">
        <ele>415.43</ele>
        <time>2016-03-24T10:18:28Z</time>
      </trkpt>
      <trkpt lat="41.609267620" lon="2.482801830">
        <ele>416.39</ele>
        <time>2016-03-24T10:18:35Z</time>
      </trkpt>
      <trkpt lat="41.609396290" lon="2.482997630">
        <ele>417.83</ele>
        <time>2016-03-24T10:18:43Z</time>
      </trkpt>
      <trkpt lat="41.609561330" lon="2.483244570">
        <ele>418.79</ele>
        <time>2016-03-24T10:18:52Z</time>
      </trkpt>
      <trkpt lat="41.609631230" lon="2.483399210">
        <ele>419.75</ele>
        <time>2016-03-24T10:18:57Z</time>
      </trkpt>
      <trkpt lat="41.609707760" lon="2.483737000">
        <ele>420.23</ele>
        <time>2016-03-24T10:19:06Z</time>
      </trkpt>
      <trkpt lat="41.609794850" lon="2.484056860">
        <ele>420.71</ele>
        <time>2016-03-24T10:19:14Z</time>
      </trkpt>
      <trkpt lat="41.609789820" lon="2.484365560">
        <ele>421.19</ele>
        <time>2016-03-24T10:19:21Z</time>
      </trkpt>
      <trkpt lat="41.609772050" lon="2.484460020">
        <ele>421.19</ele>
        <time>2016-03-24T10:19:23Z</time>
      </trkpt>
      <trkpt lat="41.609702480" lon="2.484755740">
        <ele>419.75</ele>
        <time>2016-03-24T10:19:28Z</time>
      </trkpt>
      <trkpt lat="41.609528800" lon="2.485012810">
        <ele>418.79</ele>
        <time>2016-03-24T10:19:33Z</time>
      </trkpt>
      <trkpt lat="41.609471470" lon="2.485050280">
        <ele>417.83</ele>
        <time>2016-03-24T10:19:34Z</time>
      </trkpt>
      <trkpt lat="41.609362260" lon="2.485111470">
        <ele>417.83</ele>
        <time>2016-03-24T10:19:36Z</time>
      </trkpt>
      <trkpt lat="41.609172740" lon="2.485418580">
        <ele>416.87</ele>
        <time>2016-03-24T10:19:41Z</time>
      </trkpt>
      <trkpt lat="41.609131080" lon="2.485801880">
        <ele>414.95</ele>
        <time>2016-03-24T10:19:45Z</time>
      </trkpt>
      <trkpt lat="41.609091020" lon="2.486002880">
        <ele>413.02</ele>
        <time>2016-03-24T10:19:47Z</time>
      </trkpt>
      <trkpt lat="41.608898230" lon="2.486314020">
        <ele>409.18</ele>
        <time>2016-03-24T10:19:51Z</time>
      </trkpt>
      <trkpt lat="41.608698490" lon="2.486465810">
        <ele>407.26</ele>
        <time>2016-03-24T10:19:54Z</time>
      </trkpt>
      <trkpt lat="41.608482660" lon="2.486624150">
        <ele>405.33</ele>
        <time>2016-03-24T10:19:57Z</time>
      </trkpt>
      <trkpt lat="41.608375870" lon="2.486844420">
        <ele>404.85</ele>
        <time>2016-03-24T10:20:01Z</time>
      </trkpt>
      <trkpt lat="41.608374110" lon="2.486901920">
        <ele>405.33</ele>
        <time>2016-03-24T10:20:02Z</time>
      </trkpt>
      <trkpt lat="41.608393060" lon="2.487219100">
        <ele>407.26</ele>
        <time>2016-03-24T10:20:10Z</time>
      </trkpt>
      <trkpt lat="41.608372350" lon="2.487557560">
        <ele>407.26</ele>
        <time>2016-03-24T10:20:18Z</time>
      </trkpt>
      <trkpt lat="41.608346700" lon="2.487928120">
        <ele>408.22</ele>
        <time>2016-03-24T10:20:26Z</time>
      </trkpt>
      <trkpt lat="41.608360280" lon="2.488275630">
        <ele>407.74</ele>
        <time>2016-03-24T10:20:33Z</time>
      </trkpt>
      <trkpt lat="41.608360450" lon="2.488590210">
        <ele>406.29</ele>
        <time>2016-03-24T10:20:38Z</time>
      </trkpt>
      <trkpt lat="41.608258690" lon="2.488968150">
        <ele>404.85</ele>
        <time>2016-03-24T10:20:43Z</time>
      </trkpt>
      <trkpt lat="41.607968850" lon="2.489242320">
        <ele>403.89</ele>
        <time>2016-03-24T10:20:48Z</time>
      </trkpt>
      <trkpt lat="41.607417740" lon="2.489476340">
        <ele>403.41</ele>
        <time>2016-03-24T10:20:57Z</time>
      </trkpt>
      <trkpt lat="41.607218080" lon="2.489578270">
        <ele>404.85</ele>
        <time>2016-03-24T10:21:03Z</time>
      </trkpt>
      <trkpt lat="41.607134430" lon="2.489623190">
        <ele>406.29</ele>
        <time>2016-03-24T10:21:08Z</time>
      </trkpt>
      <trkpt lat="41.607021690" lon="2.489647920">
        <ele>408.22</ele>
        <time>2016-03-24T10:21:15Z</time>
      </trkpt>
      <trkpt lat="41.606875340" lon="2.489642640">
        <ele>410.14</ele>
        <time>2016-03-24T10:21:23Z</time>
      </trkpt>
      <trkpt lat="41.606855560" lon="2.489640710">
        <ele>410.62</ele>
        <time>2016-03-24T10:21:24Z</time>
      </trkpt>
      <trkpt lat="41.606749950" lon="2.489619510">
        <ele>412.06</ele>
        <time>2016-03-24T10:21:30Z</time>
      </trkpt>
      <trkpt lat="41.606648610" lon="2.489650850">
        <ele>413.50</ele>
        <time>2016-03-24T10:21:37Z</time>
      </trkpt>
      <trkpt lat="41.606633440" lon="2.489694020">
        <ele>413.50</ele>
        <time>2016-03-24T10:21:39Z</time>
      </trkpt>
      <trkpt lat="41.606675350" lon="2.489908850">
        <ele>413.50</ele>
        <time>2016-03-24T10:21:46Z</time>
      </trkpt>
      <trkpt lat="41.606819350" lon="2.490010020">
        <ele>413.50</ele>
        <time>2016-03-24T10:21:52Z</time>
      </trkpt>
      <trkpt lat="41.607019510" lon="2.490048160">
        <ele>413.50</ele>
        <time>2016-03-24T10:21:59Z</time>
      </trkpt>
      <trkpt lat="41.607310110" lon="2.490067940">
        <ele>413.50</ele>
        <time>2016-03-24T10:22:06Z</time>
      </trkpt>
      <trkpt lat="41.607400640" lon="2.490091150">
        <ele>413.50</ele>
        <time>2016-03-24T10:22:08Z</time>
      </trkpt>
      <trkpt lat="41.607521510" lon="2.490158800">
        <ele>413.50</ele>
        <time>2016-03-24T10:22:11Z</time>
      </trkpt>
      <trkpt lat="41.607721670" lon="2.490330210">
        <ele>413.50</ele>
        <time>2016-03-24T10:22:16Z</time>
      </trkpt>
      <trkpt lat="41.607913950" lon="2.490579570">
        <ele>413.50</ele>
        <time>2016-03-24T10:22:22Z</time>
      </trkpt>
      <trkpt lat="41.607910090" lon="2.490791460">
        <ele>413.50</ele>
        <time>2016-03-24T10:22:26Z</time>
      </trkpt>
      <trkpt lat="41.607788800" lon="2.491040150">
        <ele>413.50</ele>
        <time>2016-03-24T10:22:31Z</time>
      </trkpt>
      <trkpt lat="41.607687300" lon="2.491192540">
        <ele>413.50</ele>
        <time>2016-03-24T10:22:34Z</time>
      </trkpt>
      <trkpt lat="41.607660140" lon="2.491424460">
        <ele>413.50</ele>
        <time>2016-03-24T10:22:38Z</time>
      </trkpt>
      <trkpt lat="41.607767260" lon="2.491498640">
        <ele>413.50</ele>
        <time>2016-03-24T10:22:41Z</time>
      </trkpt>
      <trkpt lat="41.607889470" lon="2.491528150">
        <ele>413.50</ele>
        <time>2016-03-24T10:22:44Z</time>
      </trkpt>
      <trkpt lat="41.608049980" lon="2.491764100">
        <ele>411.58</ele>
        <time>2016-03-24T10:22:49Z</time>
      </trkpt>
      <trkpt lat="41.608071190" lon="2.491833750">
        <ele>410.62</ele>
        <time>2016-03-24T10:22:50Z</time>
      </trkpt>
      <trkpt lat="41.608116540" lon="2.491977330">
        <ele>410.62</ele>
        <time>2016-03-24T10:22:52Z</time>
      </trkpt>
      <trkpt lat="41.608250310" lon="2.492285620">
        <ele>410.14</ele>
        <time>2016-03-24T10:22:57Z</time>
      </trkpt>
      <trkpt lat="41.608333210" lon="2.492386040">
        <ele>409.66</ele>
        <time>2016-03-24T10:22:59Z</time>
      </trkpt>
      <trkpt lat="41.608516520" lon="2.492459380">
        <ele>409.18</ele>
        <time>2016-03-24T10:23:03Z</time>
      </trkpt>
      <trkpt lat="41.608633530" lon="2.492318730">
        <ele>409.18</ele>
        <time>2016-03-24T10:23:07Z</time>
      </trkpt>
      <trkpt lat="41.608663290" lon="2.492128710">
        <ele>410.14</ele>
        <time>2016-03-24T10:23:12Z</time>
      </trkpt>
      <trkpt lat="41.608649290" lon="2.492035840">
        <ele>411.58</ele>
        <time>2016-03-24T10:23:17Z</time>
      </trkpt>
      <trkpt lat="41.608651390" lon="2.491787480">
        <ele>413.50</ele>
        <time>2016-03-24T10:23:25Z</time>
      </trkpt>
      <trkpt lat="41.608731100" lon="2.491529990">
        <ele>414.95</ele>
        <time>2016-03-24T10:23:33Z</time>
      </trkpt>
      <trkpt lat="41.608813740" lon="2.491368560">
        <ele>416.39</ele>
        <time>2016-03-24T10:23:39Z</time>
      </trkpt>
      <trkpt lat="41.608975930" lon="2.491228080">
        <ele>417.35</ele>
        <time>2016-03-24T10:23:47Z</time>
      </trkpt>
      <trkpt lat="41.609173910" lon="2.491177870">
        <ele>419.75</ele>
        <time>2016-03-24T10:23:55Z</time>
      </trkpt>
      <trkpt lat="41.609401900" lon="2.491145770">
        <ele>421.68</ele>
        <time>2016-03-24T10:24:04Z</time>
      </trkpt>
      <trkpt lat="41.609560990" lon="2.490952480">
        <ele>422.64</ele>
        <time>2016-03-24T10:24:12Z</time>
      </trkpt>
      <trkpt lat="41.609618240" lon="2.490678220">
        <ele>424.08</ele>
        <time>2016-03-24T10:24:20Z</time>
      </trkpt>
      <trkpt lat="41.609679930" lon="2.490283270">
        <ele>425.04</ele>
        <time>2016-03-24T10:24:30Z</time>
      </trkpt>
      <trkpt lat="41.609755620" lon="2.489942380">
        <ele>425.04</ele>
        <time>2016-03-24T10:24:38Z</time>
      </trkpt>
      <trkpt lat="41.609824010" lon="2.489810030">
        <ele>425.04</ele>
        <time>2016-03-24T10:24:41Z</time>
      </trkpt>
      <trkpt lat="41.609893170" lon="2.489668870">
        <ele>424.08</ele>
        <time>2016-03-24T10:24:44Z</time>
      </trkpt>
      <trkpt lat="41.610012770" lon="2.489490760">
        <ele>424.08</ele>
        <time>2016-03-24T10:24:48Z</time>
      </trkpt>
      <trkpt lat="41.610125760" lon="2.489370400">
        <ele>423.60</ele>
        <time>2016-03-24T10:24:51Z</time>
      </trkpt>
      <trkpt lat="41.610307060" lon="2.489338710">
        <ele>423.60</ele>
        <time>2016-03-24T10:24:55Z</time>
      </trkpt>
      <trkpt lat="41.610415690" lon="2.489499730">
        <ele>423.12</ele>
        <time>2016-03-24T10:24:58Z</time>
      </trkpt>
      <trkpt lat="41.610528010" lon="2.489816980">
        <ele>422.16</ele>
        <time>2016-03-24T10:25:02Z</time>
      </trkpt>
      <trkpt lat="41.610615940" lon="2.489980260">
        <ele>421.68</ele>
        <time>2016-03-24T10:25:04Z</time>
      </trkpt>
      <trkpt lat="41.610688690" lon="2.490341100">
        <ele>420.71</ele>
        <time>2016-03-24T10:25:08Z</time>
      </trkpt>
      <trkpt lat="41.610676290" lon="2.490534980">
        <ele>420.23</ele>
        <time>2016-03-24T10:25:10Z</time>
      </trkpt>
      <trkpt lat="41.610675700" lon="2.490718880">
        <ele>420.23</ele>
        <time>2016-03-24T10:25:12Z</time>
      </trkpt>
      <trkpt lat="41.610644690" lon="2.491152640">
        <ele>419.27</ele>
        <time>2016-03-24T10:25:17Z</time>
      </trkpt>
      <trkpt lat="41.610790360" lon="2.491484810">
        <ele>419.27</ele>
        <time>2016-03-24T10:25:22Z</time>
      </trkpt>
      <trkpt lat="41.610821540" lon="2.491534180">
        <ele>419.75</ele>
        <time>2016-03-24T10:25:23Z</time>
      </trkpt>
      <trkpt lat="41.610858590" lon="2.491837110">
        <ele>419.75</ele>
        <time>2016-03-24T10:25:29Z</time>
      </trkpt>
      <trkpt lat="41.610864380" lon="2.491884460">
        <ele>419.75</ele>
        <time>2016-03-24T10:25:30Z</time>
      </trkpt>
      <trkpt lat="41.610829260" lon="2.492270530">
        <ele>420.71</ele>
        <time>2016-03-24T10:25:38Z</time>
      </trkpt>
      <trkpt lat="41.610843920" lon="2.492650490">
        <ele>421.19</ele>
        <time>2016-03-24T10:25:45Z</time>
      </trkpt>
      <trkpt lat="41.610917850" lon="2.492933710">
        <ele>421.68</ele>
        <time>2016-03-24T10:25:51Z</time>
      </trkpt>
      <trkpt lat="41.610997820" lon="2.493272170">
        <ele>422.64</ele>
        <time>2016-03-24T10:25:58Z</time>
      </trkpt>
      <trkpt lat="41.611028490" lon="2.493375270">
        <ele>422.64</ele>
        <time>2016-03-24T10:26:00Z</time>
      </trkpt>
      <trkpt lat="41.611244410" lon="2.493679110">
        <ele>423.12</ele>
        <time>2016-03-24T10:26:07Z</time>
      </trkpt>
      <trkpt lat="41.611367290" lon="2.493917910">
        <ele>423.60</ele>
        <time>2016-03-24T10:26:12Z</time>
      </trkpt>
      <trkpt lat="41.611443730" lon="2.494169960">
        <ele>423.60</ele>
        <time>2016-03-24T10:26:16Z</time>
      </trkpt>
      <trkpt lat="41.611485810" lon="2.494287390">
        <ele>423.60</ele>
        <time>2016-03-24T10:26:18Z</time>
      </trkpt>
      <trkpt lat="41.611537530" lon="2.494557700">
        <ele>423.60</ele>
        <time>2016-03-24T10:26:23Z</time>
      </trkpt>
      <trkpt lat="41.611572140" lon="2.494845290">
        <ele>423.60</ele>
        <time>2016-03-24T10:26:28Z</time>
      </trkpt>
      <trkpt lat="41.611623690" lon="2.495312410">
        <ele>423.60</ele>
        <time>2016-03-24T10:26:36Z</time>
      </trkpt>
      <trkpt lat="41.611634000" lon="2.495428000">
        <ele>423.60</ele>
        <time>2016-03-24T10:26:38Z</time>
      </trkpt>
      <trkpt lat="41.611696950" lon="2.495650370">
        <ele>423.60</ele>
        <time>2016-03-24T10:26:42Z</time>
      </trkpt>
      <trkpt lat="41.611886210" lon="2.495737460">
        <ele>423.60</ele>
        <time>2016-03-24T10:26:47Z</time>
      </trkpt>
      <trkpt lat="41.611970030" lon="2.495859920">
        <ele>423.60</ele>
        <time>2016-03-24T10:26:52Z</time>
      </trkpt>
      <trkpt lat="41.611957880" lon="2.495894370">
        <ele>423.60</ele>
        <time>2016-03-24T10:26:53Z</time>
      </trkpt>
      <trkpt lat="41.611834080" lon="2.496056640">
        <ele>423.60</ele>
        <time>2016-03-24T10:26:59Z</time>
      </trkpt>
      <trkpt lat="41.611721430" lon="2.496170550">
        <ele>425.04</ele>
        <time>2016-03-24T10:27:05Z</time>
      </trkpt>
      <trkpt lat="41.611636180" lon="2.496309520">
        <ele>425.52</ele>
        <time>2016-03-24T10:27:10Z</time>
      </trkpt>
      <trkpt lat="41.611480530" lon="2.496446980">
        <ele>424.08</ele>
        <time>2016-03-24T10:27:14Z</time>
      </trkpt>
      <trkpt lat="41.611287910" lon="2.496550420">
        <ele>423.60</ele>
        <time>2016-03-24T10:27:18Z</time>
      </trkpt>
      <trkpt lat="41.611079120" lon="2.496727280">
        <ele>423.60</ele>
        <time>2016-03-24T10:27:24Z</time>
      </trkpt>
      <trkpt lat="41.610971080" lon="2.496845710">
        <ele>425.04</ele>
        <time>2016-03-24T10:27:29Z</time>
      </trkpt>
      <trkpt lat="41.610871840" lon="2.496959870">
        <ele>426.96</ele>
        <time>2016-03-24T10:27:36Z</time>
      </trkpt>
      <trkpt lat="41.610777710" lon="2.497115440">
        <ele>428.89</ele>
        <time>2016-03-24T10:27:45Z</time>
      </trkpt>
      <trkpt lat="41.610673520" lon="2.497235300">
        <ele>430.33</ele>
        <time>2016-03-24T10:27:53Z</time>
      </trkpt>
      <trkpt lat="41.610503870" lon="2.497392300">
        <ele>431.77</ele>
        <time>2016-03-24T10:28:04Z</time>
      </trkpt>
      <trkpt lat="41.610416030" lon="2.497552390">
        <ele>433.21</ele>
        <time>2016-03-24T10:28:13Z</time>
      </trkpt>
      <trkpt lat="41.610399850" lon="2.497600590">
        <ele>433.69</ele>
        <time>2016-03-24T10:28:16Z</time>
      </trkpt>
      <trkpt lat="41.610373780" lon="2.497718180">
        <ele>436.10</ele>
        <time>2016-03-24T10:28:23Z</time>
      </trkpt>
      <trkpt lat="41.610360290" lon="2.497782560">
        <ele>437.54</ele>
        <time>2016-03-24T10:28:27Z</time>
      </trkpt>
      <trkpt lat="41.610263730" lon="2.497879700">
        <ele>439.94</ele>
        <time>2016-03-24T10:28:37Z</time>
      </trkpt>
      <trkpt lat="41.610219220" lon="2.497919350">
        <ele>440.90</ele>
        <time>2016-03-24T10:28:41Z</time>
      </trkpt>
      <trkpt lat="41.610147560" lon="2.498018510">
        <ele>442.34</ele>
        <time>2016-03-24T10:28:49Z</time>
      </trkpt>
      <trkpt lat="41.610080750" lon="2.498138620">
        <ele>443.79</ele>
        <time>2016-03-24T10:28:58Z</time>
      </trkpt>
      <trkpt lat="41.610065080" lon="2.498230230">
        <ele>445.23</ele>
        <time>2016-03-24T10:29:04Z</time>
      </trkpt>
      <trkpt lat="41.610103220" lon="2.498305420">
        <ele>446.67</ele>
        <time>2016-03-24T10:29:10Z</time>
      </trkpt>
      <trkpt lat="41.610180250" lon="2.498327800">
        <ele>449.07</ele>
        <time>2016-03-24T10:29:18Z</time>
      </trkpt>
      <trkpt lat="41.610248980" lon="2.498289080">
        <ele>450.03</ele>
        <time>2016-03-24T10:29:25Z</time>
      </trkpt>
      <trkpt lat="41.610259290" lon="2.498284800">
        <ele>450.03</ele>
        <time>2016-03-24T10:29:26Z</time>
      </trkpt>
      <trkpt lat="41.610304050" lon="2.498252780">
        <ele>450.52</ele>
        <time>2016-03-24T10:29:30Z</time>
      </trkpt>
      <trkpt lat="41.610358280" lon="2.498231580">
        <ele>451.48</ele>
        <time>2016-03-24T10:29:34Z</time>
      </trkpt>
      <trkpt lat="41.610433210" lon="2.498216070">
        <ele>451.48</ele>
        <time>2016-03-24T10:29:39Z</time>
      </trkpt>
      <trkpt lat="41.610528180" lon="2.498213470">
        <ele>450.03</ele>
        <time>2016-03-24T10:29:42Z</time>
      </trkpt>
      <trkpt lat="41.610613840" lon="2.498256720">
        <ele>449.55</ele>
        <time>2016-03-24T10:29:44Z</time>
      </trkpt>
      <trkpt lat="41.610687270" lon="2.498305000">
        <ele>450.52</ele>
        <time>2016-03-24T10:29:48Z</time>
      </trkpt>
      <trkpt lat="41.610791710" lon="2.498396200">
        <ele>451.00</ele>
        <time>2016-03-24T10:29:54Z</time>
      </trkpt>
      <trkpt lat="41.610938810" lon="2.498527790">
        <ele>451.00</ele>
        <time>2016-03-24T10:29:59Z</time>
      </trkpt>
      <trkpt lat="41.611048950" lon="2.498687470">
        <ele>449.07</ele>
        <time>2016-03-24T10:30:03Z</time>
      </trkpt>
      <trkpt lat="41.611089770" lon="2.498868100">
        <ele>447.63</ele>
        <time>2016-03-24T10:30:06Z</time>
      </trkpt>
      <trkpt lat="41.611111810" lon="2.498916960">
        <ele>447.15</ele>
        <time>2016-03-24T10:30:07Z</time>
      </trkpt>
      <trkpt lat="41.611114830" lon="2.499186690">
        <ele>446.19</ele>
        <time>2016-03-24T10:30:12Z</time>
      </trkpt>
      <trkpt lat="41.611113070" lon="2.499238750">
        <ele>447.63</ele>
        <time>2016-03-24T10:30:14Z</time>
      </trkpt>
      <trkpt lat="41.611111390" lon="2.499307480">
        <ele>450.03</ele>
        <time>2016-03-24T10:30:18Z</time>
      </trkpt>
      <trkpt lat="41.611123710" lon="2.499395150">
        <ele>451.00</ele>
        <time>2016-03-24T10:30:22Z</time>
      </trkpt>
      <trkpt lat="41.611157990" lon="2.499547030">
        <ele>453.40</ele>
        <time>2016-03-24T10:30:29Z</time>
      </trkpt>
      <trkpt lat="41.611169980" lon="2.499663540">
        <ele>455.32</ele>
        <time>2016-03-24T10:30:37Z</time>
      </trkpt>
      <trkpt lat="41.611159340" lon="2.499807710">
        <ele>455.32</ele>
        <time>2016-03-24T10:30:44Z</time>
      </trkpt>
      <trkpt lat="41.611135450" lon="2.499970400">
        <ele>455.80</ele>
        <time>2016-03-24T10:30:53Z</time>
      </trkpt>
      <trkpt lat="41.611101080" lon="2.500116500">
        <ele>456.76</ele>
        <time>2016-03-24T10:31:02Z</time>
      </trkpt>
      <trkpt lat="41.611046100" lon="2.500259910">
        <ele>458.21</ele>
        <time>2016-03-24T10:31:11Z</time>
      </trkpt>
      <trkpt lat="41.611006700" lon="2.500389500">
        <ele>459.17</ele>
        <time>2016-03-24T10:31:18Z</time>
      </trkpt>
      <trkpt lat="41.610958920" lon="2.500549760">
        <ele>460.13</ele>
        <time>2016-03-24T10:31:26Z</time>
      </trkpt>
      <trkpt lat="41.610878370" lon="2.500696190">
        <ele>461.57</ele>
        <time>2016-03-24T10:31:34Z</time>
      </trkpt>
      <trkpt lat="41.610768150" lon="2.500776240">
        <ele>463.49</ele>
        <time>2016-03-24T10:31:43Z</time>
      </trkpt>
      <trkpt lat="41.610601440" lon="2.500816890">
        <ele>464.45</ele>
        <time>2016-03-24T10:31:52Z</time>
      </trkpt>
      <trkpt lat="41.610546280" lon="2.500845300">
        <ele>463.01</ele>
        <time>2016-03-24T10:31:54Z</time>
      </trkpt>
      <trkpt lat="41.610368250" lon="2.500938090">
        <ele>460.61</ele>
        <time>2016-03-24T10:31:59Z</time>
      </trkpt>
      <trkpt lat="41.610339920" lon="2.500948570">
        <ele>460.13</ele>
        <time>2016-03-24T10:32:00Z</time>
      </trkpt>
      <trkpt lat="41.610162390" lon="2.501040350">
        <ele>457.72</ele>
        <time>2016-03-24T10:32:05Z</time>
      </trkpt>
      <trkpt lat="41.609933570" lon="2.501148060">
        <ele>454.36</ele>
        <time>2016-03-24T10:32:10Z</time>
      </trkpt>
      <trkpt lat="41.609900040" lon="2.501342690">
        <ele>452.92</ele>
        <time>2016-03-24T10:32:13Z</time>
      </trkpt>
      <trkpt lat="41.609889810" lon="2.501529100">
        <ele>451.96</ele>
        <time>2016-03-24T10:32:15Z</time>
      </trkpt>
      <trkpt lat="41.609863740" lon="2.501836460">
        <ele>448.59</ele>
        <time>2016-03-24T10:32:19Z</time>
      </trkpt>
      <trkpt lat="41.609839520" lon="2.502052550">
        <ele>446.19</ele>
        <time>2016-03-24T10:32:22Z</time>
      </trkpt>
      <trkpt lat="41.609709010" lon="2.502168220">
        <ele>444.75</ele>
        <time>2016-03-24T10:32:26Z</time>
      </trkpt>
      <trkpt lat="41.609607760" lon="2.502197560">
        <ele>444.27</ele>
        <time>2016-03-24T10:32:28Z</time>
      </trkpt>
      <trkpt lat="41.609439540" lon="2.502203510">
        <ele>442.82</ele>
        <time>2016-03-24T10:32:31Z</time>
      </trkpt>
      <trkpt lat="41.609334340" lon="2.502247930">
        <ele>442.34</ele>
        <time>2016-03-24T10:32:33Z</time>
      </trkpt>
      <trkpt lat="41.609164780" lon="2.502400650">
        <ele>440.90</ele>
        <time>2016-03-24T10:32:37Z</time>
      </trkpt>
      <trkpt lat="41.609118680" lon="2.502494190">
        <ele>440.90</ele>
        <time>2016-03-24T10:32:40Z</time>
      </trkpt>
      <trkpt lat="41.609112220" lon="2.502612380">
        <ele>440.90</ele>
        <time>2016-03-24T10:32:44Z</time>
      </trkpt>
      <trkpt lat="41.609130660" lon="2.502751600">
        <ele>442.34</ele>
        <time>2016-03-24T10:32:49Z</time>
      </trkpt>
      <trkpt lat="41.609138120" lon="2.502782950">
        <ele>442.82</ele>
        <time>2016-03-24T10:32:55Z</time>
      </trkpt>
      <trkpt lat="41.609143910" lon="2.502860230">
        <ele>442.82</ele>
        <time>2016-03-24T10:33:05Z</time>
      </trkpt>
      <trkpt lat="41.609175510" lon="2.502999700">
        <ele>439.94</ele>
        <time>2016-03-24T10:33:08Z</time>
      </trkpt>
      <trkpt lat="41.609246170" lon="2.503237670">
        <ele>438.02</ele>
        <time>2016-03-24T10:33:12Z</time>
      </trkpt>
      <trkpt lat="41.609362000" lon="2.503523320">
        <ele>433.69</ele>
        <time>2016-03-24T10:33:16Z</time>
      </trkpt>
      <trkpt lat="41.609418750" lon="2.503672860">
        <ele>431.77</ele>
        <time>2016-03-24T10:33:18Z</time>
      </trkpt>
      <trkpt lat="41.609464180" lon="2.503841580">
        <ele>431.29</ele>
        <time>2016-03-24T10:33:20Z</time>
      </trkpt>
      <trkpt lat="41.609581610" lon="2.504238300">
        <ele>429.37</ele>
        <time>2016-03-24T10:33:25Z</time>
      </trkpt>
      <trkpt lat="41.609686300" lon="2.504350280">
        <ele>429.37</ele>
        <time>2016-03-24T10:33:28Z</time>
      </trkpt>
      <trkpt lat="41.609721840" lon="2.504375760">
        <ele>429.37</ele>
        <time>2016-03-24T10:33:29Z</time>
      </trkpt>
      <trkpt lat="41.609866430" lon="2.504513230">
        <ele>429.37</ele>
        <time>2016-03-24T10:33:35Z</time>
      </trkpt>
      <trkpt lat="41.609986460" lon="2.504688320">
        <ele>429.37</ele>
        <time>2016-03-24T10:33:41Z</time>
      </trkpt>
      <trkpt lat="41.610024170" lon="2.504855880">
        <ele>426.48</ele>
        <time>2016-03-24T10:33:45Z</time>
      </trkpt>
      <trkpt lat="41.610095670" lon="2.505009690">
        <ele>423.60</ele>
        <time>2016-03-24T10:33:49Z</time>
      </trkpt>
      <trkpt lat="41.610128450" lon="2.505089560">
        <ele>422.16</ele>
        <time>2016-03-24T10:33:51Z</time>
      </trkpt>
      <trkpt lat="41.610142690" lon="2.505261810">
        <ele>419.75</ele>
        <time>2016-03-24T10:33:55Z</time>
      </trkpt>
      <trkpt lat="41.610171030" lon="2.505539760">
        <ele>415.91</ele>
        <time>2016-03-24T10:34:02Z</time>
      </trkpt>
      <trkpt lat="41.610186360" lon="2.505745620">
        <ele>413.50</ele>
        <time>2016-03-24T10:34:06Z</time>
      </trkpt>
      <trkpt lat="41.610166160" lon="2.506050970">
        <ele>410.62</ele>
        <time>2016-03-24T10:34:11Z</time>
      </trkpt>
      <trkpt lat="41.610130290" lon="2.506319270">
        <ele>407.26</ele>
        <time>2016-03-24T10:34:17Z</time>
      </trkpt>
      <trkpt lat="41.610123920" lon="2.506384570">
        <ele>405.33</ele>
        <time>2016-03-24T10:34:22Z</time>
      </trkpt>
      <trkpt lat="41.610081340" lon="2.506470650">
        <ele>402.93</ele>
        <time>2016-03-24T10:34:25Z</time>
      </trkpt>
      <trkpt lat="41.610020320" lon="2.506515910">
        <ele>401.97</ele>
        <time>2016-03-24T10:34:31Z</time>
      </trkpt>
      <trkpt lat="41.610000120" lon="2.506561510">
        <ele>401.49</ele>
        <time>2016-03-24T10:34:47Z</time>
      </trkpt>
      <trkpt lat="41.609998020" lon="2.506580960">
        <ele>401.49</ele>
        <time>2016-03-24T10:34:53Z</time>
      </trkpt>
      <trkpt lat="41.609840860" lon="2.506618680">
        <ele>399.57</ele>
        <time>2016-03-24T10:34:59Z</time>
      </trkpt>
      <trkpt lat="41.609718400" lon="2.506550360">
        <ele>398.12</ele>
        <time>2016-03-24T10:35:04Z</time>
      </trkpt>
      <trkpt lat="41.609613630" lon="2.506366720">
        <ele>396.68</ele>
        <time>2016-03-24T10:35:09Z</time>
      </trkpt>
      <trkpt lat="41.609319260" lon="2.506185830">
        <ele>394.28</ele>
        <time>2016-03-24T10:35:16Z</time>
      </trkpt>
      <trkpt lat="41.609237360" lon="2.506240740">
        <ele>393.80</ele>
        <time>2016-03-24T10:35:19Z</time>
      </trkpt>
      <trkpt lat="41.609217330" lon="2.506431170">
        <ele>393.80</ele>
        <time>2016-03-24T10:35:26Z</time>
      </trkpt>
      <trkpt lat="41.609214990" lon="2.506486410">
        <ele>395.24</ele>
        <time>2016-03-24T10:35:28Z</time>
      </trkpt>
      <trkpt lat="41.609219680" lon="2.506581040">
        <ele>397.16</ele>
        <time>2016-03-24T10:35:32Z</time>
      </trkpt>
      <trkpt lat="41.609214310" lon="2.506678100">
        <ele>397.16</ele>
        <time>2016-03-24T10:35:37Z</time>
      </trkpt>
      <trkpt lat="41.609159250" lon="2.506814390">
        <ele>397.64</ele>
        <time>2016-03-24T10:35:45Z</time>
      </trkpt>
      <trkpt lat="41.609106020" lon="2.506962840">
        <ele>397.64</ele>
        <time>2016-03-24T10:35:52Z</time>
      </trkpt>
      <trkpt lat="41.609092530" lon="2.507059060">
        <ele>398.60</ele>
        <time>2016-03-24T10:35:59Z</time>
      </trkpt>
      <trkpt lat="41.609094620" lon="2.507148410">
        <ele>398.60</ele>
        <time>2016-03-24T10:36:16Z</time>
      </trkpt>
      <trkpt lat="41.609080710" lon="2.507207500">
        <ele>398.60</ele>
        <time>2016-03-24T10:36:33Z</time>
      </trkpt>
      <trkpt lat="41.609054390" lon="2.507337590">
        <ele>399.08</ele>
        <time>2016-03-24T10:36:40Z</time>
      </trkpt>
      <trkpt lat="41.609043990" lon="2.507518810">
        <ele>399.08</ele>
        <time>2016-03-24T10:36:46Z</time>
      </trkpt>
      <trkpt lat="41.609050030" lon="2.507742940">
        <ele>399.08</ele>
        <time>2016-03-24T10:36:55Z</time>
      </trkpt>
      <trkpt lat="41.609068550" lon="2.507812090">
        <ele>399.08</ele>
        <time>2016-03-24T10:36:58Z</time>
      </trkpt>
      <trkpt lat="41.609089420" lon="2.507917790">
        <ele>399.08</ele>
        <time>2016-03-24T10:37:03Z</time>
      </trkpt>
      <trkpt lat="41.609161760" lon="2.508012170">
        <ele>399.08</ele>
        <time>2016-03-24T10:37:08Z</time>
      </trkpt>
      <trkpt lat="41.609192610" lon="2.508077710">
        <ele>399.08</ele>
        <time>2016-03-24T10:37:11Z</time>
      </trkpt>
      <trkpt lat="41.609347840" lon="2.508195310">
        <ele>399.08</ele>
        <time>2016-03-24T10:37:18Z</time>
      </trkpt>
      <trkpt lat="41.609438780" lon="2.508293720">
        <ele>398.12</ele>
        <time>2016-03-24T10:37:22Z</time>
      </trkpt>
      <trkpt lat="41.609452780" lon="2.508318020">
        <ele>397.64</ele>
        <time>2016-03-24T10:37:23Z</time>
      </trkpt>
      <trkpt lat="41.609521930" lon="2.508358260">
        <ele>397.16</ele>
        <time>2016-03-24T10:37:30Z</time>
      </trkpt>
      <trkpt lat="41.609535010" lon="2.508379880">
        <ele>397.16</ele>
        <time>2016-03-24T10:37:38Z</time>
      </trkpt>
      <trkpt lat="41.609574820" lon="2.508457330">
        <ele>396.68</ele>
        <time>2016-03-24T10:37:43Z</time>
      </trkpt>
      <trkpt lat="41.609782610" lon="2.508600070">
        <ele>396.20</ele>
        <time>2016-03-24T10:37:51Z</time>
      </trkpt>
      <trkpt lat="41.610014200" lon="2.508801410">
        <ele>395.72</ele>
        <time>2016-03-24T10:38:00Z</time>
      </trkpt>
      <trkpt lat="41.610199270" lon="2.508973740">
        <ele>395.72</ele>
        <time>2016-03-24T10:38:08Z</time>
      </trkpt>
      <trkpt lat="41.610279990" lon="2.509087150">
        <ele>395.72</ele>
        <time>2016-03-24T10:38:14Z</time>
      </trkpt>
      <trkpt lat="41.610394650" lon="2.509252440">
        <ele>396.68</ele>
        <time>2016-03-24T10:38:23Z</time>
      </trkpt>
      <trkpt lat="41.610512920" lon="2.509457210">
        <ele>398.60</ele>
        <time>2016-03-24T10:38:32Z</time>
      </trkpt>
      <trkpt lat="41.610591880" lon="2.509693160">
        <ele>400.05</ele>
        <time>2016-03-24T10:38:41Z</time>
      </trkpt>
      <trkpt lat="41.610658850" lon="2.509918460">
        <ele>401.97</ele>
        <time>2016-03-24T10:38:49Z</time>
      </trkpt>
      <trkpt lat="41.610727500" lon="2.510118290">
        <ele>401.49</ele>
        <time>2016-03-24T10:38:56Z</time>
      </trkpt>
      <trkpt lat="41.610839570" lon="2.510339320">
        <ele>401.49</ele>
        <time>2016-03-24T10:39:03Z</time>
      </trkpt>
      <trkpt lat="41.610916600" lon="2.510388440">
        <ele>400.05</ele>
        <time>2016-03-24T10:39:05Z</time>
      </trkpt>
      <trkpt lat="41.611083400" lon="2.510543670">
        <ele>398.12</ele>
        <time>2016-03-24T10:39:09Z</time>
      </trkpt>
      <trkpt lat="41.611218090" lon="2.510790680">
        <ele>397.16</ele>
        <time>2016-03-24T10:39:13Z</time>
      </trkpt>
      <trkpt lat="41.611391350" lon="2.511052200">
        <ele>395.72</ele>
        <time>2016-03-24T10:39:17Z</time>
      </trkpt>
      <trkpt lat="41.611626460" lon="2.511355460">
        <ele>394.28</ele>
        <time>2016-03-24T10:39:22Z</time>
      </trkpt>
      <trkpt lat="41.611715560" lon="2.511546900">
        <ele>394.28</ele>
        <time>2016-03-24T10:39:25Z</time>
      </trkpt>
      <trkpt lat="41.611895010" lon="2.511619400">
        <ele>392.84</ele>
        <time>2016-03-24T10:39:29Z</time>
      </trkpt>
      <trkpt lat="41.611943380" lon="2.511611610">
        <ele>391.39</ele>
        <time>2016-03-24T10:39:30Z</time>
      </trkpt>
      <trkpt lat="41.612038430" lon="2.511596180">
        <ele>390.43</ele>
        <time>2016-03-24T10:39:32Z</time>
      </trkpt>
      <trkpt lat="41.612187120" lon="2.511700120">
        <ele>386.59</ele>
        <time>2016-03-24T10:39:37Z</time>
      </trkpt>
      <trkpt lat="41.612310760" lon="2.511991220">
        <ele>382.26</ele>
        <time>2016-03-24T10:39:43Z</time>
      </trkpt>
      <trkpt lat="41.612425340" lon="2.512289120">
        <ele>380.82</ele>
        <time>2016-03-24T10:39:49Z</time>
      </trkpt>
      <trkpt lat="41.612505050" lon="2.512497490">
        <ele>380.34</ele>
        <time>2016-03-24T10:39:53Z</time>
      </trkpt>
      <trkpt lat="41.612578560" lon="2.512728920">
        <ele>380.34</ele>
        <time>2016-03-24T10:39:59Z</time>
      </trkpt>
      <trkpt lat="41.612581410" lon="2.512926900">
        <ele>379.38</ele>
        <time>2016-03-24T10:40:04Z</time>
      </trkpt>
      <trkpt lat="41.612605470" lon="2.513175670">
        <ele>379.86</ele>
        <time>2016-03-24T10:40:08Z</time>
      </trkpt>
      <trkpt lat="41.612545700" lon="2.513357470">
        <ele>379.38</ele>
        <time>2016-03-24T10:40:14Z</time>
      </trkpt>
      <trkpt lat="41.612442020" lon="2.513488990">
        <ele>379.38</ele>
        <time>2016-03-24T10:40:20Z</time>
      </trkpt>
      <trkpt lat="41.612405640" lon="2.513558220">
        <ele>379.38</ele>
        <time>2016-03-24T10:40:25Z</time>
      </trkpt>
      <trkpt lat="41.612358030" lon="2.513650920">
        <ele>379.38</ele>
        <time>2016-03-24T10:40:31Z</time>
      </trkpt>
      <trkpt lat="41.612264410" lon="2.513823840">
        <ele>378.90</ele>
        <time>2016-03-24T10:40:36Z</time>
      </trkpt>
      <trkpt lat="41.612166840" lon="2.514060630">
        <ele>378.90</ele>
        <time>2016-03-24T10:40:42Z</time>
      </trkpt>
      <trkpt lat="41.612136330" lon="2.514107820">
        <ele>378.90</ele>
        <time>2016-03-24T10:40:44Z</time>
      </trkpt>
      <trkpt lat="41.612089140" lon="2.514244950">
        <ele>379.86</ele>
        <time>2016-03-24T10:40:48Z</time>
      </trkpt>
      <trkpt lat="41.611999620" lon="2.514541920">
        <ele>378.90</ele>
        <time>2016-03-24T10:40:54Z</time>
      </trkpt>
      <trkpt lat="41.611883530" lon="2.514890440">
        <ele>378.42</ele>
        <time>2016-03-24T10:41:00Z</time>
      </trkpt>
      <trkpt lat="41.611822010" lon="2.515260750">
        <ele>377.94</ele>
        <time>2016-03-24T10:41:07Z</time>
      </trkpt>
      <trkpt lat="41.611797950" lon="2.515361500">
        <ele>377.94</ele>
        <time>2016-03-24T10:41:09Z</time>
      </trkpt>
      <trkpt lat="41.611842130" lon="2.515494860">
        <ele>378.90</ele>
        <time>2016-03-24T10:41:13Z</time>
      </trkpt>
      <trkpt lat="41.611901800" lon="2.515549760">
        <ele>379.86</ele>
        <time>2016-03-24T10:41:19Z</time>
      </trkpt>
      <trkpt lat="41.611909520" lon="2.515561500">
        <ele>379.86</ele>
        <time>2016-03-24T10:41:22Z</time>
      </trkpt>
      <trkpt lat="41.612000040" lon="2.515613710">
        <ele>379.86</ele>
        <time>2016-03-24T10:41:29Z</time>
      </trkpt>
      <trkpt lat="41.612105900" lon="2.515613210">
        <ele>377.94</ele>
        <time>2016-03-24T10:41:34Z</time>
      </trkpt>
      <trkpt lat="41.612247980" lon="2.515571220">
        <ele>376.01</ele>
        <time>2016-03-24T10:41:39Z</time>
      </trkpt>
      <trkpt lat="41.612300780" lon="2.515607090">
        <ele>374.57</ele>
        <time>2016-03-24T10:41:43Z</time>
      </trkpt>
      <trkpt lat="41.612256190" lon="2.515669870">
        <ele>371.69</ele>
        <time>2016-03-24T10:41:47Z</time>
      </trkpt>
      <trkpt lat="41.612198940" lon="2.515787050">
        <ele>370.24</ele>
        <time>2016-03-24T10:41:50Z</time>
      </trkpt>
      <trkpt lat="41.612100460" lon="2.516055780">
        <ele>366.88</ele>
        <time>2016-03-24T10:41:56Z</time>
      </trkpt>
      <trkpt lat="41.612052760" lon="2.516145460">
        <ele>365.92</ele>
        <time>2016-03-24T10:41:58Z</time>
      </trkpt>
      <trkpt lat="41.611929210" lon="2.516261300">
        <ele>364.48</ele>
        <time>2016-03-24T10:42:01Z</time>
      </trkpt>
      <trkpt lat="41.611874230" lon="2.516330280">
        <ele>363.52</ele>
        <time>2016-03-24T10:42:04Z</time>
      </trkpt>
      <trkpt lat="41.611865180" lon="2.516422480">
        <ele>362.55</ele>
        <time>2016-03-24T10:42:07Z</time>
      </trkpt>
      <trkpt lat="41.611859480" lon="2.516479900">
        <ele>361.59</ele>
        <time>2016-03-24T10:42:09Z</time>
      </trkpt>
      <trkpt lat="41.611875320" lon="2.516609740">
        <ele>359.67</ele>
        <time>2016-03-24T10:42:13Z</time>
      </trkpt>
      <trkpt lat="41.611847240" lon="2.516789780">
        <ele>358.71</ele>
        <time>2016-03-24T10:42:18Z</time>
      </trkpt>
      <trkpt lat="41.611846820" lon="2.516830680">
        <ele>358.71</ele>
        <time>2016-03-24T10:42:19Z</time>
      </trkpt>
      <trkpt lat="41.611843130" lon="2.517010640">
        <ele>357.75</ele>
        <time>2016-03-24T10:42:25Z</time>
      </trkpt>
      <trkpt lat="41.611826120" lon="2.517059510">
        <ele>357.75</ele>
        <time>2016-03-24T10:42:27Z</time>
      </trkpt>
      <trkpt lat="41.611785380" lon="2.517186240">
        <ele>356.31</ele>
        <time>2016-03-24T10:42:31Z</time>
      </trkpt>
      <trkpt lat="41.611737600" lon="2.517242990">
        <ele>353.90</ele>
        <time>2016-03-24T10:42:33Z</time>
      </trkpt>
      <trkpt lat="41.611709270" lon="2.517444150">
        <ele>351.98</ele>
        <time>2016-03-24T10:42:38Z</time>
      </trkpt>
      <trkpt lat="41.611679600" lon="2.517535770">
        <ele>351.02</ele>
        <time>2016-03-24T10:42:40Z</time>
      </trkpt>
      <trkpt lat="41.611631070" lon="2.517681780">
        <ele>349.10</ele>
        <time>2016-03-24T10:42:43Z</time>
      </trkpt>
      <trkpt lat="41.611610950" lon="2.517894180">
        <ele>345.25</ele>
        <time>2016-03-24T10:42:48Z</time>
      </trkpt>
      <trkpt lat="41.611607680" lon="2.517936760">
        <ele>345.25</ele>
        <time>2016-03-24T10:42:49Z</time>
      </trkpt>
      <trkpt lat="41.611605250" lon="2.517991070">
        <ele>344.77</ele>
        <time>2016-03-24T10:42:50Z</time>
      </trkpt>
      <trkpt lat="41.611591760" lon="2.518176150">
        <ele>342.85</ele>
        <time>2016-03-24T10:42:54Z</time>
      </trkpt>
      <trkpt lat="41.611605590" lon="2.518314530">
        <ele>340.44</ele>
        <time>2016-03-24T10:42:57Z</time>
      </trkpt>
      <trkpt lat="41.611600560" lon="2.518343110">
        <ele>340.44</ele>
        <time>2016-03-24T10:42:58Z</time>
      </trkpt>
      <trkpt lat="41.611623440" lon="2.518408410">
        <ele>339.00</ele>
        <time>2016-03-24T10:43:03Z</time>
      </trkpt>
      <trkpt lat="41.611642720" lon="2.518407400">
        <ele>338.52</ele>
        <time>2016-03-24T10:43:09Z</time>
      </trkpt>
      <trkpt lat="41.611676580" lon="2.518309250">
        <ele>337.56</ele>
        <time>2016-03-24T10:43:15Z</time>
      </trkpt>
      <trkpt lat="41.611797370" lon="2.518042040">
        <ele>334.20</ele>
        <time>2016-03-24T10:43:21Z</time>
      </trkpt>
      <trkpt lat="41.611839860" lon="2.517964420">
        <ele>332.75</ele>
        <time>2016-03-24T10:43:23Z</time>
      </trkpt>
      <trkpt lat="41.611936340" lon="2.517813130">
        <ele>329.87</ele>
        <time>2016-03-24T10:43:27Z</time>
      </trkpt>
      <trkpt lat="41.611962240" lon="2.517787980">
        <ele>329.39</ele>
        <time>2016-03-24T10:43:28Z</time>
      </trkpt>
      <trkpt lat="41.612174640" lon="2.517687900">
        <ele>327.95</ele>
        <time>2016-03-24T10:43:34Z</time>
      </trkpt>
      <trkpt lat="41.612217130" lon="2.517666440">
        <ele>326.99</ele>
        <time>2016-03-24T10:43:35Z</time>
      </trkpt>
      <trkpt lat="41.612371950" lon="2.517442560">
        <ele>325.54</ele>
        <time>2016-03-24T10:43:41Z</time>
      </trkpt>
      <trkpt lat="41.612423070" lon="2.517297470">
        <ele>324.58</ele>
        <time>2016-03-24T10:43:44Z</time>
      </trkpt>
      <trkpt lat="41.612466070" lon="2.517198150">
        <ele>324.58</ele>
        <time>2016-03-24T10:43:46Z</time>
      </trkpt>
      <trkpt lat="41.612501360" lon="2.517090020">
        <ele>323.62</ele>
        <time>2016-03-24T10:43:48Z</time>
      </trkpt>
      <trkpt lat="41.612673270" lon="2.516905200">
        <ele>323.14</ele>
        <time>2016-03-24T10:43:54Z</time>
      </trkpt>
      <trkpt lat="41.612944510" lon="2.516842670">
        <ele>321.22</ele>
        <time>2016-03-24T10:44:00Z</time>
      </trkpt>
      <trkpt lat="41.613032520" lon="2.516805960">
        <ele>319.78</ele>
        <time>2016-03-24T10:44:02Z</time>
      </trkpt>
      <trkpt lat="41.613097570" lon="2.516868070">
        <ele>317.85</ele>
        <time>2016-03-24T10:44:06Z</time>
      </trkpt>
      <trkpt lat="41.613025230" lon="2.516906870">
        <ele>316.89</ele>
        <time>2016-03-24T10:44:11Z</time>
      </trkpt>
      <trkpt lat="41.613012410" lon="2.516917770">
        <ele>316.89</ele>
        <time>2016-03-24T10:44:12Z</time>
      </trkpt>
      <trkpt lat="41.612903610" lon="2.516990950">
        <ele>315.93</ele>
        <time>2016-03-24T10:44:16Z</time>
      </trkpt>
      <trkpt lat="41.612822640" lon="2.517017350">
        <ele>315.45</ele>
        <time>2016-03-24T10:44:18Z</time>
      </trkpt>
      <trkpt lat="41.612735300" lon="2.517024980">
        <ele>315.45</ele>
        <time>2016-03-24T10:44:20Z</time>
      </trkpt>
      <trkpt lat="41.612600350" lon="2.517203340">
        <ele>314.01</ele>
        <time>2016-03-24T10:44:25Z</time>
      </trkpt>
      <trkpt lat="41.612570600" lon="2.517318260">
        <ele>314.01</ele>
        <time>2016-03-24T10:44:27Z</time>
      </trkpt>
      <trkpt lat="41.612565320" lon="2.517509870">
        <ele>313.05</ele>
        <time>2016-03-24T10:44:30Z</time>
      </trkpt>
      <trkpt lat="41.612541510" lon="2.517641210">
        <ele>312.57</ele>
        <time>2016-03-24T10:44:32Z</time>
      </trkpt>
      <trkpt lat="41.612497170" lon="2.517749590">
        <ele>311.60</ele>
        <time>2016-03-24T10:44:34Z</time>
      </trkpt>
      <trkpt lat="41.612436570" lon="2.517815050">
        <ele>309.68</ele>
        <time>2016-03-24T10:44:36Z</time>
      </trkpt>
      <trkpt lat="41.612331540" lon="2.518036340">
        <ele>306.32</ele>
        <time>2016-03-24T10:44:41Z</time>
      </trkpt>
      <trkpt lat="41.612296340" lon="2.518192910">
        <ele>303.43</ele>
        <time>2016-03-24T10:44:45Z</time>
      </trkpt>
      <trkpt lat="41.612345120" lon="2.518348480">
        <ele>301.51</ele>
        <time>2016-03-24T10:44:48Z</time>
      </trkpt>
      <trkpt lat="41.612388630" lon="2.518340180">
        <ele>300.55</ele>
        <time>2016-03-24T10:44:51Z</time>
      </trkpt>
      <trkpt lat="41.612395500" lon="2.518290390">
        <ele>299.11</ele>
        <time>2016-03-24T10:44:53Z</time>
      </trkpt>
      <trkpt lat="41.612523410" lon="2.518166840">
        <ele>296.22</ele>
        <time>2016-03-24T10:44:59Z</time>
      </trkpt>
      <trkpt lat="41.612631370" lon="2.518085620">
        <ele>292.86</ele>
        <time>2016-03-24T10:45:04Z</time>
      </trkpt>
      <trkpt lat="41.612729010" lon="2.518104310">
        <ele>289.49</ele>
        <time>2016-03-24T10:45:08Z</time>
      </trkpt>
      <trkpt lat="41.612855500" lon="2.518059220">
        <ele>285.65</ele>
        <time>2016-03-24T10:45:13Z</time>
      </trkpt>
      <trkpt lat="41.612878460" lon="2.518046650">
        <ele>285.65</ele>
        <time>2016-03-24T10:45:14Z</time>
      </trkpt>
      <trkpt lat="41.612986510" lon="2.517949500">
        <ele>283.25</ele>
        <time>2016-03-24T10:45:19Z</time>
      </trkpt>
      <trkpt lat="41.613073010" lon="2.517726790">
        <ele>281.80</ele>
        <time>2016-03-24T10:45:24Z</time>
      </trkpt>
      <trkpt lat="41.613230250" lon="2.517675830">
        <ele>281.80</ele>
        <time>2016-03-24T10:45:29Z</time>
      </trkpt>
      <trkpt lat="41.613335860" lon="2.517732580">
        <ele>281.32</ele>
        <time>2016-03-24T10:45:35Z</time>
      </trkpt>
      <trkpt lat="41.613400490" lon="2.517774490">
        <ele>280.84</ele>
        <time>2016-03-24T10:45:41Z</time>
      </trkpt>
      <trkpt lat="41.613537780" lon="2.517891500">
        <ele>278.92</ele>
        <time>2016-03-24T10:45:46Z</time>
      </trkpt>
      <trkpt lat="41.613680700" lon="2.517925860">
        <ele>277.00</ele>
        <time>2016-03-24T10:45:50Z</time>
      </trkpt>
      <trkpt lat="41.613753870" lon="2.517946820">
        <ele>275.07</ele>
        <time>2016-03-24T10:45:53Z</time>
      </trkpt>
      <trkpt lat="41.613778090" lon="2.517950000">
        <ele>274.59</ele>
        <time>2016-03-24T10:45:54Z</time>
      </trkpt>
      <trkpt lat="41.613819580" lon="2.517940110">
        <ele>273.63</ele>
        <time>2016-03-24T10:45:56Z</time>
      </trkpt>
      <trkpt lat="41.613938360" lon="2.517964000">
        <ele>270.75</ele>
        <time>2016-03-24T10:46:00Z</time>
      </trkpt>
      <trkpt lat="41.614087970" lon="2.517991740">
        <ele>266.90</ele>
        <time>2016-03-24T10:46:07Z</time>
      </trkpt>
      <trkpt lat="41.614246980" lon="2.517994090">
        <ele>264.02</ele>
        <time>2016-03-24T10:46:13Z</time>
      </trkpt>
      <trkpt lat="41.614373460" lon="2.517984960">
        <ele>262.10</ele>
        <time>2016-03-24T10:46:17Z</time>
      </trkpt>
      <trkpt lat="41.614533470" lon="2.517954780">
        <ele>258.73</ele>
        <time>2016-03-24T10:46:22Z</time>
      </trkpt>
      <trkpt lat="41.614626840" lon="2.517931310">
        <ele>257.29</ele>
        <time>2016-03-24T10:46:25Z</time>
      </trkpt>
      <trkpt lat="41.614701700" lon="2.517838440">
        <ele>255.37</ele>
        <time>2016-03-24T10:46:29Z</time>
      </trkpt>
      <trkpt lat="41.614753410" lon="2.517757140">
        <ele>253.93</ele>
        <time>2016-03-24T10:46:33Z</time>
      </trkpt>
      <trkpt lat="41.614804630" lon="2.517605420">
        <ele>251.52</ele>
        <time>2016-03-24T10:46:37Z</time>
      </trkpt>
      <trkpt lat="41.614877460" lon="2.517397800">
        <ele>247.68</ele>
        <time>2016-03-24T10:46:41Z</time>
      </trkpt>
      <trkpt lat="41.614934460" lon="2.517128240">
        <ele>245.27</ele>
        <time>2016-03-24T10:46:46Z</time>
      </trkpt>
      <trkpt lat="41.614956250" lon="2.516949370">
        <ele>244.31</ele>
        <time>2016-03-24T10:46:50Z</time>
      </trkpt>
      <trkpt lat="41.615031440" lon="2.516911820">
        <ele>242.39</ele>
        <time>2016-03-24T10:46:54Z</time>
      </trkpt>
      <trkpt lat="41.615050470" lon="2.517083730">
        <ele>240.47</ele>
        <time>2016-03-24T10:46:59Z</time>
      </trkpt>
      <trkpt lat="41.615072510" lon="2.517312140">
        <ele>239.51</ele>
        <time>2016-03-24T10:47:05Z</time>
      </trkpt>
      <trkpt lat="41.615060520" lon="2.517406770">
        <ele>239.02</ele>
        <time>2016-03-24T10:47:07Z</time>
      </trkpt>
      <trkpt lat="41.615141410" lon="2.517436190">
        <ele>236.62</ele>
        <time>2016-03-24T10:47:11Z</time>
      </trkpt>
      <trkpt lat="41.615170080" lon="2.517254470">
        <ele>234.22</ele>
        <time>2016-03-24T10:47:16Z</time>
      </trkpt>
      <trkpt lat="41.615177200" lon="2.517161600">
        <ele>233.74</ele>
        <time>2016-03-24T10:47:18Z</time>
      </trkpt>
      <trkpt lat="41.615282310" lon="2.517116090">
        <ele>231.33</ele>
        <time>2016-03-24T10:47:23Z</time>
      </trkpt>
      <trkpt lat="41.615284570" lon="2.517199240">
        <ele>230.37</ele>
        <time>2016-03-24T10:47:25Z</time>
      </trkpt>
      <trkpt lat="41.615320200" lon="2.517446080">
        <ele>228.93</ele>
        <time>2016-03-24T10:47:29Z</time>
      </trkpt>
      <trkpt lat="41.615306110" lon="2.517735760">
        <ele>225.57</ele>
        <time>2016-03-24T10:47:34Z</time>
      </trkpt>
      <trkpt lat="41.615331760" lon="2.517763670">
        <ele>225.09</ele>
        <time>2016-03-24T10:47:36Z</time>
      </trkpt>
      <trkpt lat="41.615426390" lon="2.517567030">
        <ele>221.72</ele>
        <time>2016-03-24T10:47:41Z</time>
      </trkpt>
      <trkpt lat="41.615531420" lon="2.517415070">
        <ele>220.28</ele>
        <time>2016-03-24T10:47:47Z</time>
      </trkpt>
      <trkpt lat="41.615578610" lon="2.517328820">
        <ele>219.32</ele>
        <time>2016-03-24T10:47:54Z</time>
      </trkpt>
      <trkpt lat="41.615626810" lon="2.517112820">
        <ele>217.40</ele>
        <time>2016-03-24T10:47:58Z</time>
      </trkpt>
      <trkpt lat="41.615673660" lon="2.516897570">
        <ele>214.03</ele>
        <time>2016-03-24T10:48:03Z</time>
      </trkpt>
      <trkpt lat="41.615762680" lon="2.516832110">
        <ele>212.11</ele>
        <time>2016-03-24T10:48:07Z</time>
      </trkpt>
      <trkpt lat="41.615895190" lon="2.516872840">
        <ele>209.22</ele>
        <time>2016-03-24T10:48:11Z</time>
      </trkpt>
      <trkpt lat="41.616005580" lon="2.517092280">
        <ele>207.30</ele>
        <time>2016-03-24T10:48:15Z</time>
      </trkpt>
      <trkpt lat="41.616040960" lon="2.517588740">
        <ele>204.42</ele>
        <time>2016-03-24T10:48:22Z</time>
      </trkpt>
      <trkpt lat="41.616048670" lon="2.517786470">
        <ele>203.94</ele>
        <time>2016-03-24T10:48:25Z</time>
      </trkpt>
      <trkpt lat="41.616078590" lon="2.518043460">
        <ele>202.98</ele>
        <time>2016-03-24T10:48:29Z</time>
      </trkpt>
      <trkpt lat="41.616123100" lon="2.518341770">
        <ele>201.05</ele>
        <time>2016-03-24T10:48:35Z</time>
      </trkpt>
      <trkpt lat="41.616142540" lon="2.518510500">
        <ele>200.57</ele>
        <time>2016-03-24T10:48:38Z</time>
      </trkpt>
      <trkpt lat="41.616221500" lon="2.518764980">
        <ele>199.61</ele>
        <time>2016-03-24T10:48:42Z</time>
      </trkpt>
      <trkpt lat="41.616294760" lon="2.519043250">
        <ele>199.13</ele>
        <time>2016-03-24T10:48:46Z</time>
      </trkpt>
      <trkpt lat="41.616322000" lon="2.519393530">
        <ele>196.73</ele>
        <time>2016-03-24T10:48:51Z</time>
      </trkpt>
      <trkpt lat="41.616310600" lon="2.519554300">
        <ele>196.25</ele>
        <time>2016-03-24T10:48:53Z</time>
      </trkpt>
      <trkpt lat="41.616329130" lon="2.519742640">
        <ele>195.28</ele>
        <time>2016-03-24T10:48:56Z</time>
      </trkpt>
      <trkpt lat="41.616271880" lon="2.520007510">
        <ele>193.84</ele>
        <time>2016-03-24T10:49:01Z</time>
      </trkpt>
      <trkpt lat="41.616238680" lon="2.520122340">
        <ele>193.84</ele>
        <time>2016-03-24T10:49:03Z</time>
      </trkpt>
      <trkpt lat="41.616090160" lon="2.520572700">
        <ele>191.92</ele>
        <time>2016-03-24T10:49:10Z</time>
      </trkpt>
      <trkpt lat="41.615967530" lon="2.521036220">
        <ele>190.96</ele>
        <time>2016-03-24T10:49:17Z</time>
      </trkpt>
      <trkpt lat="41.615944400" lon="2.521184160">
        <ele>190.96</ele>
        <time>2016-03-24T10:49:19Z</time>
      </trkpt>
      <trkpt lat="41.615850440" lon="2.521860500">
        <ele>189.52</ele>
        <time>2016-03-24T10:49:28Z</time>
      </trkpt>
      <trkpt lat="41.615830400" lon="2.522073060">
        <ele>188.56</ele>
        <time>2016-03-24T10:49:31Z</time>
      </trkpt>
      <trkpt lat="41.615800730" lon="2.522304900">
        <ele>187.11</ele>
        <time>2016-03-24T10:49:35Z</time>
      </trkpt>
      <trkpt lat="41.615770890" lon="2.522449410">
        <ele>187.11</ele>
        <time>2016-03-24T10:49:37Z</time>
      </trkpt>
      <trkpt lat="41.615720680" lon="2.522573800">
        <ele>186.63</ele>
        <time>2016-03-24T10:49:39Z</time>
      </trkpt>
      <trkpt lat="41.615621190" lon="2.522753340">
        <ele>185.19</ele>
        <time>2016-03-24T10:49:42Z</time>
      </trkpt>
      <trkpt lat="41.615523540" lon="2.523086270">
        <ele>184.71</ele>
        <time>2016-03-24T10:49:46Z</time>
      </trkpt>
      <trkpt lat="41.615486660" lon="2.523351380">
        <ele>183.75</ele>
        <time>2016-03-24T10:49:49Z</time>
      </trkpt>
      <trkpt lat="41.615524210" lon="2.523985560">
        <ele>181.35</ele>
        <time>2016-03-24T10:49:57Z</time>
      </trkpt>
      <trkpt lat="41.615515750" lon="2.524129140">
        <ele>180.38</ele>
        <time>2016-03-24T10:49:59Z</time>
      </trkpt>
      <trkpt lat="41.615485240" lon="2.524852250">
        <ele>178.94</ele>
        <time>2016-03-24T10:50:05Z</time>
      </trkpt>
      <trkpt lat="41.615467470" lon="2.525595300">
        <ele>176.54</ele>
        <time>2016-03-24T10:50:12Z</time>
      </trkpt>
      <trkpt lat="41.615528070" lon="2.526421010">
        <ele>174.14</ele>
        <time>2016-03-24T10:50:20Z</time>
      </trkpt>
      <trkpt lat="41.615491270" lon="2.527135650">
        <ele>172.21</ele>
        <time>2016-03-24T10:50:26Z</time>
      </trkpt>
      <trkpt lat="41.615432350" lon="2.527524650">
        <ele>170.29</ele>
        <time>2016-03-24T10:50:29Z</time>
      </trkpt>
      <trkpt lat="41.615231350" lon="2.528619580">
        <ele>167.41</ele>
        <time>2016-03-24T10:50:38Z</time>
      </trkpt>
      <trkpt lat="41.615178630" lon="2.528956450">
        <ele>166.93</ele>
        <time>2016-03-24T10:50:41Z</time>
      </trkpt>
      <trkpt lat="41.615176780" lon="2.529292650">
        <ele>165.96</ele>
        <time>2016-03-24T10:50:44Z</time>
      </trkpt>
      <trkpt lat="41.615166640" lon="2.529642170">
        <ele>164.52</ele>
        <time>2016-03-24T10:50:47Z</time>
      </trkpt>
      <trkpt lat="41.615173600" lon="2.530477180">
        <ele>162.12</ele>
        <time>2016-03-24T10:50:54Z</time>
      </trkpt>
      <trkpt lat="41.615131940" lon="2.531120990">
        <ele>159.72</ele>
        <time>2016-03-24T10:50:59Z</time>
      </trkpt>
      <trkpt lat="41.615126150" lon="2.531253680">
        <ele>159.72</ele>
        <time>2016-03-24T10:51:00Z</time>
      </trkpt>
      <trkpt lat="41.615173260" lon="2.531583340">
        <ele>158.27</ele>
        <time>2016-03-24T10:51:03Z</time>
      </trkpt>
      <trkpt lat="41.615193710" lon="2.532088760">
        <ele>155.87</ele>
        <time>2016-03-24T10:51:07Z</time>
      </trkpt>
      <trkpt lat="41.615173680" lon="2.532215580">
        <ele>155.87</ele>
        <time>2016-03-24T10:51:08Z</time>
      </trkpt>
      <trkpt lat="41.615132360" lon="2.532461340">
        <ele>154.91</ele>
        <time>2016-03-24T10:51:10Z</time>
      </trkpt>
      <trkpt lat="41.614834130" lon="2.533460210">
        <ele>152.51</ele>
        <time>2016-03-24T10:51:19Z</time>
      </trkpt>
      <trkpt lat="41.614660620" lon="2.534079380">
        <ele>150.10</ele>
        <time>2016-03-24T10:51:25Z</time>
      </trkpt>
      <trkpt lat="41.614626260" lon="2.534181810">
        <ele>150.10</ele>
        <time>2016-03-24T10:51:26Z</time>
      </trkpt>
      <trkpt lat="41.614470690" lon="2.534668380">
        <ele>147.70</ele>
        <time>2016-03-24T10:51:31Z</time>
      </trkpt>
      <trkpt lat="41.614327950" lon="2.535097870">
        <ele>146.26</ele>
        <time>2016-03-24T10:51:36Z</time>
      </trkpt>
      <trkpt lat="41.614090320" lon="2.535733050">
        <ele>143.37</ele>
        <time>2016-03-24T10:51:44Z</time>
      </trkpt>
      <trkpt lat="41.614011610" lon="2.535965900">
        <ele>142.89</ele>
        <time>2016-03-24T10:51:47Z</time>
      </trkpt>
      <trkpt lat="41.613968780" lon="2.536119120">
        <ele>142.41</ele>
        <time>2016-03-24T10:51:49Z</time>
      </trkpt>
      <trkpt lat="41.613883290" lon="2.536290030">
        <ele>141.93</ele>
        <time>2016-03-24T10:51:52Z</time>
      </trkpt>
      <trkpt lat="41.613731320" lon="2.536571740">
        <ele>140.49</ele>
        <time>2016-03-24T10:51:59Z</time>
      </trkpt>
      <trkpt lat="41.613730820" lon="2.536578610">
        <ele>140.01</ele>
        <time>2016-03-24T10:52:04Z</time>
      </trkpt>
      <trkpt lat="41.613725460" lon="2.536574510">
        <ele>140.01</ele>
        <time>2016-03-24T10:52:17Z</time>
      </trkpt>
      <trkpt lat="41.613697380" lon="2.536586490">
        <ele>140.01</ele>
        <time>2016-03-24T10:52:30Z</time>
      </trkpt>
      <trkpt lat="41.613609370" lon="2.536617420">
        <ele>140.01</ele>
        <time>2016-03-24T10:52:37Z</time>
      </trkpt>
      <trkpt lat="41.613608700" lon="2.536667210">
        <ele>140.01</ele>
        <time>2016-03-24T10:52:39Z</time>
      </trkpt>
      <trkpt lat="41.613623360" lon="2.536721610">
        <ele>140.01</ele>
        <time>2016-03-24T10:52:41Z</time>
      </trkpt>
      <trkpt lat="41.613573490" lon="2.536855890">
        <ele>140.01</ele>
        <time>2016-03-24T10:52:45Z</time>
      </trkpt>
      <trkpt lat="41.613373330" lon="2.537148000">
        <ele>139.53</ele>
        <time>2016-03-24T10:52:53Z</time>
      </trkpt>
      <trkpt lat="41.613214750" lon="2.537351090">
        <ele>139.05</ele>
        <time>2016-03-24T10:52:58Z</time>
      </trkpt>
      <trkpt lat="41.612922300" lon="2.537692490">
        <ele>138.09</ele>
        <time>2016-03-24T10:53:06Z</time>
      </trkpt>
      <trkpt lat="41.612764970" lon="2.537863140">
        <ele>136.64</ele>
        <time>2016-03-24T10:53:10Z</time>
      </trkpt>
      <trkpt lat="41.612564480" lon="2.538089120">
        <ele>136.16</ele>
        <time>2016-03-24T10:53:15Z</time>
      </trkpt>
      <trkpt lat="41.612391220" lon="2.538298500">
        <ele>135.68</ele>
        <time>2016-03-24T10:53:19Z</time>
      </trkpt>
      <trkpt lat="41.612216380" lon="2.538623040">
        <ele>134.72</ele>
        <time>2016-03-24T10:53:24Z</time>
      </trkpt>
      <trkpt lat="41.611988980" lon="2.539007860">
        <ele>132.80</ele>
        <time>2016-03-24T10:53:30Z</time>
      </trkpt>
      <trkpt lat="41.611892840" lon="2.539048260">
        <ele>131.84</ele>
        <time>2016-03-24T10:53:34Z</time>
      </trkpt>
      <trkpt lat="41.611856960" lon="2.538935860">
        <ele>131.84</ele>
        <time>2016-03-24T10:53:37Z</time>
      </trkpt>
      <trkpt lat="41.611824860" lon="2.538759750">
        <ele>133.28</ele>
        <time>2016-03-24T10:53:42Z</time>
      </trkpt>
      <trkpt lat="41.611677590" lon="2.538718930">
        <ele>134.72</ele>
        <time>2016-03-24T10:53:48Z</time>
      </trkpt>
      <trkpt lat="41.611478100" lon="2.538745590">
        <ele>134.72</ele>
        <time>2016-03-24T10:53:54Z</time>
      </trkpt>
      <trkpt lat="41.611440130" lon="2.538756230">
        <ele>132.80</ele>
        <time>2016-03-24T10:53:55Z</time>
      </trkpt>
      <trkpt lat="41.611342730" lon="2.538771570">
        <ele>132.32</ele>
        <time>2016-03-24T10:53:57Z</time>
      </trkpt>
      <trkpt lat="41.611250950" lon="2.538780540">
        <ele>132.32</ele>
        <time>2016-03-24T10:53:59Z</time>
      </trkpt>
      <trkpt lat="41.611155650" lon="2.538799820">
        <ele>131.36</ele>
        <time>2016-03-24T10:54:01Z</time>
      </trkpt>
      <trkpt lat="41.610738230" lon="2.538993940">
        <ele>129.43</ele>
        <time>2016-03-24T10:54:10Z</time>
      </trkpt>
      <trkpt lat="41.610628170" lon="2.539025540">
        <ele>128.95</ele>
        <time>2016-03-24T10:54:13Z</time>
      </trkpt>
      <trkpt lat="41.610530190" lon="2.538939880">
        <ele>128.47</ele>
        <time>2016-03-24T10:54:17Z</time>
      </trkpt>
      <trkpt lat="41.610405470" lon="2.538795210">
        <ele>131.36</ele>
        <time>2016-03-24T10:54:24Z</time>
      </trkpt>
      <trkpt lat="41.610304300" lon="2.538679040">
        <ele>132.80</ele>
        <time>2016-03-24T10:54:30Z</time>
      </trkpt>
      <trkpt lat="41.610150410" lon="2.538578620">
        <ele>133.76</ele>
        <time>2016-03-24T10:54:37Z</time>
      </trkpt>
      <trkpt lat="41.610007240" lon="2.538459770">
        <ele>136.16</ele>
        <time>2016-03-24T10:54:44Z</time>
      </trkpt>
      <trkpt lat="41.609845560" lon="2.538324650">
        <ele>138.09</ele>
        <time>2016-03-24T10:54:51Z</time>
      </trkpt>
      <trkpt lat="41.609782100" lon="2.538266900">
        <ele>138.09</ele>
        <time>2016-03-24T10:54:53Z</time>
      </trkpt>
      <trkpt lat="41.609528970" lon="2.538044610">
        <ele>134.72</ele>
        <time>2016-03-24T10:54:58Z</time>
      </trkpt>
      <trkpt lat="41.609233430" lon="2.537800700">
        <ele>131.36</ele>
        <time>2016-03-24T10:55:02Z</time>
      </trkpt>
      <trkpt lat="41.609073670" lon="2.537679830">
        <ele>130.40</ele>
        <time>2016-03-24T10:55:04Z</time>
      </trkpt>
      <trkpt lat="41.608842070" lon="2.537513360">
        <ele>129.43</ele>
        <time>2016-03-24T10:55:07Z</time>
      </trkpt>
      <trkpt lat="41.608665550" lon="2.537514290">
        <ele>129.43</ele>
        <time>2016-03-24T10:55:11Z</time>
      </trkpt>
      <trkpt lat="41.608644090" lon="2.537568940">
        <ele>129.43</ele>
        <time>2016-03-24T10:55:12Z</time>
      </trkpt>
      <trkpt lat="41.608449380" lon="2.538096660">
        <ele>127.99</ele>
        <time>2016-03-24T10:55:20Z</time>
      </trkpt>
      <trkpt lat="41.608374620" lon="2.538320540">
        <ele>126.55</ele>
        <time>2016-03-24T10:55:23Z</time>
      </trkpt>
      <trkpt lat="41.608286940" lon="2.538782550">
        <ele>123.67</ele>
        <time>2016-03-24T10:55:29Z</time>
      </trkpt>
      <trkpt lat="41.608271350" lon="2.538865780">
        <ele>122.71</ele>
        <time>2016-03-24T10:55:30Z</time>
      </trkpt>
      <trkpt lat="41.608121150" lon="2.539424100">
        <ele>120.30</ele>
        <time>2016-03-24T10:55:36Z</time>
      </trkpt>
      <trkpt lat="41.608018130" lon="2.539665750">
        <ele>118.86</ele>
        <time>2016-03-24T10:55:39Z</time>
      </trkpt>
      <trkpt lat="41.607944040" lon="2.539833140">
        <ele>118.38</ele>
        <time>2016-03-24T10:55:42Z</time>
      </trkpt>
      <trkpt lat="41.607768270" lon="2.540225580">
        <ele>116.94</ele>
        <time>2016-03-24T10:55:49Z</time>
      </trkpt>
      <trkpt lat="41.607718480" lon="2.540353660">
        <ele>116.94</ele>
        <time>2016-03-24T10:55:51Z</time>
      </trkpt>
      <trkpt lat="41.607582940" lon="2.540574600">
        <ele>115.50</ele>
        <time>2016-03-24T10:55:56Z</time>
      </trkpt>
      <trkpt lat="41.607483370" lon="2.540776520">
        <ele>115.50</ele>
        <time>2016-03-24T10:56:00Z</time>
      </trkpt>
      <trkpt lat="41.607259070" lon="2.540780970">
        <ele>115.01</ele>
        <time>2016-03-24T10:56:05Z</time>
      </trkpt>
      <trkpt lat="41.606884060" lon="2.540686330">
        <ele>114.05</ele>
        <time>2016-03-24T10:56:13Z</time>
      </trkpt>
      <trkpt lat="41.606485330" lon="2.540493720">
        <ele>112.61</ele>
        <time>2016-03-24T10:56:21Z</time>
      </trkpt>
      <trkpt lat="41.606278970" lon="2.540380390">
        <ele>112.13</ele>
        <time>2016-03-24T10:56:25Z</time>
      </trkpt>
      <trkpt lat="41.606086690" lon="2.540354910">
        <ele>111.65</ele>
        <time>2016-03-24T10:56:29Z</time>
      </trkpt>
      <trkpt lat="41.605940180" lon="2.540377210">
        <ele>111.17</ele>
        <time>2016-03-24T10:56:33Z</time>
      </trkpt>
      <trkpt lat="41.605947970" lon="2.540522130">
        <ele>111.17</ele>
        <time>2016-03-24T10:56:39Z</time>
      </trkpt>
      <trkpt lat="41.605992310" lon="2.540621040">
        <ele>111.17</ele>
        <time>2016-03-24T10:56:43Z</time>
      </trkpt>
      <trkpt lat="41.606109830" lon="2.540676950">
        <ele>112.13</ele>
        <time>2016-03-24T10:56:51Z</time>
      </trkpt>
      <trkpt lat="41.606277300" lon="2.540714580">
        <ele>112.61</ele>
        <time>2016-03-24T10:56:59Z</time>
      </trkpt>
      <trkpt lat="41.606443840" lon="2.540748860">
        <ele>113.57</ele>
        <time>2016-03-24T10:57:05Z</time>
      </trkpt>
      <trkpt lat="41.606516010" lon="2.540806450">
        <ele>113.57</ele>
        <time>2016-03-24T10:57:08Z</time>
      </trkpt>
      <trkpt lat="41.606602850" lon="2.540974840">
        <ele>114.05</ele>
        <time>2016-03-24T10:57:13Z</time>
      </trkpt>
      <trkpt lat="41.606672250" lon="2.541242890">
        <ele>115.98</ele>
        <time>2016-03-24T10:57:21Z</time>
      </trkpt>
      <trkpt lat="41.606680380" lon="2.541501810">
        <ele>117.90</ele>
        <time>2016-03-24T10:57:28Z</time>
      </trkpt>
      <trkpt lat="41.606796550" lon="2.541814540">
        <ele>119.34</ele>
        <time>2016-03-24T10:57:36Z</time>
      </trkpt>
      <trkpt lat="41.606927900" lon="2.542088460">
        <ele>121.26</ele>
        <time>2016-03-24T10:57:43Z</time>
      </trkpt>
      <trkpt lat="41.607035100" lon="2.542313090">
        <ele>122.22</ele>
        <time>2016-03-24T10:57:50Z</time>
      </trkpt>
      <trkpt lat="41.607049190" lon="2.542339660">
        <ele>123.19</ele>
        <time>2016-03-24T10:57:51Z</time>
      </trkpt>
      <trkpt lat="41.607077680" lon="2.542378720">
        <ele>123.67</ele>
        <time>2016-03-24T10:57:57Z</time>
      </trkpt>
      <trkpt lat="41.607090340" lon="2.542397420">
        <ele>124.15</ele>
        <time>2016-03-24T10:58:04Z</time>
      </trkpt>
      <trkpt lat="41.607062090" lon="2.542462460">
        <ele>124.15</ele>
        <time>2016-03-24T10:58:19Z</time>
      </trkpt>
      <trkpt lat="41.607034180" lon="2.542497830">
        <ele>125.11</ele>
        <time>2016-03-24T10:58:37Z</time>
      </trkpt>
    </trkseg>
  </trk>
</gpx>
